<?xml version="1.0" encoding="UTF-8" standalone="no" ?>
<gpx xmlns="http://www.topografix.com/GPX/1/1" xmlns:xsi="http://www.w3.org/2001/XMLSchema-instance" xsi:schemaLocation="http://www.topografix.com/GPX/1/1 http://www.topografix.com/GPX/1/1/gpx.xsd" version="1.1" creator="VisuGPX - https://www.visugpx.com">
  <metadata>
    <name>Stevenson partie 2 jour 4</name>
    <desc><![CDATA[De Pont de Montvert à Florac]]></desc>
  </metadata>
  <wpt lat="44.31259" lon="3.62023">
    <ele>603</ele>
    <name><![CDATA[Pause à 17/6 09:26]]></name>
  </wpt>
  <wpt lat="44.30108" lon="3.66374">
    <ele>612</ele>
    <name><![CDATA[Pause à 17/6 10:51]]></name>
  </wpt>
  <wpt lat="44.23748" lon="3.74139">
    <ele>786</ele>
    <name><![CDATA[Pause à 17/6 16:41]]></name>
  </wpt>
  <wpt lat="44.30964" lon="3.63357">
    <ele>698</ele>
    <name><![CDATA[Pause à 17/6 09:57]]></name>
  </wpt>
  <wpt lat="44.25875" lon="3.72579">
    <ele>867</ele>
    <name><![CDATA[Calibré à 17/6 15:32]]></name>
  </wpt>
  <wpt lat="44.3033" lon="3.6536">
    <ele>713</ele>
    <name><![CDATA[Calibré à 17/6 10:31]]></name>
  </wpt>
  <wpt lat="44.31357" lon="3.623">
    <ele>625</ele>
    <name><![CDATA[Calibré à 17/6 09:31]]></name>
  </wpt>
  <wpt lat="44.27796" lon="3.71479">
    <ele>698</ele>
    <name><![CDATA[point d'accès à l'eau]]></name>
  </wpt>
  <wpt lat="44.23887" lon="3.73712">
    <ele>820</ele>
    <name><![CDATA[Calibré à 17/6 16:32]]></name>
  </wpt>
  <wpt lat="44.25745" lon="3.72472">
    <ele>900</ele>
    <name><![CDATA[Pause à 17/6 15:38]]></name>
  </wpt>
  <wpt lat="44.23703" lon="3.74102">
    <ele>781</ele>
    <name><![CDATA[Pause à 17/6 16:48]]></name>
  </wpt>
  <wpt lat="44.27794" lon="3.71473">
    <ele>698</ele>
    <name><![CDATA[Pause à 17/6 12:25]]></name>
  </wpt>
  <wpt lat="44.27179" lon="3.73034">
    <ele>707</ele>
    <name><![CDATA[Calibré à 17/6 14:32]]></name>
  </wpt>
  <wpt lat="44.27802" lon="3.71471">
    <ele>699</ele>
    <name><![CDATA[Pause à 17/6 13:35]]></name>
  </wpt>
  <wpt lat="44.28744" lon="3.68934">
    <ele>663</ele>
    <name><![CDATA[Pause à 17/6 11:49]]></name>
  </wpt>
  <wpt lat="44.27806" lon="3.71487">
    <ele>699</ele>
    <name><![CDATA[Calibré à 17/6 12:32]]></name>
  </wpt>
  <wpt lat="44.27167" lon="3.7304">
    <ele>707</ele>
    <name><![CDATA[Pause à 17/6 14:06]]></name>
  </wpt>
  <wpt lat="44.2952" lon="3.68379">
    <ele>670</ele>
    <name><![CDATA[Calibré à 17/6 11:32]]></name>
  </wpt>
  <wpt lat="44.27409" lon="3.72983">
    <ele>707</ele>
    <name><![CDATA[Pause à 17/6 13:57]]></name>
  </wpt>
  <wpt lat="44.27179" lon="3.73034">
    <ele>707</ele>
    <name><![CDATA[Pause à 17/6 14:35]]></name>
  </wpt>
  <trk>
    <name><![CDATA[Stevenson partie 2 jour 4_1]]></name>
    <trkseg>
      <trkpt lat="44.32082" lon="3.59716">
        <ele>549</ele>
        <time>2015-06-17T06:31:34Z</time>
      </trkpt>
      <trkpt lat="44.32106" lon="3.59724">
        <ele>549</ele>
        <time>2015-06-17T06:31:38Z</time>
      </trkpt>
      <trkpt lat="44.32083" lon="3.59715">
        <ele>549</ele>
        <time>2015-06-17T06:31:59Z</time>
      </trkpt>
      <trkpt lat="44.32073" lon="3.59712">
        <ele>549</ele>
        <time>2015-06-17T06:32:12Z</time>
      </trkpt>
      <trkpt lat="44.32066" lon="3.59709">
        <ele>549</ele>
        <time>2015-06-17T06:32:13Z</time>
      </trkpt>
      <trkpt lat="44.32059" lon="3.59707">
        <ele>549</ele>
        <time>2015-06-17T06:32:15Z</time>
      </trkpt>
      <trkpt lat="44.32054" lon="3.59711">
        <ele>549</ele>
        <time>2015-06-17T06:32:18Z</time>
      </trkpt>
      <trkpt lat="44.32047" lon="3.59722">
        <ele>549</ele>
        <time>2015-06-17T06:32:22Z</time>
      </trkpt>
      <trkpt lat="44.32041" lon="3.59727">
        <ele>549</ele>
        <time>2015-06-17T06:32:25Z</time>
      </trkpt>
      <trkpt lat="44.32035" lon="3.59726">
        <ele>549</ele>
        <time>2015-06-17T06:32:28Z</time>
      </trkpt>
      <trkpt lat="44.3203" lon="3.59724">
        <ele>549</ele>
        <time>2015-06-17T06:32:37Z</time>
      </trkpt>
      <trkpt lat="44.32027" lon="3.5973">
        <ele>549</ele>
        <time>2015-06-17T06:32:41Z</time>
      </trkpt>
      <trkpt lat="44.32022" lon="3.59731">
        <ele>549</ele>
        <time>2015-06-17T06:32:44Z</time>
      </trkpt>
      <trkpt lat="44.32018" lon="3.59736">
        <ele>549</ele>
        <time>2015-06-17T06:32:48Z</time>
      </trkpt>
      <trkpt lat="44.32013" lon="3.59735">
        <ele>549</ele>
        <time>2015-06-17T06:32:52Z</time>
      </trkpt>
      <trkpt lat="44.32008" lon="3.59732">
        <ele>549</ele>
        <time>2015-06-17T06:32:56Z</time>
      </trkpt>
      <trkpt lat="44.32003" lon="3.59735">
        <ele>549</ele>
        <time>2015-06-17T06:33:00Z</time>
      </trkpt>
      <trkpt lat="44.31999" lon="3.59737">
        <ele>549</ele>
        <time>2015-06-17T06:33:03Z</time>
      </trkpt>
      <trkpt lat="44.31995" lon="3.59742">
        <ele>549</ele>
        <time>2015-06-17T06:33:07Z</time>
      </trkpt>
      <trkpt lat="44.31977" lon="3.59754">
        <ele>549</ele>
        <time>2015-06-17T06:33:26Z</time>
      </trkpt>
      <trkpt lat="44.31973" lon="3.59752">
        <ele>548</ele>
        <time>2015-06-17T06:33:29Z</time>
      </trkpt>
      <trkpt lat="44.31969" lon="3.59748">
        <ele>550</ele>
        <time>2015-06-17T06:33:33Z</time>
      </trkpt>
      <trkpt lat="44.31964" lon="3.5975">
        <ele>550</ele>
        <time>2015-06-17T06:33:38Z</time>
      </trkpt>
      <trkpt lat="44.31959" lon="3.59753">
        <ele>548</ele>
        <time>2015-06-17T06:33:42Z</time>
      </trkpt>
      <trkpt lat="44.31954" lon="3.59754">
        <ele>548</ele>
        <time>2015-06-17T06:33:46Z</time>
      </trkpt>
      <trkpt lat="44.31949" lon="3.59756">
        <ele>548</ele>
        <time>2015-06-17T06:33:49Z</time>
      </trkpt>
      <trkpt lat="44.31944" lon="3.5976">
        <ele>548</ele>
        <time>2015-06-17T06:33:52Z</time>
      </trkpt>
      <trkpt lat="44.3194" lon="3.5976">
        <ele>548</ele>
        <time>2015-06-17T06:33:56Z</time>
      </trkpt>
      <trkpt lat="44.31935" lon="3.59762">
        <ele>548</ele>
        <time>2015-06-17T06:34:00Z</time>
      </trkpt>
      <trkpt lat="44.31925" lon="3.59771">
        <ele>548</ele>
        <time>2015-06-17T06:34:06Z</time>
      </trkpt>
      <trkpt lat="44.3192" lon="3.59771">
        <ele>548</ele>
        <time>2015-06-17T06:34:10Z</time>
      </trkpt>
      <trkpt lat="44.31915" lon="3.59775">
        <ele>548</ele>
        <time>2015-06-17T06:34:15Z</time>
      </trkpt>
      <trkpt lat="44.31911" lon="3.59778">
        <ele>548</ele>
        <time>2015-06-17T06:34:23Z</time>
      </trkpt>
      <trkpt lat="44.31894" lon="3.59806">
        <ele>548</ele>
        <time>2015-06-17T06:34:41Z</time>
      </trkpt>
      <trkpt lat="44.31891" lon="3.5981">
        <ele>548</ele>
        <time>2015-06-17T06:34:43Z</time>
      </trkpt>
      <trkpt lat="44.31886" lon="3.59806">
        <ele>548</ele>
        <time>2015-06-17T06:34:47Z</time>
      </trkpt>
      <trkpt lat="44.31883" lon="3.59801">
        <ele>548</ele>
        <time>2015-06-17T06:34:51Z</time>
      </trkpt>
      <trkpt lat="44.31878" lon="3.59797">
        <ele>548</ele>
        <time>2015-06-17T06:34:55Z</time>
      </trkpt>
      <trkpt lat="44.31876" lon="3.59791">
        <ele>548</ele>
        <time>2015-06-17T06:35:00Z</time>
      </trkpt>
      <trkpt lat="44.31855" lon="3.59787">
        <ele>549</ele>
        <time>2015-06-17T06:35:18Z</time>
      </trkpt>
      <trkpt lat="44.31849" lon="3.59789">
        <ele>549</ele>
        <time>2015-06-17T06:35:25Z</time>
      </trkpt>
      <trkpt lat="44.31834" lon="3.59799">
        <ele>549</ele>
        <time>2015-06-17T06:35:36Z</time>
      </trkpt>
      <trkpt lat="44.31829" lon="3.59801">
        <ele>551</ele>
        <time>2015-06-17T06:35:40Z</time>
      </trkpt>
      <trkpt lat="44.31824" lon="3.59801">
        <ele>551</ele>
        <time>2015-06-17T06:35:46Z</time>
      </trkpt>
      <trkpt lat="44.3182" lon="3.59802">
        <ele>551</ele>
        <time>2015-06-17T06:35:51Z</time>
      </trkpt>
      <trkpt lat="44.31814" lon="3.59801">
        <ele>551</ele>
        <time>2015-06-17T06:35:57Z</time>
      </trkpt>
      <trkpt lat="44.3181" lon="3.598">
        <ele>551</ele>
        <time>2015-06-17T06:36:01Z</time>
      </trkpt>
      <trkpt lat="44.31805" lon="3.59801">
        <ele>551</ele>
        <time>2015-06-17T06:36:04Z</time>
      </trkpt>
      <trkpt lat="44.31799" lon="3.59801">
        <ele>552</ele>
        <time>2015-06-17T06:36:08Z</time>
      </trkpt>
      <trkpt lat="44.31788" lon="3.59804">
        <ele>552</ele>
        <time>2015-06-17T06:36:15Z</time>
      </trkpt>
      <trkpt lat="44.31783" lon="3.59804">
        <ele>552</ele>
        <time>2015-06-17T06:36:21Z</time>
      </trkpt>
      <trkpt lat="44.31778" lon="3.59805">
        <ele>552</ele>
        <time>2015-06-17T06:36:26Z</time>
      </trkpt>
      <trkpt lat="44.31773" lon="3.59804">
        <ele>552</ele>
        <time>2015-06-17T06:36:31Z</time>
      </trkpt>
      <trkpt lat="44.31768" lon="3.59806">
        <ele>551</ele>
        <time>2015-06-17T06:36:35Z</time>
      </trkpt>
      <trkpt lat="44.31763" lon="3.59805">
        <ele>551</ele>
        <time>2015-06-17T06:36:39Z</time>
      </trkpt>
      <trkpt lat="44.31758" lon="3.59808">
        <ele>551</ele>
        <time>2015-06-17T06:36:43Z</time>
      </trkpt>
      <trkpt lat="44.31753" lon="3.59807">
        <ele>551</ele>
        <time>2015-06-17T06:36:47Z</time>
      </trkpt>
      <trkpt lat="44.31732" lon="3.59809">
        <ele>555</ele>
        <time>2015-06-17T06:37:06Z</time>
      </trkpt>
      <trkpt lat="44.31727" lon="3.59811">
        <ele>555</ele>
        <time>2015-06-17T06:37:10Z</time>
      </trkpt>
      <trkpt lat="44.31722" lon="3.59809">
        <ele>556</ele>
        <time>2015-06-17T06:37:14Z</time>
      </trkpt>
      <trkpt lat="44.31717" lon="3.59809">
        <ele>556</ele>
        <time>2015-06-17T06:37:18Z</time>
      </trkpt>
      <trkpt lat="44.31711" lon="3.59808">
        <ele>556</ele>
        <time>2015-06-17T06:37:23Z</time>
      </trkpt>
      <trkpt lat="44.31706" lon="3.59809">
        <ele>556</ele>
        <time>2015-06-17T06:37:27Z</time>
      </trkpt>
      <trkpt lat="44.31701" lon="3.59806">
        <ele>557</ele>
        <time>2015-06-17T06:37:33Z</time>
      </trkpt>
      <trkpt lat="44.31696" lon="3.59809">
        <ele>556</ele>
        <time>2015-06-17T06:37:40Z</time>
      </trkpt>
      <trkpt lat="44.3169" lon="3.59813">
        <ele>556</ele>
        <time>2015-06-17T06:37:44Z</time>
      </trkpt>
      <trkpt lat="44.31674" lon="3.59816">
        <ele>555</ele>
        <time>2015-06-17T06:37:56Z</time>
      </trkpt>
      <trkpt lat="44.31669" lon="3.59816">
        <ele>555</ele>
        <time>2015-06-17T06:37:59Z</time>
      </trkpt>
      <trkpt lat="44.31665" lon="3.59814">
        <ele>557</ele>
        <time>2015-06-17T06:38:03Z</time>
      </trkpt>
      <trkpt lat="44.3166" lon="3.59812">
        <ele>558</ele>
        <time>2015-06-17T06:38:07Z</time>
      </trkpt>
      <trkpt lat="44.3165" lon="3.59815">
        <ele>558</ele>
        <time>2015-06-17T06:38:17Z</time>
      </trkpt>
      <trkpt lat="44.31635" lon="3.59814">
        <ele>559</ele>
        <time>2015-06-17T06:38:29Z</time>
      </trkpt>
      <trkpt lat="44.3163" lon="3.59813">
        <ele>560</ele>
        <time>2015-06-17T06:38:32Z</time>
      </trkpt>
      <trkpt lat="44.31624" lon="3.59811">
        <ele>560</ele>
        <time>2015-06-17T06:38:35Z</time>
      </trkpt>
      <trkpt lat="44.3162" lon="3.59808">
        <ele>560</ele>
        <time>2015-06-17T06:38:38Z</time>
      </trkpt>
      <trkpt lat="44.31615" lon="3.59808">
        <ele>560</ele>
        <time>2015-06-17T06:38:41Z</time>
      </trkpt>
      <trkpt lat="44.3161" lon="3.59812">
        <ele>560</ele>
        <time>2015-06-17T06:38:44Z</time>
      </trkpt>
      <trkpt lat="44.31604" lon="3.59813">
        <ele>559</ele>
        <time>2015-06-17T06:38:47Z</time>
      </trkpt>
      <trkpt lat="44.31598" lon="3.59813">
        <ele>559</ele>
        <time>2015-06-17T06:38:51Z</time>
      </trkpt>
      <trkpt lat="44.31593" lon="3.59811">
        <ele>559</ele>
        <time>2015-06-17T06:38:55Z</time>
      </trkpt>
      <trkpt lat="44.31583" lon="3.59814">
        <ele>558</ele>
        <time>2015-06-17T06:39:04Z</time>
      </trkpt>
      <trkpt lat="44.31575" lon="3.59808">
        <ele>560</ele>
        <time>2015-06-17T06:39:11Z</time>
      </trkpt>
      <trkpt lat="44.31571" lon="3.59805">
        <ele>561</ele>
        <time>2015-06-17T06:39:15Z</time>
      </trkpt>
      <trkpt lat="44.31564" lon="3.59802">
        <ele>562</ele>
        <time>2015-06-17T06:39:21Z</time>
      </trkpt>
      <trkpt lat="44.3156" lon="3.59798">
        <ele>562</ele>
        <time>2015-06-17T06:39:25Z</time>
      </trkpt>
      <trkpt lat="44.31556" lon="3.598">
        <ele>562</ele>
        <time>2015-06-17T06:39:42Z</time>
      </trkpt>
      <trkpt lat="44.31551" lon="3.59798">
        <ele>562</ele>
        <time>2015-06-17T06:39:47Z</time>
      </trkpt>
      <trkpt lat="44.31546" lon="3.59796">
        <ele>563</ele>
        <time>2015-06-17T06:39:54Z</time>
      </trkpt>
      <trkpt lat="44.31543" lon="3.59792">
        <ele>563</ele>
        <time>2015-06-17T06:40:02Z</time>
      </trkpt>
      <trkpt lat="44.3154" lon="3.59786">
        <ele>564</ele>
        <time>2015-06-17T06:40:06Z</time>
      </trkpt>
      <trkpt lat="44.31537" lon="3.59781">
        <ele>564</ele>
        <time>2015-06-17T06:40:10Z</time>
      </trkpt>
      <trkpt lat="44.31532" lon="3.59776">
        <ele>565</ele>
        <time>2015-06-17T06:40:15Z</time>
      </trkpt>
      <trkpt lat="44.31528" lon="3.5977">
        <ele>566</ele>
        <time>2015-06-17T06:40:19Z</time>
      </trkpt>
      <trkpt lat="44.31523" lon="3.59767">
        <ele>566</ele>
        <time>2015-06-17T06:40:24Z</time>
      </trkpt>
      <trkpt lat="44.31518" lon="3.5977">
        <ele>566</ele>
        <time>2015-06-17T06:40:27Z</time>
      </trkpt>
      <trkpt lat="44.31508" lon="3.59769">
        <ele>567</ele>
        <time>2015-06-17T06:40:34Z</time>
      </trkpt>
      <trkpt lat="44.31493" lon="3.59775">
        <ele>564</ele>
        <time>2015-06-17T06:40:44Z</time>
      </trkpt>
      <trkpt lat="44.31486" lon="3.59777">
        <ele>563</ele>
        <time>2015-06-17T06:40:48Z</time>
      </trkpt>
      <trkpt lat="44.31476" lon="3.59774">
        <ele>563</ele>
        <time>2015-06-17T06:40:56Z</time>
      </trkpt>
      <trkpt lat="44.31465" lon="3.59778">
        <ele>562</ele>
        <time>2015-06-17T06:41:05Z</time>
      </trkpt>
      <trkpt lat="44.31462" lon="3.59782">
        <ele>561</ele>
        <time>2015-06-17T06:41:08Z</time>
      </trkpt>
      <trkpt lat="44.31451" lon="3.59783">
        <ele>561</ele>
        <time>2015-06-17T06:41:18Z</time>
      </trkpt>
      <trkpt lat="44.31446" lon="3.59782">
        <ele>561</ele>
        <time>2015-06-17T06:41:23Z</time>
      </trkpt>
      <trkpt lat="44.31435" lon="3.59783">
        <ele>561</ele>
        <time>2015-06-17T06:41:30Z</time>
      </trkpt>
      <trkpt lat="44.31429" lon="3.59782">
        <ele>560</ele>
        <time>2015-06-17T06:41:33Z</time>
      </trkpt>
      <trkpt lat="44.31418" lon="3.59782">
        <ele>560</ele>
        <time>2015-06-17T06:41:41Z</time>
      </trkpt>
      <trkpt lat="44.31408" lon="3.59781">
        <ele>559</ele>
        <time>2015-06-17T06:41:50Z</time>
      </trkpt>
      <trkpt lat="44.31403" lon="3.5978">
        <ele>559</ele>
        <time>2015-06-17T06:41:55Z</time>
      </trkpt>
      <trkpt lat="44.31397" lon="3.5978">
        <ele>559</ele>
        <time>2015-06-17T06:41:59Z</time>
      </trkpt>
      <trkpt lat="44.31392" lon="3.59777">
        <ele>560</ele>
        <time>2015-06-17T06:42:02Z</time>
      </trkpt>
      <trkpt lat="44.31387" lon="3.59777">
        <ele>560</ele>
        <time>2015-06-17T06:42:05Z</time>
      </trkpt>
      <trkpt lat="44.31382" lon="3.59778">
        <ele>560</ele>
        <time>2015-06-17T06:42:09Z</time>
      </trkpt>
      <trkpt lat="44.31377" lon="3.59781">
        <ele>560</ele>
        <time>2015-06-17T06:42:13Z</time>
      </trkpt>
      <trkpt lat="44.31372" lon="3.59782">
        <ele>560</ele>
        <time>2015-06-17T06:42:17Z</time>
      </trkpt>
      <trkpt lat="44.31367" lon="3.59784">
        <ele>560</ele>
        <time>2015-06-17T06:42:21Z</time>
      </trkpt>
      <trkpt lat="44.31361" lon="3.59783">
        <ele>560</ele>
        <time>2015-06-17T06:42:25Z</time>
      </trkpt>
      <trkpt lat="44.31356" lon="3.59784">
        <ele>560</ele>
        <time>2015-06-17T06:42:28Z</time>
      </trkpt>
      <trkpt lat="44.31352" lon="3.59787">
        <ele>560</ele>
        <time>2015-06-17T06:42:31Z</time>
      </trkpt>
      <trkpt lat="44.31347" lon="3.59791">
        <ele>559</ele>
        <time>2015-06-17T06:42:37Z</time>
      </trkpt>
      <trkpt lat="44.31332" lon="3.59801">
        <ele>559</ele>
        <time>2015-06-17T06:42:46Z</time>
      </trkpt>
      <trkpt lat="44.31321" lon="3.59809">
        <ele>558</ele>
        <time>2015-06-17T06:42:51Z</time>
      </trkpt>
      <trkpt lat="44.31316" lon="3.5981">
        <ele>559</ele>
        <time>2015-06-17T06:42:55Z</time>
      </trkpt>
      <trkpt lat="44.31311" lon="3.59811">
        <ele>559</ele>
        <time>2015-06-17T06:43:00Z</time>
      </trkpt>
      <trkpt lat="44.31307" lon="3.59808">
        <ele>559</ele>
        <time>2015-06-17T06:43:07Z</time>
      </trkpt>
      <trkpt lat="44.31302" lon="3.59809">
        <ele>559</ele>
        <time>2015-06-17T06:43:13Z</time>
      </trkpt>
      <trkpt lat="44.31293" lon="3.59815">
        <ele>559</ele>
        <time>2015-06-17T06:43:23Z</time>
      </trkpt>
      <trkpt lat="44.31288" lon="3.59816">
        <ele>559</ele>
        <time>2015-06-17T06:43:28Z</time>
      </trkpt>
      <trkpt lat="44.31284" lon="3.59821">
        <ele>558</ele>
        <time>2015-06-17T06:43:33Z</time>
      </trkpt>
      <trkpt lat="44.31283" lon="3.59814">
        <ele>559</ele>
        <time>2015-06-17T06:43:41Z</time>
      </trkpt>
      <trkpt lat="44.31287" lon="3.59812">
        <ele>559</ele>
        <time>2015-06-17T06:43:44Z</time>
      </trkpt>
      <trkpt lat="44.31289" lon="3.59816">
        <ele>559</ele>
        <time>2015-06-17T06:44:01Z</time>
      </trkpt>
      <trkpt lat="44.31285" lon="3.59818">
        <ele>559</ele>
        <time>2015-06-17T06:44:16Z</time>
      </trkpt>
      <trkpt lat="44.3128" lon="3.59821">
        <ele>558</ele>
        <time>2015-06-17T06:44:18Z</time>
      </trkpt>
      <trkpt lat="44.31275" lon="3.59824">
        <ele>558</ele>
        <time>2015-06-17T06:44:20Z</time>
      </trkpt>
      <trkpt lat="44.31271" lon="3.59829">
        <ele>558</ele>
        <time>2015-06-17T06:44:22Z</time>
      </trkpt>
      <trkpt lat="44.31268" lon="3.59836">
        <ele>560</ele>
        <time>2015-06-17T06:44:25Z</time>
      </trkpt>
      <trkpt lat="44.31271" lon="3.59842">
        <ele>561</ele>
        <time>2015-06-17T06:44:30Z</time>
      </trkpt>
      <trkpt lat="44.3127" lon="3.59841">
        <ele>561</ele>
        <time>2015-06-17T06:44:50Z</time>
      </trkpt>
      <trkpt lat="44.31275" lon="3.59843">
        <ele>561</ele>
        <time>2015-06-17T06:45:18Z</time>
      </trkpt>
      <trkpt lat="44.31278" lon="3.59849">
        <ele>562</ele>
        <time>2015-06-17T06:45:21Z</time>
      </trkpt>
      <trkpt lat="44.31279" lon="3.59855">
        <ele>563</ele>
        <time>2015-06-17T06:45:24Z</time>
      </trkpt>
      <trkpt lat="44.31284" lon="3.5986">
        <ele>564</ele>
        <time>2015-06-17T06:45:28Z</time>
      </trkpt>
      <trkpt lat="44.31288" lon="3.59871">
        <ele>565</ele>
        <time>2015-06-17T06:45:39Z</time>
      </trkpt>
      <trkpt lat="44.31291" lon="3.59876">
        <ele>566</ele>
        <time>2015-06-17T06:45:48Z</time>
      </trkpt>
      <trkpt lat="44.31296" lon="3.59878">
        <ele>567</ele>
        <time>2015-06-17T06:45:59Z</time>
      </trkpt>
      <trkpt lat="44.31299" lon="3.59882">
        <ele>567</ele>
        <time>2015-06-17T06:46:03Z</time>
      </trkpt>
      <trkpt lat="44.31304" lon="3.59883">
        <ele>568</ele>
        <time>2015-06-17T06:46:06Z</time>
      </trkpt>
      <trkpt lat="44.31308" lon="3.59888">
        <ele>569</ele>
        <time>2015-06-17T06:46:11Z</time>
      </trkpt>
      <trkpt lat="44.31313" lon="3.59887">
        <ele>569</ele>
        <time>2015-06-17T06:46:23Z</time>
      </trkpt>
      <trkpt lat="44.31316" lon="3.59881">
        <ele>568</ele>
        <time>2015-06-17T06:46:32Z</time>
      </trkpt>
      <trkpt lat="44.3132" lon="3.59877">
        <ele>567</ele>
        <time>2015-06-17T06:46:38Z</time>
      </trkpt>
      <trkpt lat="44.31324" lon="3.59877">
        <ele>567</ele>
        <time>2015-06-17T06:46:43Z</time>
      </trkpt>
      <trkpt lat="44.3133" lon="3.59875">
        <ele>567</ele>
        <time>2015-06-17T06:46:47Z</time>
      </trkpt>
      <trkpt lat="44.31335" lon="3.59878">
        <ele>571</ele>
        <time>2015-06-17T06:46:57Z</time>
      </trkpt>
      <trkpt lat="44.31339" lon="3.59885">
        <ele>573</ele>
        <time>2015-06-17T06:47:02Z</time>
      </trkpt>
      <trkpt lat="44.31344" lon="3.59884">
        <ele>572</ele>
        <time>2015-06-17T06:47:18Z</time>
      </trkpt>
      <trkpt lat="44.31347" lon="3.5988">
        <ele>571</ele>
        <time>2015-06-17T06:47:38Z</time>
      </trkpt>
      <trkpt lat="44.31352" lon="3.59882">
        <ele>572</ele>
        <time>2015-06-17T06:47:44Z</time>
      </trkpt>
      <trkpt lat="44.31358" lon="3.59881">
        <ele>572</ele>
        <time>2015-06-17T06:47:59Z</time>
      </trkpt>
      <trkpt lat="44.31363" lon="3.5988">
        <ele>571</ele>
        <time>2015-06-17T06:48:02Z</time>
      </trkpt>
      <trkpt lat="44.31368" lon="3.59882">
        <ele>572</ele>
        <time>2015-06-17T06:48:05Z</time>
      </trkpt>
      <trkpt lat="44.31374" lon="3.59884">
        <ele>572</ele>
        <time>2015-06-17T06:48:08Z</time>
      </trkpt>
      <trkpt lat="44.31381" lon="3.59884">
        <ele>572</ele>
        <time>2015-06-17T06:48:11Z</time>
      </trkpt>
      <trkpt lat="44.31386" lon="3.59885">
        <ele>573</ele>
        <time>2015-06-17T06:48:16Z</time>
      </trkpt>
      <trkpt lat="44.31392" lon="3.59885">
        <ele>573</ele>
        <time>2015-06-17T06:48:22Z</time>
      </trkpt>
      <trkpt lat="44.31396" lon="3.59888">
        <ele>574</ele>
        <time>2015-06-17T06:48:27Z</time>
      </trkpt>
      <trkpt lat="44.31412" lon="3.59893">
        <ele>576</ele>
        <time>2015-06-17T06:48:40Z</time>
      </trkpt>
      <trkpt lat="44.31417" lon="3.59896">
        <ele>575</ele>
        <time>2015-06-17T06:48:43Z</time>
      </trkpt>
      <trkpt lat="44.31422" lon="3.59896">
        <ele>575</ele>
        <time>2015-06-17T06:48:46Z</time>
      </trkpt>
      <trkpt lat="44.31427" lon="3.59896">
        <ele>575</ele>
        <time>2015-06-17T06:48:49Z</time>
      </trkpt>
      <trkpt lat="44.31432" lon="3.59898">
        <ele>574</ele>
        <time>2015-06-17T06:48:52Z</time>
      </trkpt>
      <trkpt lat="44.31436" lon="3.59901">
        <ele>574</ele>
        <time>2015-06-17T06:48:57Z</time>
      </trkpt>
      <trkpt lat="44.31442" lon="3.59903">
        <ele>573</ele>
        <time>2015-06-17T06:49:03Z</time>
      </trkpt>
      <trkpt lat="44.31443" lon="3.5991">
        <ele>574</ele>
        <time>2015-06-17T06:49:16Z</time>
      </trkpt>
      <trkpt lat="44.31448" lon="3.59912">
        <ele>573</ele>
        <time>2015-06-17T06:49:20Z</time>
      </trkpt>
      <trkpt lat="44.3145" lon="3.59918">
        <ele>587</ele>
        <time>2015-06-17T06:49:24Z</time>
      </trkpt>
      <trkpt lat="44.31455" lon="3.59918">
        <ele>586</ele>
        <time>2015-06-17T06:49:31Z</time>
      </trkpt>
      <trkpt lat="44.3146" lon="3.59918">
        <ele>585</ele>
        <time>2015-06-17T06:49:41Z</time>
      </trkpt>
      <trkpt lat="44.31461" lon="3.59918">
        <ele>585</ele>
        <time>2015-06-17T06:49:56Z</time>
      </trkpt>
      <trkpt lat="44.31465" lon="3.59922">
        <ele>584</ele>
        <time>2015-06-17T06:50:08Z</time>
      </trkpt>
      <trkpt lat="44.31471" lon="3.59924">
        <ele>583</ele>
        <time>2015-06-17T06:50:10Z</time>
      </trkpt>
      <trkpt lat="44.31475" lon="3.59926">
        <ele>582</ele>
        <time>2015-06-17T06:50:12Z</time>
      </trkpt>
      <trkpt lat="44.31488" lon="3.59937">
        <ele>581</ele>
        <time>2015-06-17T06:50:18Z</time>
      </trkpt>
      <trkpt lat="44.31494" lon="3.5994">
        <ele>582</ele>
        <time>2015-06-17T06:50:21Z</time>
      </trkpt>
      <trkpt lat="44.31498" lon="3.5994">
        <ele>581</ele>
        <time>2015-06-17T06:50:23Z</time>
      </trkpt>
      <trkpt lat="44.31503" lon="3.59943">
        <ele>569</ele>
        <time>2015-06-17T06:50:26Z</time>
      </trkpt>
      <trkpt lat="44.31512" lon="3.59946">
        <ele>569</ele>
        <time>2015-06-17T06:50:32Z</time>
      </trkpt>
      <trkpt lat="44.31517" lon="3.59947">
        <ele>568</ele>
        <time>2015-06-17T06:50:35Z</time>
      </trkpt>
      <trkpt lat="44.31522" lon="3.5995">
        <ele>568</ele>
        <time>2015-06-17T06:50:38Z</time>
      </trkpt>
      <trkpt lat="44.31524" lon="3.59956">
        <ele>568</ele>
        <time>2015-06-17T06:50:43Z</time>
      </trkpt>
      <trkpt lat="44.31527" lon="3.59961">
        <ele>568</ele>
        <time>2015-06-17T06:50:47Z</time>
      </trkpt>
      <trkpt lat="44.3153" lon="3.59966">
        <ele>568</ele>
        <time>2015-06-17T06:50:54Z</time>
      </trkpt>
      <trkpt lat="44.31535" lon="3.59969">
        <ele>568</ele>
        <time>2015-06-17T06:50:58Z</time>
      </trkpt>
      <trkpt lat="44.31537" lon="3.59976">
        <ele>568</ele>
        <time>2015-06-17T06:51:03Z</time>
      </trkpt>
      <trkpt lat="44.31543" lon="3.59979">
        <ele>567</ele>
        <time>2015-06-17T06:51:07Z</time>
      </trkpt>
      <trkpt lat="44.31547" lon="3.59984">
        <ele>566</ele>
        <time>2015-06-17T06:51:10Z</time>
      </trkpt>
      <trkpt lat="44.31551" lon="3.59988">
        <ele>565</ele>
        <time>2015-06-17T06:51:13Z</time>
      </trkpt>
      <trkpt lat="44.31556" lon="3.59991">
        <ele>564</ele>
        <time>2015-06-17T06:51:17Z</time>
      </trkpt>
      <trkpt lat="44.3156" lon="3.59995">
        <ele>563</ele>
        <time>2015-06-17T06:51:22Z</time>
      </trkpt>
      <trkpt lat="44.31563" lon="3.60001">
        <ele>565</ele>
        <time>2015-06-17T06:51:29Z</time>
      </trkpt>
      <trkpt lat="44.3157" lon="3.60011">
        <ele>564</ele>
        <time>2015-06-17T06:51:36Z</time>
      </trkpt>
      <trkpt lat="44.3157" lon="3.60025">
        <ele>566</ele>
        <time>2015-06-17T06:51:44Z</time>
      </trkpt>
      <trkpt lat="44.31578" lon="3.60033">
        <ele>566</ele>
        <time>2015-06-17T06:51:48Z</time>
      </trkpt>
      <trkpt lat="44.3158" lon="3.6004">
        <ele>566</ele>
        <time>2015-06-17T06:51:52Z</time>
      </trkpt>
      <trkpt lat="44.31581" lon="3.60048">
        <ele>566</ele>
        <time>2015-06-17T06:51:57Z</time>
      </trkpt>
      <trkpt lat="44.31581" lon="3.6006">
        <ele>565</ele>
        <time>2015-06-17T06:52:05Z</time>
      </trkpt>
      <trkpt lat="44.31579" lon="3.60068">
        <ele>564</ele>
        <time>2015-06-17T06:52:10Z</time>
      </trkpt>
      <trkpt lat="44.31578" lon="3.60075">
        <ele>561</ele>
        <time>2015-06-17T06:52:15Z</time>
      </trkpt>
      <trkpt lat="44.31575" lon="3.60086">
        <ele>561</ele>
        <time>2015-06-17T06:52:20Z</time>
      </trkpt>
      <trkpt lat="44.31573" lon="3.601">
        <ele>565</ele>
        <time>2015-06-17T06:52:26Z</time>
      </trkpt>
      <trkpt lat="44.31571" lon="3.60106">
        <ele>567</ele>
        <time>2015-06-17T06:52:28Z</time>
      </trkpt>
      <trkpt lat="44.31568" lon="3.60114">
        <ele>568</ele>
        <time>2015-06-17T06:52:35Z</time>
      </trkpt>
      <trkpt lat="44.31566" lon="3.60121">
        <ele>569</ele>
        <time>2015-06-17T06:52:38Z</time>
      </trkpt>
      <trkpt lat="44.31571" lon="3.60124">
        <ele>568</ele>
        <time>2015-06-17T06:52:40Z</time>
      </trkpt>
      <trkpt lat="44.31568" lon="3.6013">
        <ele>568</ele>
        <time>2015-06-17T06:52:45Z</time>
      </trkpt>
      <trkpt lat="44.31564" lon="3.60134">
        <ele>569</ele>
        <time>2015-06-17T06:52:47Z</time>
      </trkpt>
      <trkpt lat="44.31563" lon="3.60142">
        <ele>568</ele>
        <time>2015-06-17T06:52:50Z</time>
      </trkpt>
      <trkpt lat="44.31564" lon="3.60149">
        <ele>567</ele>
        <time>2015-06-17T06:52:52Z</time>
      </trkpt>
      <trkpt lat="44.31564" lon="3.60156">
        <ele>566</ele>
        <time>2015-06-17T06:52:54Z</time>
      </trkpt>
      <trkpt lat="44.31553" lon="3.6016">
        <ele>569</ele>
        <time>2015-06-17T06:53:00Z</time>
      </trkpt>
      <trkpt lat="44.31549" lon="3.60166">
        <ele>571</ele>
        <time>2015-06-17T06:53:03Z</time>
      </trkpt>
      <trkpt lat="44.31542" lon="3.60179">
        <ele>570</ele>
        <time>2015-06-17T06:53:06Z</time>
      </trkpt>
      <trkpt lat="44.3154" lon="3.60185">
        <ele>571</ele>
        <time>2015-06-17T06:53:07Z</time>
      </trkpt>
      <trkpt lat="44.31538" lon="3.60192">
        <ele>571</ele>
        <time>2015-06-17T06:53:09Z</time>
      </trkpt>
      <trkpt lat="44.3154" lon="3.60198">
        <ele>570</ele>
        <time>2015-06-17T06:53:15Z</time>
      </trkpt>
      <trkpt lat="44.31544" lon="3.60202">
        <ele>569</ele>
        <time>2015-06-17T06:53:26Z</time>
      </trkpt>
      <trkpt lat="44.31546" lon="3.60209">
        <ele>569</ele>
        <time>2015-06-17T06:53:29Z</time>
      </trkpt>
      <trkpt lat="44.31548" lon="3.60214">
        <ele>568</ele>
        <time>2015-06-17T06:53:31Z</time>
      </trkpt>
      <trkpt lat="44.31543" lon="3.60222">
        <ele>569</ele>
        <time>2015-06-17T06:53:38Z</time>
      </trkpt>
      <trkpt lat="44.31541" lon="3.60236">
        <ele>569</ele>
        <time>2015-06-17T06:53:54Z</time>
      </trkpt>
      <trkpt lat="44.31541" lon="3.6025">
        <ele>569</ele>
        <time>2015-06-17T06:54:03Z</time>
      </trkpt>
      <trkpt lat="44.3154" lon="3.60256">
        <ele>567</ele>
        <time>2015-06-17T06:54:06Z</time>
      </trkpt>
      <trkpt lat="44.31538" lon="3.60271">
        <ele>567</ele>
        <time>2015-06-17T06:54:11Z</time>
      </trkpt>
      <trkpt lat="44.31536" lon="3.60278">
        <ele>567</ele>
        <time>2015-06-17T06:54:13Z</time>
      </trkpt>
      <trkpt lat="44.31537" lon="3.60287">
        <ele>567</ele>
        <time>2015-06-17T06:54:15Z</time>
      </trkpt>
      <trkpt lat="44.31537" lon="3.60294">
        <ele>567</ele>
        <time>2015-06-17T06:54:17Z</time>
      </trkpt>
      <trkpt lat="44.31533" lon="3.60307">
        <ele>567</ele>
        <time>2015-06-17T06:54:23Z</time>
      </trkpt>
      <trkpt lat="44.31529" lon="3.60313">
        <ele>568</ele>
        <time>2015-06-17T06:54:35Z</time>
      </trkpt>
      <trkpt lat="44.31527" lon="3.6032">
        <ele>569</ele>
        <time>2015-06-17T06:54:39Z</time>
      </trkpt>
      <trkpt lat="44.31526" lon="3.60326">
        <ele>569</ele>
        <time>2015-06-17T06:54:43Z</time>
      </trkpt>
      <trkpt lat="44.31529" lon="3.60342">
        <ele>568</ele>
        <time>2015-06-17T06:54:50Z</time>
      </trkpt>
      <trkpt lat="44.31526" lon="3.60348">
        <ele>569</ele>
        <time>2015-06-17T06:54:59Z</time>
      </trkpt>
      <trkpt lat="44.3153" lon="3.60356">
        <ele>568</ele>
        <time>2015-06-17T06:55:03Z</time>
      </trkpt>
      <trkpt lat="44.31532" lon="3.60362">
        <ele>568</ele>
        <time>2015-06-17T06:55:06Z</time>
      </trkpt>
      <trkpt lat="44.31534" lon="3.60368">
        <ele>567</ele>
        <time>2015-06-17T06:55:10Z</time>
      </trkpt>
      <trkpt lat="44.31534" lon="3.60375">
        <ele>567</ele>
        <time>2015-06-17T06:55:14Z</time>
      </trkpt>
      <trkpt lat="44.31533" lon="3.60381">
        <ele>568</ele>
        <time>2015-06-17T06:55:17Z</time>
      </trkpt>
      <trkpt lat="44.31536" lon="3.60388">
        <ele>567</ele>
        <time>2015-06-17T06:55:20Z</time>
      </trkpt>
      <trkpt lat="44.31537" lon="3.60397">
        <ele>567</ele>
        <time>2015-06-17T06:55:23Z</time>
      </trkpt>
      <trkpt lat="44.3154" lon="3.60403">
        <ele>567</ele>
        <time>2015-06-17T06:55:27Z</time>
      </trkpt>
      <trkpt lat="44.31548" lon="3.60413">
        <ele>565</ele>
        <time>2015-06-17T06:55:34Z</time>
      </trkpt>
      <trkpt lat="44.31551" lon="3.60427">
        <ele>568</ele>
        <time>2015-06-17T06:55:43Z</time>
      </trkpt>
      <trkpt lat="44.31548" lon="3.60433">
        <ele>569</ele>
        <time>2015-06-17T06:55:46Z</time>
      </trkpt>
      <trkpt lat="44.31547" lon="3.60439">
        <ele>570</ele>
        <time>2015-06-17T06:55:50Z</time>
      </trkpt>
      <trkpt lat="44.31549" lon="3.60449">
        <ele>570</ele>
        <time>2015-06-17T06:55:56Z</time>
      </trkpt>
      <trkpt lat="44.3155" lon="3.60464">
        <ele>571</ele>
        <time>2015-06-17T06:56:07Z</time>
      </trkpt>
      <trkpt lat="44.31545" lon="3.60476">
        <ele>572</ele>
        <time>2015-06-17T06:56:15Z</time>
      </trkpt>
      <trkpt lat="44.31548" lon="3.60482">
        <ele>571</ele>
        <time>2015-06-17T06:56:18Z</time>
      </trkpt>
      <trkpt lat="44.3155" lon="3.60488">
        <ele>571</ele>
        <time>2015-06-17T06:56:22Z</time>
      </trkpt>
      <trkpt lat="44.31558" lon="3.60497">
        <ele>569</ele>
        <time>2015-06-17T06:56:29Z</time>
      </trkpt>
      <trkpt lat="44.31561" lon="3.60504">
        <ele>570</ele>
        <time>2015-06-17T06:56:33Z</time>
      </trkpt>
      <trkpt lat="44.31564" lon="3.60509">
        <ele>570</ele>
        <time>2015-06-17T06:56:36Z</time>
      </trkpt>
      <trkpt lat="44.31565" lon="3.60516">
        <ele>570</ele>
        <time>2015-06-17T06:56:40Z</time>
      </trkpt>
      <trkpt lat="44.31566" lon="3.60524">
        <ele>571</ele>
        <time>2015-06-17T06:56:44Z</time>
      </trkpt>
      <trkpt lat="44.31569" lon="3.60529">
        <ele>571</ele>
        <time>2015-06-17T06:56:47Z</time>
      </trkpt>
      <trkpt lat="44.31573" lon="3.60533">
        <ele>571</ele>
        <time>2015-06-17T06:56:49Z</time>
      </trkpt>
      <trkpt lat="44.31578" lon="3.60544">
        <ele>571</ele>
        <time>2015-06-17T06:56:55Z</time>
      </trkpt>
      <trkpt lat="44.31583" lon="3.60559">
        <ele>570</ele>
        <time>2015-06-17T06:57:01Z</time>
      </trkpt>
      <trkpt lat="44.31582" lon="3.60568">
        <ele>568</ele>
        <time>2015-06-17T06:57:04Z</time>
      </trkpt>
      <trkpt lat="44.31577" lon="3.60577">
        <ele>566</ele>
        <time>2015-06-17T06:57:07Z</time>
      </trkpt>
      <trkpt lat="44.31572" lon="3.60591">
        <ele>569</ele>
        <time>2015-06-17T06:57:13Z</time>
      </trkpt>
      <trkpt lat="44.31568" lon="3.60598">
        <ele>572</ele>
        <time>2015-06-17T06:57:18Z</time>
      </trkpt>
      <trkpt lat="44.31563" lon="3.60603">
        <ele>573</ele>
        <time>2015-06-17T06:57:23Z</time>
      </trkpt>
      <trkpt lat="44.31559" lon="3.60608">
        <ele>575</ele>
        <time>2015-06-17T06:57:27Z</time>
      </trkpt>
      <trkpt lat="44.31557" lon="3.60615">
        <ele>575</ele>
        <time>2015-06-17T06:57:32Z</time>
      </trkpt>
      <trkpt lat="44.31551" lon="3.60618">
        <ele>576</ele>
        <time>2015-06-17T06:57:35Z</time>
      </trkpt>
      <trkpt lat="44.31546" lon="3.60619">
        <ele>577</ele>
        <time>2015-06-17T06:57:38Z</time>
      </trkpt>
      <trkpt lat="44.31543" lon="3.60626">
        <ele>577</ele>
        <time>2015-06-17T06:57:42Z</time>
      </trkpt>
      <trkpt lat="44.31541" lon="3.60633">
        <ele>577</ele>
        <time>2015-06-17T06:57:46Z</time>
      </trkpt>
      <trkpt lat="44.31547" lon="3.60635">
        <ele>577</ele>
        <time>2015-06-17T06:57:51Z</time>
      </trkpt>
      <trkpt lat="44.31551" lon="3.60638">
        <ele>577</ele>
        <time>2015-06-17T06:57:56Z</time>
      </trkpt>
      <trkpt lat="44.31556" lon="3.60639">
        <ele>577</ele>
        <time>2015-06-17T06:58:00Z</time>
      </trkpt>
      <trkpt lat="44.31562" lon="3.60639">
        <ele>576</ele>
        <time>2015-06-17T06:58:04Z</time>
      </trkpt>
      <trkpt lat="44.31567" lon="3.60638">
        <ele>576</ele>
        <time>2015-06-17T06:58:08Z</time>
      </trkpt>
      <trkpt lat="44.31571" lon="3.60634">
        <ele>576</ele>
        <time>2015-06-17T06:58:13Z</time>
      </trkpt>
      <trkpt lat="44.31575" lon="3.60628">
        <ele>575</ele>
        <time>2015-06-17T06:58:16Z</time>
      </trkpt>
      <trkpt lat="44.3158" lon="3.60624">
        <ele>574</ele>
        <time>2015-06-17T06:58:19Z</time>
      </trkpt>
      <trkpt lat="44.31584" lon="3.6062">
        <ele>568</ele>
        <time>2015-06-17T06:58:22Z</time>
      </trkpt>
      <trkpt lat="44.3159" lon="3.60619">
        <ele>568</ele>
        <time>2015-06-17T06:58:27Z</time>
      </trkpt>
      <trkpt lat="44.31595" lon="3.60619">
        <ele>568</ele>
        <time>2015-06-17T06:58:32Z</time>
      </trkpt>
      <trkpt lat="44.31601" lon="3.60618">
        <ele>568</ele>
        <time>2015-06-17T06:58:39Z</time>
      </trkpt>
      <trkpt lat="44.31606" lon="3.60618">
        <ele>568</ele>
        <time>2015-06-17T06:58:46Z</time>
      </trkpt>
      <trkpt lat="44.31611" lon="3.60621">
        <ele>568</ele>
        <time>2015-06-17T06:58:50Z</time>
      </trkpt>
      <trkpt lat="44.31614" lon="3.60625">
        <ele>568</ele>
        <time>2015-06-17T06:58:57Z</time>
      </trkpt>
      <trkpt lat="44.31619" lon="3.60626">
        <ele>568</ele>
        <time>2015-06-17T06:59:00Z</time>
      </trkpt>
      <trkpt lat="44.31625" lon="3.60629">
        <ele>568</ele>
        <time>2015-06-17T06:59:04Z</time>
      </trkpt>
      <trkpt lat="44.31636" lon="3.60641">
        <ele>570</ele>
        <time>2015-06-17T06:59:13Z</time>
      </trkpt>
      <trkpt lat="44.31641" lon="3.60645">
        <ele>570</ele>
        <time>2015-06-17T06:59:16Z</time>
      </trkpt>
      <trkpt lat="44.31646" lon="3.60648">
        <ele>571</ele>
        <time>2015-06-17T06:59:19Z</time>
      </trkpt>
      <trkpt lat="44.31651" lon="3.60649">
        <ele>571</ele>
        <time>2015-06-17T06:59:24Z</time>
      </trkpt>
      <trkpt lat="44.31657" lon="3.60654">
        <ele>572</ele>
        <time>2015-06-17T06:59:28Z</time>
      </trkpt>
      <trkpt lat="44.31662" lon="3.60659">
        <ele>573</ele>
        <time>2015-06-17T06:59:32Z</time>
      </trkpt>
      <trkpt lat="44.31665" lon="3.6067">
        <ele>578</ele>
        <time>2015-06-17T06:59:44Z</time>
      </trkpt>
      <trkpt lat="44.3167" lon="3.60674">
        <ele>577</ele>
        <time>2015-06-17T06:59:47Z</time>
      </trkpt>
      <trkpt lat="44.31675" lon="3.60675">
        <ele>577</ele>
        <time>2015-06-17T06:59:51Z</time>
      </trkpt>
      <trkpt lat="44.31679" lon="3.60679">
        <ele>577</ele>
        <time>2015-06-17T06:59:55Z</time>
      </trkpt>
      <trkpt lat="44.31681" lon="3.60686">
        <ele>578</ele>
        <time>2015-06-17T07:00:04Z</time>
      </trkpt>
      <trkpt lat="44.3168" lon="3.60692">
        <ele>579</ele>
        <time>2015-06-17T07:00:08Z</time>
      </trkpt>
      <trkpt lat="44.31694" lon="3.60709">
        <ele>580</ele>
        <time>2015-06-17T07:00:17Z</time>
      </trkpt>
      <trkpt lat="44.31698" lon="3.60712">
        <ele>580</ele>
        <time>2015-06-17T07:00:19Z</time>
      </trkpt>
      <trkpt lat="44.31704" lon="3.60714">
        <ele>580</ele>
        <time>2015-06-17T07:00:22Z</time>
      </trkpt>
      <trkpt lat="44.31707" lon="3.60719">
        <ele>580</ele>
        <time>2015-06-17T07:00:27Z</time>
      </trkpt>
      <trkpt lat="44.31713" lon="3.60717">
        <ele>579</ele>
        <time>2015-06-17T07:00:32Z</time>
      </trkpt>
      <trkpt lat="44.31718" lon="3.60719">
        <ele>578</ele>
        <time>2015-06-17T07:00:35Z</time>
      </trkpt>
      <trkpt lat="44.31723" lon="3.60721">
        <ele>578</ele>
        <time>2015-06-17T07:00:39Z</time>
      </trkpt>
      <trkpt lat="44.31723" lon="3.60728">
        <ele>578</ele>
        <time>2015-06-17T07:00:44Z</time>
      </trkpt>
      <trkpt lat="44.31728" lon="3.6073">
        <ele>578</ele>
        <time>2015-06-17T07:00:47Z</time>
      </trkpt>
      <trkpt lat="44.31753" lon="3.60744">
        <ele>572</ele>
        <time>2015-06-17T07:01:02Z</time>
      </trkpt>
      <trkpt lat="44.31755" lon="3.6075">
        <ele>573</ele>
        <time>2015-06-17T07:01:07Z</time>
      </trkpt>
      <trkpt lat="44.3176" lon="3.60755">
        <ele>574</ele>
        <time>2015-06-17T07:01:14Z</time>
      </trkpt>
      <trkpt lat="44.31765" lon="3.60757">
        <ele>574</ele>
        <time>2015-06-17T07:01:18Z</time>
      </trkpt>
      <trkpt lat="44.31767" lon="3.60763">
        <ele>574</ele>
        <time>2015-06-17T07:01:24Z</time>
      </trkpt>
      <trkpt lat="44.3177" lon="3.60769">
        <ele>574</ele>
        <time>2015-06-17T07:01:28Z</time>
      </trkpt>
      <trkpt lat="44.3177" lon="3.60775">
        <ele>574</ele>
        <time>2015-06-17T07:01:32Z</time>
      </trkpt>
      <trkpt lat="44.31772" lon="3.60782">
        <ele>575</ele>
        <time>2015-06-17T07:01:39Z</time>
      </trkpt>
      <trkpt lat="44.31776" lon="3.60783">
        <ele>574</ele>
        <time>2015-06-17T07:01:44Z</time>
      </trkpt>
      <trkpt lat="44.31782" lon="3.60787">
        <ele>574</ele>
        <time>2015-06-17T07:01:48Z</time>
      </trkpt>
      <trkpt lat="44.31786" lon="3.60791">
        <ele>574</ele>
        <time>2015-06-17T07:01:52Z</time>
      </trkpt>
      <trkpt lat="44.31786" lon="3.60798">
        <ele>574</ele>
        <time>2015-06-17T07:01:56Z</time>
      </trkpt>
      <trkpt lat="44.31791" lon="3.608">
        <ele>574</ele>
        <time>2015-06-17T07:02:01Z</time>
      </trkpt>
      <trkpt lat="44.31786" lon="3.60798">
        <ele>574</ele>
        <time>2015-06-17T07:02:15Z</time>
      </trkpt>
      <trkpt lat="44.31784" lon="3.60798">
        <ele>575</ele>
        <time>2015-06-17T07:02:39Z</time>
      </trkpt>
      <trkpt lat="44.31784" lon="3.60798">
        <ele>575</ele>
        <time>2015-06-17T07:02:58Z</time>
      </trkpt>
      <trkpt lat="44.31784" lon="3.60804">
        <ele>575</ele>
        <time>2015-06-17T07:03:34Z</time>
      </trkpt>
      <trkpt lat="44.31784" lon="3.60812">
        <ele>576</ele>
        <time>2015-06-17T07:03:38Z</time>
      </trkpt>
      <trkpt lat="44.31785" lon="3.60819">
        <ele>576</ele>
        <time>2015-06-17T07:03:41Z</time>
      </trkpt>
      <trkpt lat="44.31788" lon="3.60827">
        <ele>576</ele>
        <time>2015-06-17T07:03:44Z</time>
      </trkpt>
      <trkpt lat="44.31791" lon="3.6084">
        <ele>581</ele>
        <time>2015-06-17T07:03:49Z</time>
      </trkpt>
      <trkpt lat="44.31792" lon="3.60847">
        <ele>581</ele>
        <time>2015-06-17T07:03:52Z</time>
      </trkpt>
      <trkpt lat="44.3179" lon="3.60854">
        <ele>581</ele>
        <time>2015-06-17T07:03:56Z</time>
      </trkpt>
      <trkpt lat="44.31788" lon="3.6086">
        <ele>582</ele>
        <time>2015-06-17T07:04:00Z</time>
      </trkpt>
      <trkpt lat="44.31789" lon="3.60867">
        <ele>582</ele>
        <time>2015-06-17T07:04:06Z</time>
      </trkpt>
      <trkpt lat="44.3179" lon="3.60873">
        <ele>581</ele>
        <time>2015-06-17T07:04:13Z</time>
      </trkpt>
      <trkpt lat="44.31789" lon="3.6088">
        <ele>582</ele>
        <time>2015-06-17T07:04:17Z</time>
      </trkpt>
      <trkpt lat="44.31789" lon="3.60887">
        <ele>582</ele>
        <time>2015-06-17T07:04:21Z</time>
      </trkpt>
      <trkpt lat="44.31792" lon="3.60892">
        <ele>582</ele>
        <time>2015-06-17T07:04:24Z</time>
      </trkpt>
      <trkpt lat="44.31793" lon="3.60899">
        <ele>582</ele>
        <time>2015-06-17T07:04:27Z</time>
      </trkpt>
      <trkpt lat="44.31792" lon="3.60905">
        <ele>582</ele>
        <time>2015-06-17T07:04:34Z</time>
      </trkpt>
      <trkpt lat="44.31769" lon="3.60943">
        <ele>585</ele>
        <time>2015-06-17T07:05:09Z</time>
      </trkpt>
      <trkpt lat="44.31762" lon="3.60951">
        <ele>585</ele>
        <time>2015-06-17T07:05:19Z</time>
      </trkpt>
      <trkpt lat="44.3176" lon="3.60958">
        <ele>585</ele>
        <time>2015-06-17T07:05:24Z</time>
      </trkpt>
      <trkpt lat="44.31747" lon="3.60982">
        <ele>600</ele>
        <time>2015-06-17T07:05:40Z</time>
      </trkpt>
      <trkpt lat="44.31745" lon="3.60988">
        <ele>598</ele>
        <time>2015-06-17T07:05:45Z</time>
      </trkpt>
      <trkpt lat="44.31741" lon="3.60992">
        <ele>598</ele>
        <time>2015-06-17T07:05:49Z</time>
      </trkpt>
      <trkpt lat="44.31741" lon="3.61">
        <ele>593</ele>
        <time>2015-06-17T07:05:54Z</time>
      </trkpt>
      <trkpt lat="44.31736" lon="3.61011">
        <ele>595</ele>
        <time>2015-06-17T07:06:01Z</time>
      </trkpt>
      <trkpt lat="44.31731" lon="3.61011">
        <ele>596</ele>
        <time>2015-06-17T07:06:24Z</time>
      </trkpt>
      <trkpt lat="44.31727" lon="3.61015">
        <ele>597</ele>
        <time>2015-06-17T07:06:28Z</time>
      </trkpt>
      <trkpt lat="44.31725" lon="3.61021">
        <ele>597</ele>
        <time>2015-06-17T07:06:31Z</time>
      </trkpt>
      <trkpt lat="44.31721" lon="3.61027">
        <ele>598</ele>
        <time>2015-06-17T07:06:35Z</time>
      </trkpt>
      <trkpt lat="44.31709" lon="3.6105">
        <ele>598</ele>
        <time>2015-06-17T07:06:47Z</time>
      </trkpt>
      <trkpt lat="44.31705" lon="3.61056">
        <ele>599</ele>
        <time>2015-06-17T07:06:51Z</time>
      </trkpt>
      <trkpt lat="44.31701" lon="3.61059">
        <ele>599</ele>
        <time>2015-06-17T07:06:54Z</time>
      </trkpt>
      <trkpt lat="44.31697" lon="3.61064">
        <ele>600</ele>
        <time>2015-06-17T07:06:58Z</time>
      </trkpt>
      <trkpt lat="44.31693" lon="3.61065">
        <ele>601</ele>
        <time>2015-06-17T07:07:02Z</time>
      </trkpt>
      <trkpt lat="44.31688" lon="3.61071">
        <ele>601</ele>
        <time>2015-06-17T07:07:08Z</time>
      </trkpt>
      <trkpt lat="44.31685" lon="3.61077">
        <ele>602</ele>
        <time>2015-06-17T07:07:11Z</time>
      </trkpt>
      <trkpt lat="44.31681" lon="3.61085">
        <ele>597</ele>
        <time>2015-06-17T07:07:14Z</time>
      </trkpt>
      <trkpt lat="44.31677" lon="3.6109">
        <ele>598</ele>
        <time>2015-06-17T07:07:17Z</time>
      </trkpt>
      <trkpt lat="44.31674" lon="3.61095">
        <ele>597</ele>
        <time>2015-06-17T07:07:22Z</time>
      </trkpt>
      <trkpt lat="44.31668" lon="3.61097">
        <ele>597</ele>
        <time>2015-06-17T07:07:26Z</time>
      </trkpt>
      <trkpt lat="44.31663" lon="3.61099">
        <ele>604</ele>
        <time>2015-06-17T07:07:29Z</time>
      </trkpt>
      <trkpt lat="44.31659" lon="3.61104">
        <ele>604</ele>
        <time>2015-06-17T07:07:33Z</time>
      </trkpt>
      <trkpt lat="44.31656" lon="3.61109">
        <ele>603</ele>
        <time>2015-06-17T07:07:37Z</time>
      </trkpt>
      <trkpt lat="44.3165" lon="3.61111">
        <ele>603</ele>
        <time>2015-06-17T07:07:48Z</time>
      </trkpt>
      <trkpt lat="44.31646" lon="3.61114">
        <ele>603</ele>
        <time>2015-06-17T07:07:52Z</time>
      </trkpt>
      <trkpt lat="44.31641" lon="3.61112">
        <ele>604</ele>
        <time>2015-06-17T07:08:01Z</time>
      </trkpt>
      <trkpt lat="44.31637" lon="3.61113">
        <ele>604</ele>
        <time>2015-06-17T07:08:06Z</time>
      </trkpt>
      <trkpt lat="44.31633" lon="3.61118">
        <ele>603</ele>
        <time>2015-06-17T07:08:10Z</time>
      </trkpt>
      <trkpt lat="44.31632" lon="3.61125">
        <ele>603</ele>
        <time>2015-06-17T07:08:14Z</time>
      </trkpt>
      <trkpt lat="44.31626" lon="3.61136">
        <ele>602</ele>
        <time>2015-06-17T07:08:21Z</time>
      </trkpt>
      <trkpt lat="44.3162" lon="3.61135">
        <ele>602</ele>
        <time>2015-06-17T07:08:26Z</time>
      </trkpt>
      <trkpt lat="44.31615" lon="3.61135">
        <ele>603</ele>
        <time>2015-06-17T07:08:29Z</time>
      </trkpt>
      <trkpt lat="44.31605" lon="3.61136">
        <ele>603</ele>
        <time>2015-06-17T07:08:37Z</time>
      </trkpt>
      <trkpt lat="44.31595" lon="3.61135">
        <ele>604</ele>
        <time>2015-06-17T07:08:45Z</time>
      </trkpt>
      <trkpt lat="44.3159" lon="3.61137">
        <ele>604</ele>
        <time>2015-06-17T07:08:48Z</time>
      </trkpt>
      <trkpt lat="44.31585" lon="3.61137">
        <ele>604</ele>
        <time>2015-06-17T07:08:53Z</time>
      </trkpt>
      <trkpt lat="44.31582" lon="3.61133">
        <ele>614</ele>
        <time>2015-06-17T07:09:03Z</time>
      </trkpt>
      <trkpt lat="44.31577" lon="3.61133">
        <ele>614</ele>
        <time>2015-06-17T07:09:06Z</time>
      </trkpt>
      <trkpt lat="44.31572" lon="3.61132">
        <ele>615</ele>
        <time>2015-06-17T07:09:10Z</time>
      </trkpt>
      <trkpt lat="44.31562" lon="3.61138">
        <ele>614</ele>
        <time>2015-06-17T07:09:15Z</time>
      </trkpt>
      <trkpt lat="44.31557" lon="3.6114">
        <ele>615</ele>
        <time>2015-06-17T07:09:18Z</time>
      </trkpt>
      <trkpt lat="44.31552" lon="3.61138">
        <ele>616</ele>
        <time>2015-06-17T07:09:22Z</time>
      </trkpt>
      <trkpt lat="44.31548" lon="3.61135">
        <ele>617</ele>
        <time>2015-06-17T07:09:25Z</time>
      </trkpt>
      <trkpt lat="44.31537" lon="3.61135">
        <ele>618</ele>
        <time>2015-06-17T07:09:38Z</time>
      </trkpt>
      <trkpt lat="44.31532" lon="3.61141">
        <ele>617</ele>
        <time>2015-06-17T07:09:41Z</time>
      </trkpt>
      <trkpt lat="44.31525" lon="3.61143">
        <ele>617</ele>
        <time>2015-06-17T07:09:43Z</time>
      </trkpt>
      <trkpt lat="44.3152" lon="3.61143">
        <ele>617</ele>
        <time>2015-06-17T07:09:46Z</time>
      </trkpt>
      <trkpt lat="44.31517" lon="3.61149">
        <ele>616</ele>
        <time>2015-06-17T07:09:49Z</time>
      </trkpt>
      <trkpt lat="44.31513" lon="3.61154">
        <ele>615</ele>
        <time>2015-06-17T07:09:55Z</time>
      </trkpt>
      <trkpt lat="44.31502" lon="3.61156">
        <ele>614</ele>
        <time>2015-06-17T07:10:10Z</time>
      </trkpt>
      <trkpt lat="44.31498" lon="3.61161">
        <ele>617</ele>
        <time>2015-06-17T07:10:15Z</time>
      </trkpt>
      <trkpt lat="44.31492" lon="3.61162">
        <ele>619</ele>
        <time>2015-06-17T07:10:19Z</time>
      </trkpt>
      <trkpt lat="44.31487" lon="3.61161">
        <ele>623</ele>
        <time>2015-06-17T07:10:22Z</time>
      </trkpt>
      <trkpt lat="44.31483" lon="3.61157">
        <ele>625</ele>
        <time>2015-06-17T07:10:24Z</time>
      </trkpt>
      <trkpt lat="44.31476" lon="3.61159">
        <ele>628</ele>
        <time>2015-06-17T07:10:29Z</time>
      </trkpt>
      <trkpt lat="44.31472" lon="3.61162">
        <ele>629</ele>
        <time>2015-06-17T07:10:33Z</time>
      </trkpt>
      <trkpt lat="44.31468" lon="3.61168">
        <ele>611</ele>
        <time>2015-06-17T07:10:40Z</time>
      </trkpt>
      <trkpt lat="44.31464" lon="3.61173">
        <ele>611</ele>
        <time>2015-06-17T07:10:43Z</time>
      </trkpt>
      <trkpt lat="44.31462" lon="3.61167">
        <ele>612</ele>
        <time>2015-06-17T07:10:47Z</time>
      </trkpt>
      <trkpt lat="44.31457" lon="3.6117">
        <ele>613</ele>
        <time>2015-06-17T07:10:53Z</time>
      </trkpt>
      <trkpt lat="44.31455" lon="3.61176">
        <ele>613</ele>
        <time>2015-06-17T07:10:57Z</time>
      </trkpt>
      <trkpt lat="44.3146" lon="3.61174">
        <ele>612</ele>
        <time>2015-06-17T07:11:03Z</time>
      </trkpt>
      <trkpt lat="44.31464" lon="3.6117">
        <ele>612</ele>
        <time>2015-06-17T07:11:08Z</time>
      </trkpt>
      <trkpt lat="44.31458" lon="3.61163">
        <ele>633</ele>
        <time>2015-06-17T07:11:14Z</time>
      </trkpt>
      <trkpt lat="44.3145" lon="3.6117">
        <ele>615</ele>
        <time>2015-06-17T07:11:16Z</time>
      </trkpt>
      <trkpt lat="44.31439" lon="3.61189">
        <ele>615</ele>
        <time>2015-06-17T07:11:34Z</time>
      </trkpt>
      <trkpt lat="44.31434" lon="3.61191">
        <ele>615</ele>
        <time>2015-06-17T07:11:47Z</time>
      </trkpt>
      <trkpt lat="44.31405" lon="3.61211">
        <ele>633</ele>
        <time>2015-06-17T07:11:58Z</time>
      </trkpt>
      <trkpt lat="44.31394" lon="3.61227">
        <ele>631</ele>
        <time>2015-06-17T07:12:09Z</time>
      </trkpt>
      <trkpt lat="44.31389" lon="3.61231">
        <ele>631</ele>
        <time>2015-06-17T07:12:13Z</time>
      </trkpt>
      <trkpt lat="44.31385" lon="3.61233">
        <ele>632</ele>
        <time>2015-06-17T07:12:16Z</time>
      </trkpt>
      <trkpt lat="44.31377" lon="3.61243">
        <ele>634</ele>
        <time>2015-06-17T07:12:26Z</time>
      </trkpt>
      <trkpt lat="44.31373" lon="3.61246">
        <ele>635</ele>
        <time>2015-06-17T07:12:29Z</time>
      </trkpt>
      <trkpt lat="44.31367" lon="3.61256">
        <ele>621</ele>
        <time>2015-06-17T07:12:38Z</time>
      </trkpt>
      <trkpt lat="44.31363" lon="3.61271">
        <ele>620</ele>
        <time>2015-06-17T07:12:45Z</time>
      </trkpt>
      <trkpt lat="44.31355" lon="3.61289">
        <ele>619</ele>
        <time>2015-06-17T07:12:50Z</time>
      </trkpt>
      <trkpt lat="44.31352" lon="3.61296">
        <ele>619</ele>
        <time>2015-06-17T07:12:53Z</time>
      </trkpt>
      <trkpt lat="44.31345" lon="3.61308">
        <ele>619</ele>
        <time>2015-06-17T07:12:59Z</time>
      </trkpt>
      <trkpt lat="44.3134" lon="3.61327">
        <ele>621</ele>
        <time>2015-06-17T07:13:19Z</time>
      </trkpt>
      <trkpt lat="44.31339" lon="3.61335">
        <ele>618</ele>
        <time>2015-06-17T07:13:24Z</time>
      </trkpt>
      <trkpt lat="44.31337" lon="3.61339">
        <ele>618</ele>
        <time>2015-06-17T07:13:26Z</time>
      </trkpt>
      <trkpt lat="44.31335" lon="3.61347">
        <ele>613</ele>
        <time>2015-06-17T07:13:31Z</time>
      </trkpt>
      <trkpt lat="44.3134" lon="3.61351">
        <ele>610</ele>
        <time>2015-06-17T07:13:35Z</time>
      </trkpt>
      <trkpt lat="44.31335" lon="3.61353">
        <ele>609</ele>
        <time>2015-06-17T07:13:39Z</time>
      </trkpt>
      <trkpt lat="44.31334" lon="3.61363">
        <ele>606</ele>
        <time>2015-06-17T07:13:46Z</time>
      </trkpt>
      <trkpt lat="44.3133" lon="3.61368">
        <ele>628</ele>
        <time>2015-06-17T07:13:49Z</time>
      </trkpt>
      <trkpt lat="44.3132" lon="3.61376">
        <ele>628</ele>
        <time>2015-06-17T07:13:52Z</time>
      </trkpt>
      <trkpt lat="44.31308" lon="3.61393">
        <ele>627</ele>
        <time>2015-06-17T07:13:58Z</time>
      </trkpt>
      <trkpt lat="44.3131" lon="3.614">
        <ele>625</ele>
        <time>2015-06-17T07:14:05Z</time>
      </trkpt>
      <trkpt lat="44.31314" lon="3.61406">
        <ele>623</ele>
        <time>2015-06-17T07:14:07Z</time>
      </trkpt>
      <trkpt lat="44.31314" lon="3.61414">
        <ele>622</ele>
        <time>2015-06-17T07:14:10Z</time>
      </trkpt>
      <trkpt lat="44.3131" lon="3.61421">
        <ele>618</ele>
        <time>2015-06-17T07:14:12Z</time>
      </trkpt>
      <trkpt lat="44.31306" lon="3.61427">
        <ele>619</ele>
        <time>2015-06-17T07:14:14Z</time>
      </trkpt>
      <trkpt lat="44.31311" lon="3.61427">
        <ele>618</ele>
        <time>2015-06-17T07:14:17Z</time>
      </trkpt>
      <trkpt lat="44.31305" lon="3.6143">
        <ele>620</ele>
        <time>2015-06-17T07:14:23Z</time>
      </trkpt>
      <trkpt lat="44.31303" lon="3.61443">
        <ele>620</ele>
        <time>2015-06-17T07:14:31Z</time>
      </trkpt>
      <trkpt lat="44.31307" lon="3.6145">
        <ele>619</ele>
        <time>2015-06-17T07:14:35Z</time>
      </trkpt>
      <trkpt lat="44.31311" lon="3.61452">
        <ele>619</ele>
        <time>2015-06-17T07:14:38Z</time>
      </trkpt>
      <trkpt lat="44.31313" lon="3.61456">
        <ele>618</ele>
        <time>2015-06-17T07:14:59Z</time>
      </trkpt>
      <trkpt lat="44.31314" lon="3.61459">
        <ele>618</ele>
        <time>2015-06-17T07:15:08Z</time>
      </trkpt>
      <trkpt lat="44.31312" lon="3.61468">
        <ele>617</ele>
        <time>2015-06-17T07:15:11Z</time>
      </trkpt>
      <trkpt lat="44.31309" lon="3.61474">
        <ele>618</ele>
        <time>2015-06-17T07:15:13Z</time>
      </trkpt>
      <trkpt lat="44.31309" lon="3.61492">
        <ele>615</ele>
        <time>2015-06-17T07:15:18Z</time>
      </trkpt>
      <trkpt lat="44.31305" lon="3.61507">
        <ele>612</ele>
        <time>2015-06-17T07:15:22Z</time>
      </trkpt>
      <trkpt lat="44.31301" lon="3.61516">
        <ele>613</ele>
        <time>2015-06-17T07:15:24Z</time>
      </trkpt>
      <trkpt lat="44.31296" lon="3.61524">
        <ele>614</ele>
        <time>2015-06-17T07:15:26Z</time>
      </trkpt>
      <trkpt lat="44.31294" lon="3.6153">
        <ele>615</ele>
        <time>2015-06-17T07:15:28Z</time>
      </trkpt>
      <trkpt lat="44.31295" lon="3.61536">
        <ele>614</ele>
        <time>2015-06-17T07:15:32Z</time>
      </trkpt>
      <trkpt lat="44.31286" lon="3.61549">
        <ele>615</ele>
        <time>2015-06-17T07:15:37Z</time>
      </trkpt>
      <trkpt lat="44.31284" lon="3.61555">
        <ele>616</ele>
        <time>2015-06-17T07:15:39Z</time>
      </trkpt>
      <trkpt lat="44.31285" lon="3.61569">
        <ele>615</ele>
        <time>2015-06-17T07:15:45Z</time>
      </trkpt>
      <trkpt lat="44.31286" lon="3.61575">
        <ele>614</ele>
        <time>2015-06-17T07:15:48Z</time>
      </trkpt>
      <trkpt lat="44.31289" lon="3.6158">
        <ele>613</ele>
        <time>2015-06-17T07:15:50Z</time>
      </trkpt>
      <trkpt lat="44.31292" lon="3.61592">
        <ele>608</ele>
        <time>2015-06-17T07:15:52Z</time>
      </trkpt>
      <trkpt lat="44.31289" lon="3.61605">
        <ele>608</ele>
        <time>2015-06-17T07:15:54Z</time>
      </trkpt>
      <trkpt lat="44.3129" lon="3.61612">
        <ele>608</ele>
        <time>2015-06-17T07:16:03Z</time>
      </trkpt>
      <trkpt lat="44.31286" lon="3.61617">
        <ele>608</ele>
        <time>2015-06-17T07:16:08Z</time>
      </trkpt>
      <trkpt lat="44.31282" lon="3.61624">
        <ele>609</ele>
        <time>2015-06-17T07:16:13Z</time>
      </trkpt>
      <trkpt lat="44.31283" lon="3.61631">
        <ele>608</ele>
        <time>2015-06-17T07:16:17Z</time>
      </trkpt>
      <trkpt lat="44.31286" lon="3.61638">
        <ele>607</ele>
        <time>2015-06-17T07:16:21Z</time>
      </trkpt>
      <trkpt lat="44.31281" lon="3.61642">
        <ele>608</ele>
        <time>2015-06-17T07:16:25Z</time>
      </trkpt>
      <trkpt lat="44.31274" lon="3.61662">
        <ele>610</ele>
        <time>2015-06-17T07:16:38Z</time>
      </trkpt>
      <trkpt lat="44.31275" lon="3.61669">
        <ele>606</ele>
        <time>2015-06-17T07:16:41Z</time>
      </trkpt>
      <trkpt lat="44.31279" lon="3.61682">
        <ele>604</ele>
        <time>2015-06-17T07:16:47Z</time>
      </trkpt>
      <trkpt lat="44.31283" lon="3.61687">
        <ele>603</ele>
        <time>2015-06-17T07:16:50Z</time>
      </trkpt>
      <trkpt lat="44.31285" lon="3.61693">
        <ele>602</ele>
        <time>2015-06-17T07:17:16Z</time>
      </trkpt>
      <trkpt lat="44.3128" lon="3.61697">
        <ele>603</ele>
        <time>2015-06-17T07:17:19Z</time>
      </trkpt>
      <trkpt lat="44.31275" lon="3.61702">
        <ele>603</ele>
        <time>2015-06-17T07:17:22Z</time>
      </trkpt>
      <trkpt lat="44.31273" lon="3.61708">
        <ele>603</ele>
        <time>2015-06-17T07:17:24Z</time>
      </trkpt>
      <trkpt lat="44.31275" lon="3.61714">
        <ele>602</ele>
        <time>2015-06-17T07:17:29Z</time>
      </trkpt>
      <trkpt lat="44.31274" lon="3.6172">
        <ele>602</ele>
        <time>2015-06-17T07:17:33Z</time>
      </trkpt>
      <trkpt lat="44.3127" lon="3.61724">
        <ele>603</ele>
        <time>2015-06-17T07:17:41Z</time>
      </trkpt>
      <trkpt lat="44.31265" lon="3.61729">
        <ele>603</ele>
        <time>2015-06-17T07:17:49Z</time>
      </trkpt>
      <trkpt lat="44.31259" lon="3.61732">
        <ele>604</ele>
        <time>2015-06-17T07:17:52Z</time>
      </trkpt>
      <trkpt lat="44.31255" lon="3.61735">
        <ele>604</ele>
        <time>2015-06-17T07:17:55Z</time>
      </trkpt>
      <trkpt lat="44.31251" lon="3.61739">
        <ele>605</ele>
        <time>2015-06-17T07:17:59Z</time>
      </trkpt>
      <trkpt lat="44.31246" lon="3.61744">
        <ele>611</ele>
        <time>2015-06-17T07:18:02Z</time>
      </trkpt>
      <trkpt lat="44.31242" lon="3.61758">
        <ele>608</ele>
        <time>2015-06-17T07:18:10Z</time>
      </trkpt>
      <trkpt lat="44.31238" lon="3.61765">
        <ele>608</ele>
        <time>2015-06-17T07:18:15Z</time>
      </trkpt>
      <trkpt lat="44.31205" lon="3.61799">
        <ele>609</ele>
        <time>2015-06-17T07:18:36Z</time>
      </trkpt>
      <trkpt lat="44.31199" lon="3.61802">
        <ele>609</ele>
        <time>2015-06-17T07:18:38Z</time>
      </trkpt>
      <trkpt lat="44.31195" lon="3.61806">
        <ele>609</ele>
        <time>2015-06-17T07:18:40Z</time>
      </trkpt>
      <trkpt lat="44.31192" lon="3.61812">
        <ele>609</ele>
        <time>2015-06-17T07:18:42Z</time>
      </trkpt>
      <trkpt lat="44.31187" lon="3.61816">
        <ele>608</ele>
        <time>2015-06-17T07:18:47Z</time>
      </trkpt>
      <trkpt lat="44.31181" lon="3.61827">
        <ele>608</ele>
        <time>2015-06-17T07:18:53Z</time>
      </trkpt>
      <trkpt lat="44.31171" lon="3.61837">
        <ele>606</ele>
        <time>2015-06-17T07:18:57Z</time>
      </trkpt>
      <trkpt lat="44.31163" lon="3.6185">
        <ele>612</ele>
        <time>2015-06-17T07:19:03Z</time>
      </trkpt>
      <trkpt lat="44.31156" lon="3.61853">
        <ele>614</ele>
        <time>2015-06-17T07:19:08Z</time>
      </trkpt>
      <trkpt lat="44.31146" lon="3.61856">
        <ele>615</ele>
        <time>2015-06-17T07:19:14Z</time>
      </trkpt>
      <trkpt lat="44.3115" lon="3.61869">
        <ele>616</ele>
        <time>2015-06-17T07:19:27Z</time>
      </trkpt>
      <trkpt lat="44.31154" lon="3.61869">
        <ele>615</ele>
        <time>2015-06-17T07:19:29Z</time>
      </trkpt>
      <trkpt lat="44.31159" lon="3.61868">
        <ele>615</ele>
        <time>2015-06-17T07:19:31Z</time>
      </trkpt>
      <trkpt lat="44.31163" lon="3.61867">
        <ele>614</ele>
        <time>2015-06-17T07:19:34Z</time>
      </trkpt>
      <trkpt lat="44.31169" lon="3.61868">
        <ele>605</ele>
        <time>2015-06-17T07:19:39Z</time>
      </trkpt>
      <trkpt lat="44.31173" lon="3.61872">
        <ele>605</ele>
        <time>2015-06-17T07:19:45Z</time>
      </trkpt>
      <trkpt lat="44.31178" lon="3.61874">
        <ele>605</ele>
        <time>2015-06-17T07:19:51Z</time>
      </trkpt>
      <trkpt lat="44.31183" lon="3.61875">
        <ele>605</ele>
        <time>2015-06-17T07:19:58Z</time>
      </trkpt>
      <trkpt lat="44.31188" lon="3.61879">
        <ele>605</ele>
        <time>2015-06-17T07:20:02Z</time>
      </trkpt>
      <trkpt lat="44.31194" lon="3.61882">
        <ele>605</ele>
        <time>2015-06-17T07:20:05Z</time>
      </trkpt>
      <trkpt lat="44.31199" lon="3.61885">
        <ele>605</ele>
        <time>2015-06-17T07:20:08Z</time>
      </trkpt>
      <trkpt lat="44.31204" lon="3.61885">
        <ele>604</ele>
        <time>2015-06-17T07:20:13Z</time>
      </trkpt>
      <trkpt lat="44.31209" lon="3.61887">
        <ele>604</ele>
        <time>2015-06-17T07:20:18Z</time>
      </trkpt>
      <trkpt lat="44.31214" lon="3.61885">
        <ele>604</ele>
        <time>2015-06-17T07:20:22Z</time>
      </trkpt>
      <trkpt lat="44.31219" lon="3.61882">
        <ele>604</ele>
        <time>2015-06-17T07:20:25Z</time>
      </trkpt>
      <trkpt lat="44.31224" lon="3.61884">
        <ele>603</ele>
        <time>2015-06-17T07:20:29Z</time>
      </trkpt>
      <trkpt lat="44.3123" lon="3.61883">
        <ele>603</ele>
        <time>2015-06-17T07:20:41Z</time>
      </trkpt>
      <trkpt lat="44.31235" lon="3.61881">
        <ele>603</ele>
        <time>2015-06-17T07:20:44Z</time>
      </trkpt>
      <trkpt lat="44.3124" lon="3.61878">
        <ele>603</ele>
        <time>2015-06-17T07:20:47Z</time>
      </trkpt>
      <trkpt lat="44.31247" lon="3.61879">
        <ele>602</ele>
        <time>2015-06-17T07:20:50Z</time>
      </trkpt>
      <trkpt lat="44.31252" lon="3.6188">
        <ele>594</ele>
        <time>2015-06-17T07:20:52Z</time>
      </trkpt>
      <trkpt lat="44.31258" lon="3.61882">
        <ele>593</ele>
        <time>2015-06-17T07:20:55Z</time>
      </trkpt>
      <trkpt lat="44.31264" lon="3.61881">
        <ele>593</ele>
        <time>2015-06-17T07:20:59Z</time>
      </trkpt>
      <trkpt lat="44.31269" lon="3.61879">
        <ele>592</ele>
        <time>2015-06-17T07:21:03Z</time>
      </trkpt>
      <trkpt lat="44.31274" lon="3.61878">
        <ele>591</ele>
        <time>2015-06-17T07:21:06Z</time>
      </trkpt>
      <trkpt lat="44.31279" lon="3.6188">
        <ele>591</ele>
        <time>2015-06-17T07:21:10Z</time>
      </trkpt>
      <trkpt lat="44.31283" lon="3.61876">
        <ele>590</ele>
        <time>2015-06-17T07:21:15Z</time>
      </trkpt>
      <trkpt lat="44.31287" lon="3.61876">
        <ele>590</ele>
        <time>2015-06-17T07:21:18Z</time>
      </trkpt>
      <trkpt lat="44.31292" lon="3.61875">
        <ele>589</ele>
        <time>2015-06-17T07:21:22Z</time>
      </trkpt>
      <trkpt lat="44.31293" lon="3.61882">
        <ele>589</ele>
        <time>2015-06-17T07:21:25Z</time>
      </trkpt>
      <trkpt lat="44.3129" lon="3.61887">
        <ele>590</ele>
        <time>2015-06-17T07:21:29Z</time>
      </trkpt>
      <trkpt lat="44.31294" lon="3.6189">
        <ele>589</ele>
        <time>2015-06-17T07:21:34Z</time>
      </trkpt>
      <trkpt lat="44.31297" lon="3.61895">
        <ele>589</ele>
        <time>2015-06-17T07:21:38Z</time>
      </trkpt>
      <trkpt lat="44.31295" lon="3.61902">
        <ele>589</ele>
        <time>2015-06-17T07:21:43Z</time>
      </trkpt>
      <trkpt lat="44.31294" lon="3.61906">
        <ele>590</ele>
        <time>2015-06-17T07:22:00Z</time>
      </trkpt>
      <trkpt lat="44.31293" lon="3.61908">
        <ele>590</ele>
        <time>2015-06-17T07:22:02Z</time>
      </trkpt>
      <trkpt lat="44.31289" lon="3.61913">
        <ele>591</ele>
        <time>2015-06-17T07:22:14Z</time>
      </trkpt>
      <trkpt lat="44.31284" lon="3.61921">
        <ele>594</ele>
        <time>2015-06-17T07:22:18Z</time>
      </trkpt>
      <trkpt lat="44.31279" lon="3.61925">
        <ele>595</ele>
        <time>2015-06-17T07:22:20Z</time>
      </trkpt>
      <trkpt lat="44.31273" lon="3.61929">
        <ele>596</ele>
        <time>2015-06-17T07:22:22Z</time>
      </trkpt>
      <trkpt lat="44.31269" lon="3.61932">
        <ele>597</ele>
        <time>2015-06-17T07:22:24Z</time>
      </trkpt>
      <trkpt lat="44.31265" lon="3.61936">
        <ele>597</ele>
        <time>2015-06-17T07:22:26Z</time>
      </trkpt>
      <trkpt lat="44.31261" lon="3.6194">
        <ele>598</ele>
        <time>2015-06-17T07:22:30Z</time>
      </trkpt>
      <trkpt lat="44.31258" lon="3.61945">
        <ele>598</ele>
        <time>2015-06-17T07:22:42Z</time>
      </trkpt>
      <trkpt lat="44.31255" lon="3.61952">
        <ele>597</ele>
        <time>2015-06-17T07:22:45Z</time>
      </trkpt>
      <trkpt lat="44.31255" lon="3.61959">
        <ele>598</ele>
        <time>2015-06-17T07:22:49Z</time>
      </trkpt>
      <trkpt lat="44.31256" lon="3.61965">
        <ele>598</ele>
        <time>2015-06-17T07:22:52Z</time>
      </trkpt>
      <trkpt lat="44.31255" lon="3.61973">
        <ele>599</ele>
        <time>2015-06-17T07:22:56Z</time>
      </trkpt>
      <trkpt lat="44.31252" lon="3.61979">
        <ele>600</ele>
        <time>2015-06-17T07:23:00Z</time>
      </trkpt>
      <trkpt lat="44.3125" lon="3.61985">
        <ele>610</ele>
        <time>2015-06-17T07:23:03Z</time>
      </trkpt>
      <trkpt lat="44.3125" lon="3.61999">
        <ele>609</ele>
        <time>2015-06-17T07:23:13Z</time>
      </trkpt>
      <trkpt lat="44.31254" lon="3.62003">
        <ele>607</ele>
        <time>2015-06-17T07:23:16Z</time>
      </trkpt>
      <trkpt lat="44.31256" lon="3.62011">
        <ele>605</ele>
        <time>2015-06-17T07:23:19Z</time>
      </trkpt>
      <trkpt lat="44.3126" lon="3.62016">
        <ele>603</ele>
        <time>2015-06-17T07:23:23Z</time>
      </trkpt>
      <trkpt lat="44.31259" lon="3.62023">
        <ele>603</ele>
        <time>2015-06-17T07:23:27Z</time>
      </trkpt>
      <trkpt lat="44.31254" lon="3.62026">
        <ele>603</ele>
        <time>2015-06-17T07:23:30Z</time>
      </trkpt>
      <trkpt lat="44.3125" lon="3.62031">
        <ele>603</ele>
        <time>2015-06-17T07:23:41Z</time>
      </trkpt>
      <trkpt lat="44.31249" lon="3.62033">
        <ele>619</ele>
        <time>2015-06-17T07:24:07Z</time>
      </trkpt>
      <trkpt lat="44.3125" lon="3.62033">
        <ele>619</ele>
        <time>2015-06-17T07:24:23Z</time>
      </trkpt>
      <trkpt lat="44.31249" lon="3.62033">
        <ele>619</ele>
        <time>2015-06-17T07:24:38Z</time>
      </trkpt>
      <trkpt lat="44.31254" lon="3.62058">
        <ele>606</ele>
        <time>2015-06-17T07:28:19Z</time>
      </trkpt>
      <trkpt lat="44.31257" lon="3.62063">
        <ele>607</ele>
        <time>2015-06-17T07:28:22Z</time>
      </trkpt>
      <trkpt lat="44.3126" lon="3.62084">
        <ele>616</ele>
        <time>2015-06-17T07:28:31Z</time>
      </trkpt>
      <trkpt lat="44.3126" lon="3.62092">
        <ele>615</ele>
        <time>2015-06-17T07:28:34Z</time>
      </trkpt>
      <trkpt lat="44.3126" lon="3.62099">
        <ele>615</ele>
        <time>2015-06-17T07:28:38Z</time>
      </trkpt>
      <trkpt lat="44.31261" lon="3.62106">
        <ele>615</ele>
        <time>2015-06-17T07:28:43Z</time>
      </trkpt>
      <trkpt lat="44.31263" lon="3.62113">
        <ele>614</ele>
        <time>2015-06-17T07:28:48Z</time>
      </trkpt>
      <trkpt lat="44.31265" lon="3.62122">
        <ele>615</ele>
        <time>2015-06-17T07:28:52Z</time>
      </trkpt>
      <trkpt lat="44.3127" lon="3.62129">
        <ele>615</ele>
        <time>2015-06-17T07:28:54Z</time>
      </trkpt>
      <trkpt lat="44.3127" lon="3.62136">
        <ele>616</ele>
        <time>2015-06-17T07:28:58Z</time>
      </trkpt>
      <trkpt lat="44.31272" lon="3.62142">
        <ele>617</ele>
        <time>2015-06-17T07:29:04Z</time>
      </trkpt>
      <trkpt lat="44.31268" lon="3.6214">
        <ele>617</ele>
        <time>2015-06-17T07:29:11Z</time>
      </trkpt>
      <trkpt lat="44.3127" lon="3.6214">
        <ele>617</ele>
        <time>2015-06-17T07:29:35Z</time>
      </trkpt>
      <trkpt lat="44.31269" lon="3.62146">
        <ele>618</ele>
        <time>2015-06-17T07:29:46Z</time>
      </trkpt>
      <trkpt lat="44.31269" lon="3.62155">
        <ele>620</ele>
        <time>2015-06-17T07:29:49Z</time>
      </trkpt>
      <trkpt lat="44.3127" lon="3.62161">
        <ele>621</ele>
        <time>2015-06-17T07:29:51Z</time>
      </trkpt>
      <trkpt lat="44.31279" lon="3.62181">
        <ele>630</ele>
        <time>2015-06-17T07:30:01Z</time>
      </trkpt>
      <trkpt lat="44.3128" lon="3.62187">
        <ele>630</ele>
        <time>2015-06-17T07:30:05Z</time>
      </trkpt>
      <trkpt lat="44.3128" lon="3.62194">
        <ele>631</ele>
        <time>2015-06-17T07:30:08Z</time>
      </trkpt>
      <trkpt lat="44.31283" lon="3.62201">
        <ele>631</ele>
        <time>2015-06-17T07:30:12Z</time>
      </trkpt>
      <trkpt lat="44.31286" lon="3.62206">
        <ele>631</ele>
        <time>2015-06-17T07:30:16Z</time>
      </trkpt>
      <trkpt lat="44.31288" lon="3.62212">
        <ele>631</ele>
        <time>2015-06-17T07:30:22Z</time>
      </trkpt>
      <trkpt lat="44.31289" lon="3.62219">
        <ele>632</ele>
        <time>2015-06-17T07:30:25Z</time>
      </trkpt>
      <trkpt lat="44.31293" lon="3.62223">
        <ele>632</ele>
        <time>2015-06-17T07:30:28Z</time>
      </trkpt>
      <trkpt lat="44.31297" lon="3.62226">
        <ele>631</ele>
        <time>2015-06-17T07:30:34Z</time>
      </trkpt>
      <trkpt lat="44.31302" lon="3.6223">
        <ele>631</ele>
        <time>2015-06-17T07:30:39Z</time>
      </trkpt>
      <trkpt lat="44.31307" lon="3.62231">
        <ele>630</ele>
        <time>2015-06-17T07:30:42Z</time>
      </trkpt>
      <trkpt lat="44.31312" lon="3.62234">
        <ele>629</ele>
        <time>2015-06-17T07:30:46Z</time>
      </trkpt>
      <trkpt lat="44.31315" lon="3.62241">
        <ele>629</ele>
        <time>2015-06-17T07:30:57Z</time>
      </trkpt>
      <trkpt lat="44.31319" lon="3.62243">
        <ele>628</ele>
        <time>2015-06-17T07:30:59Z</time>
      </trkpt>
      <trkpt lat="44.31323" lon="3.62248">
        <ele>628</ele>
        <time>2015-06-17T07:31:02Z</time>
      </trkpt>
      <trkpt lat="44.31328" lon="3.62259">
        <ele>635</ele>
        <time>2015-06-17T07:31:09Z</time>
      </trkpt>
      <trkpt lat="44.3133" lon="3.62266">
        <ele>638</ele>
        <time>2015-06-17T07:31:13Z</time>
      </trkpt>
      <trkpt lat="44.31334" lon="3.6227">
        <ele>624</ele>
        <time>2015-06-17T07:31:15Z</time>
      </trkpt>
      <trkpt lat="44.31338" lon="3.62274">
        <ele>624</ele>
        <time>2015-06-17T07:31:17Z</time>
      </trkpt>
      <trkpt lat="44.31346" lon="3.62282">
        <ele>624</ele>
        <time>2015-06-17T07:31:21Z</time>
      </trkpt>
      <trkpt lat="44.31348" lon="3.62288">
        <ele>624</ele>
        <time>2015-06-17T07:31:25Z</time>
      </trkpt>
      <trkpt lat="44.31354" lon="3.6229">
        <ele>624</ele>
        <time>2015-06-17T07:31:28Z</time>
      </trkpt>
      <trkpt lat="44.31358" lon="3.62294">
        <ele>624</ele>
        <time>2015-06-17T07:31:33Z</time>
      </trkpt>
      <trkpt lat="44.31357" lon="3.623">
        <ele>625</ele>
        <time>2015-06-17T07:31:38Z</time>
      </trkpt>
      <trkpt lat="44.31353" lon="3.62304">
        <ele>627</ele>
        <time>2015-06-17T07:31:42Z</time>
      </trkpt>
      <trkpt lat="44.3135" lon="3.62309">
        <ele>629</ele>
        <time>2015-06-17T07:31:49Z</time>
      </trkpt>
      <trkpt lat="44.31352" lon="3.62315">
        <ele>630</ele>
        <time>2015-06-17T07:31:57Z</time>
      </trkpt>
      <trkpt lat="44.31356" lon="3.62318">
        <ele>629</ele>
        <time>2015-06-17T07:32:02Z</time>
      </trkpt>
      <trkpt lat="44.31358" lon="3.62325">
        <ele>630</ele>
        <time>2015-06-17T07:32:07Z</time>
      </trkpt>
      <trkpt lat="44.31356" lon="3.62332">
        <ele>631</ele>
        <time>2015-06-17T07:32:13Z</time>
      </trkpt>
      <trkpt lat="44.31359" lon="3.62338">
        <ele>643</ele>
        <time>2015-06-17T07:32:19Z</time>
      </trkpt>
      <trkpt lat="44.31363" lon="3.62343">
        <ele>642</ele>
        <time>2015-06-17T07:32:24Z</time>
      </trkpt>
      <trkpt lat="44.31362" lon="3.62351">
        <ele>643</ele>
        <time>2015-06-17T07:32:29Z</time>
      </trkpt>
      <trkpt lat="44.31366" lon="3.62365">
        <ele>644</ele>
        <time>2015-06-17T07:32:38Z</time>
      </trkpt>
      <trkpt lat="44.31371" lon="3.62367">
        <ele>643</ele>
        <time>2015-06-17T07:32:41Z</time>
      </trkpt>
      <trkpt lat="44.31373" lon="3.62373">
        <ele>644</ele>
        <time>2015-06-17T07:32:50Z</time>
      </trkpt>
      <trkpt lat="44.31371" lon="3.62382">
        <ele>645</ele>
        <time>2015-06-17T07:32:56Z</time>
      </trkpt>
      <trkpt lat="44.31379" lon="3.62392">
        <ele>645</ele>
        <time>2015-06-17T07:33:04Z</time>
      </trkpt>
      <trkpt lat="44.31381" lon="3.62398">
        <ele>645</ele>
        <time>2015-06-17T07:33:17Z</time>
      </trkpt>
      <trkpt lat="44.31385" lon="3.62401">
        <ele>645</ele>
        <time>2015-06-17T07:33:21Z</time>
      </trkpt>
      <trkpt lat="44.31394" lon="3.62409">
        <ele>643</ele>
        <time>2015-06-17T07:33:31Z</time>
      </trkpt>
      <trkpt lat="44.31395" lon="3.62416">
        <ele>644</ele>
        <time>2015-06-17T07:33:39Z</time>
      </trkpt>
      <trkpt lat="44.31397" lon="3.62422">
        <ele>653</ele>
        <time>2015-06-17T07:33:47Z</time>
      </trkpt>
      <trkpt lat="44.314" lon="3.62427">
        <ele>653</ele>
        <time>2015-06-17T07:33:52Z</time>
      </trkpt>
      <trkpt lat="44.31403" lon="3.62433">
        <ele>654</ele>
        <time>2015-06-17T07:34:00Z</time>
      </trkpt>
      <trkpt lat="44.31406" lon="3.62445">
        <ele>656</ele>
        <time>2015-06-17T07:34:14Z</time>
      </trkpt>
      <trkpt lat="44.31411" lon="3.6245">
        <ele>657</ele>
        <time>2015-06-17T07:34:19Z</time>
      </trkpt>
      <trkpt lat="44.3142" lon="3.62465">
        <ele>644</ele>
        <time>2015-06-17T07:34:36Z</time>
      </trkpt>
      <trkpt lat="44.31425" lon="3.62469">
        <ele>644</ele>
        <time>2015-06-17T07:34:41Z</time>
      </trkpt>
      <trkpt lat="44.31427" lon="3.62475">
        <ele>646</ele>
        <time>2015-06-17T07:34:48Z</time>
      </trkpt>
      <trkpt lat="44.3143" lon="3.6248">
        <ele>646</ele>
        <time>2015-06-17T07:34:53Z</time>
      </trkpt>
      <trkpt lat="44.31432" lon="3.62487">
        <ele>648</ele>
        <time>2015-06-17T07:34:58Z</time>
      </trkpt>
      <trkpt lat="44.31438" lon="3.62496">
        <ele>647</ele>
        <time>2015-06-17T07:35:08Z</time>
      </trkpt>
      <trkpt lat="44.31436" lon="3.62502">
        <ele>650</ele>
        <time>2015-06-17T07:35:13Z</time>
      </trkpt>
      <trkpt lat="44.3144" lon="3.62507">
        <ele>649</ele>
        <time>2015-06-17T07:35:19Z</time>
      </trkpt>
      <trkpt lat="44.31443" lon="3.62512">
        <ele>648</ele>
        <time>2015-06-17T07:35:25Z</time>
      </trkpt>
      <trkpt lat="44.3144" lon="3.62519">
        <ele>648</ele>
        <time>2015-06-17T07:35:30Z</time>
      </trkpt>
      <trkpt lat="44.31437" lon="3.62525">
        <ele>648</ele>
        <time>2015-06-17T07:35:35Z</time>
      </trkpt>
      <trkpt lat="44.31433" lon="3.62528">
        <ele>648</ele>
        <time>2015-06-17T07:35:45Z</time>
      </trkpt>
      <trkpt lat="44.31426" lon="3.62538">
        <ele>648</ele>
        <time>2015-06-17T07:35:57Z</time>
      </trkpt>
      <trkpt lat="44.31421" lon="3.62543">
        <ele>648</ele>
        <time>2015-06-17T07:36:02Z</time>
      </trkpt>
      <trkpt lat="44.31408" lon="3.62556">
        <ele>663</ele>
        <time>2015-06-17T07:36:14Z</time>
      </trkpt>
      <trkpt lat="44.31403" lon="3.62559">
        <ele>663</ele>
        <time>2015-06-17T07:36:20Z</time>
      </trkpt>
      <trkpt lat="44.31398" lon="3.6256">
        <ele>664</ele>
        <time>2015-06-17T07:36:24Z</time>
      </trkpt>
      <trkpt lat="44.31393" lon="3.62563">
        <ele>665</ele>
        <time>2015-06-17T07:36:30Z</time>
      </trkpt>
      <trkpt lat="44.31387" lon="3.62564">
        <ele>666</ele>
        <time>2015-06-17T07:36:40Z</time>
      </trkpt>
      <trkpt lat="44.31383" lon="3.62568">
        <ele>667</ele>
        <time>2015-06-17T07:36:46Z</time>
      </trkpt>
      <trkpt lat="44.3138" lon="3.62574">
        <ele>667</ele>
        <time>2015-06-17T07:36:52Z</time>
      </trkpt>
      <trkpt lat="44.31368" lon="3.62587">
        <ele>661</ele>
        <time>2015-06-17T07:37:02Z</time>
      </trkpt>
      <trkpt lat="44.31363" lon="3.62589">
        <ele>662</ele>
        <time>2015-06-17T07:37:07Z</time>
      </trkpt>
      <trkpt lat="44.31361" lon="3.62594">
        <ele>663</ele>
        <time>2015-06-17T07:37:11Z</time>
      </trkpt>
      <trkpt lat="44.31356" lon="3.62598">
        <ele>663</ele>
        <time>2015-06-17T07:37:15Z</time>
      </trkpt>
      <trkpt lat="44.31351" lon="3.62602">
        <ele>665</ele>
        <time>2015-06-17T07:37:18Z</time>
      </trkpt>
      <trkpt lat="44.31347" lon="3.62603">
        <ele>665</ele>
        <time>2015-06-17T07:37:20Z</time>
      </trkpt>
      <trkpt lat="44.31342" lon="3.62606">
        <ele>665</ele>
        <time>2015-06-17T07:37:26Z</time>
      </trkpt>
      <trkpt lat="44.3134" lon="3.62612">
        <ele>664</ele>
        <time>2015-06-17T07:37:36Z</time>
      </trkpt>
      <trkpt lat="44.31336" lon="3.62616">
        <ele>662</ele>
        <time>2015-06-17T07:37:43Z</time>
      </trkpt>
      <trkpt lat="44.31334" lon="3.62623">
        <ele>661</ele>
        <time>2015-06-17T07:37:47Z</time>
      </trkpt>
      <trkpt lat="44.31331" lon="3.62628">
        <ele>681</ele>
        <time>2015-06-17T07:37:51Z</time>
      </trkpt>
      <trkpt lat="44.31329" lon="3.62634">
        <ele>679</ele>
        <time>2015-06-17T07:37:56Z</time>
      </trkpt>
      <trkpt lat="44.31326" lon="3.62639">
        <ele>678</ele>
        <time>2015-06-17T07:38:03Z</time>
      </trkpt>
      <trkpt lat="44.31321" lon="3.6264">
        <ele>679</ele>
        <time>2015-06-17T07:38:07Z</time>
      </trkpt>
      <trkpt lat="44.31315" lon="3.62639">
        <ele>680</ele>
        <time>2015-06-17T07:38:11Z</time>
      </trkpt>
      <trkpt lat="44.3131" lon="3.62638">
        <ele>682</ele>
        <time>2015-06-17T07:38:15Z</time>
      </trkpt>
      <trkpt lat="44.31305" lon="3.62642">
        <ele>682</ele>
        <time>2015-06-17T07:38:20Z</time>
      </trkpt>
      <trkpt lat="44.31301" lon="3.62647">
        <ele>682</ele>
        <time>2015-06-17T07:38:24Z</time>
      </trkpt>
      <trkpt lat="44.31296" lon="3.62648">
        <ele>683</ele>
        <time>2015-06-17T07:38:30Z</time>
      </trkpt>
      <trkpt lat="44.31287" lon="3.62658">
        <ele>685</ele>
        <time>2015-06-17T07:38:38Z</time>
      </trkpt>
      <trkpt lat="44.31285" lon="3.62664">
        <ele>685</ele>
        <time>2015-06-17T07:38:41Z</time>
      </trkpt>
      <trkpt lat="44.31277" lon="3.62699">
        <ele>668</ele>
        <time>2015-06-17T07:39:00Z</time>
      </trkpt>
      <trkpt lat="44.31274" lon="3.62705">
        <ele>667</ele>
        <time>2015-06-17T07:39:04Z</time>
      </trkpt>
      <trkpt lat="44.3127" lon="3.6271">
        <ele>667</ele>
        <time>2015-06-17T07:39:08Z</time>
      </trkpt>
      <trkpt lat="44.31266" lon="3.62716">
        <ele>666</ele>
        <time>2015-06-17T07:39:11Z</time>
      </trkpt>
      <trkpt lat="44.3126" lon="3.62725">
        <ele>667</ele>
        <time>2015-06-17T07:39:22Z</time>
      </trkpt>
      <trkpt lat="44.31255" lon="3.6273">
        <ele>667</ele>
        <time>2015-06-17T07:39:27Z</time>
      </trkpt>
      <trkpt lat="44.31246" lon="3.62737">
        <ele>682</ele>
        <time>2015-06-17T07:39:35Z</time>
      </trkpt>
      <trkpt lat="44.31245" lon="3.62743">
        <ele>678</ele>
        <time>2015-06-17T07:39:40Z</time>
      </trkpt>
      <trkpt lat="44.31241" lon="3.62748">
        <ele>679</ele>
        <time>2015-06-17T07:39:45Z</time>
      </trkpt>
      <trkpt lat="44.31239" lon="3.62754">
        <ele>672</ele>
        <time>2015-06-17T07:39:49Z</time>
      </trkpt>
      <trkpt lat="44.31239" lon="3.6276">
        <ele>673</ele>
        <time>2015-06-17T07:39:52Z</time>
      </trkpt>
      <trkpt lat="44.31237" lon="3.62768">
        <ele>673</ele>
        <time>2015-06-17T07:39:56Z</time>
      </trkpt>
      <trkpt lat="44.31233" lon="3.62772">
        <ele>674</ele>
        <time>2015-06-17T07:40:00Z</time>
      </trkpt>
      <trkpt lat="44.31228" lon="3.62774">
        <ele>674</ele>
        <time>2015-06-17T07:40:03Z</time>
      </trkpt>
      <trkpt lat="44.31213" lon="3.62798">
        <ele>674</ele>
        <time>2015-06-17T07:40:17Z</time>
      </trkpt>
      <trkpt lat="44.31208" lon="3.62811">
        <ele>674</ele>
        <time>2015-06-17T07:40:22Z</time>
      </trkpt>
      <trkpt lat="44.31197" lon="3.62817">
        <ele>677</ele>
        <time>2015-06-17T07:40:28Z</time>
      </trkpt>
      <trkpt lat="44.31199" lon="3.62823">
        <ele>676</ele>
        <time>2015-06-17T07:40:36Z</time>
      </trkpt>
      <trkpt lat="44.31205" lon="3.62848">
        <ele>660</ele>
        <time>2015-06-17T07:40:58Z</time>
      </trkpt>
      <trkpt lat="44.31193" lon="3.62864">
        <ele>662</ele>
        <time>2015-06-17T07:41:13Z</time>
      </trkpt>
      <trkpt lat="44.31191" lon="3.62871">
        <ele>661</ele>
        <time>2015-06-17T07:41:20Z</time>
      </trkpt>
      <trkpt lat="44.31189" lon="3.62878">
        <ele>661</ele>
        <time>2015-06-17T07:41:25Z</time>
      </trkpt>
      <trkpt lat="44.31186" lon="3.62899">
        <ele>660</ele>
        <time>2015-06-17T07:41:39Z</time>
      </trkpt>
      <trkpt lat="44.31182" lon="3.62903">
        <ele>662</ele>
        <time>2015-06-17T07:41:43Z</time>
      </trkpt>
      <trkpt lat="44.31177" lon="3.62904">
        <ele>663</ele>
        <time>2015-06-17T07:41:46Z</time>
      </trkpt>
      <trkpt lat="44.31173" lon="3.62909">
        <ele>665</ele>
        <time>2015-06-17T07:41:56Z</time>
      </trkpt>
      <trkpt lat="44.31171" lon="3.62916">
        <ele>667</ele>
        <time>2015-06-17T07:41:59Z</time>
      </trkpt>
      <trkpt lat="44.31168" lon="3.62923">
        <ele>663</ele>
        <time>2015-06-17T07:42:03Z</time>
      </trkpt>
      <trkpt lat="44.31163" lon="3.62937">
        <ele>677</ele>
        <time>2015-06-17T07:42:11Z</time>
      </trkpt>
      <trkpt lat="44.31162" lon="3.62945">
        <ele>677</ele>
        <time>2015-06-17T07:42:15Z</time>
      </trkpt>
      <trkpt lat="44.31164" lon="3.62958">
        <ele>677</ele>
        <time>2015-06-17T07:42:24Z</time>
      </trkpt>
      <trkpt lat="44.3116" lon="3.62964">
        <ele>676</ele>
        <time>2015-06-17T07:42:27Z</time>
      </trkpt>
      <trkpt lat="44.31156" lon="3.6297">
        <ele>676</ele>
        <time>2015-06-17T07:42:29Z</time>
      </trkpt>
      <trkpt lat="44.31154" lon="3.62977">
        <ele>674</ele>
        <time>2015-06-17T07:42:31Z</time>
      </trkpt>
      <trkpt lat="44.31151" lon="3.62993">
        <ele>670</ele>
        <time>2015-06-17T07:42:37Z</time>
      </trkpt>
      <trkpt lat="44.31155" lon="3.62999">
        <ele>667</ele>
        <time>2015-06-17T07:42:41Z</time>
      </trkpt>
      <trkpt lat="44.31158" lon="3.63004">
        <ele>661</ele>
        <time>2015-06-17T07:42:45Z</time>
      </trkpt>
      <trkpt lat="44.31159" lon="3.63011">
        <ele>662</ele>
        <time>2015-06-17T07:42:55Z</time>
      </trkpt>
      <trkpt lat="44.31158" lon="3.63019">
        <ele>664</ele>
        <time>2015-06-17T07:42:58Z</time>
      </trkpt>
      <trkpt lat="44.31155" lon="3.63031">
        <ele>666</ele>
        <time>2015-06-17T07:43:05Z</time>
      </trkpt>
      <trkpt lat="44.31151" lon="3.63036">
        <ele>666</ele>
        <time>2015-06-17T07:43:08Z</time>
      </trkpt>
      <trkpt lat="44.31148" lon="3.63043">
        <ele>666</ele>
        <time>2015-06-17T07:43:11Z</time>
      </trkpt>
      <trkpt lat="44.31149" lon="3.63049">
        <ele>665</ele>
        <time>2015-06-17T07:43:15Z</time>
      </trkpt>
      <trkpt lat="44.31151" lon="3.63055">
        <ele>664</ele>
        <time>2015-06-17T07:43:19Z</time>
      </trkpt>
      <trkpt lat="44.3115" lon="3.63063">
        <ele>663</ele>
        <time>2015-06-17T07:43:24Z</time>
      </trkpt>
      <trkpt lat="44.31149" lon="3.6307">
        <ele>661</ele>
        <time>2015-06-17T07:43:28Z</time>
      </trkpt>
      <trkpt lat="44.31145" lon="3.63083">
        <ele>661</ele>
        <time>2015-06-17T07:43:35Z</time>
      </trkpt>
      <trkpt lat="44.31139" lon="3.63088">
        <ele>654</ele>
        <time>2015-06-17T07:43:38Z</time>
      </trkpt>
      <trkpt lat="44.31134" lon="3.63095">
        <ele>655</ele>
        <time>2015-06-17T07:43:43Z</time>
      </trkpt>
      <trkpt lat="44.31133" lon="3.63101">
        <ele>656</ele>
        <time>2015-06-17T07:43:47Z</time>
      </trkpt>
      <trkpt lat="44.3113" lon="3.63106">
        <ele>656</ele>
        <time>2015-06-17T07:43:58Z</time>
      </trkpt>
      <trkpt lat="44.31128" lon="3.63113">
        <ele>656</ele>
        <time>2015-06-17T07:44:02Z</time>
      </trkpt>
      <trkpt lat="44.31125" lon="3.63119">
        <ele>656</ele>
        <time>2015-06-17T07:44:05Z</time>
      </trkpt>
      <trkpt lat="44.31115" lon="3.63135">
        <ele>656</ele>
        <time>2015-06-17T07:44:16Z</time>
      </trkpt>
      <trkpt lat="44.3111" lon="3.63137">
        <ele>656</ele>
        <time>2015-06-17T07:44:19Z</time>
      </trkpt>
      <trkpt lat="44.31107" lon="3.63142">
        <ele>656</ele>
        <time>2015-06-17T07:44:22Z</time>
      </trkpt>
      <trkpt lat="44.31101" lon="3.63142">
        <ele>657</ele>
        <time>2015-06-17T07:44:29Z</time>
      </trkpt>
      <trkpt lat="44.31096" lon="3.63141">
        <ele>658</ele>
        <time>2015-06-17T07:44:32Z</time>
      </trkpt>
      <trkpt lat="44.31091" lon="3.63141">
        <ele>658</ele>
        <time>2015-06-17T07:44:35Z</time>
      </trkpt>
      <trkpt lat="44.31086" lon="3.63145">
        <ele>658</ele>
        <time>2015-06-17T07:44:39Z</time>
      </trkpt>
      <trkpt lat="44.31076" lon="3.63141">
        <ele>671</ele>
        <time>2015-06-17T07:44:48Z</time>
      </trkpt>
      <trkpt lat="44.31071" lon="3.63144">
        <ele>670</ele>
        <time>2015-06-17T07:44:56Z</time>
      </trkpt>
      <trkpt lat="44.31067" lon="3.63148">
        <ele>670</ele>
        <time>2015-06-17T07:45:00Z</time>
      </trkpt>
      <trkpt lat="44.31055" lon="3.63151">
        <ele>671</ele>
        <time>2015-06-17T07:45:08Z</time>
      </trkpt>
      <trkpt lat="44.31051" lon="3.63156">
        <ele>671</ele>
        <time>2015-06-17T07:45:11Z</time>
      </trkpt>
      <trkpt lat="44.31041" lon="3.6316">
        <ele>672</ele>
        <time>2015-06-17T07:45:20Z</time>
      </trkpt>
      <trkpt lat="44.31037" lon="3.63158">
        <ele>673</ele>
        <time>2015-06-17T07:45:27Z</time>
      </trkpt>
      <trkpt lat="44.31038" lon="3.6315">
        <ele>673</ele>
        <time>2015-06-17T07:45:31Z</time>
      </trkpt>
      <trkpt lat="44.31039" lon="3.63143">
        <ele>674</ele>
        <time>2015-06-17T07:45:34Z</time>
      </trkpt>
      <trkpt lat="44.31037" lon="3.63136">
        <ele>676</ele>
        <time>2015-06-17T07:45:36Z</time>
      </trkpt>
      <trkpt lat="44.31031" lon="3.63136">
        <ele>676</ele>
        <time>2015-06-17T07:45:41Z</time>
      </trkpt>
      <trkpt lat="44.31027" lon="3.63138">
        <ele>676</ele>
        <time>2015-06-17T07:45:44Z</time>
      </trkpt>
      <trkpt lat="44.31022" lon="3.6314">
        <ele>675</ele>
        <time>2015-06-17T07:45:49Z</time>
      </trkpt>
      <trkpt lat="44.31014" lon="3.63129">
        <ele>678</ele>
        <time>2015-06-17T07:46:08Z</time>
      </trkpt>
      <trkpt lat="44.31008" lon="3.63131">
        <ele>677</ele>
        <time>2015-06-17T07:46:15Z</time>
      </trkpt>
      <trkpt lat="44.31004" lon="3.63134">
        <ele>677</ele>
        <time>2015-06-17T07:46:18Z</time>
      </trkpt>
      <trkpt lat="44.31" lon="3.63136">
        <ele>683</ele>
        <time>2015-06-17T07:46:23Z</time>
      </trkpt>
      <trkpt lat="44.30995" lon="3.63133">
        <ele>684</ele>
        <time>2015-06-17T07:46:28Z</time>
      </trkpt>
      <trkpt lat="44.30991" lon="3.63129">
        <ele>685</ele>
        <time>2015-06-17T07:46:34Z</time>
      </trkpt>
      <trkpt lat="44.30985" lon="3.63128">
        <ele>685</ele>
        <time>2015-06-17T07:46:41Z</time>
      </trkpt>
      <trkpt lat="44.3098" lon="3.63128">
        <ele>686</ele>
        <time>2015-06-17T07:46:47Z</time>
      </trkpt>
      <trkpt lat="44.30975" lon="3.63125">
        <ele>686</ele>
        <time>2015-06-17T07:46:51Z</time>
      </trkpt>
      <trkpt lat="44.30972" lon="3.63119">
        <ele>687</ele>
        <time>2015-06-17T07:47:01Z</time>
      </trkpt>
      <trkpt lat="44.30971" lon="3.63113">
        <ele>688</ele>
        <time>2015-06-17T07:47:08Z</time>
      </trkpt>
      <trkpt lat="44.30965" lon="3.63115">
        <ele>688</ele>
        <time>2015-06-17T07:47:14Z</time>
      </trkpt>
      <trkpt lat="44.30963" lon="3.63109">
        <ele>689</ele>
        <time>2015-06-17T07:47:18Z</time>
      </trkpt>
      <trkpt lat="44.30965" lon="3.63102">
        <ele>689</ele>
        <time>2015-06-17T07:47:21Z</time>
      </trkpt>
      <trkpt lat="44.30962" lon="3.63097">
        <ele>689</ele>
        <time>2015-06-17T07:47:29Z</time>
      </trkpt>
      <trkpt lat="44.30958" lon="3.63093">
        <ele>689</ele>
        <time>2015-06-17T07:47:38Z</time>
      </trkpt>
      <trkpt lat="44.30953" lon="3.63091">
        <ele>689</ele>
        <time>2015-06-17T07:47:44Z</time>
      </trkpt>
      <trkpt lat="44.3095" lon="3.63086">
        <ele>689</ele>
        <time>2015-06-17T07:47:50Z</time>
      </trkpt>
      <trkpt lat="44.30945" lon="3.63085">
        <ele>689</ele>
        <time>2015-06-17T07:48:00Z</time>
      </trkpt>
      <trkpt lat="44.30936" lon="3.63088">
        <ele>689</ele>
        <time>2015-06-17T07:48:12Z</time>
      </trkpt>
      <trkpt lat="44.30931" lon="3.63086">
        <ele>689</ele>
        <time>2015-06-17T07:48:18Z</time>
      </trkpt>
      <trkpt lat="44.30926" lon="3.63085">
        <ele>690</ele>
        <time>2015-06-17T07:48:21Z</time>
      </trkpt>
      <trkpt lat="44.30921" lon="3.63085">
        <ele>690</ele>
        <time>2015-06-17T07:48:24Z</time>
      </trkpt>
      <trkpt lat="44.30916" lon="3.63084">
        <ele>690</ele>
        <time>2015-06-17T07:48:27Z</time>
      </trkpt>
      <trkpt lat="44.30913" lon="3.63079">
        <ele>693</ele>
        <time>2015-06-17T07:48:30Z</time>
      </trkpt>
      <trkpt lat="44.30908" lon="3.63077">
        <ele>695</ele>
        <time>2015-06-17T07:48:33Z</time>
      </trkpt>
      <trkpt lat="44.30903" lon="3.63078">
        <ele>697</ele>
        <time>2015-06-17T07:48:37Z</time>
      </trkpt>
      <trkpt lat="44.30898" lon="3.6308">
        <ele>698</ele>
        <time>2015-06-17T07:48:41Z</time>
      </trkpt>
      <trkpt lat="44.30893" lon="3.63078">
        <ele>699</ele>
        <time>2015-06-17T07:48:46Z</time>
      </trkpt>
      <trkpt lat="44.3089" lon="3.63072">
        <ele>700</ele>
        <time>2015-06-17T07:48:53Z</time>
      </trkpt>
      <trkpt lat="44.30885" lon="3.63069">
        <ele>701</ele>
        <time>2015-06-17T07:48:57Z</time>
      </trkpt>
      <trkpt lat="44.30882" lon="3.63064">
        <ele>702</ele>
        <time>2015-06-17T07:49:03Z</time>
      </trkpt>
      <trkpt lat="44.30878" lon="3.63059">
        <ele>703</ele>
        <time>2015-06-17T07:49:10Z</time>
      </trkpt>
      <trkpt lat="44.30878" lon="3.63052">
        <ele>703</ele>
        <time>2015-06-17T07:49:13Z</time>
      </trkpt>
      <trkpt lat="44.30876" lon="3.63046">
        <ele>704</ele>
        <time>2015-06-17T07:49:16Z</time>
      </trkpt>
      <trkpt lat="44.30872" lon="3.63042">
        <ele>704</ele>
        <time>2015-06-17T07:49:19Z</time>
      </trkpt>
      <trkpt lat="44.30867" lon="3.63039">
        <ele>705</ele>
        <time>2015-06-17T07:49:23Z</time>
      </trkpt>
      <trkpt lat="44.30862" lon="3.63038">
        <ele>705</ele>
        <time>2015-06-17T07:49:26Z</time>
      </trkpt>
      <trkpt lat="44.30859" lon="3.63044">
        <ele>704</ele>
        <time>2015-06-17T07:49:32Z</time>
      </trkpt>
      <trkpt lat="44.30851" lon="3.63055">
        <ele>703</ele>
        <time>2015-06-17T07:49:40Z</time>
      </trkpt>
      <trkpt lat="44.30855" lon="3.63059">
        <ele>703</ele>
        <time>2015-06-17T07:49:48Z</time>
      </trkpt>
      <trkpt lat="44.3086" lon="3.63061">
        <ele>703</ele>
        <time>2015-06-17T07:49:55Z</time>
      </trkpt>
      <trkpt lat="44.30862" lon="3.63074">
        <ele>702</ele>
        <time>2015-06-17T07:50:08Z</time>
      </trkpt>
      <trkpt lat="44.30854" lon="3.63076">
        <ele>702</ele>
        <time>2015-06-17T07:50:15Z</time>
      </trkpt>
      <trkpt lat="44.30848" lon="3.63081">
        <ele>702</ele>
        <time>2015-06-17T07:50:17Z</time>
      </trkpt>
      <trkpt lat="44.30845" lon="3.63088">
        <ele>703</ele>
        <time>2015-06-17T07:50:19Z</time>
      </trkpt>
      <trkpt lat="44.3085" lon="3.6309">
        <ele>703</ele>
        <time>2015-06-17T07:50:23Z</time>
      </trkpt>
      <trkpt lat="44.30854" lon="3.63086">
        <ele>703</ele>
        <time>2015-06-17T07:50:25Z</time>
      </trkpt>
      <trkpt lat="44.30859" lon="3.63083">
        <ele>702</ele>
        <time>2015-06-17T07:50:28Z</time>
      </trkpt>
      <trkpt lat="44.30864" lon="3.63085">
        <ele>702</ele>
        <time>2015-06-17T07:50:33Z</time>
      </trkpt>
      <trkpt lat="44.30869" lon="3.63085">
        <ele>701</ele>
        <time>2015-06-17T07:50:36Z</time>
      </trkpt>
      <trkpt lat="44.30874" lon="3.63086">
        <ele>701</ele>
        <time>2015-06-17T07:50:38Z</time>
      </trkpt>
      <trkpt lat="44.30881" lon="3.63089">
        <ele>700</ele>
        <time>2015-06-17T07:50:41Z</time>
      </trkpt>
      <trkpt lat="44.30886" lon="3.63092">
        <ele>699</ele>
        <time>2015-06-17T07:50:45Z</time>
      </trkpt>
      <trkpt lat="44.30887" lon="3.63099">
        <ele>700</ele>
        <time>2015-06-17T07:50:49Z</time>
      </trkpt>
      <trkpt lat="44.30888" lon="3.63105">
        <ele>700</ele>
        <time>2015-06-17T07:50:56Z</time>
      </trkpt>
      <trkpt lat="44.30891" lon="3.6311">
        <ele>700</ele>
        <time>2015-06-17T07:51:08Z</time>
      </trkpt>
      <trkpt lat="44.30897" lon="3.63148">
        <ele>701</ele>
        <time>2015-06-17T07:51:40Z</time>
      </trkpt>
      <trkpt lat="44.30899" lon="3.63155">
        <ele>700</ele>
        <time>2015-06-17T07:51:43Z</time>
      </trkpt>
      <trkpt lat="44.30903" lon="3.6316">
        <ele>698</ele>
        <time>2015-06-17T07:51:46Z</time>
      </trkpt>
      <trkpt lat="44.30907" lon="3.63163">
        <ele>697</ele>
        <time>2015-06-17T07:51:49Z</time>
      </trkpt>
      <trkpt lat="44.30919" lon="3.63176">
        <ele>691</ele>
        <time>2015-06-17T07:51:59Z</time>
      </trkpt>
      <trkpt lat="44.30922" lon="3.63184">
        <ele>689</ele>
        <time>2015-06-17T07:52:03Z</time>
      </trkpt>
      <trkpt lat="44.30926" lon="3.6319">
        <ele>688</ele>
        <time>2015-06-17T07:52:06Z</time>
      </trkpt>
      <trkpt lat="44.30928" lon="3.63196">
        <ele>688</ele>
        <time>2015-06-17T07:52:09Z</time>
      </trkpt>
      <trkpt lat="44.30932" lon="3.63201">
        <ele>688</ele>
        <time>2015-06-17T07:52:13Z</time>
      </trkpt>
      <trkpt lat="44.30933" lon="3.63215">
        <ele>689</ele>
        <time>2015-06-17T07:52:21Z</time>
      </trkpt>
      <trkpt lat="44.30937" lon="3.63221">
        <ele>689</ele>
        <time>2015-06-17T07:52:24Z</time>
      </trkpt>
      <trkpt lat="44.3094" lon="3.63226">
        <ele>689</ele>
        <time>2015-06-17T07:52:27Z</time>
      </trkpt>
      <trkpt lat="44.30942" lon="3.63232">
        <ele>690</ele>
        <time>2015-06-17T07:52:32Z</time>
      </trkpt>
      <trkpt lat="44.30943" lon="3.63238">
        <ele>690</ele>
        <time>2015-06-17T07:52:38Z</time>
      </trkpt>
      <trkpt lat="44.30946" lon="3.63244">
        <ele>690</ele>
        <time>2015-06-17T07:52:44Z</time>
      </trkpt>
      <trkpt lat="44.30947" lon="3.63254">
        <ele>695</ele>
        <time>2015-06-17T07:52:50Z</time>
      </trkpt>
      <trkpt lat="44.30951" lon="3.63267">
        <ele>694</ele>
        <time>2015-06-17T07:52:58Z</time>
      </trkpt>
      <trkpt lat="44.30954" lon="3.63272">
        <ele>693</ele>
        <time>2015-06-17T07:53:02Z</time>
      </trkpt>
      <trkpt lat="44.30953" lon="3.63279">
        <ele>693</ele>
        <time>2015-06-17T07:53:10Z</time>
      </trkpt>
      <trkpt lat="44.30952" lon="3.63285">
        <ele>694</ele>
        <time>2015-06-17T07:53:16Z</time>
      </trkpt>
      <trkpt lat="44.30947" lon="3.63288">
        <ele>695</ele>
        <time>2015-06-17T07:53:23Z</time>
      </trkpt>
      <trkpt lat="44.30946" lon="3.63296">
        <ele>696</ele>
        <time>2015-06-17T07:53:30Z</time>
      </trkpt>
      <trkpt lat="44.30943" lon="3.63301">
        <ele>697</ele>
        <time>2015-06-17T07:53:34Z</time>
      </trkpt>
      <trkpt lat="44.30944" lon="3.63308">
        <ele>698</ele>
        <time>2015-06-17T07:53:39Z</time>
      </trkpt>
      <trkpt lat="44.30946" lon="3.63314">
        <ele>698</ele>
        <time>2015-06-17T07:53:43Z</time>
      </trkpt>
      <trkpt lat="44.30948" lon="3.63322">
        <ele>698</ele>
        <time>2015-06-17T07:53:46Z</time>
      </trkpt>
      <trkpt lat="44.30956" lon="3.6333">
        <ele>696</ele>
        <time>2015-06-17T07:53:52Z</time>
      </trkpt>
      <trkpt lat="44.30958" lon="3.63337">
        <ele>699</ele>
        <time>2015-06-17T07:53:55Z</time>
      </trkpt>
      <trkpt lat="44.3096" lon="3.63345">
        <ele>698</ele>
        <time>2015-06-17T07:53:59Z</time>
      </trkpt>
      <trkpt lat="44.30962" lon="3.63351">
        <ele>698</ele>
        <time>2015-06-17T07:54:08Z</time>
      </trkpt>
      <trkpt lat="44.30964" lon="3.63357">
        <ele>698</ele>
        <time>2015-06-17T07:54:24Z</time>
      </trkpt>
      <trkpt lat="44.30969" lon="3.63359">
        <ele>697</ele>
        <time>2015-06-17T07:54:31Z</time>
      </trkpt>
      <trkpt lat="44.30974" lon="3.63356">
        <ele>695</ele>
        <time>2015-06-17T07:54:36Z</time>
      </trkpt>
      <trkpt lat="44.30979" lon="3.63356">
        <ele>694</ele>
        <time>2015-06-17T07:54:41Z</time>
      </trkpt>
      <trkpt lat="44.30983" lon="3.63354">
        <ele>693</ele>
        <time>2015-06-17T07:54:46Z</time>
      </trkpt>
      <trkpt lat="44.30989" lon="3.63353">
        <ele>692</ele>
        <time>2015-06-17T07:54:51Z</time>
      </trkpt>
      <trkpt lat="44.30985" lon="3.63349">
        <ele>692</ele>
        <time>2015-06-17T07:55:02Z</time>
      </trkpt>
      <trkpt lat="44.3098" lon="3.63349">
        <ele>693</ele>
        <time>2015-06-17T07:55:13Z</time>
      </trkpt>
      <trkpt lat="44.30979" lon="3.6335">
        <ele>694</ele>
        <time>2015-06-17T07:55:33Z</time>
      </trkpt>
      <trkpt lat="44.30979" lon="3.6335">
        <ele>694</ele>
        <time>2015-06-17T07:55:53Z</time>
      </trkpt>
      <trkpt lat="44.30989" lon="3.63353">
        <ele>692</ele>
        <time>2015-06-17T07:56:32Z</time>
      </trkpt>
      <trkpt lat="44.3099" lon="3.63353">
        <ele>692</ele>
        <time>2015-06-17T07:56:48Z</time>
      </trkpt>
      <trkpt lat="44.30989" lon="3.63357">
        <ele>693</ele>
        <time>2015-06-17T07:57:06Z</time>
      </trkpt>
      <trkpt lat="44.30962" lon="3.63394">
        <ele>698</ele>
        <time>2015-06-17T08:01:04Z</time>
      </trkpt>
      <trkpt lat="44.3096" lon="3.634">
        <ele>698</ele>
        <time>2015-06-17T08:01:09Z</time>
      </trkpt>
      <trkpt lat="44.30958" lon="3.6342">
        <ele>694</ele>
        <time>2015-06-17T08:01:20Z</time>
      </trkpt>
      <trkpt lat="44.30957" lon="3.63428">
        <ele>694</ele>
        <time>2015-06-17T08:01:24Z</time>
      </trkpt>
      <trkpt lat="44.30954" lon="3.63435">
        <ele>694</ele>
        <time>2015-06-17T08:01:30Z</time>
      </trkpt>
      <trkpt lat="44.30953" lon="3.63441">
        <ele>693</ele>
        <time>2015-06-17T08:01:36Z</time>
      </trkpt>
      <trkpt lat="44.30949" lon="3.63447">
        <ele>693</ele>
        <time>2015-06-17T08:01:39Z</time>
      </trkpt>
      <trkpt lat="44.3094" lon="3.63456">
        <ele>694</ele>
        <time>2015-06-17T08:01:45Z</time>
      </trkpt>
      <trkpt lat="44.30937" lon="3.63462">
        <ele>693</ele>
        <time>2015-06-17T08:01:49Z</time>
      </trkpt>
      <trkpt lat="44.30935" lon="3.6347">
        <ele>693</ele>
        <time>2015-06-17T08:01:52Z</time>
      </trkpt>
      <trkpt lat="44.30935" lon="3.63479">
        <ele>693</ele>
        <time>2015-06-17T08:01:55Z</time>
      </trkpt>
      <trkpt lat="44.3093" lon="3.63483">
        <ele>693</ele>
        <time>2015-06-17T08:01:58Z</time>
      </trkpt>
      <trkpt lat="44.30928" lon="3.6349">
        <ele>694</ele>
        <time>2015-06-17T08:02:02Z</time>
      </trkpt>
      <trkpt lat="44.30928" lon="3.63498">
        <ele>694</ele>
        <time>2015-06-17T08:02:05Z</time>
      </trkpt>
      <trkpt lat="44.30924" lon="3.63503">
        <ele>690</ele>
        <time>2015-06-17T08:02:12Z</time>
      </trkpt>
      <trkpt lat="44.30918" lon="3.63509">
        <ele>689</ele>
        <time>2015-06-17T08:02:16Z</time>
      </trkpt>
      <trkpt lat="44.30913" lon="3.63511">
        <ele>696</ele>
        <time>2015-06-17T08:02:20Z</time>
      </trkpt>
      <trkpt lat="44.30911" lon="3.63518">
        <ele>696</ele>
        <time>2015-06-17T08:02:26Z</time>
      </trkpt>
      <trkpt lat="44.30909" lon="3.63525">
        <ele>696</ele>
        <time>2015-06-17T08:02:30Z</time>
      </trkpt>
      <trkpt lat="44.30908" lon="3.63551">
        <ele>692</ele>
        <time>2015-06-17T08:02:39Z</time>
      </trkpt>
      <trkpt lat="44.30904" lon="3.63564">
        <ele>690</ele>
        <time>2015-06-17T08:02:44Z</time>
      </trkpt>
      <trkpt lat="44.30899" lon="3.63566">
        <ele>690</ele>
        <time>2015-06-17T08:02:51Z</time>
      </trkpt>
      <trkpt lat="44.30896" lon="3.6357">
        <ele>690</ele>
        <time>2015-06-17T08:02:58Z</time>
      </trkpt>
      <trkpt lat="44.30893" lon="3.63576">
        <ele>690</ele>
        <time>2015-06-17T08:03:04Z</time>
      </trkpt>
      <trkpt lat="44.30889" lon="3.63581">
        <ele>691</ele>
        <time>2015-06-17T08:03:09Z</time>
      </trkpt>
      <trkpt lat="44.30885" lon="3.63587">
        <ele>680</ele>
        <time>2015-06-17T08:03:12Z</time>
      </trkpt>
      <trkpt lat="44.30883" lon="3.63594">
        <ele>680</ele>
        <time>2015-06-17T08:03:14Z</time>
      </trkpt>
      <trkpt lat="44.30881" lon="3.63602">
        <ele>680</ele>
        <time>2015-06-17T08:03:16Z</time>
      </trkpt>
      <trkpt lat="44.30877" lon="3.63609">
        <ele>680</ele>
        <time>2015-06-17T08:03:19Z</time>
      </trkpt>
      <trkpt lat="44.30873" lon="3.63613">
        <ele>680</ele>
        <time>2015-06-17T08:03:23Z</time>
      </trkpt>
      <trkpt lat="44.30868" lon="3.63614">
        <ele>681</ele>
        <time>2015-06-17T08:03:27Z</time>
      </trkpt>
      <trkpt lat="44.30863" lon="3.63613">
        <ele>682</ele>
        <time>2015-06-17T08:03:32Z</time>
      </trkpt>
      <trkpt lat="44.30854" lon="3.63618">
        <ele>683</ele>
        <time>2015-06-17T08:03:39Z</time>
      </trkpt>
      <trkpt lat="44.3085" lon="3.63622">
        <ele>682</ele>
        <time>2015-06-17T08:03:43Z</time>
      </trkpt>
      <trkpt lat="44.30847" lon="3.63629">
        <ele>682</ele>
        <time>2015-06-17T08:03:49Z</time>
      </trkpt>
      <trkpt lat="44.30841" lon="3.63632">
        <ele>682</ele>
        <time>2015-06-17T08:03:52Z</time>
      </trkpt>
      <trkpt lat="44.30836" lon="3.63632">
        <ele>682</ele>
        <time>2015-06-17T08:03:56Z</time>
      </trkpt>
      <trkpt lat="44.30832" lon="3.63637">
        <ele>695</ele>
        <time>2015-06-17T08:04:00Z</time>
      </trkpt>
      <trkpt lat="44.30829" lon="3.63643">
        <ele>694</ele>
        <time>2015-06-17T08:04:04Z</time>
      </trkpt>
      <trkpt lat="44.30827" lon="3.63649">
        <ele>692</ele>
        <time>2015-06-17T08:04:07Z</time>
      </trkpt>
      <trkpt lat="44.30823" lon="3.63652">
        <ele>692</ele>
        <time>2015-06-17T08:04:11Z</time>
      </trkpt>
      <trkpt lat="44.30818" lon="3.6365">
        <ele>693</ele>
        <time>2015-06-17T08:04:14Z</time>
      </trkpt>
      <trkpt lat="44.30812" lon="3.63662">
        <ele>693</ele>
        <time>2015-06-17T08:04:22Z</time>
      </trkpt>
      <trkpt lat="44.30802" lon="3.63664">
        <ele>696</ele>
        <time>2015-06-17T08:04:31Z</time>
      </trkpt>
      <trkpt lat="44.30798" lon="3.63659">
        <ele>697</ele>
        <time>2015-06-17T08:04:35Z</time>
      </trkpt>
      <trkpt lat="44.30793" lon="3.63664">
        <ele>697</ele>
        <time>2015-06-17T08:04:42Z</time>
      </trkpt>
      <trkpt lat="44.30791" lon="3.63671">
        <ele>685</ele>
        <time>2015-06-17T08:04:45Z</time>
      </trkpt>
      <trkpt lat="44.3079" lon="3.63679">
        <ele>685</ele>
        <time>2015-06-17T08:04:48Z</time>
      </trkpt>
      <trkpt lat="44.30788" lon="3.63685">
        <ele>684</ele>
        <time>2015-06-17T08:04:50Z</time>
      </trkpt>
      <trkpt lat="44.30787" lon="3.63697">
        <ele>683</ele>
        <time>2015-06-17T08:04:52Z</time>
      </trkpt>
      <trkpt lat="44.30788" lon="3.63706">
        <ele>682</ele>
        <time>2015-06-17T08:04:54Z</time>
      </trkpt>
      <trkpt lat="44.30786" lon="3.63713">
        <ele>681</ele>
        <time>2015-06-17T08:04:56Z</time>
      </trkpt>
      <trkpt lat="44.30782" lon="3.63719">
        <ele>681</ele>
        <time>2015-06-17T08:04:58Z</time>
      </trkpt>
      <trkpt lat="44.30777" lon="3.63721">
        <ele>681</ele>
        <time>2015-06-17T08:05:00Z</time>
      </trkpt>
      <trkpt lat="44.30773" lon="3.63725">
        <ele>682</ele>
        <time>2015-06-17T08:05:15Z</time>
      </trkpt>
      <trkpt lat="44.30776" lon="3.63731">
        <ele>681</ele>
        <time>2015-06-17T08:05:19Z</time>
      </trkpt>
      <trkpt lat="44.30777" lon="3.63737">
        <ele>680</ele>
        <time>2015-06-17T08:05:25Z</time>
      </trkpt>
      <trkpt lat="44.30771" lon="3.63745">
        <ele>681</ele>
        <time>2015-06-17T08:05:29Z</time>
      </trkpt>
      <trkpt lat="44.30768" lon="3.63751">
        <ele>673</ele>
        <time>2015-06-17T08:05:31Z</time>
      </trkpt>
      <trkpt lat="44.30767" lon="3.63757">
        <ele>673</ele>
        <time>2015-06-17T08:05:36Z</time>
      </trkpt>
      <trkpt lat="44.30764" lon="3.63771">
        <ele>671</ele>
        <time>2015-06-17T08:05:40Z</time>
      </trkpt>
      <trkpt lat="44.30765" lon="3.63779">
        <ele>670</ele>
        <time>2015-06-17T08:05:45Z</time>
      </trkpt>
      <trkpt lat="44.30762" lon="3.63785">
        <ele>669</ele>
        <time>2015-06-17T08:05:51Z</time>
      </trkpt>
      <trkpt lat="44.30756" lon="3.63794">
        <ele>669</ele>
        <time>2015-06-17T08:06:05Z</time>
      </trkpt>
      <trkpt lat="44.30751" lon="3.63813">
        <ele>669</ele>
        <time>2015-06-17T08:06:13Z</time>
      </trkpt>
      <trkpt lat="44.30747" lon="3.63818">
        <ele>681</ele>
        <time>2015-06-17T08:06:16Z</time>
      </trkpt>
      <trkpt lat="44.30742" lon="3.63822">
        <ele>680</ele>
        <time>2015-06-17T08:06:19Z</time>
      </trkpt>
      <trkpt lat="44.30736" lon="3.63833">
        <ele>680</ele>
        <time>2015-06-17T08:06:29Z</time>
      </trkpt>
      <trkpt lat="44.30737" lon="3.6384">
        <ele>674</ele>
        <time>2015-06-17T08:06:33Z</time>
      </trkpt>
      <trkpt lat="44.30732" lon="3.63852">
        <ele>674</ele>
        <time>2015-06-17T08:06:45Z</time>
      </trkpt>
      <trkpt lat="44.30729" lon="3.63865">
        <ele>674</ele>
        <time>2015-06-17T08:06:53Z</time>
      </trkpt>
      <trkpt lat="44.30725" lon="3.63871">
        <ele>674</ele>
        <time>2015-06-17T08:06:56Z</time>
      </trkpt>
      <trkpt lat="44.30721" lon="3.63876">
        <ele>674</ele>
        <time>2015-06-17T08:06:59Z</time>
      </trkpt>
      <trkpt lat="44.30717" lon="3.63873">
        <ele>675</ele>
        <time>2015-06-17T08:07:04Z</time>
      </trkpt>
      <trkpt lat="44.30717" lon="3.63874">
        <ele>674</ele>
        <time>2015-06-17T08:07:30Z</time>
      </trkpt>
      <trkpt lat="44.30713" lon="3.63879">
        <ele>674</ele>
        <time>2015-06-17T08:07:36Z</time>
      </trkpt>
      <trkpt lat="44.30708" lon="3.63891">
        <ele>674</ele>
        <time>2015-06-17T08:07:38Z</time>
      </trkpt>
      <trkpt lat="44.30701" lon="3.63915">
        <ele>674</ele>
        <time>2015-06-17T08:07:45Z</time>
      </trkpt>
      <trkpt lat="44.30685" lon="3.63943">
        <ele>662</ele>
        <time>2015-06-17T08:08:03Z</time>
      </trkpt>
      <trkpt lat="44.30674" lon="3.63958">
        <ele>660</ele>
        <time>2015-06-17T08:08:10Z</time>
      </trkpt>
      <trkpt lat="44.30665" lon="3.63963">
        <ele>679</ele>
        <time>2015-06-17T08:08:26Z</time>
      </trkpt>
      <trkpt lat="44.3066" lon="3.6396">
        <ele>680</ele>
        <time>2015-06-17T08:08:32Z</time>
      </trkpt>
      <trkpt lat="44.30655" lon="3.6396">
        <ele>681</ele>
        <time>2015-06-17T08:08:35Z</time>
      </trkpt>
      <trkpt lat="44.30645" lon="3.63968">
        <ele>681</ele>
        <time>2015-06-17T08:08:44Z</time>
      </trkpt>
      <trkpt lat="44.30644" lon="3.63974">
        <ele>680</ele>
        <time>2015-06-17T08:08:50Z</time>
      </trkpt>
      <trkpt lat="44.3064" lon="3.63979">
        <ele>680</ele>
        <time>2015-06-17T08:08:55Z</time>
      </trkpt>
      <trkpt lat="44.30637" lon="3.63993">
        <ele>679</ele>
        <time>2015-06-17T08:09:01Z</time>
      </trkpt>
      <trkpt lat="44.30638" lon="3.63999">
        <ele>678</ele>
        <time>2015-06-17T08:09:03Z</time>
      </trkpt>
      <trkpt lat="44.30641" lon="3.64006">
        <ele>668</ele>
        <time>2015-06-17T08:09:07Z</time>
      </trkpt>
      <trkpt lat="44.30643" lon="3.64034">
        <ele>667</ele>
        <time>2015-06-17T08:09:23Z</time>
      </trkpt>
      <trkpt lat="44.30645" lon="3.6404">
        <ele>667</ele>
        <time>2015-06-17T08:09:28Z</time>
      </trkpt>
      <trkpt lat="44.30644" lon="3.64048">
        <ele>666</ele>
        <time>2015-06-17T08:09:32Z</time>
      </trkpt>
      <trkpt lat="44.30649" lon="3.6406">
        <ele>663</ele>
        <time>2015-06-17T08:09:40Z</time>
      </trkpt>
      <trkpt lat="44.30649" lon="3.64068">
        <ele>661</ele>
        <time>2015-06-17T08:09:44Z</time>
      </trkpt>
      <trkpt lat="44.30653" lon="3.64074">
        <ele>659</ele>
        <time>2015-06-17T08:09:48Z</time>
      </trkpt>
      <trkpt lat="44.30652" lon="3.6408">
        <ele>658</ele>
        <time>2015-06-17T08:09:52Z</time>
      </trkpt>
      <trkpt lat="44.3065" lon="3.64088">
        <ele>655</ele>
        <time>2015-06-17T08:09:56Z</time>
      </trkpt>
      <trkpt lat="44.30649" lon="3.64095">
        <ele>656</ele>
        <time>2015-06-17T08:10:00Z</time>
      </trkpt>
      <trkpt lat="44.30651" lon="3.64102">
        <ele>656</ele>
        <time>2015-06-17T08:10:04Z</time>
      </trkpt>
      <trkpt lat="44.3065" lon="3.64117">
        <ele>657</ele>
        <time>2015-06-17T08:10:12Z</time>
      </trkpt>
      <trkpt lat="44.30651" lon="3.64125">
        <ele>657</ele>
        <time>2015-06-17T08:10:16Z</time>
      </trkpt>
      <trkpt lat="44.30647" lon="3.64129">
        <ele>657</ele>
        <time>2015-06-17T08:10:20Z</time>
      </trkpt>
      <trkpt lat="44.30643" lon="3.64133">
        <ele>658</ele>
        <time>2015-06-17T08:10:27Z</time>
      </trkpt>
      <trkpt lat="44.30639" lon="3.64136">
        <ele>658</ele>
        <time>2015-06-17T08:10:32Z</time>
      </trkpt>
      <trkpt lat="44.30634" lon="3.64139">
        <ele>659</ele>
        <time>2015-06-17T08:10:36Z</time>
      </trkpt>
      <trkpt lat="44.30613" lon="3.64148">
        <ele>663</ele>
        <time>2015-06-17T08:10:51Z</time>
      </trkpt>
      <trkpt lat="44.30619" lon="3.64157">
        <ele>662</ele>
        <time>2015-06-17T08:11:02Z</time>
      </trkpt>
      <trkpt lat="44.30623" lon="3.64161">
        <ele>661</ele>
        <time>2015-06-17T08:11:06Z</time>
      </trkpt>
      <trkpt lat="44.30616" lon="3.64173">
        <ele>663</ele>
        <time>2015-06-17T08:11:14Z</time>
      </trkpt>
      <trkpt lat="44.30611" lon="3.64176">
        <ele>664</ele>
        <time>2015-06-17T08:11:18Z</time>
      </trkpt>
      <trkpt lat="44.30615" lon="3.64184">
        <ele>663</ele>
        <time>2015-06-17T08:11:25Z</time>
      </trkpt>
      <trkpt lat="44.30619" lon="3.64197">
        <ele>662</ele>
        <time>2015-06-17T08:11:40Z</time>
      </trkpt>
      <trkpt lat="44.30623" lon="3.64201">
        <ele>662</ele>
        <time>2015-06-17T08:11:45Z</time>
      </trkpt>
      <trkpt lat="44.30623" lon="3.64208">
        <ele>662</ele>
        <time>2015-06-17T08:11:53Z</time>
      </trkpt>
      <trkpt lat="44.30619" lon="3.64227">
        <ele>663</ele>
        <time>2015-06-17T08:12:14Z</time>
      </trkpt>
      <trkpt lat="44.3062" lon="3.64233">
        <ele>664</ele>
        <time>2015-06-17T08:12:18Z</time>
      </trkpt>
      <trkpt lat="44.30624" lon="3.64245">
        <ele>663</ele>
        <time>2015-06-17T08:12:27Z</time>
      </trkpt>
      <trkpt lat="44.30624" lon="3.64252">
        <ele>667</ele>
        <time>2015-06-17T08:12:34Z</time>
      </trkpt>
      <trkpt lat="44.30626" lon="3.64258">
        <ele>667</ele>
        <time>2015-06-17T08:12:40Z</time>
      </trkpt>
      <trkpt lat="44.3063" lon="3.64262">
        <ele>666</ele>
        <time>2015-06-17T08:12:45Z</time>
      </trkpt>
      <trkpt lat="44.30631" lon="3.64268">
        <ele>666</ele>
        <time>2015-06-17T08:12:50Z</time>
      </trkpt>
      <trkpt lat="44.3063" lon="3.64276">
        <ele>667</ele>
        <time>2015-06-17T08:12:54Z</time>
      </trkpt>
      <trkpt lat="44.30631" lon="3.64283">
        <ele>667</ele>
        <time>2015-06-17T08:12:59Z</time>
      </trkpt>
      <trkpt lat="44.30634" lon="3.64289">
        <ele>667</ele>
        <time>2015-06-17T08:13:03Z</time>
      </trkpt>
      <trkpt lat="44.30635" lon="3.64303">
        <ele>667</ele>
        <time>2015-06-17T08:13:11Z</time>
      </trkpt>
      <trkpt lat="44.30638" lon="3.64315">
        <ele>667</ele>
        <time>2015-06-17T08:13:20Z</time>
      </trkpt>
      <trkpt lat="44.30641" lon="3.6432">
        <ele>666</ele>
        <time>2015-06-17T08:13:27Z</time>
      </trkpt>
      <trkpt lat="44.30646" lon="3.64322">
        <ele>664</ele>
        <time>2015-06-17T08:13:30Z</time>
      </trkpt>
      <trkpt lat="44.30646" lon="3.6433">
        <ele>664</ele>
        <time>2015-06-17T08:13:34Z</time>
      </trkpt>
      <trkpt lat="44.30648" lon="3.64336">
        <ele>666</ele>
        <time>2015-06-17T08:13:38Z</time>
      </trkpt>
      <trkpt lat="44.30648" lon="3.64345">
        <ele>667</ele>
        <time>2015-06-17T08:13:41Z</time>
      </trkpt>
      <trkpt lat="44.30653" lon="3.64351">
        <ele>667</ele>
        <time>2015-06-17T08:13:50Z</time>
      </trkpt>
      <trkpt lat="44.30652" lon="3.64358">
        <ele>668</ele>
        <time>2015-06-17T08:13:57Z</time>
      </trkpt>
      <trkpt lat="44.30653" lon="3.64364">
        <ele>669</ele>
        <time>2015-06-17T08:14:04Z</time>
      </trkpt>
      <trkpt lat="44.30652" lon="3.64371">
        <ele>670</ele>
        <time>2015-06-17T08:14:11Z</time>
      </trkpt>
      <trkpt lat="44.30649" lon="3.64376">
        <ele>670</ele>
        <time>2015-06-17T08:14:15Z</time>
      </trkpt>
      <trkpt lat="44.30647" lon="3.64383">
        <ele>670</ele>
        <time>2015-06-17T08:14:19Z</time>
      </trkpt>
      <trkpt lat="44.30642" lon="3.64395">
        <ele>671</ele>
        <time>2015-06-17T08:14:31Z</time>
      </trkpt>
      <trkpt lat="44.30633" lon="3.64429">
        <ele>672</ele>
        <time>2015-06-17T08:14:48Z</time>
      </trkpt>
      <trkpt lat="44.30629" lon="3.64435">
        <ele>673</ele>
        <time>2015-06-17T08:14:53Z</time>
      </trkpt>
      <trkpt lat="44.30627" lon="3.64442">
        <ele>674</ele>
        <time>2015-06-17T08:15:01Z</time>
      </trkpt>
      <trkpt lat="44.30627" lon="3.64449">
        <ele>673</ele>
        <time>2015-06-17T08:15:08Z</time>
      </trkpt>
      <trkpt lat="44.30624" lon="3.64463">
        <ele>673</ele>
        <time>2015-06-17T08:15:17Z</time>
      </trkpt>
      <trkpt lat="44.30624" lon="3.6447">
        <ele>673</ele>
        <time>2015-06-17T08:15:20Z</time>
      </trkpt>
      <trkpt lat="44.30619" lon="3.64473">
        <ele>674</ele>
        <time>2015-06-17T08:15:25Z</time>
      </trkpt>
      <trkpt lat="44.30617" lon="3.6448">
        <ele>675</ele>
        <time>2015-06-17T08:15:29Z</time>
      </trkpt>
      <trkpt lat="44.30611" lon="3.64492">
        <ele>677</ele>
        <time>2015-06-17T08:15:40Z</time>
      </trkpt>
      <trkpt lat="44.3061" lon="3.64499">
        <ele>678</ele>
        <time>2015-06-17T08:15:43Z</time>
      </trkpt>
      <trkpt lat="44.30611" lon="3.64506">
        <ele>671</ele>
        <time>2015-06-17T08:15:50Z</time>
      </trkpt>
      <trkpt lat="44.3061" lon="3.64512">
        <ele>671</ele>
        <time>2015-06-17T08:15:56Z</time>
      </trkpt>
      <trkpt lat="44.306" lon="3.64541">
        <ele>669</ele>
        <time>2015-06-17T08:16:14Z</time>
      </trkpt>
      <trkpt lat="44.30599" lon="3.64548">
        <ele>668</ele>
        <time>2015-06-17T08:16:16Z</time>
      </trkpt>
      <trkpt lat="44.30591" lon="3.64568">
        <ele>671</ele>
        <time>2015-06-17T08:16:23Z</time>
      </trkpt>
      <trkpt lat="44.30592" lon="3.64576">
        <ele>673</ele>
        <time>2015-06-17T08:16:28Z</time>
      </trkpt>
      <trkpt lat="44.30589" lon="3.64582">
        <ele>675</ele>
        <time>2015-06-17T08:16:32Z</time>
      </trkpt>
      <trkpt lat="44.30586" lon="3.64586">
        <ele>675</ele>
        <time>2015-06-17T08:16:41Z</time>
      </trkpt>
      <trkpt lat="44.30583" lon="3.64592">
        <ele>681</ele>
        <time>2015-06-17T08:16:46Z</time>
      </trkpt>
      <trkpt lat="44.30576" lon="3.64602">
        <ele>683</ele>
        <time>2015-06-17T08:16:57Z</time>
      </trkpt>
      <trkpt lat="44.30573" lon="3.64608">
        <ele>683</ele>
        <time>2015-06-17T08:17:00Z</time>
      </trkpt>
      <trkpt lat="44.30568" lon="3.6461">
        <ele>684</ele>
        <time>2015-06-17T08:17:06Z</time>
      </trkpt>
      <trkpt lat="44.30566" lon="3.64616">
        <ele>684</ele>
        <time>2015-06-17T08:17:09Z</time>
      </trkpt>
      <trkpt lat="44.30563" lon="3.64622">
        <ele>684</ele>
        <time>2015-06-17T08:17:12Z</time>
      </trkpt>
      <trkpt lat="44.30561" lon="3.64629">
        <ele>683</ele>
        <time>2015-06-17T08:17:15Z</time>
      </trkpt>
      <trkpt lat="44.30558" lon="3.64635">
        <ele>683</ele>
        <time>2015-06-17T08:17:19Z</time>
      </trkpt>
      <trkpt lat="44.30555" lon="3.6464">
        <ele>683</ele>
        <time>2015-06-17T08:17:23Z</time>
      </trkpt>
      <trkpt lat="44.30551" lon="3.64643">
        <ele>683</ele>
        <time>2015-06-17T08:17:29Z</time>
      </trkpt>
      <trkpt lat="44.30545" lon="3.64643">
        <ele>685</ele>
        <time>2015-06-17T08:17:35Z</time>
      </trkpt>
      <trkpt lat="44.30541" lon="3.64645">
        <ele>685</ele>
        <time>2015-06-17T08:17:40Z</time>
      </trkpt>
      <trkpt lat="44.30537" lon="3.6465">
        <ele>686</ele>
        <time>2015-06-17T08:17:44Z</time>
      </trkpt>
      <trkpt lat="44.30533" lon="3.64652">
        <ele>687</ele>
        <time>2015-06-17T08:17:50Z</time>
      </trkpt>
      <trkpt lat="44.30527" lon="3.64654">
        <ele>688</ele>
        <time>2015-06-17T08:17:55Z</time>
      </trkpt>
      <trkpt lat="44.30516" lon="3.64652">
        <ele>690</ele>
        <time>2015-06-17T08:18:01Z</time>
      </trkpt>
      <trkpt lat="44.30512" lon="3.64651">
        <ele>691</ele>
        <time>2015-06-17T08:18:04Z</time>
      </trkpt>
      <trkpt lat="44.30506" lon="3.64652">
        <ele>691</ele>
        <time>2015-06-17T08:18:08Z</time>
      </trkpt>
      <trkpt lat="44.30504" lon="3.64658">
        <ele>692</ele>
        <time>2015-06-17T08:18:24Z</time>
      </trkpt>
      <trkpt lat="44.30502" lon="3.64674">
        <ele>689</ele>
        <time>2015-06-17T08:18:38Z</time>
      </trkpt>
      <trkpt lat="44.30502" lon="3.64683">
        <ele>685</ele>
        <time>2015-06-17T08:18:41Z</time>
      </trkpt>
      <trkpt lat="44.30505" lon="3.6469">
        <ele>683</ele>
        <time>2015-06-17T08:18:44Z</time>
      </trkpt>
      <trkpt lat="44.30505" lon="3.64697">
        <ele>682</ele>
        <time>2015-06-17T08:18:47Z</time>
      </trkpt>
      <trkpt lat="44.30504" lon="3.64703">
        <ele>681</ele>
        <time>2015-06-17T08:18:50Z</time>
      </trkpt>
      <trkpt lat="44.30503" lon="3.6471">
        <ele>681</ele>
        <time>2015-06-17T08:18:53Z</time>
      </trkpt>
      <trkpt lat="44.30505" lon="3.64716">
        <ele>681</ele>
        <time>2015-06-17T08:18:56Z</time>
      </trkpt>
      <trkpt lat="44.30503" lon="3.64722">
        <ele>681</ele>
        <time>2015-06-17T08:19:00Z</time>
      </trkpt>
      <trkpt lat="44.30507" lon="3.64743">
        <ele>686</ele>
        <time>2015-06-17T08:19:12Z</time>
      </trkpt>
      <trkpt lat="44.3051" lon="3.64748">
        <ele>685</ele>
        <time>2015-06-17T08:19:19Z</time>
      </trkpt>
      <trkpt lat="44.30511" lon="3.64761">
        <ele>681</ele>
        <time>2015-06-17T08:19:27Z</time>
      </trkpt>
      <trkpt lat="44.30515" lon="3.64766">
        <ele>678</ele>
        <time>2015-06-17T08:19:30Z</time>
      </trkpt>
      <trkpt lat="44.30517" lon="3.64771">
        <ele>676</ele>
        <time>2015-06-17T08:19:34Z</time>
      </trkpt>
      <trkpt lat="44.30515" lon="3.64778">
        <ele>676</ele>
        <time>2015-06-17T08:19:38Z</time>
      </trkpt>
      <trkpt lat="44.30513" lon="3.64784">
        <ele>676</ele>
        <time>2015-06-17T08:19:42Z</time>
      </trkpt>
      <trkpt lat="44.30516" lon="3.64788">
        <ele>675</ele>
        <time>2015-06-17T08:19:51Z</time>
      </trkpt>
      <trkpt lat="44.30518" lon="3.64787">
        <ele>675</ele>
        <time>2015-06-17T08:20:11Z</time>
      </trkpt>
      <trkpt lat="44.30515" lon="3.64795">
        <ele>676</ele>
        <time>2015-06-17T08:21:16Z</time>
      </trkpt>
      <trkpt lat="44.3051" lon="3.64814">
        <ele>680</ele>
        <time>2015-06-17T08:21:24Z</time>
      </trkpt>
      <trkpt lat="44.3051" lon="3.6482">
        <ele>682</ele>
        <time>2015-06-17T08:21:26Z</time>
      </trkpt>
      <trkpt lat="44.30504" lon="3.64841">
        <ele>687</ele>
        <time>2015-06-17T08:21:37Z</time>
      </trkpt>
      <trkpt lat="44.30502" lon="3.64855">
        <ele>680</ele>
        <time>2015-06-17T08:21:51Z</time>
      </trkpt>
      <trkpt lat="44.30499" lon="3.64863">
        <ele>702</ele>
        <time>2015-06-17T08:21:54Z</time>
      </trkpt>
      <trkpt lat="44.30495" lon="3.64867">
        <ele>703</ele>
        <time>2015-06-17T08:21:57Z</time>
      </trkpt>
      <trkpt lat="44.30492" lon="3.64871">
        <ele>703</ele>
        <time>2015-06-17T08:22:03Z</time>
      </trkpt>
      <trkpt lat="44.3049" lon="3.64878">
        <ele>704</ele>
        <time>2015-06-17T08:22:08Z</time>
      </trkpt>
      <trkpt lat="44.30486" lon="3.64883">
        <ele>704</ele>
        <time>2015-06-17T08:22:13Z</time>
      </trkpt>
      <trkpt lat="44.30484" lon="3.64889">
        <ele>704</ele>
        <time>2015-06-17T08:22:18Z</time>
      </trkpt>
      <trkpt lat="44.30479" lon="3.64893">
        <ele>704</ele>
        <time>2015-06-17T08:22:31Z</time>
      </trkpt>
      <trkpt lat="44.30479" lon="3.649">
        <ele>703</ele>
        <time>2015-06-17T08:22:35Z</time>
      </trkpt>
      <trkpt lat="44.30478" lon="3.64907">
        <ele>703</ele>
        <time>2015-06-17T08:22:39Z</time>
      </trkpt>
      <trkpt lat="44.30479" lon="3.64914">
        <ele>702</ele>
        <time>2015-06-17T08:22:44Z</time>
      </trkpt>
      <trkpt lat="44.30476" lon="3.64922">
        <ele>698</ele>
        <time>2015-06-17T08:22:51Z</time>
      </trkpt>
      <trkpt lat="44.30469" lon="3.64932">
        <ele>699</ele>
        <time>2015-06-17T08:23:08Z</time>
      </trkpt>
      <trkpt lat="44.30467" lon="3.64938">
        <ele>699</ele>
        <time>2015-06-17T08:23:13Z</time>
      </trkpt>
      <trkpt lat="44.30462" lon="3.64943">
        <ele>700</ele>
        <time>2015-06-17T08:23:17Z</time>
      </trkpt>
      <trkpt lat="44.30458" lon="3.64946">
        <ele>701</ele>
        <time>2015-06-17T08:23:20Z</time>
      </trkpt>
      <trkpt lat="44.30455" lon="3.64952">
        <ele>701</ele>
        <time>2015-06-17T08:23:23Z</time>
      </trkpt>
      <trkpt lat="44.30454" lon="3.64959">
        <ele>700</ele>
        <time>2015-06-17T08:23:27Z</time>
      </trkpt>
      <trkpt lat="44.30451" lon="3.64964">
        <ele>701</ele>
        <time>2015-06-17T08:23:31Z</time>
      </trkpt>
      <trkpt lat="44.30447" lon="3.64969">
        <ele>701</ele>
        <time>2015-06-17T08:23:34Z</time>
      </trkpt>
      <trkpt lat="44.30441" lon="3.6498">
        <ele>702</ele>
        <time>2015-06-17T08:23:42Z</time>
      </trkpt>
      <trkpt lat="44.30436" lon="3.64982">
        <ele>702</ele>
        <time>2015-06-17T08:23:47Z</time>
      </trkpt>
      <trkpt lat="44.30434" lon="3.64993">
        <ele>703</ele>
        <time>2015-06-17T08:24:12Z</time>
      </trkpt>
      <trkpt lat="44.30433" lon="3.64996">
        <ele>703</ele>
        <time>2015-06-17T08:24:21Z</time>
      </trkpt>
      <trkpt lat="44.30429" lon="3.64999">
        <ele>705</ele>
        <time>2015-06-17T08:24:23Z</time>
      </trkpt>
      <trkpt lat="44.30422" lon="3.65002">
        <ele>702</ele>
        <time>2015-06-17T08:24:26Z</time>
      </trkpt>
      <trkpt lat="44.30416" lon="3.65003">
        <ele>708</ele>
        <time>2015-06-17T08:24:28Z</time>
      </trkpt>
      <trkpt lat="44.30411" lon="3.65007">
        <ele>708</ele>
        <time>2015-06-17T08:24:31Z</time>
      </trkpt>
      <trkpt lat="44.30408" lon="3.65011">
        <ele>708</ele>
        <time>2015-06-17T08:24:34Z</time>
      </trkpt>
      <trkpt lat="44.30403" lon="3.65015">
        <ele>708</ele>
        <time>2015-06-17T08:24:37Z</time>
      </trkpt>
      <trkpt lat="44.30395" lon="3.65018">
        <ele>709</ele>
        <time>2015-06-17T08:24:43Z</time>
      </trkpt>
      <trkpt lat="44.3039" lon="3.65021">
        <ele>709</ele>
        <time>2015-06-17T08:24:53Z</time>
      </trkpt>
      <trkpt lat="44.30385" lon="3.65022">
        <ele>710</ele>
        <time>2015-06-17T08:24:58Z</time>
      </trkpt>
      <trkpt lat="44.30379" lon="3.65025">
        <ele>710</ele>
        <time>2015-06-17T08:25:03Z</time>
      </trkpt>
      <trkpt lat="44.30374" lon="3.65026">
        <ele>711</ele>
        <time>2015-06-17T08:25:07Z</time>
      </trkpt>
      <trkpt lat="44.30369" lon="3.6503">
        <ele>711</ele>
        <time>2015-06-17T08:25:10Z</time>
      </trkpt>
      <trkpt lat="44.30366" lon="3.65035">
        <ele>711</ele>
        <time>2015-06-17T08:25:13Z</time>
      </trkpt>
      <trkpt lat="44.30362" lon="3.6504">
        <ele>711</ele>
        <time>2015-06-17T08:25:20Z</time>
      </trkpt>
      <trkpt lat="44.30361" lon="3.65046">
        <ele>710</ele>
        <time>2015-06-17T08:25:27Z</time>
      </trkpt>
      <trkpt lat="44.30357" lon="3.6505">
        <ele>710</ele>
        <time>2015-06-17T08:25:32Z</time>
      </trkpt>
      <trkpt lat="44.30348" lon="3.65055">
        <ele>710</ele>
        <time>2015-06-17T08:25:38Z</time>
      </trkpt>
      <trkpt lat="44.30345" lon="3.65061">
        <ele>709</ele>
        <time>2015-06-17T08:25:41Z</time>
      </trkpt>
      <trkpt lat="44.30342" lon="3.65066">
        <ele>709</ele>
        <time>2015-06-17T08:25:44Z</time>
      </trkpt>
      <trkpt lat="44.30338" lon="3.65068">
        <ele>709</ele>
        <time>2015-06-17T08:25:49Z</time>
      </trkpt>
      <trkpt lat="44.30334" lon="3.65075">
        <ele>708</ele>
        <time>2015-06-17T08:25:54Z</time>
      </trkpt>
      <trkpt lat="44.30327" lon="3.65086">
        <ele>709</ele>
        <time>2015-06-17T08:26:01Z</time>
      </trkpt>
      <trkpt lat="44.30323" lon="3.6509">
        <ele>710</ele>
        <time>2015-06-17T08:26:04Z</time>
      </trkpt>
      <trkpt lat="44.30314" lon="3.65108">
        <ele>712</ele>
        <time>2015-06-17T08:26:20Z</time>
      </trkpt>
      <trkpt lat="44.30309" lon="3.65111">
        <ele>712</ele>
        <time>2015-06-17T08:26:26Z</time>
      </trkpt>
      <trkpt lat="44.30308" lon="3.65118">
        <ele>712</ele>
        <time>2015-06-17T08:26:34Z</time>
      </trkpt>
      <trkpt lat="44.30305" lon="3.65124">
        <ele>712</ele>
        <time>2015-06-17T08:26:39Z</time>
      </trkpt>
      <trkpt lat="44.30295" lon="3.65129">
        <ele>713</ele>
        <time>2015-06-17T08:26:48Z</time>
      </trkpt>
      <trkpt lat="44.30292" lon="3.65134">
        <ele>713</ele>
        <time>2015-06-17T08:26:52Z</time>
      </trkpt>
      <trkpt lat="44.30282" lon="3.65145">
        <ele>714</ele>
        <time>2015-06-17T08:26:59Z</time>
      </trkpt>
      <trkpt lat="44.30278" lon="3.65149">
        <ele>715</ele>
        <time>2015-06-17T08:27:02Z</time>
      </trkpt>
      <trkpt lat="44.30273" lon="3.6515">
        <ele>716</ele>
        <time>2015-06-17T08:27:05Z</time>
      </trkpt>
      <trkpt lat="44.30278" lon="3.65179">
        <ele>711</ele>
        <time>2015-06-17T08:27:26Z</time>
      </trkpt>
      <trkpt lat="44.30281" lon="3.65183">
        <ele>710</ele>
        <time>2015-06-17T08:27:43Z</time>
      </trkpt>
      <trkpt lat="44.30281" lon="3.65201">
        <ele>709</ele>
        <time>2015-06-17T08:27:52Z</time>
      </trkpt>
      <trkpt lat="44.3028" lon="3.65208">
        <ele>709</ele>
        <time>2015-06-17T08:27:57Z</time>
      </trkpt>
      <trkpt lat="44.30276" lon="3.65213">
        <ele>710</ele>
        <time>2015-06-17T08:28:02Z</time>
      </trkpt>
      <trkpt lat="44.30273" lon="3.65217">
        <ele>710</ele>
        <time>2015-06-17T08:28:07Z</time>
      </trkpt>
      <trkpt lat="44.30274" lon="3.65224">
        <ele>711</ele>
        <time>2015-06-17T08:28:11Z</time>
      </trkpt>
      <trkpt lat="44.30277" lon="3.6523">
        <ele>710</ele>
        <time>2015-06-17T08:28:14Z</time>
      </trkpt>
      <trkpt lat="44.30278" lon="3.65237">
        <ele>710</ele>
        <time>2015-06-17T08:28:18Z</time>
      </trkpt>
      <trkpt lat="44.30279" lon="3.65245">
        <ele>710</ele>
        <time>2015-06-17T08:28:23Z</time>
      </trkpt>
      <trkpt lat="44.30278" lon="3.65251">
        <ele>713</ele>
        <time>2015-06-17T08:28:27Z</time>
      </trkpt>
      <trkpt lat="44.30278" lon="3.65257">
        <ele>713</ele>
        <time>2015-06-17T08:28:52Z</time>
      </trkpt>
      <trkpt lat="44.30278" lon="3.65258">
        <ele>713</ele>
        <time>2015-06-17T08:29:11Z</time>
      </trkpt>
      <trkpt lat="44.30279" lon="3.65265">
        <ele>713</ele>
        <time>2015-06-17T08:29:17Z</time>
      </trkpt>
      <trkpt lat="44.30278" lon="3.65283">
        <ele>713</ele>
        <time>2015-06-17T08:29:23Z</time>
      </trkpt>
      <trkpt lat="44.30279" lon="3.65299">
        <ele>714</ele>
        <time>2015-06-17T08:29:29Z</time>
      </trkpt>
      <trkpt lat="44.30276" lon="3.65311">
        <ele>716</ele>
        <time>2015-06-17T08:29:54Z</time>
      </trkpt>
      <trkpt lat="44.30277" lon="3.65313">
        <ele>716</ele>
        <time>2015-06-17T08:30:17Z</time>
      </trkpt>
      <trkpt lat="44.30281" lon="3.65314">
        <ele>715</ele>
        <time>2015-06-17T08:30:41Z</time>
      </trkpt>
      <trkpt lat="44.30289" lon="3.65322">
        <ele>713</ele>
        <time>2015-06-17T08:30:53Z</time>
      </trkpt>
      <trkpt lat="44.30293" lon="3.65328">
        <ele>713</ele>
        <time>2015-06-17T08:31:02Z</time>
      </trkpt>
      <trkpt lat="44.30297" lon="3.6533">
        <ele>712</ele>
        <time>2015-06-17T08:31:06Z</time>
      </trkpt>
      <trkpt lat="44.30302" lon="3.65331">
        <ele>710</ele>
        <time>2015-06-17T08:31:10Z</time>
      </trkpt>
      <trkpt lat="44.30306" lon="3.65334">
        <ele>714</ele>
        <time>2015-06-17T08:31:14Z</time>
      </trkpt>
      <trkpt lat="44.30314" lon="3.65343">
        <ele>712</ele>
        <time>2015-06-17T08:31:22Z</time>
      </trkpt>
      <trkpt lat="44.30319" lon="3.65346">
        <ele>711</ele>
        <time>2015-06-17T08:31:25Z</time>
      </trkpt>
      <trkpt lat="44.30322" lon="3.65352">
        <ele>712</ele>
        <time>2015-06-17T08:31:31Z</time>
      </trkpt>
      <trkpt lat="44.30327" lon="3.65355">
        <ele>712</ele>
        <time>2015-06-17T08:31:38Z</time>
      </trkpt>
      <trkpt lat="44.3033" lon="3.6536">
        <ele>713</ele>
        <time>2015-06-17T08:31:43Z</time>
      </trkpt>
      <trkpt lat="44.30334" lon="3.65364">
        <ele>695</ele>
        <time>2015-06-17T08:31:48Z</time>
      </trkpt>
      <trkpt lat="44.30338" lon="3.65377">
        <ele>695</ele>
        <time>2015-06-17T08:31:57Z</time>
      </trkpt>
      <trkpt lat="44.30339" lon="3.65384">
        <ele>696</ele>
        <time>2015-06-17T08:32:03Z</time>
      </trkpt>
      <trkpt lat="44.30343" lon="3.65389">
        <ele>697</ele>
        <time>2015-06-17T08:32:11Z</time>
      </trkpt>
      <trkpt lat="44.30347" lon="3.65391">
        <ele>696</ele>
        <time>2015-06-17T08:32:17Z</time>
      </trkpt>
      <trkpt lat="44.30352" lon="3.65394">
        <ele>696</ele>
        <time>2015-06-17T08:32:23Z</time>
      </trkpt>
      <trkpt lat="44.3036" lon="3.65415">
        <ele>696</ele>
        <time>2015-06-17T08:32:34Z</time>
      </trkpt>
      <trkpt lat="44.30362" lon="3.65423">
        <ele>700</ele>
        <time>2015-06-17T08:32:38Z</time>
      </trkpt>
      <trkpt lat="44.30365" lon="3.6543">
        <ele>699</ele>
        <time>2015-06-17T08:32:43Z</time>
      </trkpt>
      <trkpt lat="44.30375" lon="3.65438">
        <ele>697</ele>
        <time>2015-06-17T08:32:51Z</time>
      </trkpt>
      <trkpt lat="44.30377" lon="3.65444">
        <ele>697</ele>
        <time>2015-06-17T08:32:57Z</time>
      </trkpt>
      <trkpt lat="44.30381" lon="3.65449">
        <ele>696</ele>
        <time>2015-06-17T08:33:02Z</time>
      </trkpt>
      <trkpt lat="44.30376" lon="3.6545">
        <ele>697</ele>
        <time>2015-06-17T08:33:06Z</time>
      </trkpt>
      <trkpt lat="44.30376" lon="3.65454">
        <ele>698</ele>
        <time>2015-06-17T08:33:38Z</time>
      </trkpt>
      <trkpt lat="44.30377" lon="3.65457">
        <ele>698</ele>
        <time>2015-06-17T08:34:06Z</time>
      </trkpt>
      <trkpt lat="44.30378" lon="3.65466">
        <ele>698</ele>
        <time>2015-06-17T08:34:10Z</time>
      </trkpt>
      <trkpt lat="44.30377" lon="3.65474">
        <ele>698</ele>
        <time>2015-06-17T08:34:13Z</time>
      </trkpt>
      <trkpt lat="44.3038" lon="3.65479">
        <ele>698</ele>
        <time>2015-06-17T08:34:15Z</time>
      </trkpt>
      <trkpt lat="44.30388" lon="3.65487">
        <ele>696</ele>
        <time>2015-06-17T08:34:19Z</time>
      </trkpt>
      <trkpt lat="44.30391" lon="3.65493">
        <ele>695</ele>
        <time>2015-06-17T08:34:22Z</time>
      </trkpt>
      <trkpt lat="44.30399" lon="3.65502">
        <ele>697</ele>
        <time>2015-06-17T08:34:27Z</time>
      </trkpt>
      <trkpt lat="44.30403" lon="3.65509">
        <ele>697</ele>
        <time>2015-06-17T08:34:30Z</time>
      </trkpt>
      <trkpt lat="44.30405" lon="3.65516">
        <ele>698</ele>
        <time>2015-06-17T08:34:33Z</time>
      </trkpt>
      <trkpt lat="44.3041" lon="3.6552">
        <ele>698</ele>
        <time>2015-06-17T08:34:37Z</time>
      </trkpt>
      <trkpt lat="44.30413" lon="3.65525">
        <ele>699</ele>
        <time>2015-06-17T08:34:40Z</time>
      </trkpt>
      <trkpt lat="44.30417" lon="3.65529">
        <ele>682</ele>
        <time>2015-06-17T08:34:45Z</time>
      </trkpt>
      <trkpt lat="44.3042" lon="3.65535">
        <ele>682</ele>
        <time>2015-06-17T08:34:49Z</time>
      </trkpt>
      <trkpt lat="44.30423" lon="3.6554">
        <ele>682</ele>
        <time>2015-06-17T08:34:52Z</time>
      </trkpt>
      <trkpt lat="44.30425" lon="3.65545">
        <ele>683</ele>
        <time>2015-06-17T08:34:55Z</time>
      </trkpt>
      <trkpt lat="44.30427" lon="3.65551">
        <ele>683</ele>
        <time>2015-06-17T08:34:58Z</time>
      </trkpt>
      <trkpt lat="44.3043" lon="3.65557">
        <ele>684</ele>
        <time>2015-06-17T08:35:02Z</time>
      </trkpt>
      <trkpt lat="44.30438" lon="3.65568">
        <ele>684</ele>
        <time>2015-06-17T08:35:11Z</time>
      </trkpt>
      <trkpt lat="44.30443" lon="3.65572">
        <ele>683</ele>
        <time>2015-06-17T08:35:14Z</time>
      </trkpt>
      <trkpt lat="44.30447" lon="3.65576">
        <ele>683</ele>
        <time>2015-06-17T08:35:18Z</time>
      </trkpt>
      <trkpt lat="44.3045" lon="3.65583">
        <ele>682</ele>
        <time>2015-06-17T08:35:27Z</time>
      </trkpt>
      <trkpt lat="44.30455" lon="3.65596">
        <ele>685</ele>
        <time>2015-06-17T08:35:34Z</time>
      </trkpt>
      <trkpt lat="44.30462" lon="3.65604">
        <ele>684</ele>
        <time>2015-06-17T08:35:40Z</time>
      </trkpt>
      <trkpt lat="44.30467" lon="3.6563">
        <ele>684</ele>
        <time>2015-06-17T08:36:03Z</time>
      </trkpt>
      <trkpt lat="44.30463" lon="3.65643">
        <ele>685</ele>
        <time>2015-06-17T08:36:16Z</time>
      </trkpt>
      <trkpt lat="44.30467" lon="3.6567">
        <ele>682</ele>
        <time>2015-06-17T08:36:30Z</time>
      </trkpt>
      <trkpt lat="44.30467" lon="3.65677">
        <ele>682</ele>
        <time>2015-06-17T08:36:35Z</time>
      </trkpt>
      <trkpt lat="44.30461" lon="3.65689">
        <ele>683</ele>
        <time>2015-06-17T08:36:41Z</time>
      </trkpt>
      <trkpt lat="44.30467" lon="3.65712">
        <ele>680</ele>
        <time>2015-06-17T08:36:54Z</time>
      </trkpt>
      <trkpt lat="44.3047" lon="3.65717">
        <ele>680</ele>
        <time>2015-06-17T08:36:57Z</time>
      </trkpt>
      <trkpt lat="44.30472" lon="3.65726">
        <ele>678</ele>
        <time>2015-06-17T08:37:01Z</time>
      </trkpt>
      <trkpt lat="44.3047" lon="3.65733">
        <ele>678</ele>
        <time>2015-06-17T08:37:04Z</time>
      </trkpt>
      <trkpt lat="44.30468" lon="3.65738">
        <ele>678</ele>
        <time>2015-06-17T08:37:07Z</time>
      </trkpt>
      <trkpt lat="44.30466" lon="3.65745">
        <ele>679</ele>
        <time>2015-06-17T08:37:11Z</time>
      </trkpt>
      <trkpt lat="44.30467" lon="3.65758">
        <ele>670</ele>
        <time>2015-06-17T08:37:20Z</time>
      </trkpt>
      <trkpt lat="44.30463" lon="3.65763">
        <ele>671</ele>
        <time>2015-06-17T08:37:25Z</time>
      </trkpt>
      <trkpt lat="44.3046" lon="3.65768">
        <ele>671</ele>
        <time>2015-06-17T08:37:30Z</time>
      </trkpt>
      <trkpt lat="44.30456" lon="3.65771">
        <ele>672</ele>
        <time>2015-06-17T08:37:35Z</time>
      </trkpt>
      <trkpt lat="44.30452" lon="3.65785">
        <ele>671</ele>
        <time>2015-06-17T08:37:46Z</time>
      </trkpt>
      <trkpt lat="44.30449" lon="3.65791">
        <ele>671</ele>
        <time>2015-06-17T08:37:49Z</time>
      </trkpt>
      <trkpt lat="44.30445" lon="3.65795">
        <ele>671</ele>
        <time>2015-06-17T08:37:52Z</time>
      </trkpt>
      <trkpt lat="44.30441" lon="3.65797">
        <ele>672</ele>
        <time>2015-06-17T08:37:56Z</time>
      </trkpt>
      <trkpt lat="44.30436" lon="3.65802">
        <ele>672</ele>
        <time>2015-06-17T08:38:01Z</time>
      </trkpt>
      <trkpt lat="44.30433" lon="3.65809">
        <ele>672</ele>
        <time>2015-06-17T08:38:04Z</time>
      </trkpt>
      <trkpt lat="44.30427" lon="3.6581">
        <ele>672</ele>
        <time>2015-06-17T08:38:08Z</time>
      </trkpt>
      <trkpt lat="44.30422" lon="3.65808">
        <ele>673</ele>
        <time>2015-06-17T08:38:13Z</time>
      </trkpt>
      <trkpt lat="44.30418" lon="3.65809">
        <ele>673</ele>
        <time>2015-06-17T08:38:18Z</time>
      </trkpt>
      <trkpt lat="44.30413" lon="3.65823">
        <ele>682</ele>
        <time>2015-06-17T08:38:27Z</time>
      </trkpt>
      <trkpt lat="44.30411" lon="3.6583">
        <ele>680</ele>
        <time>2015-06-17T08:38:30Z</time>
      </trkpt>
      <trkpt lat="44.30409" lon="3.65845">
        <ele>675</ele>
        <time>2015-06-17T08:38:40Z</time>
      </trkpt>
      <trkpt lat="44.30406" lon="3.65851">
        <ele>674</ele>
        <time>2015-06-17T08:38:42Z</time>
      </trkpt>
      <trkpt lat="44.30399" lon="3.6587">
        <ele>673</ele>
        <time>2015-06-17T08:38:55Z</time>
      </trkpt>
      <trkpt lat="44.30394" lon="3.65871">
        <ele>673</ele>
        <time>2015-06-17T08:39:01Z</time>
      </trkpt>
      <trkpt lat="44.30392" lon="3.65877">
        <ele>672</ele>
        <time>2015-06-17T08:39:08Z</time>
      </trkpt>
      <trkpt lat="44.30391" lon="3.65883">
        <ele>671</ele>
        <time>2015-06-17T08:39:12Z</time>
      </trkpt>
      <trkpt lat="44.30384" lon="3.65902">
        <ele>669</ele>
        <time>2015-06-17T08:39:30Z</time>
      </trkpt>
      <trkpt lat="44.30383" lon="3.6591">
        <ele>669</ele>
        <time>2015-06-17T08:39:35Z</time>
      </trkpt>
      <trkpt lat="44.3038" lon="3.65916">
        <ele>669</ele>
        <time>2015-06-17T08:39:40Z</time>
      </trkpt>
      <trkpt lat="44.30375" lon="3.6592">
        <ele>655</ele>
        <time>2015-06-17T08:39:47Z</time>
      </trkpt>
      <trkpt lat="44.3037" lon="3.65924">
        <ele>657</ele>
        <time>2015-06-17T08:39:53Z</time>
      </trkpt>
      <trkpt lat="44.30364" lon="3.65936">
        <ele>657</ele>
        <time>2015-06-17T08:40:02Z</time>
      </trkpt>
      <trkpt lat="44.3036" lon="3.65943">
        <ele>656</ele>
        <time>2015-06-17T08:40:05Z</time>
      </trkpt>
      <trkpt lat="44.30358" lon="3.65949">
        <ele>656</ele>
        <time>2015-06-17T08:40:10Z</time>
      </trkpt>
      <trkpt lat="44.30356" lon="3.65957">
        <ele>655</ele>
        <time>2015-06-17T08:40:14Z</time>
      </trkpt>
      <trkpt lat="44.30356" lon="3.65965">
        <ele>654</ele>
        <time>2015-06-17T08:40:17Z</time>
      </trkpt>
      <trkpt lat="44.30352" lon="3.65971">
        <ele>653</ele>
        <time>2015-06-17T08:40:23Z</time>
      </trkpt>
      <trkpt lat="44.3035" lon="3.65977">
        <ele>653</ele>
        <time>2015-06-17T08:40:29Z</time>
      </trkpt>
      <trkpt lat="44.3035" lon="3.65984">
        <ele>653</ele>
        <time>2015-06-17T08:40:35Z</time>
      </trkpt>
      <trkpt lat="44.30349" lon="3.6599">
        <ele>653</ele>
        <time>2015-06-17T08:40:40Z</time>
      </trkpt>
      <trkpt lat="44.30346" lon="3.65996">
        <ele>654</ele>
        <time>2015-06-17T08:40:45Z</time>
      </trkpt>
      <trkpt lat="44.30339" lon="3.66015">
        <ele>645</ele>
        <time>2015-06-17T08:40:59Z</time>
      </trkpt>
      <trkpt lat="44.30336" lon="3.6602">
        <ele>643</ele>
        <time>2015-06-17T08:41:03Z</time>
      </trkpt>
      <trkpt lat="44.30337" lon="3.66026">
        <ele>641</ele>
        <time>2015-06-17T08:41:06Z</time>
      </trkpt>
      <trkpt lat="44.30333" lon="3.66032">
        <ele>657</ele>
        <time>2015-06-17T08:41:14Z</time>
      </trkpt>
      <trkpt lat="44.30332" lon="3.66046">
        <ele>654</ele>
        <time>2015-06-17T08:41:23Z</time>
      </trkpt>
      <trkpt lat="44.30327" lon="3.66059">
        <ele>651</ele>
        <time>2015-06-17T08:41:31Z</time>
      </trkpt>
      <trkpt lat="44.30323" lon="3.66065">
        <ele>650</ele>
        <time>2015-06-17T08:41:34Z</time>
      </trkpt>
      <trkpt lat="44.3032" lon="3.66069">
        <ele>649</ele>
        <time>2015-06-17T08:41:38Z</time>
      </trkpt>
      <trkpt lat="44.30317" lon="3.66074">
        <ele>649</ele>
        <time>2015-06-17T08:41:44Z</time>
      </trkpt>
      <trkpt lat="44.30314" lon="3.66081">
        <ele>649</ele>
        <time>2015-06-17T08:41:48Z</time>
      </trkpt>
      <trkpt lat="44.3031" lon="3.66084">
        <ele>639</ele>
        <time>2015-06-17T08:41:52Z</time>
      </trkpt>
      <trkpt lat="44.30307" lon="3.66089">
        <ele>640</ele>
        <time>2015-06-17T08:41:57Z</time>
      </trkpt>
      <trkpt lat="44.30304" lon="3.66095">
        <ele>640</ele>
        <time>2015-06-17T08:42:04Z</time>
      </trkpt>
      <trkpt lat="44.30302" lon="3.66102">
        <ele>640</ele>
        <time>2015-06-17T08:42:09Z</time>
      </trkpt>
      <trkpt lat="44.30296" lon="3.66113">
        <ele>640</ele>
        <time>2015-06-17T08:42:16Z</time>
      </trkpt>
      <trkpt lat="44.30288" lon="3.66123">
        <ele>640</ele>
        <time>2015-06-17T08:42:29Z</time>
      </trkpt>
      <trkpt lat="44.30286" lon="3.66128">
        <ele>639</ele>
        <time>2015-06-17T08:42:33Z</time>
      </trkpt>
      <trkpt lat="44.30283" lon="3.66141">
        <ele>638</ele>
        <time>2015-06-17T08:42:42Z</time>
      </trkpt>
      <trkpt lat="44.3028" lon="3.66162">
        <ele>637</ele>
        <time>2015-06-17T08:42:52Z</time>
      </trkpt>
      <trkpt lat="44.30276" lon="3.66176">
        <ele>627</ele>
        <time>2015-06-17T08:43:01Z</time>
      </trkpt>
      <trkpt lat="44.30271" lon="3.66179">
        <ele>628</ele>
        <time>2015-06-17T08:43:06Z</time>
      </trkpt>
      <trkpt lat="44.30267" lon="3.66184">
        <ele>628</ele>
        <time>2015-06-17T08:43:15Z</time>
      </trkpt>
      <trkpt lat="44.30264" lon="3.66198">
        <ele>626</ele>
        <time>2015-06-17T08:43:21Z</time>
      </trkpt>
      <trkpt lat="44.30257" lon="3.6621">
        <ele>624</ele>
        <time>2015-06-17T08:43:28Z</time>
      </trkpt>
      <trkpt lat="44.30254" lon="3.66216">
        <ele>623</ele>
        <time>2015-06-17T08:43:31Z</time>
      </trkpt>
      <trkpt lat="44.30248" lon="3.66238">
        <ele>626</ele>
        <time>2015-06-17T08:43:41Z</time>
      </trkpt>
      <trkpt lat="44.30247" lon="3.66231">
        <ele>628</ele>
        <time>2015-06-17T08:43:47Z</time>
      </trkpt>
      <trkpt lat="44.3024" lon="3.66248">
        <ele>624</ele>
        <time>2015-06-17T08:44:02Z</time>
      </trkpt>
      <trkpt lat="44.30237" lon="3.66253">
        <ele>619</ele>
        <time>2015-06-17T08:44:08Z</time>
      </trkpt>
      <trkpt lat="44.30234" lon="3.66258">
        <ele>619</ele>
        <time>2015-06-17T08:44:12Z</time>
      </trkpt>
      <trkpt lat="44.3023" lon="3.66262">
        <ele>619</ele>
        <time>2015-06-17T08:44:15Z</time>
      </trkpt>
      <trkpt lat="44.30224" lon="3.66264">
        <ele>619</ele>
        <time>2015-06-17T08:44:17Z</time>
      </trkpt>
      <trkpt lat="44.30215" lon="3.663">
        <ele>617</ele>
        <time>2015-06-17T08:44:31Z</time>
      </trkpt>
      <trkpt lat="44.30216" lon="3.66309">
        <ele>616</ele>
        <time>2015-06-17T08:44:37Z</time>
      </trkpt>
      <trkpt lat="44.30221" lon="3.66311">
        <ele>616</ele>
        <time>2015-06-17T08:44:42Z</time>
      </trkpt>
      <trkpt lat="44.30225" lon="3.66305">
        <ele>616</ele>
        <time>2015-06-17T08:44:44Z</time>
      </trkpt>
      <trkpt lat="44.3023" lon="3.66302">
        <ele>616</ele>
        <time>2015-06-17T08:44:47Z</time>
      </trkpt>
      <trkpt lat="44.30231" lon="3.66295">
        <ele>616</ele>
        <time>2015-06-17T08:44:52Z</time>
      </trkpt>
      <trkpt lat="44.30235" lon="3.66291">
        <ele>617</ele>
        <time>2015-06-17T08:45:03Z</time>
      </trkpt>
      <trkpt lat="44.30236" lon="3.66284">
        <ele>617</ele>
        <time>2015-06-17T08:45:08Z</time>
      </trkpt>
      <trkpt lat="44.30239" lon="3.66278">
        <ele>618</ele>
        <time>2015-06-17T08:45:15Z</time>
      </trkpt>
      <trkpt lat="44.30243" lon="3.66274">
        <ele>618</ele>
        <time>2015-06-17T08:45:19Z</time>
      </trkpt>
      <trkpt lat="44.30246" lon="3.66268">
        <ele>618</ele>
        <time>2015-06-17T08:45:22Z</time>
      </trkpt>
      <trkpt lat="44.30252" lon="3.66272">
        <ele>617</ele>
        <time>2015-06-17T08:45:26Z</time>
      </trkpt>
      <trkpt lat="44.30252" lon="3.6628">
        <ele>617</ele>
        <time>2015-06-17T08:45:29Z</time>
      </trkpt>
      <trkpt lat="44.30251" lon="3.66288">
        <ele>616</ele>
        <time>2015-06-17T08:45:32Z</time>
      </trkpt>
      <trkpt lat="44.30249" lon="3.66295">
        <ele>616</ele>
        <time>2015-06-17T08:45:35Z</time>
      </trkpt>
      <trkpt lat="44.3024" lon="3.66312">
        <ele>614</ele>
        <time>2015-06-17T08:45:44Z</time>
      </trkpt>
      <trkpt lat="44.30228" lon="3.66326">
        <ele>614</ele>
        <time>2015-06-17T08:45:52Z</time>
      </trkpt>
      <trkpt lat="44.30221" lon="3.66333">
        <ele>614</ele>
        <time>2015-06-17T08:45:59Z</time>
      </trkpt>
      <trkpt lat="44.30216" lon="3.66336">
        <ele>612</ele>
        <time>2015-06-17T08:46:04Z</time>
      </trkpt>
      <trkpt lat="44.30204" lon="3.66347">
        <ele>612</ele>
        <time>2015-06-17T08:46:08Z</time>
      </trkpt>
      <trkpt lat="44.30199" lon="3.6635">
        <ele>612</ele>
        <time>2015-06-17T08:46:10Z</time>
      </trkpt>
      <trkpt lat="44.30196" lon="3.66345">
        <ele>612</ele>
        <time>2015-06-17T08:46:15Z</time>
      </trkpt>
      <trkpt lat="44.30195" lon="3.66339">
        <ele>612</ele>
        <time>2015-06-17T08:46:19Z</time>
      </trkpt>
      <trkpt lat="44.30191" lon="3.66338">
        <ele>612</ele>
        <time>2015-06-17T08:46:23Z</time>
      </trkpt>
      <trkpt lat="44.30186" lon="3.66335">
        <ele>612</ele>
        <time>2015-06-17T08:46:28Z</time>
      </trkpt>
      <trkpt lat="44.30181" lon="3.66335">
        <ele>612</ele>
        <time>2015-06-17T08:46:32Z</time>
      </trkpt>
      <trkpt lat="44.30176" lon="3.66337">
        <ele>612</ele>
        <time>2015-06-17T08:46:36Z</time>
      </trkpt>
      <trkpt lat="44.3017" lon="3.66337">
        <ele>612</ele>
        <time>2015-06-17T08:46:40Z</time>
      </trkpt>
      <trkpt lat="44.30166" lon="3.66336">
        <ele>612</ele>
        <time>2015-06-17T08:46:44Z</time>
      </trkpt>
      <trkpt lat="44.30161" lon="3.66331">
        <ele>613</ele>
        <time>2015-06-17T08:46:48Z</time>
      </trkpt>
      <trkpt lat="44.30157" lon="3.66331">
        <ele>614</ele>
        <time>2015-06-17T08:46:51Z</time>
      </trkpt>
      <trkpt lat="44.30148" lon="3.6634">
        <ele>611</ele>
        <time>2015-06-17T08:46:58Z</time>
      </trkpt>
      <trkpt lat="44.30143" lon="3.6634">
        <ele>611</ele>
        <time>2015-06-17T08:47:01Z</time>
      </trkpt>
      <trkpt lat="44.30133" lon="3.66336">
        <ele>611</ele>
        <time>2015-06-17T08:47:18Z</time>
      </trkpt>
      <trkpt lat="44.3013" lon="3.66342">
        <ele>611</ele>
        <time>2015-06-17T08:47:25Z</time>
      </trkpt>
      <trkpt lat="44.3013" lon="3.66342">
        <ele>611</ele>
        <time>2015-06-17T08:47:39Z</time>
      </trkpt>
      <trkpt lat="44.30128" lon="3.66349">
        <ele>611</ele>
        <time>2015-06-17T08:47:51Z</time>
      </trkpt>
      <trkpt lat="44.30127" lon="3.66356">
        <ele>611</ele>
        <time>2015-06-17T08:47:54Z</time>
      </trkpt>
      <trkpt lat="44.30123" lon="3.66361">
        <ele>611</ele>
        <time>2015-06-17T08:48:25Z</time>
      </trkpt>
      <trkpt lat="44.30122" lon="3.66369">
        <ele>611</ele>
        <time>2015-06-17T08:48:29Z</time>
      </trkpt>
      <trkpt lat="44.30113" lon="3.66377">
        <ele>612</ele>
        <time>2015-06-17T08:48:36Z</time>
      </trkpt>
      <trkpt lat="44.30109" lon="3.66381">
        <ele>612</ele>
        <time>2015-06-17T08:48:40Z</time>
      </trkpt>
      <trkpt lat="44.30108" lon="3.66374">
        <ele>612</ele>
        <time>2015-06-17T08:48:47Z</time>
      </trkpt>
      <trkpt lat="44.30108" lon="3.66376">
        <ele>612</ele>
        <time>2015-06-17T08:49:21Z</time>
      </trkpt>
      <trkpt lat="44.30111" lon="3.66376">
        <ele>612</ele>
        <time>2015-06-17T08:49:36Z</time>
      </trkpt>
      <trkpt lat="44.30109" lon="3.66375">
        <ele>612</ele>
        <time>2015-06-17T08:49:53Z</time>
      </trkpt>
      <trkpt lat="44.3011" lon="3.66376">
        <ele>612</ele>
        <time>2015-06-17T08:50:09Z</time>
      </trkpt>
      <trkpt lat="44.30107" lon="3.66381">
        <ele>612</ele>
        <time>2015-06-17T08:50:27Z</time>
      </trkpt>
      <trkpt lat="44.30103" lon="3.66385">
        <ele>613</ele>
        <time>2015-06-17T08:50:33Z</time>
      </trkpt>
      <trkpt lat="44.30099" lon="3.66386">
        <ele>613</ele>
        <time>2015-06-17T08:50:59Z</time>
      </trkpt>
      <trkpt lat="44.30102" lon="3.66381">
        <ele>612</ele>
        <time>2015-06-17T08:51:15Z</time>
      </trkpt>
      <trkpt lat="44.30105" lon="3.66376">
        <ele>612</ele>
        <time>2015-06-17T08:51:20Z</time>
      </trkpt>
      <trkpt lat="44.30084" lon="3.66381">
        <ele>613</ele>
        <time>2015-06-17T09:00:19Z</time>
      </trkpt>
      <trkpt lat="44.30079" lon="3.66378">
        <ele>614</ele>
        <time>2015-06-17T09:00:22Z</time>
      </trkpt>
      <trkpt lat="44.30074" lon="3.66373">
        <ele>614</ele>
        <time>2015-06-17T09:00:25Z</time>
      </trkpt>
      <trkpt lat="44.30069" lon="3.66375">
        <ele>614</ele>
        <time>2015-06-17T09:00:30Z</time>
      </trkpt>
      <trkpt lat="44.30063" lon="3.66377">
        <ele>614</ele>
        <time>2015-06-17T09:00:34Z</time>
      </trkpt>
      <trkpt lat="44.30059" lon="3.6638">
        <ele>614</ele>
        <time>2015-06-17T09:00:38Z</time>
      </trkpt>
      <trkpt lat="44.30058" lon="3.66386">
        <ele>615</ele>
        <time>2015-06-17T09:00:42Z</time>
      </trkpt>
      <trkpt lat="44.30053" lon="3.6639">
        <ele>615</ele>
        <time>2015-06-17T09:00:47Z</time>
      </trkpt>
      <trkpt lat="44.30048" lon="3.6639">
        <ele>615</ele>
        <time>2015-06-17T09:00:52Z</time>
      </trkpt>
      <trkpt lat="44.30045" lon="3.66386">
        <ele>615</ele>
        <time>2015-06-17T09:00:58Z</time>
      </trkpt>
      <trkpt lat="44.30043" lon="3.66378">
        <ele>614</ele>
        <time>2015-06-17T09:01:06Z</time>
      </trkpt>
      <trkpt lat="44.30044" lon="3.66372">
        <ele>614</ele>
        <time>2015-06-17T09:01:12Z</time>
      </trkpt>
      <trkpt lat="44.3004" lon="3.66373">
        <ele>614</ele>
        <time>2015-06-17T09:01:18Z</time>
      </trkpt>
      <trkpt lat="44.30035" lon="3.66385">
        <ele>615</ele>
        <time>2015-06-17T09:01:38Z</time>
      </trkpt>
      <trkpt lat="44.3003" lon="3.66389">
        <ele>615</ele>
        <time>2015-06-17T09:01:41Z</time>
      </trkpt>
      <trkpt lat="44.30023" lon="3.664">
        <ele>616</ele>
        <time>2015-06-17T09:01:44Z</time>
      </trkpt>
      <trkpt lat="44.30015" lon="3.66408">
        <ele>617</ele>
        <time>2015-06-17T09:01:47Z</time>
      </trkpt>
      <trkpt lat="44.3001" lon="3.66407">
        <ele>618</ele>
        <time>2015-06-17T09:01:49Z</time>
      </trkpt>
      <trkpt lat="44.30002" lon="3.66409">
        <ele>618</ele>
        <time>2015-06-17T09:01:52Z</time>
      </trkpt>
      <trkpt lat="44.29997" lon="3.6641">
        <ele>619</ele>
        <time>2015-06-17T09:01:55Z</time>
      </trkpt>
      <trkpt lat="44.29992" lon="3.66412">
        <ele>618</ele>
        <time>2015-06-17T09:01:58Z</time>
      </trkpt>
      <trkpt lat="44.29987" lon="3.66414">
        <ele>618</ele>
        <time>2015-06-17T09:02:02Z</time>
      </trkpt>
      <trkpt lat="44.29984" lon="3.66419">
        <ele>621</ele>
        <time>2015-06-17T09:02:08Z</time>
      </trkpt>
      <trkpt lat="44.29974" lon="3.66422">
        <ele>622</ele>
        <time>2015-06-17T09:02:16Z</time>
      </trkpt>
      <trkpt lat="44.2996" lon="3.66431">
        <ele>622</ele>
        <time>2015-06-17T09:02:24Z</time>
      </trkpt>
      <trkpt lat="44.2995" lon="3.66432">
        <ele>622</ele>
        <time>2015-06-17T09:02:28Z</time>
      </trkpt>
      <trkpt lat="44.29945" lon="3.66435">
        <ele>621</ele>
        <time>2015-06-17T09:02:31Z</time>
      </trkpt>
      <trkpt lat="44.29943" lon="3.66441">
        <ele>622</ele>
        <time>2015-06-17T09:02:38Z</time>
      </trkpt>
      <trkpt lat="44.29938" lon="3.66446">
        <ele>622</ele>
        <time>2015-06-17T09:02:41Z</time>
      </trkpt>
      <trkpt lat="44.29926" lon="3.66452">
        <ele>622</ele>
        <time>2015-06-17T09:02:45Z</time>
      </trkpt>
      <trkpt lat="44.29922" lon="3.66448">
        <ele>621</ele>
        <time>2015-06-17T09:02:50Z</time>
      </trkpt>
      <trkpt lat="44.29917" lon="3.66445">
        <ele>621</ele>
        <time>2015-06-17T09:02:56Z</time>
      </trkpt>
      <trkpt lat="44.2991" lon="3.66453">
        <ele>619</ele>
        <time>2015-06-17T09:03:04Z</time>
      </trkpt>
      <trkpt lat="44.29904" lon="3.66458">
        <ele>619</ele>
        <time>2015-06-17T09:03:07Z</time>
      </trkpt>
      <trkpt lat="44.299" lon="3.66462">
        <ele>619</ele>
        <time>2015-06-17T09:03:09Z</time>
      </trkpt>
      <trkpt lat="44.29896" lon="3.66465">
        <ele>619</ele>
        <time>2015-06-17T09:03:11Z</time>
      </trkpt>
      <trkpt lat="44.29894" lon="3.66472">
        <ele>619</ele>
        <time>2015-06-17T09:03:14Z</time>
      </trkpt>
      <trkpt lat="44.2989" lon="3.66468">
        <ele>619</ele>
        <time>2015-06-17T09:03:18Z</time>
      </trkpt>
      <trkpt lat="44.29886" lon="3.6647">
        <ele>619</ele>
        <time>2015-06-17T09:03:28Z</time>
      </trkpt>
      <trkpt lat="44.2989" lon="3.66478">
        <ele>620</ele>
        <time>2015-06-17T09:03:31Z</time>
      </trkpt>
      <trkpt lat="44.29881" lon="3.66485">
        <ele>619</ele>
        <time>2015-06-17T09:03:44Z</time>
      </trkpt>
      <trkpt lat="44.29875" lon="3.66486">
        <ele>619</ele>
        <time>2015-06-17T09:03:54Z</time>
      </trkpt>
      <trkpt lat="44.2987" lon="3.66486">
        <ele>619</ele>
        <time>2015-06-17T09:03:58Z</time>
      </trkpt>
      <trkpt lat="44.29865" lon="3.66489">
        <ele>618</ele>
        <time>2015-06-17T09:04:01Z</time>
      </trkpt>
      <trkpt lat="44.2986" lon="3.66491">
        <ele>618</ele>
        <time>2015-06-17T09:04:03Z</time>
      </trkpt>
      <trkpt lat="44.29855" lon="3.66495">
        <ele>618</ele>
        <time>2015-06-17T09:04:07Z</time>
      </trkpt>
      <trkpt lat="44.2985" lon="3.66495">
        <ele>617</ele>
        <time>2015-06-17T09:04:13Z</time>
      </trkpt>
      <trkpt lat="44.29846" lon="3.66499">
        <ele>617</ele>
        <time>2015-06-17T09:04:17Z</time>
      </trkpt>
      <trkpt lat="44.29842" lon="3.66504">
        <ele>620</ele>
        <time>2015-06-17T09:04:19Z</time>
      </trkpt>
      <trkpt lat="44.29839" lon="3.66508">
        <ele>620</ele>
        <time>2015-06-17T09:04:22Z</time>
      </trkpt>
      <trkpt lat="44.29834" lon="3.66512">
        <ele>620</ele>
        <time>2015-06-17T09:04:28Z</time>
      </trkpt>
      <trkpt lat="44.29829" lon="3.66513">
        <ele>619</ele>
        <time>2015-06-17T09:04:32Z</time>
      </trkpt>
      <trkpt lat="44.29825" lon="3.66517">
        <ele>619</ele>
        <time>2015-06-17T09:04:35Z</time>
      </trkpt>
      <trkpt lat="44.2982" lon="3.66531">
        <ele>621</ele>
        <time>2015-06-17T09:04:43Z</time>
      </trkpt>
      <trkpt lat="44.29815" lon="3.66541">
        <ele>622</ele>
        <time>2015-06-17T09:04:54Z</time>
      </trkpt>
      <trkpt lat="44.29811" lon="3.66545">
        <ele>622</ele>
        <time>2015-06-17T09:04:58Z</time>
      </trkpt>
      <trkpt lat="44.29807" lon="3.66557">
        <ele>623</ele>
        <time>2015-06-17T09:05:06Z</time>
      </trkpt>
      <trkpt lat="44.29804" lon="3.66563">
        <ele>623</ele>
        <time>2015-06-17T09:05:10Z</time>
      </trkpt>
      <trkpt lat="44.29804" lon="3.66571">
        <ele>623</ele>
        <time>2015-06-17T09:05:16Z</time>
      </trkpt>
      <trkpt lat="44.29801" lon="3.66576">
        <ele>623</ele>
        <time>2015-06-17T09:05:20Z</time>
      </trkpt>
      <trkpt lat="44.29795" lon="3.66594">
        <ele>627</ele>
        <time>2015-06-17T09:05:34Z</time>
      </trkpt>
      <trkpt lat="44.29792" lon="3.66599">
        <ele>626</ele>
        <time>2015-06-17T09:05:39Z</time>
      </trkpt>
      <trkpt lat="44.29792" lon="3.66606">
        <ele>627</ele>
        <time>2015-06-17T09:05:45Z</time>
      </trkpt>
      <trkpt lat="44.29791" lon="3.66613">
        <ele>627</ele>
        <time>2015-06-17T09:05:50Z</time>
      </trkpt>
      <trkpt lat="44.29789" lon="3.6662">
        <ele>627</ele>
        <time>2015-06-17T09:05:53Z</time>
      </trkpt>
      <trkpt lat="44.29791" lon="3.66626">
        <ele>628</ele>
        <time>2015-06-17T09:05:56Z</time>
      </trkpt>
      <trkpt lat="44.29788" lon="3.66639">
        <ele>628</ele>
        <time>2015-06-17T09:06:05Z</time>
      </trkpt>
      <trkpt lat="44.29787" lon="3.66647">
        <ele>628</ele>
        <time>2015-06-17T09:06:10Z</time>
      </trkpt>
      <trkpt lat="44.29785" lon="3.66654">
        <ele>628</ele>
        <time>2015-06-17T09:06:13Z</time>
      </trkpt>
      <trkpt lat="44.29787" lon="3.66661">
        <ele>628</ele>
        <time>2015-06-17T09:06:20Z</time>
      </trkpt>
      <trkpt lat="44.29787" lon="3.66668">
        <ele>633</ele>
        <time>2015-06-17T09:06:24Z</time>
      </trkpt>
      <trkpt lat="44.29786" lon="3.66676">
        <ele>633</ele>
        <time>2015-06-17T09:06:28Z</time>
      </trkpt>
      <trkpt lat="44.2979" lon="3.66693">
        <ele>634</ele>
        <time>2015-06-17T09:06:32Z</time>
      </trkpt>
      <trkpt lat="44.29789" lon="3.66701">
        <ele>634</ele>
        <time>2015-06-17T09:06:34Z</time>
      </trkpt>
      <trkpt lat="44.29779" lon="3.6673">
        <ele>632</ele>
        <time>2015-06-17T09:06:47Z</time>
      </trkpt>
      <trkpt lat="44.29777" lon="3.66743">
        <ele>631</ele>
        <time>2015-06-17T09:07:08Z</time>
      </trkpt>
      <trkpt lat="44.29778" lon="3.6675">
        <ele>633</ele>
        <time>2015-06-17T09:07:12Z</time>
      </trkpt>
      <trkpt lat="44.2978" lon="3.66756">
        <ele>634</ele>
        <time>2015-06-17T09:07:17Z</time>
      </trkpt>
      <trkpt lat="44.29774" lon="3.66786">
        <ele>634</ele>
        <time>2015-06-17T09:07:31Z</time>
      </trkpt>
      <trkpt lat="44.29774" lon="3.66793">
        <ele>634</ele>
        <time>2015-06-17T09:07:35Z</time>
      </trkpt>
      <trkpt lat="44.29778" lon="3.66795">
        <ele>635</ele>
        <time>2015-06-17T09:07:41Z</time>
      </trkpt>
      <trkpt lat="44.29779" lon="3.66801">
        <ele>635</ele>
        <time>2015-06-17T09:07:45Z</time>
      </trkpt>
      <trkpt lat="44.29777" lon="3.66807">
        <ele>635</ele>
        <time>2015-06-17T09:07:51Z</time>
      </trkpt>
      <trkpt lat="44.29774" lon="3.66823">
        <ele>634</ele>
        <time>2015-06-17T09:07:58Z</time>
      </trkpt>
      <trkpt lat="44.29772" lon="3.66853">
        <ele>634</ele>
        <time>2015-06-17T09:08:11Z</time>
      </trkpt>
      <trkpt lat="44.29773" lon="3.6686">
        <ele>635</ele>
        <time>2015-06-17T09:08:17Z</time>
      </trkpt>
      <trkpt lat="44.2977" lon="3.66882">
        <ele>635</ele>
        <time>2015-06-17T09:08:35Z</time>
      </trkpt>
      <trkpt lat="44.29772" lon="3.6689">
        <ele>635</ele>
        <time>2015-06-17T09:08:39Z</time>
      </trkpt>
      <trkpt lat="44.2977" lon="3.66896">
        <ele>634</ele>
        <time>2015-06-17T09:08:43Z</time>
      </trkpt>
      <trkpt lat="44.29768" lon="3.66902">
        <ele>633</ele>
        <time>2015-06-17T09:08:47Z</time>
      </trkpt>
      <trkpt lat="44.29767" lon="3.66916">
        <ele>632</ele>
        <time>2015-06-17T09:08:57Z</time>
      </trkpt>
      <trkpt lat="44.29768" lon="3.66924">
        <ele>632</ele>
        <time>2015-06-17T09:09:02Z</time>
      </trkpt>
      <trkpt lat="44.2977" lon="3.66931">
        <ele>633</ele>
        <time>2015-06-17T09:09:06Z</time>
      </trkpt>
      <trkpt lat="44.29769" lon="3.66938">
        <ele>633</ele>
        <time>2015-06-17T09:09:09Z</time>
      </trkpt>
      <trkpt lat="44.2977" lon="3.66945">
        <ele>634</ele>
        <time>2015-06-17T09:09:12Z</time>
      </trkpt>
      <trkpt lat="44.29777" lon="3.66971">
        <ele>635</ele>
        <time>2015-06-17T09:09:29Z</time>
      </trkpt>
      <trkpt lat="44.29777" lon="3.66978">
        <ele>635</ele>
        <time>2015-06-17T09:09:36Z</time>
      </trkpt>
      <trkpt lat="44.29781" lon="3.66984">
        <ele>635</ele>
        <time>2015-06-17T09:09:40Z</time>
      </trkpt>
      <trkpt lat="44.29782" lon="3.66996">
        <ele>635</ele>
        <time>2015-06-17T09:09:48Z</time>
      </trkpt>
      <trkpt lat="44.29791" lon="3.67023">
        <ele>635</ele>
        <time>2015-06-17T09:10:05Z</time>
      </trkpt>
      <trkpt lat="44.29791" lon="3.67031">
        <ele>635</ele>
        <time>2015-06-17T09:10:09Z</time>
      </trkpt>
      <trkpt lat="44.29797" lon="3.67053">
        <ele>635</ele>
        <time>2015-06-17T09:10:19Z</time>
      </trkpt>
      <trkpt lat="44.29795" lon="3.6706">
        <ele>635</ele>
        <time>2015-06-17T09:10:22Z</time>
      </trkpt>
      <trkpt lat="44.29798" lon="3.67065">
        <ele>635</ele>
        <time>2015-06-17T09:10:30Z</time>
      </trkpt>
      <trkpt lat="44.29802" lon="3.67078">
        <ele>635</ele>
        <time>2015-06-17T09:10:37Z</time>
      </trkpt>
      <trkpt lat="44.29808" lon="3.67089">
        <ele>635</ele>
        <time>2015-06-17T09:10:43Z</time>
      </trkpt>
      <trkpt lat="44.2981" lon="3.67095">
        <ele>635</ele>
        <time>2015-06-17T09:10:47Z</time>
      </trkpt>
      <trkpt lat="44.29816" lon="3.67105">
        <ele>635</ele>
        <time>2015-06-17T09:10:56Z</time>
      </trkpt>
      <trkpt lat="44.29817" lon="3.67112">
        <ele>635</ele>
        <time>2015-06-17T09:11:02Z</time>
      </trkpt>
      <trkpt lat="44.29819" lon="3.67118">
        <ele>634</ele>
        <time>2015-06-17T09:11:07Z</time>
      </trkpt>
      <trkpt lat="44.2982" lon="3.67124">
        <ele>634</ele>
        <time>2015-06-17T09:11:11Z</time>
      </trkpt>
      <trkpt lat="44.29824" lon="3.67129">
        <ele>634</ele>
        <time>2015-06-17T09:11:15Z</time>
      </trkpt>
      <trkpt lat="44.29829" lon="3.67131">
        <ele>634</ele>
        <time>2015-06-17T09:11:18Z</time>
      </trkpt>
      <trkpt lat="44.29834" lon="3.67135">
        <ele>641</ele>
        <time>2015-06-17T09:11:23Z</time>
      </trkpt>
      <trkpt lat="44.29835" lon="3.67141">
        <ele>640</ele>
        <time>2015-06-17T09:11:30Z</time>
      </trkpt>
      <trkpt lat="44.29838" lon="3.67147">
        <ele>639</ele>
        <time>2015-06-17T09:11:36Z</time>
      </trkpt>
      <trkpt lat="44.29841" lon="3.67153">
        <ele>638</ele>
        <time>2015-06-17T09:11:42Z</time>
      </trkpt>
      <trkpt lat="44.29845" lon="3.67158">
        <ele>637</ele>
        <time>2015-06-17T09:11:46Z</time>
      </trkpt>
      <trkpt lat="44.29849" lon="3.67161">
        <ele>639</ele>
        <time>2015-06-17T09:11:49Z</time>
      </trkpt>
      <trkpt lat="44.29854" lon="3.67164">
        <ele>640</ele>
        <time>2015-06-17T09:11:53Z</time>
      </trkpt>
      <trkpt lat="44.2986" lon="3.67164">
        <ele>642</ele>
        <time>2015-06-17T09:11:57Z</time>
      </trkpt>
      <trkpt lat="44.29865" lon="3.67164">
        <ele>644</ele>
        <time>2015-06-17T09:12:01Z</time>
      </trkpt>
      <trkpt lat="44.29869" lon="3.67167">
        <ele>645</ele>
        <time>2015-06-17T09:12:06Z</time>
      </trkpt>
      <trkpt lat="44.29874" lon="3.67168">
        <ele>640</ele>
        <time>2015-06-17T09:12:10Z</time>
      </trkpt>
      <trkpt lat="44.29878" lon="3.67171">
        <ele>641</ele>
        <time>2015-06-17T09:12:14Z</time>
      </trkpt>
      <trkpt lat="44.29884" lon="3.67174">
        <ele>642</ele>
        <time>2015-06-17T09:12:19Z</time>
      </trkpt>
      <trkpt lat="44.29886" lon="3.67183">
        <ele>642</ele>
        <time>2015-06-17T09:12:25Z</time>
      </trkpt>
      <trkpt lat="44.29891" lon="3.67184">
        <ele>642</ele>
        <time>2015-06-17T09:12:29Z</time>
      </trkpt>
      <trkpt lat="44.29895" lon="3.67188">
        <ele>643</ele>
        <time>2015-06-17T09:12:34Z</time>
      </trkpt>
      <trkpt lat="44.299" lon="3.6719">
        <ele>643</ele>
        <time>2015-06-17T09:12:39Z</time>
      </trkpt>
      <trkpt lat="44.29916" lon="3.67199">
        <ele>643</ele>
        <time>2015-06-17T09:12:49Z</time>
      </trkpt>
      <trkpt lat="44.29921" lon="3.67204">
        <ele>662</ele>
        <time>2015-06-17T09:12:53Z</time>
      </trkpt>
      <trkpt lat="44.29925" lon="3.67206">
        <ele>662</ele>
        <time>2015-06-17T09:12:56Z</time>
      </trkpt>
      <trkpt lat="44.29931" lon="3.67218">
        <ele>661</ele>
        <time>2015-06-17T09:13:03Z</time>
      </trkpt>
      <trkpt lat="44.29932" lon="3.67225">
        <ele>659</ele>
        <time>2015-06-17T09:13:08Z</time>
      </trkpt>
      <trkpt lat="44.29934" lon="3.67231">
        <ele>658</ele>
        <time>2015-06-17T09:13:14Z</time>
      </trkpt>
      <trkpt lat="44.29935" lon="3.67237">
        <ele>656</ele>
        <time>2015-06-17T09:13:19Z</time>
      </trkpt>
      <trkpt lat="44.29932" lon="3.67244">
        <ele>652</ele>
        <time>2015-06-17T09:13:22Z</time>
      </trkpt>
      <trkpt lat="44.29933" lon="3.6725">
        <ele>644</ele>
        <time>2015-06-17T09:13:26Z</time>
      </trkpt>
      <trkpt lat="44.29939" lon="3.67264">
        <ele>648</ele>
        <time>2015-06-17T09:13:35Z</time>
      </trkpt>
      <trkpt lat="44.29943" lon="3.67285">
        <ele>650</ele>
        <time>2015-06-17T09:13:51Z</time>
      </trkpt>
      <trkpt lat="44.29946" lon="3.6729">
        <ele>651</ele>
        <time>2015-06-17T09:13:55Z</time>
      </trkpt>
      <trkpt lat="44.29947" lon="3.67297">
        <ele>650</ele>
        <time>2015-06-17T09:13:59Z</time>
      </trkpt>
      <trkpt lat="44.29946" lon="3.67304">
        <ele>650</ele>
        <time>2015-06-17T09:14:03Z</time>
      </trkpt>
      <trkpt lat="44.29944" lon="3.67309">
        <ele>648</ele>
        <time>2015-06-17T09:14:07Z</time>
      </trkpt>
      <trkpt lat="44.29948" lon="3.67324">
        <ele>648</ele>
        <time>2015-06-17T09:14:16Z</time>
      </trkpt>
      <trkpt lat="44.29947" lon="3.67331">
        <ele>647</ele>
        <time>2015-06-17T09:14:27Z</time>
      </trkpt>
      <trkpt lat="44.29947" lon="3.67347">
        <ele>643</ele>
        <time>2015-06-17T09:14:34Z</time>
      </trkpt>
      <trkpt lat="44.29947" lon="3.67362">
        <ele>644</ele>
        <time>2015-06-17T09:14:41Z</time>
      </trkpt>
      <trkpt lat="44.29945" lon="3.67369">
        <ele>643</ele>
        <time>2015-06-17T09:14:44Z</time>
      </trkpt>
      <trkpt lat="44.29942" lon="3.67374">
        <ele>643</ele>
        <time>2015-06-17T09:14:47Z</time>
      </trkpt>
      <trkpt lat="44.29937" lon="3.674">
        <ele>640</ele>
        <time>2015-06-17T09:15:06Z</time>
      </trkpt>
      <trkpt lat="44.29935" lon="3.67407">
        <ele>638</ele>
        <time>2015-06-17T09:15:12Z</time>
      </trkpt>
      <trkpt lat="44.29934" lon="3.67413">
        <ele>637</ele>
        <time>2015-06-17T09:15:18Z</time>
      </trkpt>
      <trkpt lat="44.29937" lon="3.67419">
        <ele>638</ele>
        <time>2015-06-17T09:15:25Z</time>
      </trkpt>
      <trkpt lat="44.29938" lon="3.67426">
        <ele>638</ele>
        <time>2015-06-17T09:15:29Z</time>
      </trkpt>
      <trkpt lat="44.29936" lon="3.67445">
        <ele>640</ele>
        <time>2015-06-17T09:15:40Z</time>
      </trkpt>
      <trkpt lat="44.29937" lon="3.67453">
        <ele>641</ele>
        <time>2015-06-17T09:15:45Z</time>
      </trkpt>
      <trkpt lat="44.29934" lon="3.67459">
        <ele>641</ele>
        <time>2015-06-17T09:15:48Z</time>
      </trkpt>
      <trkpt lat="44.29935" lon="3.67467">
        <ele>641</ele>
        <time>2015-06-17T09:15:51Z</time>
      </trkpt>
      <trkpt lat="44.29937" lon="3.67472">
        <ele>641</ele>
        <time>2015-06-17T09:15:54Z</time>
      </trkpt>
      <trkpt lat="44.29938" lon="3.67479">
        <ele>641</ele>
        <time>2015-06-17T09:15:57Z</time>
      </trkpt>
      <trkpt lat="44.29941" lon="3.67516">
        <ele>642</ele>
        <time>2015-06-17T09:16:10Z</time>
      </trkpt>
      <trkpt lat="44.29945" lon="3.67529">
        <ele>644</ele>
        <time>2015-06-17T09:16:18Z</time>
      </trkpt>
      <trkpt lat="44.29947" lon="3.67534">
        <ele>644</ele>
        <time>2015-06-17T09:16:23Z</time>
      </trkpt>
      <trkpt lat="44.29952" lon="3.67538">
        <ele>645</ele>
        <time>2015-06-17T09:16:29Z</time>
      </trkpt>
      <trkpt lat="44.29954" lon="3.67545">
        <ele>645</ele>
        <time>2015-06-17T09:16:35Z</time>
      </trkpt>
      <trkpt lat="44.29957" lon="3.67552">
        <ele>646</ele>
        <time>2015-06-17T09:16:41Z</time>
      </trkpt>
      <trkpt lat="44.29957" lon="3.67559">
        <ele>646</ele>
        <time>2015-06-17T09:16:45Z</time>
      </trkpt>
      <trkpt lat="44.29956" lon="3.67567">
        <ele>646</ele>
        <time>2015-06-17T09:16:48Z</time>
      </trkpt>
      <trkpt lat="44.29957" lon="3.67574">
        <ele>646</ele>
        <time>2015-06-17T09:16:50Z</time>
      </trkpt>
      <trkpt lat="44.29962" lon="3.67586">
        <ele>647</ele>
        <time>2015-06-17T09:17:00Z</time>
      </trkpt>
      <trkpt lat="44.29967" lon="3.67588">
        <ele>647</ele>
        <time>2015-06-17T09:17:07Z</time>
      </trkpt>
      <trkpt lat="44.29972" lon="3.67601">
        <ele>648</ele>
        <time>2015-06-17T09:17:14Z</time>
      </trkpt>
      <trkpt lat="44.29977" lon="3.67605">
        <ele>648</ele>
        <time>2015-06-17T09:17:18Z</time>
      </trkpt>
      <trkpt lat="44.29981" lon="3.6761">
        <ele>648</ele>
        <time>2015-06-17T09:17:23Z</time>
      </trkpt>
      <trkpt lat="44.29985" lon="3.67612">
        <ele>648</ele>
        <time>2015-06-17T09:17:27Z</time>
      </trkpt>
      <trkpt lat="44.29986" lon="3.67619">
        <ele>648</ele>
        <time>2015-06-17T09:17:32Z</time>
      </trkpt>
      <trkpt lat="44.29993" lon="3.67636">
        <ele>646</ele>
        <time>2015-06-17T09:17:42Z</time>
      </trkpt>
      <trkpt lat="44.29998" lon="3.6764">
        <ele>646</ele>
        <time>2015-06-17T09:17:46Z</time>
      </trkpt>
      <trkpt lat="44.30003" lon="3.67642">
        <ele>664</ele>
        <time>2015-06-17T09:17:50Z</time>
      </trkpt>
      <trkpt lat="44.30007" lon="3.67646">
        <ele>663</ele>
        <time>2015-06-17T09:17:54Z</time>
      </trkpt>
      <trkpt lat="44.3001" lon="3.67651">
        <ele>661</ele>
        <time>2015-06-17T09:17:58Z</time>
      </trkpt>
      <trkpt lat="44.30012" lon="3.67658">
        <ele>659</ele>
        <time>2015-06-17T09:18:02Z</time>
      </trkpt>
      <trkpt lat="44.30015" lon="3.67664">
        <ele>660</ele>
        <time>2015-06-17T09:18:06Z</time>
      </trkpt>
      <trkpt lat="44.30018" lon="3.67683">
        <ele>656</ele>
        <time>2015-06-17T09:18:17Z</time>
      </trkpt>
      <trkpt lat="44.30019" lon="3.67699">
        <ele>657</ele>
        <time>2015-06-17T09:18:26Z</time>
      </trkpt>
      <trkpt lat="44.30027" lon="3.67719">
        <ele>658</ele>
        <time>2015-06-17T09:18:38Z</time>
      </trkpt>
      <trkpt lat="44.30028" lon="3.67727">
        <ele>657</ele>
        <time>2015-06-17T09:18:42Z</time>
      </trkpt>
      <trkpt lat="44.30034" lon="3.67742">
        <ele>657</ele>
        <time>2015-06-17T09:18:49Z</time>
      </trkpt>
      <trkpt lat="44.30039" lon="3.67749">
        <ele>658</ele>
        <time>2015-06-17T09:18:52Z</time>
      </trkpt>
      <trkpt lat="44.30038" lon="3.67741">
        <ele>659</ele>
        <time>2015-06-17T09:18:55Z</time>
      </trkpt>
      <trkpt lat="44.30032" lon="3.67738">
        <ele>657</ele>
        <time>2015-06-17T09:18:58Z</time>
      </trkpt>
      <trkpt lat="44.30028" lon="3.67741">
        <ele>655</ele>
        <time>2015-06-17T09:19:02Z</time>
      </trkpt>
      <trkpt lat="44.30026" lon="3.6774">
        <ele>654</ele>
        <time>2015-06-17T09:19:30Z</time>
      </trkpt>
      <trkpt lat="44.30026" lon="3.67744">
        <ele>654</ele>
        <time>2015-06-17T09:19:49Z</time>
      </trkpt>
      <trkpt lat="44.30024" lon="3.67747">
        <ele>653</ele>
        <time>2015-06-17T09:19:50Z</time>
      </trkpt>
      <trkpt lat="44.30024" lon="3.67756">
        <ele>647</ele>
        <time>2015-06-17T09:19:54Z</time>
      </trkpt>
      <trkpt lat="44.30026" lon="3.67763">
        <ele>648</ele>
        <time>2015-06-17T09:19:57Z</time>
      </trkpt>
      <trkpt lat="44.30026" lon="3.67772">
        <ele>648</ele>
        <time>2015-06-17T09:20:02Z</time>
      </trkpt>
      <trkpt lat="44.30025" lon="3.67779">
        <ele>648</ele>
        <time>2015-06-17T09:20:05Z</time>
      </trkpt>
      <trkpt lat="44.30024" lon="3.67787">
        <ele>648</ele>
        <time>2015-06-17T09:20:09Z</time>
      </trkpt>
      <trkpt lat="44.30022" lon="3.67794">
        <ele>648</ele>
        <time>2015-06-17T09:20:13Z</time>
      </trkpt>
      <trkpt lat="44.30019" lon="3.678">
        <ele>647</ele>
        <time>2015-06-17T09:20:17Z</time>
      </trkpt>
      <trkpt lat="44.30023" lon="3.67803">
        <ele>648</ele>
        <time>2015-06-17T09:20:21Z</time>
      </trkpt>
      <trkpt lat="44.30029" lon="3.67805">
        <ele>649</ele>
        <time>2015-06-17T09:20:25Z</time>
      </trkpt>
      <trkpt lat="44.3003" lon="3.67807">
        <ele>649</ele>
        <time>2015-06-17T09:20:43Z</time>
      </trkpt>
      <trkpt lat="44.30032" lon="3.67812">
        <ele>649</ele>
        <time>2015-06-17T09:20:51Z</time>
      </trkpt>
      <trkpt lat="44.3003" lon="3.6782">
        <ele>648</ele>
        <time>2015-06-17T09:20:54Z</time>
      </trkpt>
      <trkpt lat="44.30009" lon="3.67861">
        <ele>652</ele>
        <time>2015-06-17T09:21:12Z</time>
      </trkpt>
      <trkpt lat="44.30007" lon="3.67868">
        <ele>654</ele>
        <time>2015-06-17T09:21:15Z</time>
      </trkpt>
      <trkpt lat="44.30006" lon="3.67875">
        <ele>655</ele>
        <time>2015-06-17T09:21:18Z</time>
      </trkpt>
      <trkpt lat="44.30003" lon="3.67881">
        <ele>655</ele>
        <time>2015-06-17T09:21:21Z</time>
      </trkpt>
      <trkpt lat="44.29998" lon="3.67884">
        <ele>646</ele>
        <time>2015-06-17T09:21:25Z</time>
      </trkpt>
      <trkpt lat="44.29993" lon="3.67884">
        <ele>646</ele>
        <time>2015-06-17T09:21:29Z</time>
      </trkpt>
      <trkpt lat="44.29984" lon="3.6789">
        <ele>647</ele>
        <time>2015-06-17T09:21:37Z</time>
      </trkpt>
      <trkpt lat="44.29985" lon="3.67896">
        <ele>647</ele>
        <time>2015-06-17T09:21:40Z</time>
      </trkpt>
      <trkpt lat="44.29978" lon="3.67907">
        <ele>647</ele>
        <time>2015-06-17T09:21:48Z</time>
      </trkpt>
      <trkpt lat="44.29975" lon="3.67915">
        <ele>647</ele>
        <time>2015-06-17T09:21:52Z</time>
      </trkpt>
      <trkpt lat="44.29974" lon="3.67923">
        <ele>651</ele>
        <time>2015-06-17T09:21:55Z</time>
      </trkpt>
      <trkpt lat="44.29975" lon="3.6793">
        <ele>651</ele>
        <time>2015-06-17T09:21:57Z</time>
      </trkpt>
      <trkpt lat="44.29972" lon="3.67935">
        <ele>651</ele>
        <time>2015-06-17T09:22:00Z</time>
      </trkpt>
      <trkpt lat="44.2997" lon="3.67941">
        <ele>651</ele>
        <time>2015-06-17T09:22:04Z</time>
      </trkpt>
      <trkpt lat="44.29972" lon="3.67949">
        <ele>652</ele>
        <time>2015-06-17T09:22:08Z</time>
      </trkpt>
      <trkpt lat="44.29967" lon="3.67951">
        <ele>651</ele>
        <time>2015-06-17T09:22:17Z</time>
      </trkpt>
      <trkpt lat="44.29962" lon="3.67956">
        <ele>651</ele>
        <time>2015-06-17T09:22:20Z</time>
      </trkpt>
      <trkpt lat="44.29948" lon="3.67969">
        <ele>649</ele>
        <time>2015-06-17T09:22:35Z</time>
      </trkpt>
      <trkpt lat="44.29945" lon="3.67975">
        <ele>649</ele>
        <time>2015-06-17T09:22:41Z</time>
      </trkpt>
      <trkpt lat="44.29941" lon="3.67978">
        <ele>647</ele>
        <time>2015-06-17T09:22:44Z</time>
      </trkpt>
      <trkpt lat="44.29936" lon="3.67982">
        <ele>646</ele>
        <time>2015-06-17T09:22:48Z</time>
      </trkpt>
      <trkpt lat="44.29934" lon="3.67989">
        <ele>645</ele>
        <time>2015-06-17T09:22:52Z</time>
      </trkpt>
      <trkpt lat="44.29934" lon="3.67997">
        <ele>644</ele>
        <time>2015-06-17T09:22:56Z</time>
      </trkpt>
      <trkpt lat="44.29933" lon="3.68006">
        <ele>651</ele>
        <time>2015-06-17T09:23:00Z</time>
      </trkpt>
      <trkpt lat="44.29932" lon="3.68028">
        <ele>657</ele>
        <time>2015-06-17T09:23:11Z</time>
      </trkpt>
      <trkpt lat="44.2993" lon="3.68045">
        <ele>660</ele>
        <time>2015-06-17T09:23:18Z</time>
      </trkpt>
      <trkpt lat="44.29929" lon="3.68053">
        <ele>661</ele>
        <time>2015-06-17T09:23:20Z</time>
      </trkpt>
      <trkpt lat="44.29893" lon="3.68073">
        <ele>652</ele>
        <time>2015-06-17T09:23:53Z</time>
      </trkpt>
      <trkpt lat="44.29892" lon="3.68079">
        <ele>652</ele>
        <time>2015-06-17T09:23:55Z</time>
      </trkpt>
      <trkpt lat="44.29894" lon="3.68092">
        <ele>656</ele>
        <time>2015-06-17T09:24:05Z</time>
      </trkpt>
      <trkpt lat="44.29897" lon="3.68099">
        <ele>657</ele>
        <time>2015-06-17T09:24:10Z</time>
      </trkpt>
      <trkpt lat="44.29896" lon="3.68122">
        <ele>659</ele>
        <time>2015-06-17T09:24:24Z</time>
      </trkpt>
      <trkpt lat="44.29894" lon="3.68129">
        <ele>660</ele>
        <time>2015-06-17T09:24:27Z</time>
      </trkpt>
      <trkpt lat="44.29891" lon="3.68134">
        <ele>660</ele>
        <time>2015-06-17T09:24:30Z</time>
      </trkpt>
      <trkpt lat="44.29885" lon="3.68138">
        <ele>660</ele>
        <time>2015-06-17T09:24:39Z</time>
      </trkpt>
      <trkpt lat="44.29882" lon="3.68144">
        <ele>660</ele>
        <time>2015-06-17T09:24:45Z</time>
      </trkpt>
      <trkpt lat="44.29878" lon="3.68164">
        <ele>660</ele>
        <time>2015-06-17T09:25:02Z</time>
      </trkpt>
      <trkpt lat="44.29881" lon="3.68178">
        <ele>665</ele>
        <time>2015-06-17T09:25:10Z</time>
      </trkpt>
      <trkpt lat="44.29877" lon="3.68191">
        <ele>664</ele>
        <time>2015-06-17T09:25:20Z</time>
      </trkpt>
      <trkpt lat="44.29876" lon="3.68204">
        <ele>664</ele>
        <time>2015-06-17T09:25:29Z</time>
      </trkpt>
      <trkpt lat="44.29876" lon="3.68213">
        <ele>665</ele>
        <time>2015-06-17T09:25:32Z</time>
      </trkpt>
      <trkpt lat="44.29878" lon="3.68219">
        <ele>665</ele>
        <time>2015-06-17T09:25:35Z</time>
      </trkpt>
      <trkpt lat="44.29873" lon="3.68222">
        <ele>664</ele>
        <time>2015-06-17T09:25:39Z</time>
      </trkpt>
      <trkpt lat="44.29868" lon="3.68225">
        <ele>663</ele>
        <time>2015-06-17T09:25:42Z</time>
      </trkpt>
      <trkpt lat="44.29859" lon="3.68232">
        <ele>660</ele>
        <time>2015-06-17T09:25:52Z</time>
      </trkpt>
      <trkpt lat="44.29859" lon="3.68239">
        <ele>660</ele>
        <time>2015-06-17T09:25:56Z</time>
      </trkpt>
      <trkpt lat="44.29861" lon="3.68246">
        <ele>660</ele>
        <time>2015-06-17T09:26:00Z</time>
      </trkpt>
      <trkpt lat="44.29857" lon="3.68251">
        <ele>666</ele>
        <time>2015-06-17T09:26:06Z</time>
      </trkpt>
      <trkpt lat="44.29854" lon="3.68257">
        <ele>665</ele>
        <time>2015-06-17T09:26:11Z</time>
      </trkpt>
      <trkpt lat="44.29854" lon="3.68265">
        <ele>667</ele>
        <time>2015-06-17T09:26:15Z</time>
      </trkpt>
      <trkpt lat="44.2986" lon="3.68279">
        <ele>673</ele>
        <time>2015-06-17T09:26:24Z</time>
      </trkpt>
      <trkpt lat="44.2986" lon="3.68285">
        <ele>673</ele>
        <time>2015-06-17T09:26:28Z</time>
      </trkpt>
      <trkpt lat="44.29855" lon="3.68287">
        <ele>672</ele>
        <time>2015-06-17T09:26:32Z</time>
      </trkpt>
      <trkpt lat="44.29851" lon="3.68291">
        <ele>672</ele>
        <time>2015-06-17T09:26:35Z</time>
      </trkpt>
      <trkpt lat="44.29846" lon="3.68292">
        <ele>671</ele>
        <time>2015-06-17T09:26:38Z</time>
      </trkpt>
      <trkpt lat="44.29841" lon="3.68297">
        <ele>671</ele>
        <time>2015-06-17T09:26:41Z</time>
      </trkpt>
      <trkpt lat="44.29837" lon="3.68301">
        <ele>671</ele>
        <time>2015-06-17T09:26:43Z</time>
      </trkpt>
      <trkpt lat="44.29834" lon="3.68307">
        <ele>670</ele>
        <time>2015-06-17T09:26:46Z</time>
      </trkpt>
      <trkpt lat="44.29828" lon="3.68311">
        <ele>656</ele>
        <time>2015-06-17T09:26:49Z</time>
      </trkpt>
      <trkpt lat="44.29822" lon="3.68312">
        <ele>656</ele>
        <time>2015-06-17T09:26:51Z</time>
      </trkpt>
      <trkpt lat="44.29817" lon="3.68315">
        <ele>655</ele>
        <time>2015-06-17T09:26:53Z</time>
      </trkpt>
      <trkpt lat="44.29813" lon="3.6832">
        <ele>656</ele>
        <time>2015-06-17T09:26:56Z</time>
      </trkpt>
      <trkpt lat="44.29812" lon="3.68326">
        <ele>656</ele>
        <time>2015-06-17T09:27:01Z</time>
      </trkpt>
      <trkpt lat="44.29808" lon="3.68337">
        <ele>665</ele>
        <time>2015-06-17T09:27:11Z</time>
      </trkpt>
      <trkpt lat="44.29805" lon="3.68342">
        <ele>665</ele>
        <time>2015-06-17T09:27:17Z</time>
      </trkpt>
      <trkpt lat="44.29804" lon="3.6835">
        <ele>666</ele>
        <time>2015-06-17T09:27:22Z</time>
      </trkpt>
      <trkpt lat="44.298" lon="3.68356">
        <ele>667</ele>
        <time>2015-06-17T09:27:27Z</time>
      </trkpt>
      <trkpt lat="44.29794" lon="3.68357">
        <ele>667</ele>
        <time>2015-06-17T09:27:32Z</time>
      </trkpt>
      <trkpt lat="44.29789" lon="3.6836">
        <ele>667</ele>
        <time>2015-06-17T09:27:35Z</time>
      </trkpt>
      <trkpt lat="44.29785" lon="3.68365">
        <ele>667</ele>
        <time>2015-06-17T09:27:37Z</time>
      </trkpt>
      <trkpt lat="44.29783" lon="3.68371">
        <ele>668</ele>
        <time>2015-06-17T09:27:39Z</time>
      </trkpt>
      <trkpt lat="44.29776" lon="3.68368">
        <ele>667</ele>
        <time>2015-06-17T09:27:45Z</time>
      </trkpt>
      <trkpt lat="44.29771" lon="3.68369">
        <ele>667</ele>
        <time>2015-06-17T09:27:52Z</time>
      </trkpt>
      <trkpt lat="44.29767" lon="3.68369">
        <ele>667</ele>
        <time>2015-06-17T09:27:56Z</time>
      </trkpt>
      <trkpt lat="44.29762" lon="3.68372">
        <ele>667</ele>
        <time>2015-06-17T09:28:01Z</time>
      </trkpt>
      <trkpt lat="44.2975" lon="3.68377">
        <ele>663</ele>
        <time>2015-06-17T09:28:09Z</time>
      </trkpt>
      <trkpt lat="44.29745" lon="3.6838">
        <ele>664</ele>
        <time>2015-06-17T09:28:14Z</time>
      </trkpt>
      <trkpt lat="44.29735" lon="3.68383">
        <ele>664</ele>
        <time>2015-06-17T09:28:22Z</time>
      </trkpt>
      <trkpt lat="44.2973" lon="3.68383">
        <ele>664</ele>
        <time>2015-06-17T09:28:28Z</time>
      </trkpt>
      <trkpt lat="44.29719" lon="3.68381">
        <ele>662</ele>
        <time>2015-06-17T09:28:45Z</time>
      </trkpt>
      <trkpt lat="44.29715" lon="3.68382">
        <ele>662</ele>
        <time>2015-06-17T09:28:56Z</time>
      </trkpt>
      <trkpt lat="44.29713" lon="3.68383">
        <ele>662</ele>
        <time>2015-06-17T09:29:24Z</time>
      </trkpt>
      <trkpt lat="44.29707" lon="3.68386">
        <ele>663</ele>
        <time>2015-06-17T09:29:42Z</time>
      </trkpt>
      <trkpt lat="44.29699" lon="3.68387">
        <ele>662</ele>
        <time>2015-06-17T09:29:44Z</time>
      </trkpt>
      <trkpt lat="44.2969" lon="3.68391">
        <ele>663</ele>
        <time>2015-06-17T09:29:46Z</time>
      </trkpt>
      <trkpt lat="44.29678" lon="3.68409">
        <ele>666</ele>
        <time>2015-06-17T09:29:50Z</time>
      </trkpt>
      <trkpt lat="44.29673" lon="3.68415">
        <ele>667</ele>
        <time>2015-06-17T09:29:52Z</time>
      </trkpt>
      <trkpt lat="44.29661" lon="3.68414">
        <ele>667</ele>
        <time>2015-06-17T09:29:56Z</time>
      </trkpt>
      <trkpt lat="44.29656" lon="3.68417">
        <ele>677</ele>
        <time>2015-06-17T09:29:58Z</time>
      </trkpt>
      <trkpt lat="44.29651" lon="3.68418">
        <ele>680</ele>
        <time>2015-06-17T09:30:00Z</time>
      </trkpt>
      <trkpt lat="44.29633" lon="3.68412">
        <ele>664</ele>
        <time>2015-06-17T09:30:06Z</time>
      </trkpt>
      <trkpt lat="44.29627" lon="3.68412">
        <ele>664</ele>
        <time>2015-06-17T09:30:08Z</time>
      </trkpt>
      <trkpt lat="44.29622" lon="3.68412">
        <ele>664</ele>
        <time>2015-06-17T09:30:11Z</time>
      </trkpt>
      <trkpt lat="44.29616" lon="3.68416">
        <ele>664</ele>
        <time>2015-06-17T09:30:19Z</time>
      </trkpt>
      <trkpt lat="44.29599" lon="3.68413">
        <ele>667</ele>
        <time>2015-06-17T09:30:29Z</time>
      </trkpt>
      <trkpt lat="44.29595" lon="3.6841">
        <ele>668</ele>
        <time>2015-06-17T09:30:32Z</time>
      </trkpt>
      <trkpt lat="44.2959" lon="3.68411">
        <ele>669</ele>
        <time>2015-06-17T09:30:38Z</time>
      </trkpt>
      <trkpt lat="44.29586" lon="3.68407">
        <ele>669</ele>
        <time>2015-06-17T09:30:42Z</time>
      </trkpt>
      <trkpt lat="44.29581" lon="3.68405">
        <ele>671</ele>
        <time>2015-06-17T09:30:47Z</time>
      </trkpt>
      <trkpt lat="44.29577" lon="3.684">
        <ele>670</ele>
        <time>2015-06-17T09:30:51Z</time>
      </trkpt>
      <trkpt lat="44.29567" lon="3.68398">
        <ele>670</ele>
        <time>2015-06-17T09:31:04Z</time>
      </trkpt>
      <trkpt lat="44.29562" lon="3.68395">
        <ele>670</ele>
        <time>2015-06-17T09:31:08Z</time>
      </trkpt>
      <trkpt lat="44.29552" lon="3.68384">
        <ele>669</ele>
        <time>2015-06-17T09:31:16Z</time>
      </trkpt>
      <trkpt lat="44.29548" lon="3.68382">
        <ele>669</ele>
        <time>2015-06-17T09:31:20Z</time>
      </trkpt>
      <trkpt lat="44.29543" lon="3.68384">
        <ele>669</ele>
        <time>2015-06-17T09:31:25Z</time>
      </trkpt>
      <trkpt lat="44.29538" lon="3.6838">
        <ele>669</ele>
        <time>2015-06-17T09:31:30Z</time>
      </trkpt>
      <trkpt lat="44.29533" lon="3.68379">
        <ele>669</ele>
        <time>2015-06-17T09:31:34Z</time>
      </trkpt>
      <trkpt lat="44.2952" lon="3.68379">
        <ele>670</ele>
        <time>2015-06-17T09:31:43Z</time>
      </trkpt>
      <trkpt lat="44.29429" lon="3.68368">
        <ele>662</ele>
        <time>2015-06-17T09:33:00Z</time>
      </trkpt>
      <trkpt lat="44.29425" lon="3.68373">
        <ele>663</ele>
        <time>2015-06-17T09:33:08Z</time>
      </trkpt>
      <trkpt lat="44.29429" lon="3.68386">
        <ele>664</ele>
        <time>2015-06-17T09:33:15Z</time>
      </trkpt>
      <trkpt lat="44.29426" lon="3.68391">
        <ele>664</ele>
        <time>2015-06-17T09:33:22Z</time>
      </trkpt>
      <trkpt lat="44.29426" lon="3.68398">
        <ele>665</ele>
        <time>2015-06-17T09:33:28Z</time>
      </trkpt>
      <trkpt lat="44.29421" lon="3.68399">
        <ele>664</ele>
        <time>2015-06-17T09:33:31Z</time>
      </trkpt>
      <trkpt lat="44.29417" lon="3.68396">
        <ele>664</ele>
        <time>2015-06-17T09:33:33Z</time>
      </trkpt>
      <trkpt lat="44.29413" lon="3.68391">
        <ele>659</ele>
        <time>2015-06-17T09:33:36Z</time>
      </trkpt>
      <trkpt lat="44.29412" lon="3.68406">
        <ele>661</ele>
        <time>2015-06-17T09:33:47Z</time>
      </trkpt>
      <trkpt lat="44.29413" lon="3.68414">
        <ele>662</ele>
        <time>2015-06-17T09:33:50Z</time>
      </trkpt>
      <trkpt lat="44.29411" lon="3.6842">
        <ele>665</ele>
        <time>2015-06-17T09:33:54Z</time>
      </trkpt>
      <trkpt lat="44.29407" lon="3.68426">
        <ele>666</ele>
        <time>2015-06-17T09:33:58Z</time>
      </trkpt>
      <trkpt lat="44.29403" lon="3.6843">
        <ele>667</ele>
        <time>2015-06-17T09:34:02Z</time>
      </trkpt>
      <trkpt lat="44.29397" lon="3.68431">
        <ele>667</ele>
        <time>2015-06-17T09:34:06Z</time>
      </trkpt>
      <trkpt lat="44.29387" lon="3.68421">
        <ele>666</ele>
        <time>2015-06-17T09:34:12Z</time>
      </trkpt>
      <trkpt lat="44.29381" lon="3.6842">
        <ele>665</ele>
        <time>2015-06-17T09:34:14Z</time>
      </trkpt>
      <trkpt lat="44.29374" lon="3.68421">
        <ele>664</ele>
        <time>2015-06-17T09:34:16Z</time>
      </trkpt>
      <trkpt lat="44.2937" lon="3.68423">
        <ele>664</ele>
        <time>2015-06-17T09:34:19Z</time>
      </trkpt>
      <trkpt lat="44.29366" lon="3.68428">
        <ele>663</ele>
        <time>2015-06-17T09:34:23Z</time>
      </trkpt>
      <trkpt lat="44.29367" lon="3.68434">
        <ele>665</ele>
        <time>2015-06-17T09:34:27Z</time>
      </trkpt>
      <trkpt lat="44.29346" lon="3.68457">
        <ele>666</ele>
        <time>2015-06-17T09:34:53Z</time>
      </trkpt>
      <trkpt lat="44.2934" lon="3.68459">
        <ele>666</ele>
        <time>2015-06-17T09:34:57Z</time>
      </trkpt>
      <trkpt lat="44.29329" lon="3.68457">
        <ele>655</ele>
        <time>2015-06-17T09:35:05Z</time>
      </trkpt>
      <trkpt lat="44.29324" lon="3.68457">
        <ele>655</ele>
        <time>2015-06-17T09:35:09Z</time>
      </trkpt>
      <trkpt lat="44.29326" lon="3.68465">
        <ele>657</ele>
        <time>2015-06-17T09:35:17Z</time>
      </trkpt>
      <trkpt lat="44.29323" lon="3.68472">
        <ele>658</ele>
        <time>2015-06-17T09:35:20Z</time>
      </trkpt>
      <trkpt lat="44.29319" lon="3.68478">
        <ele>658</ele>
        <time>2015-06-17T09:35:24Z</time>
      </trkpt>
      <trkpt lat="44.29319" lon="3.68485">
        <ele>660</ele>
        <time>2015-06-17T09:35:29Z</time>
      </trkpt>
      <trkpt lat="44.29314" lon="3.68492">
        <ele>659</ele>
        <time>2015-06-17T09:35:32Z</time>
      </trkpt>
      <trkpt lat="44.2931" lon="3.68495">
        <ele>659</ele>
        <time>2015-06-17T09:35:34Z</time>
      </trkpt>
      <trkpt lat="44.29303" lon="3.68494">
        <ele>658</ele>
        <time>2015-06-17T09:35:37Z</time>
      </trkpt>
      <trkpt lat="44.29298" lon="3.68489">
        <ele>657</ele>
        <time>2015-06-17T09:35:44Z</time>
      </trkpt>
      <trkpt lat="44.29294" lon="3.68484">
        <ele>656</ele>
        <time>2015-06-17T09:35:48Z</time>
      </trkpt>
      <trkpt lat="44.29285" lon="3.68483">
        <ele>655</ele>
        <time>2015-06-17T09:35:58Z</time>
      </trkpt>
      <trkpt lat="44.2928" lon="3.68484">
        <ele>655</ele>
        <time>2015-06-17T09:36:05Z</time>
      </trkpt>
      <trkpt lat="44.29268" lon="3.68484">
        <ele>654</ele>
        <time>2015-06-17T09:36:13Z</time>
      </trkpt>
      <trkpt lat="44.29259" lon="3.68491">
        <ele>653</ele>
        <time>2015-06-17T09:36:23Z</time>
      </trkpt>
      <trkpt lat="44.2926" lon="3.68498">
        <ele>653</ele>
        <time>2015-06-17T09:36:28Z</time>
      </trkpt>
      <trkpt lat="44.29261" lon="3.68505">
        <ele>658</ele>
        <time>2015-06-17T09:36:33Z</time>
      </trkpt>
      <trkpt lat="44.29258" lon="3.68511">
        <ele>659</ele>
        <time>2015-06-17T09:36:39Z</time>
      </trkpt>
      <trkpt lat="44.29253" lon="3.68517">
        <ele>660</ele>
        <time>2015-06-17T09:36:43Z</time>
      </trkpt>
      <trkpt lat="44.29251" lon="3.68524">
        <ele>662</ele>
        <time>2015-06-17T09:36:47Z</time>
      </trkpt>
      <trkpt lat="44.29251" lon="3.68531">
        <ele>664</ele>
        <time>2015-06-17T09:36:50Z</time>
      </trkpt>
      <trkpt lat="44.29247" lon="3.68538">
        <ele>655</ele>
        <time>2015-06-17T09:36:53Z</time>
      </trkpt>
      <trkpt lat="44.29245" lon="3.68544">
        <ele>655</ele>
        <time>2015-06-17T09:36:56Z</time>
      </trkpt>
      <trkpt lat="44.29244" lon="3.68551">
        <ele>656</ele>
        <time>2015-06-17T09:36:59Z</time>
      </trkpt>
      <trkpt lat="44.29239" lon="3.68556">
        <ele>656</ele>
        <time>2015-06-17T09:37:03Z</time>
      </trkpt>
      <trkpt lat="44.29234" lon="3.68567">
        <ele>657</ele>
        <time>2015-06-17T09:37:12Z</time>
      </trkpt>
      <trkpt lat="44.29232" lon="3.68573">
        <ele>658</ele>
        <time>2015-06-17T09:37:18Z</time>
      </trkpt>
      <trkpt lat="44.29235" lon="3.6858">
        <ele>659</ele>
        <time>2015-06-17T09:37:23Z</time>
      </trkpt>
      <trkpt lat="44.29239" lon="3.68584">
        <ele>662</ele>
        <time>2015-06-17T09:37:26Z</time>
      </trkpt>
      <trkpt lat="44.2924" lon="3.68591">
        <ele>662</ele>
        <time>2015-06-17T09:37:30Z</time>
      </trkpt>
      <trkpt lat="44.29238" lon="3.68599">
        <ele>662</ele>
        <time>2015-06-17T09:37:34Z</time>
      </trkpt>
      <trkpt lat="44.29234" lon="3.68607">
        <ele>663</ele>
        <time>2015-06-17T09:37:37Z</time>
      </trkpt>
      <trkpt lat="44.2923" lon="3.68613">
        <ele>663</ele>
        <time>2015-06-17T09:37:40Z</time>
      </trkpt>
      <trkpt lat="44.29227" lon="3.68619">
        <ele>663</ele>
        <time>2015-06-17T09:37:47Z</time>
      </trkpt>
      <trkpt lat="44.29226" lon="3.6864">
        <ele>665</ele>
        <time>2015-06-17T09:37:59Z</time>
      </trkpt>
      <trkpt lat="44.29225" lon="3.68647">
        <ele>666</ele>
        <time>2015-06-17T09:38:02Z</time>
      </trkpt>
      <trkpt lat="44.29225" lon="3.68654">
        <ele>667</ele>
        <time>2015-06-17T09:38:06Z</time>
      </trkpt>
      <trkpt lat="44.29223" lon="3.68667">
        <ele>677</ele>
        <time>2015-06-17T09:38:12Z</time>
      </trkpt>
      <trkpt lat="44.29215" lon="3.68691">
        <ele>677</ele>
        <time>2015-06-17T09:38:28Z</time>
      </trkpt>
      <trkpt lat="44.29211" lon="3.68696">
        <ele>677</ele>
        <time>2015-06-17T09:38:32Z</time>
      </trkpt>
      <trkpt lat="44.29199" lon="3.68709">
        <ele>676</ele>
        <time>2015-06-17T09:38:45Z</time>
      </trkpt>
      <trkpt lat="44.29195" lon="3.68713">
        <ele>675</ele>
        <time>2015-06-17T09:38:56Z</time>
      </trkpt>
      <trkpt lat="44.29192" lon="3.68719">
        <ele>675</ele>
        <time>2015-06-17T09:38:59Z</time>
      </trkpt>
      <trkpt lat="44.29188" lon="3.68721">
        <ele>675</ele>
        <time>2015-06-17T09:39:04Z</time>
      </trkpt>
      <trkpt lat="44.29184" lon="3.68719">
        <ele>674</ele>
        <time>2015-06-17T09:39:20Z</time>
      </trkpt>
      <trkpt lat="44.29182" lon="3.68722">
        <ele>673</ele>
        <time>2015-06-17T09:39:35Z</time>
      </trkpt>
      <trkpt lat="44.29171" lon="3.68729">
        <ele>672</ele>
        <time>2015-06-17T09:39:43Z</time>
      </trkpt>
      <trkpt lat="44.29166" lon="3.68733">
        <ele>661</ele>
        <time>2015-06-17T09:39:45Z</time>
      </trkpt>
      <trkpt lat="44.29162" lon="3.68739">
        <ele>663</ele>
        <time>2015-06-17T09:39:48Z</time>
      </trkpt>
      <trkpt lat="44.29158" lon="3.68741">
        <ele>662</ele>
        <time>2015-06-17T09:39:51Z</time>
      </trkpt>
      <trkpt lat="44.29154" lon="3.68746">
        <ele>662</ele>
        <time>2015-06-17T09:39:54Z</time>
      </trkpt>
      <trkpt lat="44.2915" lon="3.6875">
        <ele>670</ele>
        <time>2015-06-17T09:39:56Z</time>
      </trkpt>
      <trkpt lat="44.29145" lon="3.68753">
        <ele>671</ele>
        <time>2015-06-17T09:39:59Z</time>
      </trkpt>
      <trkpt lat="44.29137" lon="3.68764">
        <ele>672</ele>
        <time>2015-06-17T09:40:05Z</time>
      </trkpt>
      <trkpt lat="44.29133" lon="3.68768">
        <ele>672</ele>
        <time>2015-06-17T09:40:09Z</time>
      </trkpt>
      <trkpt lat="44.29128" lon="3.68771">
        <ele>672</ele>
        <time>2015-06-17T09:40:14Z</time>
      </trkpt>
      <trkpt lat="44.29122" lon="3.6877">
        <ele>672</ele>
        <time>2015-06-17T09:40:17Z</time>
      </trkpt>
      <trkpt lat="44.29117" lon="3.68772">
        <ele>671</ele>
        <time>2015-06-17T09:40:19Z</time>
      </trkpt>
      <trkpt lat="44.29113" lon="3.68774">
        <ele>671</ele>
        <time>2015-06-17T09:40:22Z</time>
      </trkpt>
      <trkpt lat="44.29108" lon="3.68774">
        <ele>670</ele>
        <time>2015-06-17T09:40:26Z</time>
      </trkpt>
      <trkpt lat="44.29104" lon="3.68778">
        <ele>670</ele>
        <time>2015-06-17T09:40:30Z</time>
      </trkpt>
      <trkpt lat="44.29101" lon="3.68784">
        <ele>672</ele>
        <time>2015-06-17T09:40:34Z</time>
      </trkpt>
      <trkpt lat="44.29097" lon="3.6879">
        <ele>673</ele>
        <time>2015-06-17T09:40:38Z</time>
      </trkpt>
      <trkpt lat="44.29095" lon="3.68784">
        <ele>671</ele>
        <time>2015-06-17T09:40:42Z</time>
      </trkpt>
      <trkpt lat="44.29092" lon="3.6879">
        <ele>672</ele>
        <time>2015-06-17T09:40:50Z</time>
      </trkpt>
      <trkpt lat="44.29091" lon="3.68796">
        <ele>674</ele>
        <time>2015-06-17T09:40:53Z</time>
      </trkpt>
      <trkpt lat="44.29084" lon="3.68795">
        <ele>673</ele>
        <time>2015-06-17T09:40:57Z</time>
      </trkpt>
      <trkpt lat="44.29076" lon="3.68797">
        <ele>666</ele>
        <time>2015-06-17T09:41:00Z</time>
      </trkpt>
      <trkpt lat="44.29071" lon="3.68801">
        <ele>666</ele>
        <time>2015-06-17T09:41:02Z</time>
      </trkpt>
      <trkpt lat="44.29067" lon="3.68805">
        <ele>667</ele>
        <time>2015-06-17T09:41:04Z</time>
      </trkpt>
      <trkpt lat="44.29061" lon="3.68808">
        <ele>667</ele>
        <time>2015-06-17T09:41:06Z</time>
      </trkpt>
      <trkpt lat="44.29056" lon="3.6881">
        <ele>667</ele>
        <time>2015-06-17T09:41:08Z</time>
      </trkpt>
      <trkpt lat="44.2905" lon="3.68805">
        <ele>665</ele>
        <time>2015-06-17T09:41:11Z</time>
      </trkpt>
      <trkpt lat="44.29044" lon="3.68802">
        <ele>664</ele>
        <time>2015-06-17T09:41:14Z</time>
      </trkpt>
      <trkpt lat="44.29039" lon="3.68801">
        <ele>664</ele>
        <time>2015-06-17T09:41:16Z</time>
      </trkpt>
      <trkpt lat="44.2903" lon="3.68809">
        <ele>664</ele>
        <time>2015-06-17T09:41:26Z</time>
      </trkpt>
      <trkpt lat="44.29027" lon="3.68814">
        <ele>664</ele>
        <time>2015-06-17T09:41:32Z</time>
      </trkpt>
      <trkpt lat="44.29022" lon="3.68817">
        <ele>663</ele>
        <time>2015-06-17T09:41:39Z</time>
      </trkpt>
      <trkpt lat="44.29021" lon="3.68824">
        <ele>663</ele>
        <time>2015-06-17T09:41:43Z</time>
      </trkpt>
      <trkpt lat="44.29024" lon="3.68829">
        <ele>663</ele>
        <time>2015-06-17T09:41:48Z</time>
      </trkpt>
      <trkpt lat="44.29023" lon="3.68836">
        <ele>673</ele>
        <time>2015-06-17T09:41:51Z</time>
      </trkpt>
      <trkpt lat="44.29019" lon="3.68841">
        <ele>672</ele>
        <time>2015-06-17T09:41:54Z</time>
      </trkpt>
      <trkpt lat="44.29015" lon="3.68843">
        <ele>671</ele>
        <time>2015-06-17T09:41:57Z</time>
      </trkpt>
      <trkpt lat="44.29009" lon="3.68843">
        <ele>669</ele>
        <time>2015-06-17T09:42:00Z</time>
      </trkpt>
      <trkpt lat="44.29004" lon="3.68846">
        <ele>669</ele>
        <time>2015-06-17T09:42:03Z</time>
      </trkpt>
      <trkpt lat="44.28998" lon="3.68848">
        <ele>664</ele>
        <time>2015-06-17T09:42:07Z</time>
      </trkpt>
      <trkpt lat="44.28995" lon="3.68853">
        <ele>665</ele>
        <time>2015-06-17T09:42:11Z</time>
      </trkpt>
      <trkpt lat="44.28994" lon="3.6886">
        <ele>666</ele>
        <time>2015-06-17T09:42:15Z</time>
      </trkpt>
      <trkpt lat="44.2899" lon="3.68864">
        <ele>667</ele>
        <time>2015-06-17T09:42:20Z</time>
      </trkpt>
      <trkpt lat="44.28984" lon="3.68865">
        <ele>667</ele>
        <time>2015-06-17T09:42:25Z</time>
      </trkpt>
      <trkpt lat="44.28975" lon="3.68869">
        <ele>668</ele>
        <time>2015-06-17T09:42:31Z</time>
      </trkpt>
      <trkpt lat="44.2897" lon="3.68873">
        <ele>668</ele>
        <time>2015-06-17T09:42:35Z</time>
      </trkpt>
      <trkpt lat="44.28964" lon="3.68875">
        <ele>668</ele>
        <time>2015-06-17T09:42:39Z</time>
      </trkpt>
      <trkpt lat="44.28962" lon="3.68886">
        <ele>668</ele>
        <time>2015-06-17T09:42:46Z</time>
      </trkpt>
      <trkpt lat="44.2896" lon="3.68918">
        <ele>680</ele>
        <time>2015-06-17T09:43:01Z</time>
      </trkpt>
      <trkpt lat="44.2895" lon="3.68927">
        <ele>679</ele>
        <time>2015-06-17T09:43:07Z</time>
      </trkpt>
      <trkpt lat="44.28947" lon="3.68932">
        <ele>679</ele>
        <time>2015-06-17T09:43:09Z</time>
      </trkpt>
      <trkpt lat="44.28943" lon="3.68934">
        <ele>678</ele>
        <time>2015-06-17T09:43:16Z</time>
      </trkpt>
      <trkpt lat="44.28939" lon="3.68939">
        <ele>678</ele>
        <time>2015-06-17T09:43:21Z</time>
      </trkpt>
      <trkpt lat="44.28935" lon="3.68939">
        <ele>677</ele>
        <time>2015-06-17T09:43:24Z</time>
      </trkpt>
      <trkpt lat="44.2893" lon="3.68939">
        <ele>676</ele>
        <time>2015-06-17T09:43:27Z</time>
      </trkpt>
      <trkpt lat="44.28925" lon="3.68942">
        <ele>677</ele>
        <time>2015-06-17T09:43:30Z</time>
      </trkpt>
      <trkpt lat="44.28918" lon="3.68944">
        <ele>677</ele>
        <time>2015-06-17T09:43:39Z</time>
      </trkpt>
      <trkpt lat="44.28913" lon="3.68947">
        <ele>672</ele>
        <time>2015-06-17T09:43:41Z</time>
      </trkpt>
      <trkpt lat="44.28908" lon="3.68953">
        <ele>673</ele>
        <time>2015-06-17T09:43:43Z</time>
      </trkpt>
      <trkpt lat="44.28902" lon="3.68962">
        <ele>675</ele>
        <time>2015-06-17T09:43:45Z</time>
      </trkpt>
      <trkpt lat="44.28904" lon="3.6898">
        <ele>678</ele>
        <time>2015-06-17T09:43:49Z</time>
      </trkpt>
      <trkpt lat="44.28899" lon="3.68979">
        <ele>678</ele>
        <time>2015-06-17T09:43:53Z</time>
      </trkpt>
      <trkpt lat="44.2889" lon="3.68973">
        <ele>676</ele>
        <time>2015-06-17T09:43:58Z</time>
      </trkpt>
      <trkpt lat="44.28888" lon="3.68967">
        <ele>675</ele>
        <time>2015-06-17T09:44:03Z</time>
      </trkpt>
      <trkpt lat="44.28881" lon="3.68962">
        <ele>675</ele>
        <time>2015-06-17T09:44:05Z</time>
      </trkpt>
      <trkpt lat="44.28877" lon="3.68961">
        <ele>674</ele>
        <time>2015-06-17T09:44:06Z</time>
      </trkpt>
      <trkpt lat="44.28871" lon="3.68962">
        <ele>675</ele>
        <time>2015-06-17T09:44:09Z</time>
      </trkpt>
      <trkpt lat="44.28866" lon="3.68963">
        <ele>675</ele>
        <time>2015-06-17T09:44:13Z</time>
      </trkpt>
      <trkpt lat="44.28864" lon="3.68957">
        <ele>674</ele>
        <time>2015-06-17T09:44:34Z</time>
      </trkpt>
      <trkpt lat="44.28859" lon="3.68954">
        <ele>673</ele>
        <time>2015-06-17T09:44:43Z</time>
      </trkpt>
      <trkpt lat="44.28853" lon="3.68948">
        <ele>672</ele>
        <time>2015-06-17T09:44:45Z</time>
      </trkpt>
      <trkpt lat="44.28847" lon="3.68943">
        <ele>671</ele>
        <time>2015-06-17T09:44:47Z</time>
      </trkpt>
      <trkpt lat="44.28837" lon="3.68938">
        <ele>669</ele>
        <time>2015-06-17T09:44:51Z</time>
      </trkpt>
      <trkpt lat="44.28832" lon="3.6894">
        <ele>668</ele>
        <time>2015-06-17T09:44:54Z</time>
      </trkpt>
      <trkpt lat="44.28827" lon="3.6894">
        <ele>668</ele>
        <time>2015-06-17T09:44:57Z</time>
      </trkpt>
      <trkpt lat="44.28818" lon="3.68933">
        <ele>667</ele>
        <time>2015-06-17T09:45:01Z</time>
      </trkpt>
      <trkpt lat="44.28814" lon="3.68931">
        <ele>667</ele>
        <time>2015-06-17T09:45:04Z</time>
      </trkpt>
      <trkpt lat="44.28809" lon="3.68926">
        <ele>667</ele>
        <time>2015-06-17T09:45:07Z</time>
      </trkpt>
      <trkpt lat="44.28806" lon="3.6892">
        <ele>667</ele>
        <time>2015-06-17T09:45:10Z</time>
      </trkpt>
      <trkpt lat="44.288" lon="3.68917">
        <ele>667</ele>
        <time>2015-06-17T09:45:13Z</time>
      </trkpt>
      <trkpt lat="44.28793" lon="3.68913">
        <ele>666</ele>
        <time>2015-06-17T09:45:15Z</time>
      </trkpt>
      <trkpt lat="44.28781" lon="3.6891">
        <ele>665</ele>
        <time>2015-06-17T09:45:18Z</time>
      </trkpt>
      <trkpt lat="44.28783" lon="3.68919">
        <ele>666</ele>
        <time>2015-06-17T09:45:21Z</time>
      </trkpt>
      <trkpt lat="44.28787" lon="3.68923">
        <ele>667</ele>
        <time>2015-06-17T09:45:24Z</time>
      </trkpt>
      <trkpt lat="44.28785" lon="3.68931">
        <ele>667</ele>
        <time>2015-06-17T09:45:29Z</time>
      </trkpt>
      <trkpt lat="44.28789" lon="3.68936">
        <ele>668</ele>
        <time>2015-06-17T09:45:32Z</time>
      </trkpt>
      <trkpt lat="44.28787" lon="3.68941">
        <ele>668</ele>
        <time>2015-06-17T09:45:39Z</time>
      </trkpt>
      <trkpt lat="44.28782" lon="3.68938">
        <ele>668</ele>
        <time>2015-06-17T09:45:41Z</time>
      </trkpt>
      <trkpt lat="44.28769" lon="3.68932">
        <ele>666</ele>
        <time>2015-06-17T09:45:45Z</time>
      </trkpt>
      <trkpt lat="44.28764" lon="3.68931">
        <ele>665</ele>
        <time>2015-06-17T09:45:47Z</time>
      </trkpt>
      <trkpt lat="44.28759" lon="3.6893">
        <ele>665</ele>
        <time>2015-06-17T09:45:49Z</time>
      </trkpt>
      <trkpt lat="44.28753" lon="3.6893">
        <ele>664</ele>
        <time>2015-06-17T09:45:51Z</time>
      </trkpt>
      <trkpt lat="44.28738" lon="3.68935">
        <ele>663</ele>
        <time>2015-06-17T09:46:05Z</time>
      </trkpt>
      <trkpt lat="44.2873" lon="3.68942">
        <ele>664</ele>
        <time>2015-06-17T09:46:15Z</time>
      </trkpt>
      <trkpt lat="44.28725" lon="3.68943">
        <ele>664</ele>
        <time>2015-06-17T09:46:20Z</time>
      </trkpt>
      <trkpt lat="44.28723" lon="3.68944">
        <ele>665</ele>
        <time>2015-06-17T09:46:35Z</time>
      </trkpt>
      <trkpt lat="44.28723" lon="3.68943">
        <ele>664</ele>
        <time>2015-06-17T09:46:51Z</time>
      </trkpt>
      <trkpt lat="44.28723" lon="3.68943">
        <ele>664</ele>
        <time>2015-06-17T09:47:06Z</time>
      </trkpt>
      <trkpt lat="44.28728" lon="3.68944">
        <ele>664</ele>
        <time>2015-06-17T09:47:25Z</time>
      </trkpt>
      <trkpt lat="44.28729" lon="3.68943">
        <ele>664</ele>
        <time>2015-06-17T09:47:43Z</time>
      </trkpt>
      <trkpt lat="44.28721" lon="3.68953">
        <ele>665</ele>
        <time>2015-06-17T09:49:03Z</time>
      </trkpt>
      <trkpt lat="44.2871" lon="3.68959">
        <ele>665</ele>
        <time>2015-06-17T09:49:10Z</time>
      </trkpt>
      <trkpt lat="44.28705" lon="3.68962">
        <ele>665</ele>
        <time>2015-06-17T09:49:14Z</time>
      </trkpt>
      <trkpt lat="44.28692" lon="3.68974">
        <ele>665</ele>
        <time>2015-06-17T09:49:24Z</time>
      </trkpt>
      <trkpt lat="44.28687" lon="3.68977">
        <ele>665</ele>
        <time>2015-06-17T09:49:29Z</time>
      </trkpt>
      <trkpt lat="44.28683" lon="3.68975">
        <ele>665</ele>
        <time>2015-06-17T09:49:34Z</time>
      </trkpt>
      <trkpt lat="44.28675" lon="3.68984">
        <ele>665</ele>
        <time>2015-06-17T09:49:42Z</time>
      </trkpt>
      <trkpt lat="44.28672" lon="3.68993">
        <ele>665</ele>
        <time>2015-06-17T09:49:47Z</time>
      </trkpt>
      <trkpt lat="44.28663" lon="3.69">
        <ele>666</ele>
        <time>2015-06-17T09:49:55Z</time>
      </trkpt>
      <trkpt lat="44.2866" lon="3.69007">
        <ele>669</ele>
        <time>2015-06-17T09:49:59Z</time>
      </trkpt>
      <trkpt lat="44.28656" lon="3.69011">
        <ele>671</ele>
        <time>2015-06-17T09:50:02Z</time>
      </trkpt>
      <trkpt lat="44.28651" lon="3.69013">
        <ele>672</ele>
        <time>2015-06-17T09:50:06Z</time>
      </trkpt>
      <trkpt lat="44.28646" lon="3.69016">
        <ele>673</ele>
        <time>2015-06-17T09:50:10Z</time>
      </trkpt>
      <trkpt lat="44.28641" lon="3.69019">
        <ele>673</ele>
        <time>2015-06-17T09:50:13Z</time>
      </trkpt>
      <trkpt lat="44.28633" lon="3.69026">
        <ele>674</ele>
        <time>2015-06-17T09:50:22Z</time>
      </trkpt>
      <trkpt lat="44.28627" lon="3.69023">
        <ele>674</ele>
        <time>2015-06-17T09:50:26Z</time>
      </trkpt>
      <trkpt lat="44.28617" lon="3.69029">
        <ele>674</ele>
        <time>2015-06-17T09:50:32Z</time>
      </trkpt>
      <trkpt lat="44.28613" lon="3.69033">
        <ele>674</ele>
        <time>2015-06-17T09:50:35Z</time>
      </trkpt>
      <trkpt lat="44.2861" lon="3.69039">
        <ele>675</ele>
        <time>2015-06-17T09:50:40Z</time>
      </trkpt>
      <trkpt lat="44.28598" lon="3.69041">
        <ele>674</ele>
        <time>2015-06-17T09:50:47Z</time>
      </trkpt>
      <trkpt lat="44.28594" lon="3.69044">
        <ele>674</ele>
        <time>2015-06-17T09:50:50Z</time>
      </trkpt>
      <trkpt lat="44.28589" lon="3.69057">
        <ele>674</ele>
        <time>2015-06-17T09:50:58Z</time>
      </trkpt>
      <trkpt lat="44.28585" lon="3.69061">
        <ele>674</ele>
        <time>2015-06-17T09:51:02Z</time>
      </trkpt>
      <trkpt lat="44.28582" lon="3.69066">
        <ele>673</ele>
        <time>2015-06-17T09:51:06Z</time>
      </trkpt>
      <trkpt lat="44.28581" lon="3.69072">
        <ele>672</ele>
        <time>2015-06-17T09:51:09Z</time>
      </trkpt>
      <trkpt lat="44.28571" lon="3.69075">
        <ele>672</ele>
        <time>2015-06-17T09:51:18Z</time>
      </trkpt>
      <trkpt lat="44.28569" lon="3.69081">
        <ele>672</ele>
        <time>2015-06-17T09:51:22Z</time>
      </trkpt>
      <trkpt lat="44.28565" lon="3.69087">
        <ele>673</ele>
        <time>2015-06-17T09:51:26Z</time>
      </trkpt>
      <trkpt lat="44.2856" lon="3.69084">
        <ele>673</ele>
        <time>2015-06-17T09:51:30Z</time>
      </trkpt>
      <trkpt lat="44.28556" lon="3.69084">
        <ele>673</ele>
        <time>2015-06-17T09:51:37Z</time>
      </trkpt>
      <trkpt lat="44.28553" lon="3.69089">
        <ele>673</ele>
        <time>2015-06-17T09:51:42Z</time>
      </trkpt>
      <trkpt lat="44.28551" lon="3.69096">
        <ele>673</ele>
        <time>2015-06-17T09:51:47Z</time>
      </trkpt>
      <trkpt lat="44.28553" lon="3.69104">
        <ele>674</ele>
        <time>2015-06-17T09:51:50Z</time>
      </trkpt>
      <trkpt lat="44.28553" lon="3.69112">
        <ele>674</ele>
        <time>2015-06-17T09:51:54Z</time>
      </trkpt>
      <trkpt lat="44.28549" lon="3.69118">
        <ele>674</ele>
        <time>2015-06-17T09:51:58Z</time>
      </trkpt>
      <trkpt lat="44.28532" lon="3.69177">
        <ele>682</ele>
        <time>2015-06-17T09:52:40Z</time>
      </trkpt>
      <trkpt lat="44.28528" lon="3.69181">
        <ele>681</ele>
        <time>2015-06-17T09:52:44Z</time>
      </trkpt>
      <trkpt lat="44.28525" lon="3.69187">
        <ele>681</ele>
        <time>2015-06-17T09:52:50Z</time>
      </trkpt>
      <trkpt lat="44.28523" lon="3.69193">
        <ele>682</ele>
        <time>2015-06-17T09:52:57Z</time>
      </trkpt>
      <trkpt lat="44.28524" lon="3.69209">
        <ele>684</ele>
        <time>2015-06-17T09:53:05Z</time>
      </trkpt>
      <trkpt lat="44.28521" lon="3.69216">
        <ele>684</ele>
        <time>2015-06-17T09:53:10Z</time>
      </trkpt>
      <trkpt lat="44.2852" lon="3.69229">
        <ele>684</ele>
        <time>2015-06-17T09:53:15Z</time>
      </trkpt>
      <trkpt lat="44.28517" lon="3.69245">
        <ele>682</ele>
        <time>2015-06-17T09:53:21Z</time>
      </trkpt>
      <trkpt lat="44.28515" lon="3.69252">
        <ele>691</ele>
        <time>2015-06-17T09:53:23Z</time>
      </trkpt>
      <trkpt lat="44.2851" lon="3.69256">
        <ele>688</ele>
        <time>2015-06-17T09:53:26Z</time>
      </trkpt>
      <trkpt lat="44.28505" lon="3.69258">
        <ele>686</ele>
        <time>2015-06-17T09:53:31Z</time>
      </trkpt>
      <trkpt lat="44.28502" lon="3.69253">
        <ele>679</ele>
        <time>2015-06-17T09:53:42Z</time>
      </trkpt>
      <trkpt lat="44.28497" lon="3.69256">
        <ele>675</ele>
        <time>2015-06-17T09:53:53Z</time>
      </trkpt>
      <trkpt lat="44.28496" lon="3.69261">
        <ele>676</ele>
        <time>2015-06-17T09:54:07Z</time>
      </trkpt>
      <trkpt lat="44.28485" lon="3.6928">
        <ele>679</ele>
        <time>2015-06-17T09:54:32Z</time>
      </trkpt>
      <trkpt lat="44.28481" lon="3.69284">
        <ele>680</ele>
        <time>2015-06-17T09:54:35Z</time>
      </trkpt>
      <trkpt lat="44.28476" lon="3.69286">
        <ele>680</ele>
        <time>2015-06-17T09:54:38Z</time>
      </trkpt>
      <trkpt lat="44.28473" lon="3.69291">
        <ele>680</ele>
        <time>2015-06-17T09:54:41Z</time>
      </trkpt>
      <trkpt lat="44.28468" lon="3.69293">
        <ele>680</ele>
        <time>2015-06-17T09:54:44Z</time>
      </trkpt>
      <trkpt lat="44.28464" lon="3.69294">
        <ele>680</ele>
        <time>2015-06-17T09:54:46Z</time>
      </trkpt>
      <trkpt lat="44.28459" lon="3.69296">
        <ele>679</ele>
        <time>2015-06-17T09:54:48Z</time>
      </trkpt>
      <trkpt lat="44.28454" lon="3.69297">
        <ele>679</ele>
        <time>2015-06-17T09:54:50Z</time>
      </trkpt>
      <trkpt lat="44.28449" lon="3.69299">
        <ele>678</ele>
        <time>2015-06-17T09:54:52Z</time>
      </trkpt>
      <trkpt lat="44.28445" lon="3.69304">
        <ele>678</ele>
        <time>2015-06-17T09:54:55Z</time>
      </trkpt>
      <trkpt lat="44.28437" lon="3.69312">
        <ele>677</ele>
        <time>2015-06-17T09:55:00Z</time>
      </trkpt>
      <trkpt lat="44.28433" lon="3.69317">
        <ele>676</ele>
        <time>2015-06-17T09:55:03Z</time>
      </trkpt>
      <trkpt lat="44.28431" lon="3.69324">
        <ele>676</ele>
        <time>2015-06-17T09:55:06Z</time>
      </trkpt>
      <trkpt lat="44.28427" lon="3.69327">
        <ele>674</ele>
        <time>2015-06-17T09:55:10Z</time>
      </trkpt>
      <trkpt lat="44.28422" lon="3.6933">
        <ele>673</ele>
        <time>2015-06-17T09:55:13Z</time>
      </trkpt>
      <trkpt lat="44.28418" lon="3.69334">
        <ele>673</ele>
        <time>2015-06-17T09:55:16Z</time>
      </trkpt>
      <trkpt lat="44.28412" lon="3.69334">
        <ele>672</ele>
        <time>2015-06-17T09:55:19Z</time>
      </trkpt>
      <trkpt lat="44.28406" lon="3.69335">
        <ele>673</ele>
        <time>2015-06-17T09:55:23Z</time>
      </trkpt>
      <trkpt lat="44.284" lon="3.69337">
        <ele>674</ele>
        <time>2015-06-17T09:55:26Z</time>
      </trkpt>
      <trkpt lat="44.28397" lon="3.69343">
        <ele>675</ele>
        <time>2015-06-17T09:55:30Z</time>
      </trkpt>
      <trkpt lat="44.28392" lon="3.69347">
        <ele>675</ele>
        <time>2015-06-17T09:55:33Z</time>
      </trkpt>
      <trkpt lat="44.28388" lon="3.69351">
        <ele>676</ele>
        <time>2015-06-17T09:55:36Z</time>
      </trkpt>
      <trkpt lat="44.28382" lon="3.69353">
        <ele>676</ele>
        <time>2015-06-17T09:55:40Z</time>
      </trkpt>
      <trkpt lat="44.28378" lon="3.69356">
        <ele>676</ele>
        <time>2015-06-17T09:55:43Z</time>
      </trkpt>
      <trkpt lat="44.2837" lon="3.69368">
        <ele>676</ele>
        <time>2015-06-17T09:55:50Z</time>
      </trkpt>
      <trkpt lat="44.28367" lon="3.69374">
        <ele>676</ele>
        <time>2015-06-17T09:55:54Z</time>
      </trkpt>
      <trkpt lat="44.28366" lon="3.69382">
        <ele>676</ele>
        <time>2015-06-17T09:55:58Z</time>
      </trkpt>
      <trkpt lat="44.28366" lon="3.69388">
        <ele>677</ele>
        <time>2015-06-17T09:56:01Z</time>
      </trkpt>
      <trkpt lat="44.28365" lon="3.69395">
        <ele>677</ele>
        <time>2015-06-17T09:56:04Z</time>
      </trkpt>
      <trkpt lat="44.2836" lon="3.69399">
        <ele>676</ele>
        <time>2015-06-17T09:56:07Z</time>
      </trkpt>
      <trkpt lat="44.28355" lon="3.69399">
        <ele>675</ele>
        <time>2015-06-17T09:56:09Z</time>
      </trkpt>
      <trkpt lat="44.28351" lon="3.69395">
        <ele>675</ele>
        <time>2015-06-17T09:56:12Z</time>
      </trkpt>
      <trkpt lat="44.28346" lon="3.69395">
        <ele>674</ele>
        <time>2015-06-17T09:56:19Z</time>
      </trkpt>
      <trkpt lat="44.28342" lon="3.69399">
        <ele>673</ele>
        <time>2015-06-17T09:56:23Z</time>
      </trkpt>
      <trkpt lat="44.28336" lon="3.69401">
        <ele>672</ele>
        <time>2015-06-17T09:56:27Z</time>
      </trkpt>
      <trkpt lat="44.28331" lon="3.69404">
        <ele>669</ele>
        <time>2015-06-17T09:56:31Z</time>
      </trkpt>
      <trkpt lat="44.28328" lon="3.69409">
        <ele>669</ele>
        <time>2015-06-17T09:56:42Z</time>
      </trkpt>
      <trkpt lat="44.28325" lon="3.69417">
        <ele>669</ele>
        <time>2015-06-17T09:56:48Z</time>
      </trkpt>
      <trkpt lat="44.28315" lon="3.69435">
        <ele>671</ele>
        <time>2015-06-17T09:57:04Z</time>
      </trkpt>
      <trkpt lat="44.28306" lon="3.69439">
        <ele>671</ele>
        <time>2015-06-17T09:57:13Z</time>
      </trkpt>
      <trkpt lat="44.28301" lon="3.6944">
        <ele>671</ele>
        <time>2015-06-17T09:57:16Z</time>
      </trkpt>
      <trkpt lat="44.28296" lon="3.69442">
        <ele>671</ele>
        <time>2015-06-17T09:57:19Z</time>
      </trkpt>
      <trkpt lat="44.28294" lon="3.69448">
        <ele>671</ele>
        <time>2015-06-17T09:57:23Z</time>
      </trkpt>
      <trkpt lat="44.28281" lon="3.69458">
        <ele>671</ele>
        <time>2015-06-17T09:57:39Z</time>
      </trkpt>
      <trkpt lat="44.28277" lon="3.69462">
        <ele>670</ele>
        <time>2015-06-17T09:57:42Z</time>
      </trkpt>
      <trkpt lat="44.28273" lon="3.69468">
        <ele>670</ele>
        <time>2015-06-17T09:57:45Z</time>
      </trkpt>
      <trkpt lat="44.28271" lon="3.69476">
        <ele>670</ele>
        <time>2015-06-17T09:57:48Z</time>
      </trkpt>
      <trkpt lat="44.28267" lon="3.69482">
        <ele>669</ele>
        <time>2015-06-17T09:57:51Z</time>
      </trkpt>
      <trkpt lat="44.28265" lon="3.69488">
        <ele>669</ele>
        <time>2015-06-17T09:57:56Z</time>
      </trkpt>
      <trkpt lat="44.28267" lon="3.69495">
        <ele>669</ele>
        <time>2015-06-17T09:58:05Z</time>
      </trkpt>
      <trkpt lat="44.2826" lon="3.69505">
        <ele>672</ele>
        <time>2015-06-17T09:58:12Z</time>
      </trkpt>
      <trkpt lat="44.28258" lon="3.69511">
        <ele>673</ele>
        <time>2015-06-17T09:58:15Z</time>
      </trkpt>
      <trkpt lat="44.28256" lon="3.69518">
        <ele>676</ele>
        <time>2015-06-17T09:58:19Z</time>
      </trkpt>
      <trkpt lat="44.28252" lon="3.69523">
        <ele>677</ele>
        <time>2015-06-17T09:58:23Z</time>
      </trkpt>
      <trkpt lat="44.28252" lon="3.69529">
        <ele>679</ele>
        <time>2015-06-17T09:58:29Z</time>
      </trkpt>
      <trkpt lat="44.28246" lon="3.69549">
        <ele>671</ele>
        <time>2015-06-17T09:58:38Z</time>
      </trkpt>
      <trkpt lat="44.28243" lon="3.69554">
        <ele>672</ele>
        <time>2015-06-17T09:58:41Z</time>
      </trkpt>
      <trkpt lat="44.28238" lon="3.69566">
        <ele>674</ele>
        <time>2015-06-17T09:58:49Z</time>
      </trkpt>
      <trkpt lat="44.28236" lon="3.69579">
        <ele>675</ele>
        <time>2015-06-17T09:58:59Z</time>
      </trkpt>
      <trkpt lat="44.28234" lon="3.69585">
        <ele>679</ele>
        <time>2015-06-17T09:59:03Z</time>
      </trkpt>
      <trkpt lat="44.28223" lon="3.69602">
        <ele>679</ele>
        <time>2015-06-17T09:59:16Z</time>
      </trkpt>
      <trkpt lat="44.28215" lon="3.69611">
        <ele>679</ele>
        <time>2015-06-17T09:59:25Z</time>
      </trkpt>
      <trkpt lat="44.28212" lon="3.69616">
        <ele>679</ele>
        <time>2015-06-17T09:59:29Z</time>
      </trkpt>
      <trkpt lat="44.28209" lon="3.69622">
        <ele>679</ele>
        <time>2015-06-17T09:59:32Z</time>
      </trkpt>
      <trkpt lat="44.282" lon="3.6963">
        <ele>678</ele>
        <time>2015-06-17T09:59:40Z</time>
      </trkpt>
      <trkpt lat="44.28195" lon="3.69632">
        <ele>678</ele>
        <time>2015-06-17T09:59:49Z</time>
      </trkpt>
      <trkpt lat="44.28188" lon="3.69642">
        <ele>677</ele>
        <time>2015-06-17T09:59:57Z</time>
      </trkpt>
      <trkpt lat="44.28182" lon="3.69644">
        <ele>677</ele>
        <time>2015-06-17T10:00:03Z</time>
      </trkpt>
      <trkpt lat="44.28177" lon="3.69644">
        <ele>676</ele>
        <time>2015-06-17T10:00:09Z</time>
      </trkpt>
      <trkpt lat="44.28173" lon="3.69648">
        <ele>676</ele>
        <time>2015-06-17T10:00:13Z</time>
      </trkpt>
      <trkpt lat="44.28169" lon="3.6965">
        <ele>675</ele>
        <time>2015-06-17T10:00:17Z</time>
      </trkpt>
      <trkpt lat="44.28164" lon="3.69651">
        <ele>669</ele>
        <time>2015-06-17T10:00:21Z</time>
      </trkpt>
      <trkpt lat="44.28159" lon="3.69646">
        <ele>669</ele>
        <time>2015-06-17T10:00:25Z</time>
      </trkpt>
      <trkpt lat="44.28149" lon="3.69647">
        <ele>668</ele>
        <time>2015-06-17T10:00:37Z</time>
      </trkpt>
      <trkpt lat="44.28139" lon="3.6965">
        <ele>668</ele>
        <time>2015-06-17T10:00:44Z</time>
      </trkpt>
      <trkpt lat="44.28134" lon="3.69648">
        <ele>667</ele>
        <time>2015-06-17T10:00:48Z</time>
      </trkpt>
      <trkpt lat="44.28129" lon="3.69649">
        <ele>667</ele>
        <time>2015-06-17T10:00:52Z</time>
      </trkpt>
      <trkpt lat="44.28126" lon="3.69644">
        <ele>667</ele>
        <time>2015-06-17T10:01:01Z</time>
      </trkpt>
      <trkpt lat="44.28125" lon="3.69647">
        <ele>667</ele>
        <time>2015-06-17T10:01:15Z</time>
      </trkpt>
      <trkpt lat="44.28122" lon="3.69648">
        <ele>667</ele>
        <time>2015-06-17T10:01:27Z</time>
      </trkpt>
      <trkpt lat="44.28116" lon="3.69649">
        <ele>666</ele>
        <time>2015-06-17T10:01:31Z</time>
      </trkpt>
      <trkpt lat="44.28104" lon="3.6965">
        <ele>666</ele>
        <time>2015-06-17T10:01:37Z</time>
      </trkpt>
      <trkpt lat="44.28099" lon="3.69652">
        <ele>666</ele>
        <time>2015-06-17T10:01:40Z</time>
      </trkpt>
      <trkpt lat="44.2809" lon="3.6966">
        <ele>665</ele>
        <time>2015-06-17T10:01:46Z</time>
      </trkpt>
      <trkpt lat="44.28085" lon="3.69663">
        <ele>665</ele>
        <time>2015-06-17T10:01:49Z</time>
      </trkpt>
      <trkpt lat="44.2808" lon="3.69664">
        <ele>665</ele>
        <time>2015-06-17T10:01:53Z</time>
      </trkpt>
      <trkpt lat="44.28075" lon="3.69665">
        <ele>665</ele>
        <time>2015-06-17T10:01:57Z</time>
      </trkpt>
      <trkpt lat="44.28071" lon="3.69662">
        <ele>665</ele>
        <time>2015-06-17T10:02:01Z</time>
      </trkpt>
      <trkpt lat="44.28066" lon="3.69666">
        <ele>665</ele>
        <time>2015-06-17T10:02:06Z</time>
      </trkpt>
      <trkpt lat="44.28062" lon="3.6967">
        <ele>668</ele>
        <time>2015-06-17T10:02:10Z</time>
      </trkpt>
      <trkpt lat="44.28056" lon="3.6967">
        <ele>668</ele>
        <time>2015-06-17T10:02:16Z</time>
      </trkpt>
      <trkpt lat="44.28052" lon="3.69671">
        <ele>669</ele>
        <time>2015-06-17T10:02:20Z</time>
      </trkpt>
      <trkpt lat="44.28048" lon="3.69673">
        <ele>669</ele>
        <time>2015-06-17T10:02:23Z</time>
      </trkpt>
      <trkpt lat="44.28043" lon="3.69673">
        <ele>669</ele>
        <time>2015-06-17T10:02:28Z</time>
      </trkpt>
      <trkpt lat="44.28039" lon="3.69677">
        <ele>669</ele>
        <time>2015-06-17T10:02:33Z</time>
      </trkpt>
      <trkpt lat="44.28034" lon="3.69679">
        <ele>669</ele>
        <time>2015-06-17T10:02:38Z</time>
      </trkpt>
      <trkpt lat="44.2803" lon="3.69683">
        <ele>669</ele>
        <time>2015-06-17T10:02:45Z</time>
      </trkpt>
      <trkpt lat="44.28021" lon="3.69699">
        <ele>669</ele>
        <time>2015-06-17T10:02:57Z</time>
      </trkpt>
      <trkpt lat="44.28017" lon="3.69702">
        <ele>669</ele>
        <time>2015-06-17T10:03:02Z</time>
      </trkpt>
      <trkpt lat="44.28012" lon="3.69704">
        <ele>669</ele>
        <time>2015-06-17T10:03:06Z</time>
      </trkpt>
      <trkpt lat="44.28009" lon="3.69709">
        <ele>670</ele>
        <time>2015-06-17T10:03:10Z</time>
      </trkpt>
      <trkpt lat="44.28008" lon="3.69716">
        <ele>670</ele>
        <time>2015-06-17T10:03:14Z</time>
      </trkpt>
      <trkpt lat="44.28007" lon="3.69723">
        <ele>670</ele>
        <time>2015-06-17T10:03:18Z</time>
      </trkpt>
      <trkpt lat="44.28005" lon="3.69729">
        <ele>670</ele>
        <time>2015-06-17T10:03:22Z</time>
      </trkpt>
      <trkpt lat="44.28001" lon="3.69734">
        <ele>670</ele>
        <time>2015-06-17T10:03:27Z</time>
      </trkpt>
      <trkpt lat="44.27994" lon="3.69755">
        <ele>671</ele>
        <time>2015-06-17T10:03:40Z</time>
      </trkpt>
      <trkpt lat="44.27992" lon="3.69769">
        <ele>673</ele>
        <time>2015-06-17T10:03:48Z</time>
      </trkpt>
      <trkpt lat="44.27992" lon="3.69776">
        <ele>673</ele>
        <time>2015-06-17T10:03:53Z</time>
      </trkpt>
      <trkpt lat="44.27993" lon="3.69783">
        <ele>673</ele>
        <time>2015-06-17T10:03:58Z</time>
      </trkpt>
      <trkpt lat="44.27994" lon="3.6979">
        <ele>673</ele>
        <time>2015-06-17T10:04:03Z</time>
      </trkpt>
      <trkpt lat="44.27995" lon="3.69797">
        <ele>673</ele>
        <time>2015-06-17T10:04:07Z</time>
      </trkpt>
      <trkpt lat="44.27995" lon="3.69859">
        <ele>673</ele>
        <time>2015-06-17T10:04:47Z</time>
      </trkpt>
      <trkpt lat="44.27994" lon="3.69865">
        <ele>673</ele>
        <time>2015-06-17T10:04:51Z</time>
      </trkpt>
      <trkpt lat="44.27994" lon="3.69873">
        <ele>673</ele>
        <time>2015-06-17T10:04:55Z</time>
      </trkpt>
      <trkpt lat="44.27996" lon="3.69879">
        <ele>673</ele>
        <time>2015-06-17T10:05:00Z</time>
      </trkpt>
      <trkpt lat="44.27997" lon="3.69886">
        <ele>673</ele>
        <time>2015-06-17T10:05:07Z</time>
      </trkpt>
      <trkpt lat="44.27995" lon="3.69906">
        <ele>674</ele>
        <time>2015-06-17T10:05:18Z</time>
      </trkpt>
      <trkpt lat="44.27992" lon="3.69912">
        <ele>674</ele>
        <time>2015-06-17T10:05:21Z</time>
      </trkpt>
      <trkpt lat="44.27994" lon="3.69918">
        <ele>675</ele>
        <time>2015-06-17T10:05:27Z</time>
      </trkpt>
      <trkpt lat="44.27993" lon="3.69925">
        <ele>674</ele>
        <time>2015-06-17T10:05:32Z</time>
      </trkpt>
      <trkpt lat="44.27992" lon="3.69935">
        <ele>674</ele>
        <time>2015-06-17T10:05:38Z</time>
      </trkpt>
      <trkpt lat="44.2799" lon="3.69943">
        <ele>674</ele>
        <time>2015-06-17T10:05:42Z</time>
      </trkpt>
      <trkpt lat="44.27989" lon="3.6995">
        <ele>674</ele>
        <time>2015-06-17T10:05:46Z</time>
      </trkpt>
      <trkpt lat="44.27991" lon="3.69957">
        <ele>674</ele>
        <time>2015-06-17T10:05:49Z</time>
      </trkpt>
      <trkpt lat="44.27992" lon="3.69965">
        <ele>674</ele>
        <time>2015-06-17T10:05:53Z</time>
      </trkpt>
      <trkpt lat="44.2799" lon="3.69988">
        <ele>675</ele>
        <time>2015-06-17T10:06:06Z</time>
      </trkpt>
      <trkpt lat="44.27991" lon="3.69994">
        <ele>676</ele>
        <time>2015-06-17T10:06:10Z</time>
      </trkpt>
      <trkpt lat="44.27993" lon="3.70001">
        <ele>676</ele>
        <time>2015-06-17T10:06:19Z</time>
      </trkpt>
      <trkpt lat="44.27995" lon="3.70007">
        <ele>676</ele>
        <time>2015-06-17T10:06:24Z</time>
      </trkpt>
      <trkpt lat="44.27993" lon="3.70031">
        <ele>676</ele>
        <time>2015-06-17T10:06:36Z</time>
      </trkpt>
      <trkpt lat="44.27995" lon="3.70037">
        <ele>676</ele>
        <time>2015-06-17T10:06:40Z</time>
      </trkpt>
      <trkpt lat="44.27995" lon="3.70044">
        <ele>677</ele>
        <time>2015-06-17T10:06:43Z</time>
      </trkpt>
      <trkpt lat="44.27993" lon="3.7006">
        <ele>677</ele>
        <time>2015-06-17T10:06:49Z</time>
      </trkpt>
      <trkpt lat="44.27995" lon="3.70101">
        <ele>679</ele>
        <time>2015-06-17T10:07:10Z</time>
      </trkpt>
      <trkpt lat="44.27998" lon="3.70107">
        <ele>679</ele>
        <time>2015-06-17T10:07:14Z</time>
      </trkpt>
      <trkpt lat="44.28" lon="3.70114">
        <ele>696</ele>
        <time>2015-06-17T10:07:17Z</time>
      </trkpt>
      <trkpt lat="44.28" lon="3.70121">
        <ele>680</ele>
        <time>2015-06-17T10:07:20Z</time>
      </trkpt>
      <trkpt lat="44.27998" lon="3.70128">
        <ele>680</ele>
        <time>2015-06-17T10:07:23Z</time>
      </trkpt>
      <trkpt lat="44.28" lon="3.70134">
        <ele>698</ele>
        <time>2015-06-17T10:07:34Z</time>
      </trkpt>
      <trkpt lat="44.28" lon="3.70147">
        <ele>681</ele>
        <time>2015-06-17T10:07:47Z</time>
      </trkpt>
      <trkpt lat="44.27996" lon="3.70151">
        <ele>682</ele>
        <time>2015-06-17T10:07:50Z</time>
      </trkpt>
      <trkpt lat="44.27993" lon="3.70156">
        <ele>682</ele>
        <time>2015-06-17T10:07:54Z</time>
      </trkpt>
      <trkpt lat="44.27992" lon="3.70163">
        <ele>683</ele>
        <time>2015-06-17T10:07:59Z</time>
      </trkpt>
      <trkpt lat="44.27994" lon="3.70169">
        <ele>684</ele>
        <time>2015-06-17T10:08:05Z</time>
      </trkpt>
      <trkpt lat="44.2799" lon="3.70181">
        <ele>683</ele>
        <time>2015-06-17T10:08:15Z</time>
      </trkpt>
      <trkpt lat="44.27989" lon="3.70188">
        <ele>682</ele>
        <time>2015-06-17T10:08:21Z</time>
      </trkpt>
      <trkpt lat="44.27985" lon="3.70193">
        <ele>682</ele>
        <time>2015-06-17T10:08:25Z</time>
      </trkpt>
      <trkpt lat="44.27983" lon="3.702">
        <ele>682</ele>
        <time>2015-06-17T10:08:30Z</time>
      </trkpt>
      <trkpt lat="44.27982" lon="3.70207">
        <ele>682</ele>
        <time>2015-06-17T10:08:33Z</time>
      </trkpt>
      <trkpt lat="44.27978" lon="3.70216">
        <ele>682</ele>
        <time>2015-06-17T10:08:37Z</time>
      </trkpt>
      <trkpt lat="44.27972" lon="3.70226">
        <ele>681</ele>
        <time>2015-06-17T10:08:41Z</time>
      </trkpt>
      <trkpt lat="44.27967" lon="3.70239">
        <ele>681</ele>
        <time>2015-06-17T10:08:47Z</time>
      </trkpt>
      <trkpt lat="44.27956" lon="3.70257">
        <ele>681</ele>
        <time>2015-06-17T10:08:57Z</time>
      </trkpt>
      <trkpt lat="44.27956" lon="3.70264">
        <ele>681</ele>
        <time>2015-06-17T10:09:02Z</time>
      </trkpt>
      <trkpt lat="44.27953" lon="3.7027">
        <ele>681</ele>
        <time>2015-06-17T10:09:05Z</time>
      </trkpt>
      <trkpt lat="44.27953" lon="3.70277">
        <ele>681</ele>
        <time>2015-06-17T10:09:10Z</time>
      </trkpt>
      <trkpt lat="44.27946" lon="3.70287">
        <ele>680</ele>
        <time>2015-06-17T10:09:18Z</time>
      </trkpt>
      <trkpt lat="44.27943" lon="3.70292">
        <ele>680</ele>
        <time>2015-06-17T10:09:25Z</time>
      </trkpt>
      <trkpt lat="44.27939" lon="3.70322">
        <ele>679</ele>
        <time>2015-06-17T10:09:41Z</time>
      </trkpt>
      <trkpt lat="44.27937" lon="3.70329">
        <ele>678</ele>
        <time>2015-06-17T10:09:44Z</time>
      </trkpt>
      <trkpt lat="44.27933" lon="3.70334">
        <ele>681</ele>
        <time>2015-06-17T10:09:49Z</time>
      </trkpt>
      <trkpt lat="44.27931" lon="3.70341">
        <ele>681</ele>
        <time>2015-06-17T10:09:54Z</time>
      </trkpt>
      <trkpt lat="44.27929" lon="3.70347">
        <ele>681</ele>
        <time>2015-06-17T10:09:58Z</time>
      </trkpt>
      <trkpt lat="44.27926" lon="3.70352">
        <ele>682</ele>
        <time>2015-06-17T10:10:02Z</time>
      </trkpt>
      <trkpt lat="44.27922" lon="3.70371">
        <ele>685</ele>
        <time>2015-06-17T10:10:15Z</time>
      </trkpt>
      <trkpt lat="44.27919" lon="3.70375">
        <ele>685</ele>
        <time>2015-06-17T10:10:18Z</time>
      </trkpt>
      <trkpt lat="44.2792" lon="3.7039">
        <ele>686</ele>
        <time>2015-06-17T10:10:27Z</time>
      </trkpt>
      <trkpt lat="44.27919" lon="3.70398">
        <ele>686</ele>
        <time>2015-06-17T10:10:31Z</time>
      </trkpt>
      <trkpt lat="44.27914" lon="3.7041">
        <ele>681</ele>
        <time>2015-06-17T10:10:38Z</time>
      </trkpt>
      <trkpt lat="44.27909" lon="3.70414">
        <ele>681</ele>
        <time>2015-06-17T10:10:42Z</time>
      </trkpt>
      <trkpt lat="44.2791" lon="3.7042">
        <ele>682</ele>
        <time>2015-06-17T10:10:46Z</time>
      </trkpt>
      <trkpt lat="44.27906" lon="3.70425">
        <ele>683</ele>
        <time>2015-06-17T10:10:49Z</time>
      </trkpt>
      <trkpt lat="44.27904" lon="3.70431">
        <ele>683</ele>
        <time>2015-06-17T10:10:52Z</time>
      </trkpt>
      <trkpt lat="44.27897" lon="3.70442">
        <ele>683</ele>
        <time>2015-06-17T10:10:59Z</time>
      </trkpt>
      <trkpt lat="44.27893" lon="3.70466">
        <ele>684</ele>
        <time>2015-06-17T10:11:06Z</time>
      </trkpt>
      <trkpt lat="44.27889" lon="3.70481">
        <ele>685</ele>
        <time>2015-06-17T10:11:10Z</time>
      </trkpt>
      <trkpt lat="44.27888" lon="3.70505">
        <ele>689</ele>
        <time>2015-06-17T10:11:39Z</time>
      </trkpt>
      <trkpt lat="44.27881" lon="3.70516">
        <ele>688</ele>
        <time>2015-06-17T10:11:45Z</time>
      </trkpt>
      <trkpt lat="44.27882" lon="3.70523">
        <ele>688</ele>
        <time>2015-06-17T10:11:48Z</time>
      </trkpt>
      <trkpt lat="44.27882" lon="3.7053">
        <ele>688</ele>
        <time>2015-06-17T10:11:51Z</time>
      </trkpt>
      <trkpt lat="44.27885" lon="3.70544">
        <ele>689</ele>
        <time>2015-06-17T10:11:59Z</time>
      </trkpt>
      <trkpt lat="44.27884" lon="3.70561">
        <ele>690</ele>
        <time>2015-06-17T10:12:05Z</time>
      </trkpt>
      <trkpt lat="44.27887" lon="3.70567">
        <ele>690</ele>
        <time>2015-06-17T10:12:09Z</time>
      </trkpt>
      <trkpt lat="44.27888" lon="3.70574">
        <ele>691</ele>
        <time>2015-06-17T10:12:17Z</time>
      </trkpt>
      <trkpt lat="44.27887" lon="3.70581">
        <ele>691</ele>
        <time>2015-06-17T10:12:22Z</time>
      </trkpt>
      <trkpt lat="44.27889" lon="3.70589">
        <ele>694</ele>
        <time>2015-06-17T10:12:29Z</time>
      </trkpt>
      <trkpt lat="44.27887" lon="3.70609">
        <ele>693</ele>
        <time>2015-06-17T10:12:38Z</time>
      </trkpt>
      <trkpt lat="44.27888" lon="3.70616">
        <ele>694</ele>
        <time>2015-06-17T10:12:41Z</time>
      </trkpt>
      <trkpt lat="44.27887" lon="3.70624">
        <ele>694</ele>
        <time>2015-06-17T10:12:44Z</time>
      </trkpt>
      <trkpt lat="44.27886" lon="3.70631">
        <ele>694</ele>
        <time>2015-06-17T10:12:48Z</time>
      </trkpt>
      <trkpt lat="44.27882" lon="3.70644">
        <ele>694</ele>
        <time>2015-06-17T10:12:55Z</time>
      </trkpt>
      <trkpt lat="44.27879" lon="3.70649">
        <ele>693</ele>
        <time>2015-06-17T10:12:59Z</time>
      </trkpt>
      <trkpt lat="44.27874" lon="3.70653">
        <ele>693</ele>
        <time>2015-06-17T10:13:04Z</time>
      </trkpt>
      <trkpt lat="44.27871" lon="3.70658">
        <ele>692</ele>
        <time>2015-06-17T10:13:09Z</time>
      </trkpt>
      <trkpt lat="44.27869" lon="3.70666">
        <ele>692</ele>
        <time>2015-06-17T10:13:14Z</time>
      </trkpt>
      <trkpt lat="44.27865" lon="3.70673">
        <ele>696</ele>
        <time>2015-06-17T10:13:17Z</time>
      </trkpt>
      <trkpt lat="44.27862" lon="3.70678">
        <ele>695</ele>
        <time>2015-06-17T10:13:19Z</time>
      </trkpt>
      <trkpt lat="44.27858" lon="3.70682">
        <ele>695</ele>
        <time>2015-06-17T10:13:21Z</time>
      </trkpt>
      <trkpt lat="44.27853" lon="3.70689">
        <ele>695</ele>
        <time>2015-06-17T10:13:24Z</time>
      </trkpt>
      <trkpt lat="44.27849" lon="3.70694">
        <ele>695</ele>
        <time>2015-06-17T10:13:27Z</time>
      </trkpt>
      <trkpt lat="44.27844" lon="3.70698">
        <ele>695</ele>
        <time>2015-06-17T10:13:30Z</time>
      </trkpt>
      <trkpt lat="44.27842" lon="3.70703">
        <ele>695</ele>
        <time>2015-06-17T10:13:34Z</time>
      </trkpt>
      <trkpt lat="44.27837" lon="3.70708">
        <ele>696</ele>
        <time>2015-06-17T10:13:39Z</time>
      </trkpt>
      <trkpt lat="44.27832" lon="3.70713">
        <ele>689</ele>
        <time>2015-06-17T10:13:44Z</time>
      </trkpt>
      <trkpt lat="44.27828" lon="3.70715">
        <ele>689</ele>
        <time>2015-06-17T10:13:47Z</time>
      </trkpt>
      <trkpt lat="44.27822" lon="3.70717">
        <ele>689</ele>
        <time>2015-06-17T10:13:51Z</time>
      </trkpt>
      <trkpt lat="44.27818" lon="3.7072">
        <ele>689</ele>
        <time>2015-06-17T10:13:55Z</time>
      </trkpt>
      <trkpt lat="44.27814" lon="3.70725">
        <ele>689</ele>
        <time>2015-06-17T10:14:01Z</time>
      </trkpt>
      <trkpt lat="44.27809" lon="3.70731">
        <ele>689</ele>
        <time>2015-06-17T10:14:06Z</time>
      </trkpt>
      <trkpt lat="44.27803" lon="3.70734">
        <ele>689</ele>
        <time>2015-06-17T10:14:08Z</time>
      </trkpt>
      <trkpt lat="44.27799" lon="3.70737">
        <ele>689</ele>
        <time>2015-06-17T10:14:10Z</time>
      </trkpt>
      <trkpt lat="44.27791" lon="3.70756">
        <ele>690</ele>
        <time>2015-06-17T10:14:24Z</time>
      </trkpt>
      <trkpt lat="44.27789" lon="3.70762">
        <ele>690</ele>
        <time>2015-06-17T10:14:28Z</time>
      </trkpt>
      <trkpt lat="44.27786" lon="3.70768">
        <ele>690</ele>
        <time>2015-06-17T10:14:33Z</time>
      </trkpt>
      <trkpt lat="44.27785" lon="3.70761">
        <ele>689</ele>
        <time>2015-06-17T10:14:44Z</time>
      </trkpt>
      <trkpt lat="44.27784" lon="3.70766">
        <ele>689</ele>
        <time>2015-06-17T10:15:07Z</time>
      </trkpt>
      <trkpt lat="44.27778" lon="3.70774">
        <ele>689</ele>
        <time>2015-06-17T10:15:18Z</time>
      </trkpt>
      <trkpt lat="44.27776" lon="3.70782">
        <ele>689</ele>
        <time>2015-06-17T10:15:20Z</time>
      </trkpt>
      <trkpt lat="44.27777" lon="3.708">
        <ele>690</ele>
        <time>2015-06-17T10:15:24Z</time>
      </trkpt>
      <trkpt lat="44.27779" lon="3.70806">
        <ele>690</ele>
        <time>2015-06-17T10:15:26Z</time>
      </trkpt>
      <trkpt lat="44.27783" lon="3.70812">
        <ele>691</ele>
        <time>2015-06-17T10:15:29Z</time>
      </trkpt>
      <trkpt lat="44.27784" lon="3.70818">
        <ele>691</ele>
        <time>2015-06-17T10:15:32Z</time>
      </trkpt>
      <trkpt lat="44.27783" lon="3.70828">
        <ele>691</ele>
        <time>2015-06-17T10:15:36Z</time>
      </trkpt>
      <trkpt lat="44.27785" lon="3.70836">
        <ele>693</ele>
        <time>2015-06-17T10:15:39Z</time>
      </trkpt>
      <trkpt lat="44.27786" lon="3.70867">
        <ele>694</ele>
        <time>2015-06-17T10:15:44Z</time>
      </trkpt>
      <trkpt lat="44.27788" lon="3.70875">
        <ele>694</ele>
        <time>2015-06-17T10:15:46Z</time>
      </trkpt>
      <trkpt lat="44.27791" lon="3.70882">
        <ele>695</ele>
        <time>2015-06-17T10:15:48Z</time>
      </trkpt>
      <trkpt lat="44.27792" lon="3.70891">
        <ele>695</ele>
        <time>2015-06-17T10:15:51Z</time>
      </trkpt>
      <trkpt lat="44.27789" lon="3.70898">
        <ele>694</ele>
        <time>2015-06-17T10:15:57Z</time>
      </trkpt>
      <trkpt lat="44.27787" lon="3.70905">
        <ele>694</ele>
        <time>2015-06-17T10:16:00Z</time>
      </trkpt>
      <trkpt lat="44.27786" lon="3.70912">
        <ele>693</ele>
        <time>2015-06-17T10:16:02Z</time>
      </trkpt>
      <trkpt lat="44.27782" lon="3.70924">
        <ele>690</ele>
        <time>2015-06-17T10:16:08Z</time>
      </trkpt>
      <trkpt lat="44.27782" lon="3.70931">
        <ele>690</ele>
        <time>2015-06-17T10:16:11Z</time>
      </trkpt>
      <trkpt lat="44.27784" lon="3.70938">
        <ele>691</ele>
        <time>2015-06-17T10:16:13Z</time>
      </trkpt>
      <trkpt lat="44.27786" lon="3.70943">
        <ele>691</ele>
        <time>2015-06-17T10:16:15Z</time>
      </trkpt>
      <trkpt lat="44.27789" lon="3.70948">
        <ele>692</ele>
        <time>2015-06-17T10:16:21Z</time>
      </trkpt>
      <trkpt lat="44.27795" lon="3.70952">
        <ele>692</ele>
        <time>2015-06-17T10:16:30Z</time>
      </trkpt>
      <trkpt lat="44.27799" lon="3.70957">
        <ele>693</ele>
        <time>2015-06-17T10:16:35Z</time>
      </trkpt>
      <trkpt lat="44.27803" lon="3.70971">
        <ele>693</ele>
        <time>2015-06-17T10:16:44Z</time>
      </trkpt>
      <trkpt lat="44.27802" lon="3.70978">
        <ele>692</ele>
        <time>2015-06-17T10:16:49Z</time>
      </trkpt>
      <trkpt lat="44.27805" lon="3.70984">
        <ele>693</ele>
        <time>2015-06-17T10:16:54Z</time>
      </trkpt>
      <trkpt lat="44.27809" lon="3.70987">
        <ele>693</ele>
        <time>2015-06-17T10:17:01Z</time>
      </trkpt>
      <trkpt lat="44.27814" lon="3.70985">
        <ele>694</ele>
        <time>2015-06-17T10:17:05Z</time>
      </trkpt>
      <trkpt lat="44.27819" lon="3.70985">
        <ele>695</ele>
        <time>2015-06-17T10:17:08Z</time>
      </trkpt>
      <trkpt lat="44.27823" lon="3.70989">
        <ele>695</ele>
        <time>2015-06-17T10:17:12Z</time>
      </trkpt>
      <trkpt lat="44.27825" lon="3.70996">
        <ele>696</ele>
        <time>2015-06-17T10:17:15Z</time>
      </trkpt>
      <trkpt lat="44.27826" lon="3.71003">
        <ele>695</ele>
        <time>2015-06-17T10:17:19Z</time>
      </trkpt>
      <trkpt lat="44.27831" lon="3.71005">
        <ele>696</ele>
        <time>2015-06-17T10:17:24Z</time>
      </trkpt>
      <trkpt lat="44.27834" lon="3.71012">
        <ele>702</ele>
        <time>2015-06-17T10:17:31Z</time>
      </trkpt>
      <trkpt lat="44.27836" lon="3.71018">
        <ele>703</ele>
        <time>2015-06-17T10:17:35Z</time>
      </trkpt>
      <trkpt lat="44.27837" lon="3.71026">
        <ele>704</ele>
        <time>2015-06-17T10:17:39Z</time>
      </trkpt>
      <trkpt lat="44.27844" lon="3.71036">
        <ele>704</ele>
        <time>2015-06-17T10:17:47Z</time>
      </trkpt>
      <trkpt lat="44.27846" lon="3.71042">
        <ele>704</ele>
        <time>2015-06-17T10:17:49Z</time>
      </trkpt>
      <trkpt lat="44.27842" lon="3.71064">
        <ele>697</ele>
        <time>2015-06-17T10:17:59Z</time>
      </trkpt>
      <trkpt lat="44.27843" lon="3.71072">
        <ele>695</ele>
        <time>2015-06-17T10:18:06Z</time>
      </trkpt>
      <trkpt lat="44.27845" lon="3.71077">
        <ele>693</ele>
        <time>2015-06-17T10:18:10Z</time>
      </trkpt>
      <trkpt lat="44.2785" lon="3.71081">
        <ele>696</ele>
        <time>2015-06-17T10:18:13Z</time>
      </trkpt>
      <trkpt lat="44.27847" lon="3.71088">
        <ele>690</ele>
        <time>2015-06-17T10:18:17Z</time>
      </trkpt>
      <trkpt lat="44.27846" lon="3.71094">
        <ele>691</ele>
        <time>2015-06-17T10:18:20Z</time>
      </trkpt>
      <trkpt lat="44.27857" lon="3.7113">
        <ele>696</ele>
        <time>2015-06-17T10:18:39Z</time>
      </trkpt>
      <trkpt lat="44.2786" lon="3.71152">
        <ele>695</ele>
        <time>2015-06-17T10:18:51Z</time>
      </trkpt>
      <trkpt lat="44.27863" lon="3.71158">
        <ele>696</ele>
        <time>2015-06-17T10:18:58Z</time>
      </trkpt>
      <trkpt lat="44.27861" lon="3.71186">
        <ele>697</ele>
        <time>2015-06-17T10:19:11Z</time>
      </trkpt>
      <trkpt lat="44.27863" lon="3.71192">
        <ele>698</ele>
        <time>2015-06-17T10:19:16Z</time>
      </trkpt>
      <trkpt lat="44.27861" lon="3.71199">
        <ele>698</ele>
        <time>2015-06-17T10:19:21Z</time>
      </trkpt>
      <trkpt lat="44.27858" lon="3.71204">
        <ele>698</ele>
        <time>2015-06-17T10:19:24Z</time>
      </trkpt>
      <trkpt lat="44.27856" lon="3.7121">
        <ele>698</ele>
        <time>2015-06-17T10:19:26Z</time>
      </trkpt>
      <trkpt lat="44.27858" lon="3.71219">
        <ele>698</ele>
        <time>2015-06-17T10:19:29Z</time>
      </trkpt>
      <trkpt lat="44.27861" lon="3.71225">
        <ele>699</ele>
        <time>2015-06-17T10:19:31Z</time>
      </trkpt>
      <trkpt lat="44.2786" lon="3.71232">
        <ele>698</ele>
        <time>2015-06-17T10:19:40Z</time>
      </trkpt>
      <trkpt lat="44.27856" lon="3.71238">
        <ele>697</ele>
        <time>2015-06-17T10:19:43Z</time>
      </trkpt>
      <trkpt lat="44.27852" lon="3.71242">
        <ele>696</ele>
        <time>2015-06-17T10:19:45Z</time>
      </trkpt>
      <trkpt lat="44.27847" lon="3.71247">
        <ele>694</ele>
        <time>2015-06-17T10:19:48Z</time>
      </trkpt>
      <trkpt lat="44.27838" lon="3.71263">
        <ele>698</ele>
        <time>2015-06-17T10:20:00Z</time>
      </trkpt>
      <trkpt lat="44.27825" lon="3.71274">
        <ele>692</ele>
        <time>2015-06-17T10:20:14Z</time>
      </trkpt>
      <trkpt lat="44.27824" lon="3.7128">
        <ele>692</ele>
        <time>2015-06-17T10:20:19Z</time>
      </trkpt>
      <trkpt lat="44.2782" lon="3.71286">
        <ele>693</ele>
        <time>2015-06-17T10:20:22Z</time>
      </trkpt>
      <trkpt lat="44.27818" lon="3.71293">
        <ele>694</ele>
        <time>2015-06-17T10:20:25Z</time>
      </trkpt>
      <trkpt lat="44.27815" lon="3.71308">
        <ele>695</ele>
        <time>2015-06-17T10:20:31Z</time>
      </trkpt>
      <trkpt lat="44.27811" lon="3.71322">
        <ele>696</ele>
        <time>2015-06-17T10:20:38Z</time>
      </trkpt>
      <trkpt lat="44.27807" lon="3.71326">
        <ele>695</ele>
        <time>2015-06-17T10:20:41Z</time>
      </trkpt>
      <trkpt lat="44.27805" lon="3.71342">
        <ele>698</ele>
        <time>2015-06-17T10:22:06Z</time>
      </trkpt>
      <trkpt lat="44.27806" lon="3.71353">
        <ele>698</ele>
        <time>2015-06-17T10:22:08Z</time>
      </trkpt>
      <trkpt lat="44.27805" lon="3.71382">
        <ele>699</ele>
        <time>2015-06-17T10:22:09Z</time>
      </trkpt>
      <trkpt lat="44.27809" lon="3.71396">
        <ele>701</ele>
        <time>2015-06-17T10:22:14Z</time>
      </trkpt>
      <trkpt lat="44.27809" lon="3.71403">
        <ele>701</ele>
        <time>2015-06-17T10:22:16Z</time>
      </trkpt>
      <trkpt lat="44.27804" lon="3.71412">
        <ele>701</ele>
        <time>2015-06-17T10:22:18Z</time>
      </trkpt>
      <trkpt lat="44.278" lon="3.71416">
        <ele>700</ele>
        <time>2015-06-17T10:22:19Z</time>
      </trkpt>
      <trkpt lat="44.27783" lon="3.71483">
        <ele>697</ele>
        <time>2015-06-17T10:22:30Z</time>
      </trkpt>
      <trkpt lat="44.27787" lon="3.71481">
        <ele>697</ele>
        <time>2015-06-17T10:22:35Z</time>
      </trkpt>
      <trkpt lat="44.27792" lon="3.7148">
        <ele>698</ele>
        <time>2015-06-17T10:22:41Z</time>
      </trkpt>
      <trkpt lat="44.27794" lon="3.71473">
        <ele>698</ele>
        <time>2015-06-17T10:22:45Z</time>
      </trkpt>
      <trkpt lat="44.27796" lon="3.71471">
        <ele>698</ele>
        <time>2015-06-17T10:22:59Z</time>
      </trkpt>
      <trkpt lat="44.27797" lon="3.71471">
        <ele>698</ele>
        <time>2015-06-17T10:23:15Z</time>
      </trkpt>
      <trkpt lat="44.27799" lon="3.71468">
        <ele>698</ele>
        <time>2015-06-17T10:23:37Z</time>
      </trkpt>
      <trkpt lat="44.27802" lon="3.71476">
        <ele>699</ele>
        <time>2015-06-17T10:23:45Z</time>
      </trkpt>
      <trkpt lat="44.27805" lon="3.71482">
        <ele>699</ele>
        <time>2015-06-17T10:23:48Z</time>
      </trkpt>
      <trkpt lat="44.27807" lon="3.71485">
        <ele>699</ele>
        <time>2015-06-17T10:24:08Z</time>
      </trkpt>
      <trkpt lat="44.278" lon="3.71477">
        <ele>698</ele>
        <time>2015-06-17T11:32:44Z</time>
      </trkpt>
      <trkpt lat="44.27802" lon="3.71471">
        <ele>699</ele>
        <time>2015-06-17T11:32:49Z</time>
      </trkpt>
      <trkpt lat="44.27803" lon="3.71471">
        <ele>699</ele>
        <time>2015-06-17T11:33:03Z</time>
      </trkpt>
      <trkpt lat="44.27808" lon="3.71492">
        <ele>699</ele>
        <time>2015-06-17T11:34:57Z</time>
      </trkpt>
      <trkpt lat="44.27808" lon="3.71493">
        <ele>699</ele>
        <time>2015-06-17T11:35:32Z</time>
      </trkpt>
      <trkpt lat="44.27807" lon="3.71505">
        <ele>699</ele>
        <time>2015-06-17T11:36:27Z</time>
      </trkpt>
      <trkpt lat="44.27809" lon="3.71512">
        <ele>699</ele>
        <time>2015-06-17T11:36:31Z</time>
      </trkpt>
      <trkpt lat="44.27812" lon="3.71518">
        <ele>699</ele>
        <time>2015-06-17T11:36:34Z</time>
      </trkpt>
      <trkpt lat="44.27813" lon="3.71526">
        <ele>699</ele>
        <time>2015-06-17T11:36:37Z</time>
      </trkpt>
      <trkpt lat="44.27817" lon="3.71543">
        <ele>699</ele>
        <time>2015-06-17T11:36:43Z</time>
      </trkpt>
      <trkpt lat="44.27813" lon="3.71566">
        <ele>700</ele>
        <time>2015-06-17T11:36:52Z</time>
      </trkpt>
      <trkpt lat="44.27815" lon="3.71573">
        <ele>700</ele>
        <time>2015-06-17T11:36:55Z</time>
      </trkpt>
      <trkpt lat="44.27814" lon="3.71581">
        <ele>700</ele>
        <time>2015-06-17T11:36:58Z</time>
      </trkpt>
      <trkpt lat="44.27815" lon="3.71595">
        <ele>702</ele>
        <time>2015-06-17T11:37:04Z</time>
      </trkpt>
      <trkpt lat="44.27815" lon="3.71602">
        <ele>702</ele>
        <time>2015-06-17T11:37:08Z</time>
      </trkpt>
      <trkpt lat="44.27811" lon="3.71608">
        <ele>702</ele>
        <time>2015-06-17T11:37:12Z</time>
      </trkpt>
      <trkpt lat="44.27809" lon="3.71615">
        <ele>702</ele>
        <time>2015-06-17T11:37:17Z</time>
      </trkpt>
      <trkpt lat="44.2781" lon="3.71623">
        <ele>702</ele>
        <time>2015-06-17T11:37:22Z</time>
      </trkpt>
      <trkpt lat="44.27813" lon="3.71628">
        <ele>702</ele>
        <time>2015-06-17T11:37:24Z</time>
      </trkpt>
      <trkpt lat="44.27815" lon="3.71633">
        <ele>702</ele>
        <time>2015-06-17T11:37:27Z</time>
      </trkpt>
      <trkpt lat="44.27812" lon="3.71646">
        <ele>703</ele>
        <time>2015-06-17T11:37:37Z</time>
      </trkpt>
      <trkpt lat="44.27808" lon="3.7165">
        <ele>703</ele>
        <time>2015-06-17T11:37:40Z</time>
      </trkpt>
      <trkpt lat="44.27805" lon="3.71656">
        <ele>703</ele>
        <time>2015-06-17T11:37:44Z</time>
      </trkpt>
      <trkpt lat="44.27804" lon="3.71663">
        <ele>703</ele>
        <time>2015-06-17T11:37:48Z</time>
      </trkpt>
      <trkpt lat="44.278" lon="3.71668">
        <ele>704</ele>
        <time>2015-06-17T11:37:54Z</time>
      </trkpt>
      <trkpt lat="44.278" lon="3.71682">
        <ele>704</ele>
        <time>2015-06-17T11:38:03Z</time>
      </trkpt>
      <trkpt lat="44.27803" lon="3.71689">
        <ele>704</ele>
        <time>2015-06-17T11:38:08Z</time>
      </trkpt>
      <trkpt lat="44.27803" lon="3.71696">
        <ele>704</ele>
        <time>2015-06-17T11:38:12Z</time>
      </trkpt>
      <trkpt lat="44.27803" lon="3.7171">
        <ele>704</ele>
        <time>2015-06-17T11:38:23Z</time>
      </trkpt>
      <trkpt lat="44.27805" lon="3.71718">
        <ele>705</ele>
        <time>2015-06-17T11:38:27Z</time>
      </trkpt>
      <trkpt lat="44.27804" lon="3.7174">
        <ele>705</ele>
        <time>2015-06-17T11:38:40Z</time>
      </trkpt>
      <trkpt lat="44.27803" lon="3.71748">
        <ele>705</ele>
        <time>2015-06-17T11:38:44Z</time>
      </trkpt>
      <trkpt lat="44.27804" lon="3.71757">
        <ele>706</ele>
        <time>2015-06-17T11:38:47Z</time>
      </trkpt>
      <trkpt lat="44.27802" lon="3.71763">
        <ele>706</ele>
        <time>2015-06-17T11:38:50Z</time>
      </trkpt>
      <trkpt lat="44.27799" lon="3.71801">
        <ele>705</ele>
        <time>2015-06-17T11:39:14Z</time>
      </trkpt>
      <trkpt lat="44.27799" lon="3.71808">
        <ele>705</ele>
        <time>2015-06-17T11:39:19Z</time>
      </trkpt>
      <trkpt lat="44.27802" lon="3.71813">
        <ele>705</ele>
        <time>2015-06-17T11:39:24Z</time>
      </trkpt>
      <trkpt lat="44.27802" lon="3.71821">
        <ele>705</ele>
        <time>2015-06-17T11:39:27Z</time>
      </trkpt>
      <trkpt lat="44.27797" lon="3.71833">
        <ele>704</ele>
        <time>2015-06-17T11:39:34Z</time>
      </trkpt>
      <trkpt lat="44.27797" lon="3.71841">
        <ele>704</ele>
        <time>2015-06-17T11:39:38Z</time>
      </trkpt>
      <trkpt lat="44.27797" lon="3.71848">
        <ele>704</ele>
        <time>2015-06-17T11:39:42Z</time>
      </trkpt>
      <trkpt lat="44.278" lon="3.71854">
        <ele>704</ele>
        <time>2015-06-17T11:39:46Z</time>
      </trkpt>
      <trkpt lat="44.27802" lon="3.7186">
        <ele>704</ele>
        <time>2015-06-17T11:39:49Z</time>
      </trkpt>
      <trkpt lat="44.27803" lon="3.71867">
        <ele>704</ele>
        <time>2015-06-17T11:39:53Z</time>
      </trkpt>
      <trkpt lat="44.278" lon="3.71873">
        <ele>704</ele>
        <time>2015-06-17T11:39:58Z</time>
      </trkpt>
      <trkpt lat="44.27799" lon="3.71879">
        <ele>703</ele>
        <time>2015-06-17T11:40:03Z</time>
      </trkpt>
      <trkpt lat="44.27794" lon="3.71884">
        <ele>703</ele>
        <time>2015-06-17T11:40:12Z</time>
      </trkpt>
      <trkpt lat="44.27793" lon="3.71892">
        <ele>703</ele>
        <time>2015-06-17T11:40:15Z</time>
      </trkpt>
      <trkpt lat="44.2779" lon="3.71898">
        <ele>702</ele>
        <time>2015-06-17T11:40:19Z</time>
      </trkpt>
      <trkpt lat="44.27791" lon="3.71912">
        <ele>702</ele>
        <time>2015-06-17T11:40:25Z</time>
      </trkpt>
      <trkpt lat="44.27793" lon="3.7192">
        <ele>701</ele>
        <time>2015-06-17T11:40:29Z</time>
      </trkpt>
      <trkpt lat="44.27793" lon="3.71928">
        <ele>701</ele>
        <time>2015-06-17T11:40:34Z</time>
      </trkpt>
      <trkpt lat="44.27792" lon="3.71935">
        <ele>701</ele>
        <time>2015-06-17T11:40:38Z</time>
      </trkpt>
      <trkpt lat="44.27793" lon="3.71947">
        <ele>701</ele>
        <time>2015-06-17T11:40:45Z</time>
      </trkpt>
      <trkpt lat="44.27791" lon="3.71956">
        <ele>700</ele>
        <time>2015-06-17T11:40:48Z</time>
      </trkpt>
      <trkpt lat="44.27793" lon="3.71969">
        <ele>700</ele>
        <time>2015-06-17T11:40:57Z</time>
      </trkpt>
      <trkpt lat="44.27791" lon="3.71988">
        <ele>700</ele>
        <time>2015-06-17T11:41:14Z</time>
      </trkpt>
      <trkpt lat="44.27791" lon="3.71995">
        <ele>700</ele>
        <time>2015-06-17T11:41:18Z</time>
      </trkpt>
      <trkpt lat="44.27788" lon="3.72017">
        <ele>698</ele>
        <time>2015-06-17T11:41:29Z</time>
      </trkpt>
      <trkpt lat="44.27786" lon="3.72023">
        <ele>698</ele>
        <time>2015-06-17T11:41:33Z</time>
      </trkpt>
      <trkpt lat="44.27787" lon="3.72031">
        <ele>698</ele>
        <time>2015-06-17T11:41:39Z</time>
      </trkpt>
      <trkpt lat="44.27786" lon="3.72038">
        <ele>698</ele>
        <time>2015-06-17T11:41:42Z</time>
      </trkpt>
      <trkpt lat="44.27789" lon="3.72044">
        <ele>698</ele>
        <time>2015-06-17T11:41:46Z</time>
      </trkpt>
      <trkpt lat="44.27787" lon="3.72059">
        <ele>697</ele>
        <time>2015-06-17T11:41:52Z</time>
      </trkpt>
      <trkpt lat="44.27792" lon="3.72089">
        <ele>697</ele>
        <time>2015-06-17T11:42:05Z</time>
      </trkpt>
      <trkpt lat="44.27792" lon="3.72096">
        <ele>697</ele>
        <time>2015-06-17T11:42:09Z</time>
      </trkpt>
      <trkpt lat="44.27797" lon="3.72098">
        <ele>698</ele>
        <time>2015-06-17T11:42:18Z</time>
      </trkpt>
      <trkpt lat="44.27799" lon="3.72105">
        <ele>698</ele>
        <time>2015-06-17T11:42:41Z</time>
      </trkpt>
      <trkpt lat="44.27799" lon="3.72112">
        <ele>698</ele>
        <time>2015-06-17T11:42:44Z</time>
      </trkpt>
      <trkpt lat="44.27799" lon="3.72118">
        <ele>698</ele>
        <time>2015-06-17T11:42:47Z</time>
      </trkpt>
      <trkpt lat="44.27802" lon="3.72132">
        <ele>698</ele>
        <time>2015-06-17T11:42:54Z</time>
      </trkpt>
      <trkpt lat="44.27799" lon="3.72162">
        <ele>698</ele>
        <time>2015-06-17T11:43:04Z</time>
      </trkpt>
      <trkpt lat="44.278" lon="3.7217">
        <ele>698</ele>
        <time>2015-06-17T11:43:07Z</time>
      </trkpt>
      <trkpt lat="44.27806" lon="3.72176">
        <ele>699</ele>
        <time>2015-06-17T11:43:10Z</time>
      </trkpt>
      <trkpt lat="44.27811" lon="3.72181">
        <ele>699</ele>
        <time>2015-06-17T11:43:13Z</time>
      </trkpt>
      <trkpt lat="44.27814" lon="3.72186">
        <ele>699</ele>
        <time>2015-06-17T11:43:16Z</time>
      </trkpt>
      <trkpt lat="44.27815" lon="3.72193">
        <ele>699</ele>
        <time>2015-06-17T11:43:18Z</time>
      </trkpt>
      <trkpt lat="44.27815" lon="3.72199">
        <ele>699</ele>
        <time>2015-06-17T11:43:21Z</time>
      </trkpt>
      <trkpt lat="44.27817" lon="3.72207">
        <ele>699</ele>
        <time>2015-06-17T11:43:25Z</time>
      </trkpt>
      <trkpt lat="44.27821" lon="3.72214">
        <ele>699</ele>
        <time>2015-06-17T11:43:28Z</time>
      </trkpt>
      <trkpt lat="44.27822" lon="3.72222">
        <ele>700</ele>
        <time>2015-06-17T11:43:32Z</time>
      </trkpt>
      <trkpt lat="44.27819" lon="3.72229">
        <ele>700</ele>
        <time>2015-06-17T11:43:35Z</time>
      </trkpt>
      <trkpt lat="44.27819" lon="3.72235">
        <ele>700</ele>
        <time>2015-06-17T11:43:39Z</time>
      </trkpt>
      <trkpt lat="44.2782" lon="3.72242">
        <ele>701</ele>
        <time>2015-06-17T11:43:44Z</time>
      </trkpt>
      <trkpt lat="44.27819" lon="3.72249">
        <ele>701</ele>
        <time>2015-06-17T11:43:48Z</time>
      </trkpt>
      <trkpt lat="44.27816" lon="3.72255">
        <ele>702</ele>
        <time>2015-06-17T11:43:53Z</time>
      </trkpt>
      <trkpt lat="44.27815" lon="3.72261">
        <ele>701</ele>
        <time>2015-06-17T11:43:57Z</time>
      </trkpt>
      <trkpt lat="44.27811" lon="3.72273">
        <ele>701</ele>
        <time>2015-06-17T11:44:08Z</time>
      </trkpt>
      <trkpt lat="44.2781" lon="3.7228">
        <ele>701</ele>
        <time>2015-06-17T11:44:13Z</time>
      </trkpt>
      <trkpt lat="44.27807" lon="3.72286">
        <ele>701</ele>
        <time>2015-06-17T11:44:17Z</time>
      </trkpt>
      <trkpt lat="44.27806" lon="3.72294">
        <ele>701</ele>
        <time>2015-06-17T11:44:24Z</time>
      </trkpt>
      <trkpt lat="44.27802" lon="3.72301">
        <ele>701</ele>
        <time>2015-06-17T11:44:27Z</time>
      </trkpt>
      <trkpt lat="44.27797" lon="3.72306">
        <ele>701</ele>
        <time>2015-06-17T11:44:31Z</time>
      </trkpt>
      <trkpt lat="44.27795" lon="3.72312">
        <ele>700</ele>
        <time>2015-06-17T11:44:34Z</time>
      </trkpt>
      <trkpt lat="44.27793" lon="3.72341">
        <ele>706</ele>
        <time>2015-06-17T11:44:54Z</time>
      </trkpt>
      <trkpt lat="44.2779" lon="3.72356">
        <ele>707</ele>
        <time>2015-06-17T11:45:02Z</time>
      </trkpt>
      <trkpt lat="44.27784" lon="3.72366">
        <ele>707</ele>
        <time>2015-06-17T11:45:08Z</time>
      </trkpt>
      <trkpt lat="44.2778" lon="3.72371">
        <ele>707</ele>
        <time>2015-06-17T11:45:12Z</time>
      </trkpt>
      <trkpt lat="44.27776" lon="3.72382">
        <ele>707</ele>
        <time>2015-06-17T11:45:23Z</time>
      </trkpt>
      <trkpt lat="44.27773" lon="3.72386">
        <ele>707</ele>
        <time>2015-06-17T11:45:30Z</time>
      </trkpt>
      <trkpt lat="44.2777" lon="3.72392">
        <ele>707</ele>
        <time>2015-06-17T11:45:38Z</time>
      </trkpt>
      <trkpt lat="44.27766" lon="3.72395">
        <ele>706</ele>
        <time>2015-06-17T11:45:56Z</time>
      </trkpt>
      <trkpt lat="44.2776" lon="3.72396">
        <ele>706</ele>
        <time>2015-06-17T11:45:58Z</time>
      </trkpt>
      <trkpt lat="44.2775" lon="3.72405">
        <ele>704</ele>
        <time>2015-06-17T11:46:02Z</time>
      </trkpt>
      <trkpt lat="44.27745" lon="3.72408">
        <ele>700</ele>
        <time>2015-06-17T11:46:04Z</time>
      </trkpt>
      <trkpt lat="44.27732" lon="3.72422">
        <ele>705</ele>
        <time>2015-06-17T11:46:12Z</time>
      </trkpt>
      <trkpt lat="44.27729" lon="3.7243">
        <ele>705</ele>
        <time>2015-06-17T11:46:15Z</time>
      </trkpt>
      <trkpt lat="44.27725" lon="3.72436">
        <ele>706</ele>
        <time>2015-06-17T11:46:18Z</time>
      </trkpt>
      <trkpt lat="44.2772" lon="3.72439">
        <ele>706</ele>
        <time>2015-06-17T11:46:21Z</time>
      </trkpt>
      <trkpt lat="44.27715" lon="3.7244">
        <ele>706</ele>
        <time>2015-06-17T11:46:24Z</time>
      </trkpt>
      <trkpt lat="44.27712" lon="3.72446">
        <ele>706</ele>
        <time>2015-06-17T11:46:27Z</time>
      </trkpt>
      <trkpt lat="44.27696" lon="3.72464">
        <ele>706</ele>
        <time>2015-06-17T11:46:41Z</time>
      </trkpt>
      <trkpt lat="44.27691" lon="3.72466">
        <ele>706</ele>
        <time>2015-06-17T11:46:45Z</time>
      </trkpt>
      <trkpt lat="44.27686" lon="3.72464">
        <ele>705</ele>
        <time>2015-06-17T11:46:49Z</time>
      </trkpt>
      <trkpt lat="44.27679" lon="3.72469">
        <ele>705</ele>
        <time>2015-06-17T11:46:58Z</time>
      </trkpt>
      <trkpt lat="44.27671" lon="3.72478">
        <ele>705</ele>
        <time>2015-06-17T11:47:04Z</time>
      </trkpt>
      <trkpt lat="44.27668" lon="3.72483">
        <ele>705</ele>
        <time>2015-06-17T11:47:07Z</time>
      </trkpt>
      <trkpt lat="44.27664" lon="3.72487">
        <ele>701</ele>
        <time>2015-06-17T11:47:10Z</time>
      </trkpt>
      <trkpt lat="44.27659" lon="3.72489">
        <ele>701</ele>
        <time>2015-06-17T11:47:14Z</time>
      </trkpt>
      <trkpt lat="44.27654" lon="3.7249">
        <ele>701</ele>
        <time>2015-06-17T11:47:16Z</time>
      </trkpt>
      <trkpt lat="44.27647" lon="3.72491">
        <ele>700</ele>
        <time>2015-06-17T11:47:18Z</time>
      </trkpt>
      <trkpt lat="44.27643" lon="3.72497">
        <ele>700</ele>
        <time>2015-06-17T11:47:20Z</time>
      </trkpt>
      <trkpt lat="44.27642" lon="3.72503">
        <ele>704</ele>
        <time>2015-06-17T11:47:27Z</time>
      </trkpt>
      <trkpt lat="44.27638" lon="3.72504">
        <ele>704</ele>
        <time>2015-06-17T11:47:30Z</time>
      </trkpt>
      <trkpt lat="44.27632" lon="3.72503">
        <ele>704</ele>
        <time>2015-06-17T11:47:34Z</time>
      </trkpt>
      <trkpt lat="44.27628" lon="3.72506">
        <ele>703</ele>
        <time>2015-06-17T11:47:41Z</time>
      </trkpt>
      <trkpt lat="44.27623" lon="3.72509">
        <ele>703</ele>
        <time>2015-06-17T11:47:50Z</time>
      </trkpt>
      <trkpt lat="44.27619" lon="3.72513">
        <ele>703</ele>
        <time>2015-06-17T11:47:56Z</time>
      </trkpt>
      <trkpt lat="44.27611" lon="3.72525">
        <ele>703</ele>
        <time>2015-06-17T11:48:02Z</time>
      </trkpt>
      <trkpt lat="44.27608" lon="3.7253">
        <ele>703</ele>
        <time>2015-06-17T11:48:06Z</time>
      </trkpt>
      <trkpt lat="44.27612" lon="3.72536">
        <ele>704</ele>
        <time>2015-06-17T11:48:14Z</time>
      </trkpt>
      <trkpt lat="44.27617" lon="3.72538">
        <ele>705</ele>
        <time>2015-06-17T11:48:18Z</time>
      </trkpt>
      <trkpt lat="44.27612" lon="3.72543">
        <ele>704</ele>
        <time>2015-06-17T11:48:28Z</time>
      </trkpt>
      <trkpt lat="44.27609" lon="3.7255">
        <ele>705</ele>
        <time>2015-06-17T11:48:31Z</time>
      </trkpt>
      <trkpt lat="44.27603" lon="3.72556">
        <ele>704</ele>
        <time>2015-06-17T11:48:35Z</time>
      </trkpt>
      <trkpt lat="44.27598" lon="3.72559">
        <ele>704</ele>
        <time>2015-06-17T11:48:38Z</time>
      </trkpt>
      <trkpt lat="44.27594" lon="3.72559">
        <ele>704</ele>
        <time>2015-06-17T11:48:42Z</time>
      </trkpt>
      <trkpt lat="44.27589" lon="3.72561">
        <ele>703</ele>
        <time>2015-06-17T11:48:46Z</time>
      </trkpt>
      <trkpt lat="44.27581" lon="3.72571">
        <ele>700</ele>
        <time>2015-06-17T11:48:55Z</time>
      </trkpt>
      <trkpt lat="44.27576" lon="3.72574">
        <ele>700</ele>
        <time>2015-06-17T11:49:00Z</time>
      </trkpt>
      <trkpt lat="44.27568" lon="3.72582">
        <ele>700</ele>
        <time>2015-06-17T11:49:16Z</time>
      </trkpt>
      <trkpt lat="44.27564" lon="3.72587">
        <ele>703</ele>
        <time>2015-06-17T11:49:20Z</time>
      </trkpt>
      <trkpt lat="44.27553" lon="3.72608">
        <ele>704</ele>
        <time>2015-06-17T11:49:34Z</time>
      </trkpt>
      <trkpt lat="44.27548" lon="3.72622">
        <ele>705</ele>
        <time>2015-06-17T11:49:43Z</time>
      </trkpt>
      <trkpt lat="44.27546" lon="3.7263">
        <ele>706</ele>
        <time>2015-06-17T11:49:45Z</time>
      </trkpt>
      <trkpt lat="44.27539" lon="3.72641">
        <ele>706</ele>
        <time>2015-06-17T11:49:56Z</time>
      </trkpt>
      <trkpt lat="44.27536" lon="3.7265">
        <ele>706</ele>
        <time>2015-06-17T11:49:59Z</time>
      </trkpt>
      <trkpt lat="44.27535" lon="3.72657">
        <ele>706</ele>
        <time>2015-06-17T11:50:02Z</time>
      </trkpt>
      <trkpt lat="44.2753" lon="3.72671">
        <ele>713</ele>
        <time>2015-06-17T11:50:11Z</time>
      </trkpt>
      <trkpt lat="44.2753" lon="3.72677">
        <ele>713</ele>
        <time>2015-06-17T11:50:14Z</time>
      </trkpt>
      <trkpt lat="44.27526" lon="3.72681">
        <ele>713</ele>
        <time>2015-06-17T11:50:20Z</time>
      </trkpt>
      <trkpt lat="44.27519" lon="3.72684">
        <ele>711</ele>
        <time>2015-06-17T11:50:30Z</time>
      </trkpt>
      <trkpt lat="44.27518" lon="3.72692">
        <ele>712</ele>
        <time>2015-06-17T11:50:35Z</time>
      </trkpt>
      <trkpt lat="44.27514" lon="3.72698">
        <ele>713</ele>
        <time>2015-06-17T11:50:41Z</time>
      </trkpt>
      <trkpt lat="44.27509" lon="3.72713">
        <ele>714</ele>
        <time>2015-06-17T11:50:48Z</time>
      </trkpt>
      <trkpt lat="44.27506" lon="3.72719">
        <ele>714</ele>
        <time>2015-06-17T11:50:50Z</time>
      </trkpt>
      <trkpt lat="44.27502" lon="3.72733">
        <ele>713</ele>
        <time>2015-06-17T11:50:56Z</time>
      </trkpt>
      <trkpt lat="44.27498" lon="3.72737">
        <ele>708</ele>
        <time>2015-06-17T11:51:01Z</time>
      </trkpt>
      <trkpt lat="44.27495" lon="3.72752">
        <ele>709</ele>
        <time>2015-06-17T11:51:08Z</time>
      </trkpt>
      <trkpt lat="44.27493" lon="3.72759">
        <ele>709</ele>
        <time>2015-06-17T11:51:13Z</time>
      </trkpt>
      <trkpt lat="44.27492" lon="3.72766">
        <ele>709</ele>
        <time>2015-06-17T11:51:16Z</time>
      </trkpt>
      <trkpt lat="44.27494" lon="3.72772">
        <ele>709</ele>
        <time>2015-06-17T11:51:22Z</time>
      </trkpt>
      <trkpt lat="44.27495" lon="3.72779">
        <ele>709</ele>
        <time>2015-06-17T11:51:26Z</time>
      </trkpt>
      <trkpt lat="44.27496" lon="3.72785">
        <ele>709</ele>
        <time>2015-06-17T11:51:30Z</time>
      </trkpt>
      <trkpt lat="44.27494" lon="3.72799">
        <ele>710</ele>
        <time>2015-06-17T11:51:37Z</time>
      </trkpt>
      <trkpt lat="44.27494" lon="3.72807">
        <ele>710</ele>
        <time>2015-06-17T11:51:41Z</time>
      </trkpt>
      <trkpt lat="44.27491" lon="3.72812">
        <ele>710</ele>
        <time>2015-06-17T11:51:45Z</time>
      </trkpt>
      <trkpt lat="44.27485" lon="3.72815">
        <ele>710</ele>
        <time>2015-06-17T11:51:49Z</time>
      </trkpt>
      <trkpt lat="44.27486" lon="3.7283">
        <ele>711</ele>
        <time>2015-06-17T11:51:57Z</time>
      </trkpt>
      <trkpt lat="44.27484" lon="3.72836">
        <ele>710</ele>
        <time>2015-06-17T11:52:00Z</time>
      </trkpt>
      <trkpt lat="44.27485" lon="3.72851">
        <ele>710</ele>
        <time>2015-06-17T11:52:07Z</time>
      </trkpt>
      <trkpt lat="44.27483" lon="3.72866">
        <ele>709</ele>
        <time>2015-06-17T11:52:17Z</time>
      </trkpt>
      <trkpt lat="44.27481" lon="3.72874">
        <ele>709</ele>
        <time>2015-06-17T11:52:21Z</time>
      </trkpt>
      <trkpt lat="44.27483" lon="3.72881">
        <ele>709</ele>
        <time>2015-06-17T11:52:26Z</time>
      </trkpt>
      <trkpt lat="44.27467" lon="3.72923">
        <ele>711</ele>
        <time>2015-06-17T11:52:47Z</time>
      </trkpt>
      <trkpt lat="44.27469" lon="3.72929">
        <ele>711</ele>
        <time>2015-06-17T11:52:56Z</time>
      </trkpt>
      <trkpt lat="44.27466" lon="3.72936">
        <ele>711</ele>
        <time>2015-06-17T11:53:01Z</time>
      </trkpt>
      <trkpt lat="44.27462" lon="3.72941">
        <ele>711</ele>
        <time>2015-06-17T11:53:08Z</time>
      </trkpt>
      <trkpt lat="44.27459" lon="3.72949">
        <ele>711</ele>
        <time>2015-06-17T11:53:11Z</time>
      </trkpt>
      <trkpt lat="44.27456" lon="3.72956">
        <ele>711</ele>
        <time>2015-06-17T11:53:13Z</time>
      </trkpt>
      <trkpt lat="44.27453" lon="3.72961">
        <ele>711</ele>
        <time>2015-06-17T11:53:16Z</time>
      </trkpt>
      <trkpt lat="44.27448" lon="3.7296">
        <ele>711</ele>
        <time>2015-06-17T11:53:21Z</time>
      </trkpt>
      <trkpt lat="44.27444" lon="3.72962">
        <ele>710</ele>
        <time>2015-06-17T11:53:26Z</time>
      </trkpt>
      <trkpt lat="44.2744" lon="3.72975">
        <ele>711</ele>
        <time>2015-06-17T11:53:33Z</time>
      </trkpt>
      <trkpt lat="44.27436" lon="3.7298">
        <ele>711</ele>
        <time>2015-06-17T11:53:38Z</time>
      </trkpt>
      <trkpt lat="44.27431" lon="3.72983">
        <ele>711</ele>
        <time>2015-06-17T11:53:44Z</time>
      </trkpt>
      <trkpt lat="44.27427" lon="3.72979">
        <ele>711</ele>
        <time>2015-06-17T11:53:48Z</time>
      </trkpt>
      <trkpt lat="44.2742" lon="3.72984">
        <ele>711</ele>
        <time>2015-06-17T11:53:55Z</time>
      </trkpt>
      <trkpt lat="44.27414" lon="3.72986">
        <ele>708</ele>
        <time>2015-06-17T11:53:59Z</time>
      </trkpt>
      <trkpt lat="44.27409" lon="3.72983">
        <ele>707</ele>
        <time>2015-06-17T11:54:04Z</time>
      </trkpt>
      <trkpt lat="44.27404" lon="3.72984">
        <ele>707</ele>
        <time>2015-06-17T11:54:07Z</time>
      </trkpt>
      <trkpt lat="44.27394" lon="3.72983">
        <ele>706</ele>
        <time>2015-06-17T11:54:13Z</time>
      </trkpt>
      <trkpt lat="44.2739" lon="3.7298">
        <ele>705</ele>
        <time>2015-06-17T11:54:16Z</time>
      </trkpt>
      <trkpt lat="44.27386" lon="3.72978">
        <ele>705</ele>
        <time>2015-06-17T11:54:18Z</time>
      </trkpt>
      <trkpt lat="44.27389" lon="3.72983">
        <ele>705</ele>
        <time>2015-06-17T11:54:25Z</time>
      </trkpt>
      <trkpt lat="44.2739" lon="3.72983">
        <ele>706</ele>
        <time>2015-06-17T11:56:48Z</time>
      </trkpt>
      <trkpt lat="44.27382" lon="3.72983">
        <ele>705</ele>
        <time>2015-06-17T11:59:28Z</time>
      </trkpt>
      <trkpt lat="44.27376" lon="3.72985">
        <ele>705</ele>
        <time>2015-06-17T11:59:30Z</time>
      </trkpt>
      <trkpt lat="44.2737" lon="3.72984">
        <ele>705</ele>
        <time>2015-06-17T11:59:32Z</time>
      </trkpt>
      <trkpt lat="44.27361" lon="3.72978">
        <ele>704</ele>
        <time>2015-06-17T11:59:36Z</time>
      </trkpt>
      <trkpt lat="44.27356" lon="3.72976">
        <ele>704</ele>
        <time>2015-06-17T11:59:38Z</time>
      </trkpt>
      <trkpt lat="44.27351" lon="3.72975">
        <ele>704</ele>
        <time>2015-06-17T11:59:40Z</time>
      </trkpt>
      <trkpt lat="44.27344" lon="3.72975">
        <ele>704</ele>
        <time>2015-06-17T11:59:43Z</time>
      </trkpt>
      <trkpt lat="44.27332" lon="3.72973">
        <ele>704</ele>
        <time>2015-06-17T11:59:49Z</time>
      </trkpt>
      <trkpt lat="44.27327" lon="3.72973">
        <ele>704</ele>
        <time>2015-06-17T11:59:53Z</time>
      </trkpt>
      <trkpt lat="44.27322" lon="3.72973">
        <ele>704</ele>
        <time>2015-06-17T11:59:57Z</time>
      </trkpt>
      <trkpt lat="44.27317" lon="3.72971">
        <ele>704</ele>
        <time>2015-06-17T12:00:01Z</time>
      </trkpt>
      <trkpt lat="44.27313" lon="3.72965">
        <ele>704</ele>
        <time>2015-06-17T12:00:05Z</time>
      </trkpt>
      <trkpt lat="44.27307" lon="3.72963">
        <ele>704</ele>
        <time>2015-06-17T12:00:08Z</time>
      </trkpt>
      <trkpt lat="44.27302" lon="3.72961">
        <ele>704</ele>
        <time>2015-06-17T12:00:12Z</time>
      </trkpt>
      <trkpt lat="44.27297" lon="3.7296">
        <ele>704</ele>
        <time>2015-06-17T12:00:16Z</time>
      </trkpt>
      <trkpt lat="44.27287" lon="3.72962">
        <ele>704</ele>
        <time>2015-06-17T12:00:24Z</time>
      </trkpt>
      <trkpt lat="44.27281" lon="3.7296">
        <ele>704</ele>
        <time>2015-06-17T12:00:29Z</time>
      </trkpt>
      <trkpt lat="44.27271" lon="3.72959">
        <ele>704</ele>
        <time>2015-06-17T12:00:37Z</time>
      </trkpt>
      <trkpt lat="44.27266" lon="3.72962">
        <ele>704</ele>
        <time>2015-06-17T12:00:41Z</time>
      </trkpt>
      <trkpt lat="44.27261" lon="3.72965">
        <ele>704</ele>
        <time>2015-06-17T12:00:46Z</time>
      </trkpt>
      <trkpt lat="44.27258" lon="3.72969">
        <ele>704</ele>
        <time>2015-06-17T12:00:51Z</time>
      </trkpt>
      <trkpt lat="44.27254" lon="3.72973">
        <ele>704</ele>
        <time>2015-06-17T12:00:57Z</time>
      </trkpt>
      <trkpt lat="44.27249" lon="3.72973">
        <ele>704</ele>
        <time>2015-06-17T12:01:03Z</time>
      </trkpt>
      <trkpt lat="44.27232" lon="3.72976">
        <ele>703</ele>
        <time>2015-06-17T12:01:12Z</time>
      </trkpt>
      <trkpt lat="44.27227" lon="3.72979">
        <ele>703</ele>
        <time>2015-06-17T12:01:17Z</time>
      </trkpt>
      <trkpt lat="44.27224" lon="3.72984">
        <ele>703</ele>
        <time>2015-06-17T12:01:20Z</time>
      </trkpt>
      <trkpt lat="44.27218" lon="3.72985">
        <ele>703</ele>
        <time>2015-06-17T12:01:23Z</time>
      </trkpt>
      <trkpt lat="44.27213" lon="3.72988">
        <ele>703</ele>
        <time>2015-06-17T12:01:26Z</time>
      </trkpt>
      <trkpt lat="44.27209" lon="3.72991">
        <ele>702</ele>
        <time>2015-06-17T12:01:29Z</time>
      </trkpt>
      <trkpt lat="44.27204" lon="3.72993">
        <ele>702</ele>
        <time>2015-06-17T12:01:33Z</time>
      </trkpt>
      <trkpt lat="44.27198" lon="3.72995">
        <ele>702</ele>
        <time>2015-06-17T12:01:37Z</time>
      </trkpt>
      <trkpt lat="44.27194" lon="3.72999">
        <ele>701</ele>
        <time>2015-06-17T12:01:41Z</time>
      </trkpt>
      <trkpt lat="44.2719" lon="3.73001">
        <ele>704</ele>
        <time>2015-06-17T12:01:47Z</time>
      </trkpt>
      <trkpt lat="44.27181" lon="3.73008">
        <ele>703</ele>
        <time>2015-06-17T12:01:54Z</time>
      </trkpt>
      <trkpt lat="44.27177" lon="3.73012">
        <ele>703</ele>
        <time>2015-06-17T12:01:57Z</time>
      </trkpt>
      <trkpt lat="44.27172" lon="3.73016">
        <ele>703</ele>
        <time>2015-06-17T12:02:00Z</time>
      </trkpt>
      <trkpt lat="44.27167" lon="3.73018">
        <ele>703</ele>
        <time>2015-06-17T12:02:02Z</time>
      </trkpt>
      <trkpt lat="44.27162" lon="3.7302">
        <ele>701</ele>
        <time>2015-06-17T12:02:04Z</time>
      </trkpt>
      <trkpt lat="44.27155" lon="3.73028">
        <ele>702</ele>
        <time>2015-06-17T12:02:09Z</time>
      </trkpt>
      <trkpt lat="44.27137" lon="3.73058">
        <ele>703</ele>
        <time>2015-06-17T12:02:34Z</time>
      </trkpt>
      <trkpt lat="44.27135" lon="3.73063">
        <ele>703</ele>
        <time>2015-06-17T12:02:42Z</time>
      </trkpt>
      <trkpt lat="44.27139" lon="3.73068">
        <ele>703</ele>
        <time>2015-06-17T12:02:48Z</time>
      </trkpt>
      <trkpt lat="44.27143" lon="3.73071">
        <ele>704</ele>
        <time>2015-06-17T12:02:53Z</time>
      </trkpt>
      <trkpt lat="44.27147" lon="3.73069">
        <ele>704</ele>
        <time>2015-06-17T12:03:22Z</time>
      </trkpt>
      <trkpt lat="44.27147" lon="3.73069">
        <ele>704</ele>
        <time>2015-06-17T12:03:32Z</time>
      </trkpt>
      <trkpt lat="44.2715" lon="3.73062">
        <ele>704</ele>
        <time>2015-06-17T12:03:35Z</time>
      </trkpt>
      <trkpt lat="44.27154" lon="3.73055">
        <ele>703</ele>
        <time>2015-06-17T12:03:38Z</time>
      </trkpt>
      <trkpt lat="44.2717" lon="3.73036">
        <ele>706</ele>
        <time>2015-06-17T12:03:55Z</time>
      </trkpt>
      <trkpt lat="44.27175" lon="3.73032">
        <ele>706</ele>
        <time>2015-06-17T12:03:59Z</time>
      </trkpt>
      <trkpt lat="44.27179" lon="3.73034">
        <ele>707</ele>
        <time>2015-06-17T12:04:05Z</time>
      </trkpt>
      <trkpt lat="44.2718" lon="3.73035">
        <ele>707</ele>
        <time>2015-06-17T12:04:41Z</time>
      </trkpt>
      <trkpt lat="44.27179" lon="3.73034">
        <ele>707</ele>
        <time>2015-06-17T12:32:40Z</time>
      </trkpt>
      <trkpt lat="44.27164" lon="3.73061">
        <ele>704</ele>
        <time>2015-06-17T12:44:07Z</time>
      </trkpt>
      <trkpt lat="44.2716" lon="3.73066">
        <ele>704</ele>
        <time>2015-06-17T12:44:11Z</time>
      </trkpt>
      <trkpt lat="44.27157" lon="3.7307">
        <ele>705</ele>
        <time>2015-06-17T12:44:15Z</time>
      </trkpt>
      <trkpt lat="44.27153" lon="3.73074">
        <ele>705</ele>
        <time>2015-06-17T12:44:19Z</time>
      </trkpt>
      <trkpt lat="44.27148" lon="3.73074">
        <ele>704</ele>
        <time>2015-06-17T12:44:23Z</time>
      </trkpt>
      <trkpt lat="44.27143" lon="3.73071">
        <ele>704</ele>
        <time>2015-06-17T12:44:26Z</time>
      </trkpt>
      <trkpt lat="44.27138" lon="3.73071">
        <ele>704</ele>
        <time>2015-06-17T12:44:29Z</time>
      </trkpt>
      <trkpt lat="44.27132" lon="3.73072">
        <ele>703</ele>
        <time>2015-06-17T12:44:33Z</time>
      </trkpt>
      <trkpt lat="44.27128" lon="3.73074">
        <ele>703</ele>
        <time>2015-06-17T12:44:38Z</time>
      </trkpt>
      <trkpt lat="44.27124" lon="3.7306">
        <ele>703</ele>
        <time>2015-06-17T12:44:53Z</time>
      </trkpt>
      <trkpt lat="44.27122" lon="3.73054">
        <ele>703</ele>
        <time>2015-06-17T12:44:57Z</time>
      </trkpt>
      <trkpt lat="44.27111" lon="3.73041">
        <ele>703</ele>
        <time>2015-06-17T12:45:08Z</time>
      </trkpt>
      <trkpt lat="44.27108" lon="3.73036">
        <ele>704</ele>
        <time>2015-06-17T12:45:11Z</time>
      </trkpt>
      <trkpt lat="44.27104" lon="3.73032">
        <ele>704</ele>
        <time>2015-06-17T12:45:15Z</time>
      </trkpt>
      <trkpt lat="44.27099" lon="3.73029">
        <ele>704</ele>
        <time>2015-06-17T12:45:18Z</time>
      </trkpt>
      <trkpt lat="44.27098" lon="3.73023">
        <ele>705</ele>
        <time>2015-06-17T12:45:34Z</time>
      </trkpt>
      <trkpt lat="44.27094" lon="3.7302">
        <ele>705</ele>
        <time>2015-06-17T12:45:41Z</time>
      </trkpt>
      <trkpt lat="44.27091" lon="3.73017">
        <ele>706</ele>
        <time>2015-06-17T12:46:01Z</time>
      </trkpt>
      <trkpt lat="44.27089" lon="3.73018">
        <ele>706</ele>
        <time>2015-06-17T12:46:08Z</time>
      </trkpt>
      <trkpt lat="44.27083" lon="3.73018">
        <ele>711</ele>
        <time>2015-06-17T12:46:11Z</time>
      </trkpt>
      <trkpt lat="44.2707" lon="3.73019">
        <ele>711</ele>
        <time>2015-06-17T12:46:16Z</time>
      </trkpt>
      <trkpt lat="44.27065" lon="3.7302">
        <ele>712</ele>
        <time>2015-06-17T12:46:18Z</time>
      </trkpt>
      <trkpt lat="44.27053" lon="3.73026">
        <ele>712</ele>
        <time>2015-06-17T12:46:24Z</time>
      </trkpt>
      <trkpt lat="44.27047" lon="3.73027">
        <ele>713</ele>
        <time>2015-06-17T12:46:30Z</time>
      </trkpt>
      <trkpt lat="44.27044" lon="3.73033">
        <ele>713</ele>
        <time>2015-06-17T12:46:37Z</time>
      </trkpt>
      <trkpt lat="44.27037" lon="3.73052">
        <ele>711</ele>
        <time>2015-06-17T12:46:56Z</time>
      </trkpt>
      <trkpt lat="44.27034" lon="3.73058">
        <ele>710</ele>
        <time>2015-06-17T12:46:59Z</time>
      </trkpt>
      <trkpt lat="44.27031" lon="3.73063">
        <ele>710</ele>
        <time>2015-06-17T12:47:04Z</time>
      </trkpt>
      <trkpt lat="44.27028" lon="3.73069">
        <ele>709</ele>
        <time>2015-06-17T12:47:10Z</time>
      </trkpt>
      <trkpt lat="44.27025" lon="3.73074">
        <ele>708</ele>
        <time>2015-06-17T12:47:15Z</time>
      </trkpt>
      <trkpt lat="44.27021" lon="3.73077">
        <ele>708</ele>
        <time>2015-06-17T12:47:20Z</time>
      </trkpt>
      <trkpt lat="44.27016" lon="3.73076">
        <ele>707</ele>
        <time>2015-06-17T12:47:29Z</time>
      </trkpt>
      <trkpt lat="44.27003" lon="3.73087">
        <ele>703</ele>
        <time>2015-06-17T12:47:45Z</time>
      </trkpt>
      <trkpt lat="44.26991" lon="3.7309">
        <ele>705</ele>
        <time>2015-06-17T12:47:56Z</time>
      </trkpt>
      <trkpt lat="44.26983" lon="3.73096">
        <ele>706</ele>
        <time>2015-06-17T12:48:00Z</time>
      </trkpt>
      <trkpt lat="44.26978" lon="3.73099">
        <ele>707</ele>
        <time>2015-06-17T12:48:03Z</time>
      </trkpt>
      <trkpt lat="44.26973" lon="3.73099">
        <ele>707</ele>
        <time>2015-06-17T12:48:06Z</time>
      </trkpt>
      <trkpt lat="44.26968" lon="3.73097">
        <ele>707</ele>
        <time>2015-06-17T12:48:10Z</time>
      </trkpt>
      <trkpt lat="44.26966" lon="3.73092">
        <ele>707</ele>
        <time>2015-06-17T12:48:15Z</time>
      </trkpt>
      <trkpt lat="44.26962" lon="3.73088">
        <ele>708</ele>
        <time>2015-06-17T12:48:18Z</time>
      </trkpt>
      <trkpt lat="44.26957" lon="3.73084">
        <ele>708</ele>
        <time>2015-06-17T12:48:21Z</time>
      </trkpt>
      <trkpt lat="44.26953" lon="3.73082">
        <ele>715</ele>
        <time>2015-06-17T12:48:24Z</time>
      </trkpt>
      <trkpt lat="44.26948" lon="3.7308">
        <ele>715</ele>
        <time>2015-06-17T12:48:28Z</time>
      </trkpt>
      <trkpt lat="44.26943" lon="3.73082">
        <ele>715</ele>
        <time>2015-06-17T12:48:31Z</time>
      </trkpt>
      <trkpt lat="44.26938" lon="3.73084">
        <ele>709</ele>
        <time>2015-06-17T12:48:34Z</time>
      </trkpt>
      <trkpt lat="44.26934" lon="3.73088">
        <ele>709</ele>
        <time>2015-06-17T12:48:36Z</time>
      </trkpt>
      <trkpt lat="44.26928" lon="3.73086">
        <ele>710</ele>
        <time>2015-06-17T12:48:41Z</time>
      </trkpt>
      <trkpt lat="44.26926" lon="3.7308">
        <ele>713</ele>
        <time>2015-06-17T12:48:45Z</time>
      </trkpt>
      <trkpt lat="44.26925" lon="3.73073">
        <ele>714</ele>
        <time>2015-06-17T12:48:49Z</time>
      </trkpt>
      <trkpt lat="44.26919" lon="3.73073">
        <ele>713</ele>
        <time>2015-06-17T12:48:54Z</time>
      </trkpt>
      <trkpt lat="44.26916" lon="3.73077">
        <ele>712</ele>
        <time>2015-06-17T12:49:00Z</time>
      </trkpt>
      <trkpt lat="44.26911" lon="3.73082">
        <ele>712</ele>
        <time>2015-06-17T12:49:03Z</time>
      </trkpt>
      <trkpt lat="44.26905" lon="3.73085">
        <ele>716</ele>
        <time>2015-06-17T12:49:06Z</time>
      </trkpt>
      <trkpt lat="44.26896" lon="3.73089">
        <ele>719</ele>
        <time>2015-06-17T12:49:13Z</time>
      </trkpt>
      <trkpt lat="44.26886" lon="3.73088">
        <ele>721</ele>
        <time>2015-06-17T12:49:24Z</time>
      </trkpt>
      <trkpt lat="44.26884" lon="3.73094">
        <ele>722</ele>
        <time>2015-06-17T12:49:39Z</time>
      </trkpt>
      <trkpt lat="44.26887" lon="3.73099">
        <ele>722</ele>
        <time>2015-06-17T12:49:44Z</time>
      </trkpt>
      <trkpt lat="44.26891" lon="3.73104">
        <ele>722</ele>
        <time>2015-06-17T12:49:54Z</time>
      </trkpt>
      <trkpt lat="44.26895" lon="3.73108">
        <ele>722</ele>
        <time>2015-06-17T12:50:02Z</time>
      </trkpt>
      <trkpt lat="44.26901" lon="3.7311">
        <ele>722</ele>
        <time>2015-06-17T12:50:08Z</time>
      </trkpt>
      <trkpt lat="44.26903" lon="3.73115">
        <ele>722</ele>
        <time>2015-06-17T12:50:12Z</time>
      </trkpt>
      <trkpt lat="44.2691" lon="3.73126">
        <ele>723</ele>
        <time>2015-06-17T12:50:22Z</time>
      </trkpt>
      <trkpt lat="44.26914" lon="3.7313">
        <ele>724</ele>
        <time>2015-06-17T12:50:27Z</time>
      </trkpt>
      <trkpt lat="44.26919" lon="3.73133">
        <ele>713</ele>
        <time>2015-06-17T12:50:32Z</time>
      </trkpt>
      <trkpt lat="44.26923" lon="3.73136">
        <ele>713</ele>
        <time>2015-06-17T12:50:36Z</time>
      </trkpt>
      <trkpt lat="44.26936" lon="3.73145">
        <ele>713</ele>
        <time>2015-06-17T12:50:50Z</time>
      </trkpt>
      <trkpt lat="44.26949" lon="3.73152">
        <ele>711</ele>
        <time>2015-06-17T12:50:56Z</time>
      </trkpt>
      <trkpt lat="44.26954" lon="3.73154">
        <ele>710</ele>
        <time>2015-06-17T12:50:58Z</time>
      </trkpt>
      <trkpt lat="44.26957" lon="3.7316">
        <ele>710</ele>
        <time>2015-06-17T12:51:07Z</time>
      </trkpt>
      <trkpt lat="44.26962" lon="3.73164">
        <ele>709</ele>
        <time>2015-06-17T12:51:13Z</time>
      </trkpt>
      <trkpt lat="44.26965" lon="3.73168">
        <ele>717</ele>
        <time>2015-06-17T12:51:18Z</time>
      </trkpt>
      <trkpt lat="44.2697" lon="3.73168">
        <ele>715</ele>
        <time>2015-06-17T12:51:25Z</time>
      </trkpt>
      <trkpt lat="44.26973" lon="3.73174">
        <ele>715</ele>
        <time>2015-06-17T12:51:30Z</time>
      </trkpt>
      <trkpt lat="44.26983" lon="3.73178">
        <ele>712</ele>
        <time>2015-06-17T12:51:37Z</time>
      </trkpt>
      <trkpt lat="44.26984" lon="3.73187">
        <ele>714</ele>
        <time>2015-06-17T12:51:42Z</time>
      </trkpt>
      <trkpt lat="44.26984" lon="3.73194">
        <ele>716</ele>
        <time>2015-06-17T12:51:46Z</time>
      </trkpt>
      <trkpt lat="44.26987" lon="3.73199">
        <ele>717</ele>
        <time>2015-06-17T12:51:51Z</time>
      </trkpt>
      <trkpt lat="44.26991" lon="3.73202">
        <ele>717</ele>
        <time>2015-06-17T12:51:54Z</time>
      </trkpt>
      <trkpt lat="44.26994" lon="3.73209">
        <ele>718</ele>
        <time>2015-06-17T12:52:00Z</time>
      </trkpt>
      <trkpt lat="44.26998" lon="3.73214">
        <ele>718</ele>
        <time>2015-06-17T12:52:04Z</time>
      </trkpt>
      <trkpt lat="44.26999" lon="3.7322">
        <ele>719</ele>
        <time>2015-06-17T12:52:09Z</time>
      </trkpt>
      <trkpt lat="44.27002" lon="3.73225">
        <ele>711</ele>
        <time>2015-06-17T12:52:13Z</time>
      </trkpt>
      <trkpt lat="44.27001" lon="3.73233">
        <ele>713</ele>
        <time>2015-06-17T12:52:20Z</time>
      </trkpt>
      <trkpt lat="44.27002" lon="3.73241">
        <ele>714</ele>
        <time>2015-06-17T12:52:24Z</time>
      </trkpt>
      <trkpt lat="44.27005" lon="3.73247">
        <ele>715</ele>
        <time>2015-06-17T12:52:27Z</time>
      </trkpt>
      <trkpt lat="44.27004" lon="3.73254">
        <ele>717</ele>
        <time>2015-06-17T12:52:31Z</time>
      </trkpt>
      <trkpt lat="44.27001" lon="3.7326">
        <ele>718</ele>
        <time>2015-06-17T12:52:35Z</time>
      </trkpt>
      <trkpt lat="44.27" lon="3.73267">
        <ele>718</ele>
        <time>2015-06-17T12:52:41Z</time>
      </trkpt>
      <trkpt lat="44.27003" lon="3.73273">
        <ele>718</ele>
        <time>2015-06-17T12:52:46Z</time>
      </trkpt>
      <trkpt lat="44.27007" lon="3.73277">
        <ele>718</ele>
        <time>2015-06-17T12:52:50Z</time>
      </trkpt>
      <trkpt lat="44.27009" lon="3.73283">
        <ele>718</ele>
        <time>2015-06-17T12:53:01Z</time>
      </trkpt>
      <trkpt lat="44.2701" lon="3.7329">
        <ele>718</ele>
        <time>2015-06-17T12:53:09Z</time>
      </trkpt>
      <trkpt lat="44.27009" lon="3.73297">
        <ele>719</ele>
        <time>2015-06-17T12:53:13Z</time>
      </trkpt>
      <trkpt lat="44.27007" lon="3.73304">
        <ele>719</ele>
        <time>2015-06-17T12:53:17Z</time>
      </trkpt>
      <trkpt lat="44.26997" lon="3.73319">
        <ele>726</ele>
        <time>2015-06-17T12:53:26Z</time>
      </trkpt>
      <trkpt lat="44.26991" lon="3.73333">
        <ele>724</ele>
        <time>2015-06-17T12:53:30Z</time>
      </trkpt>
      <trkpt lat="44.2699" lon="3.73341">
        <ele>724</ele>
        <time>2015-06-17T12:53:33Z</time>
      </trkpt>
      <trkpt lat="44.26995" lon="3.73353">
        <ele>725</ele>
        <time>2015-06-17T12:53:39Z</time>
      </trkpt>
      <trkpt lat="44.2699" lon="3.73359">
        <ele>726</ele>
        <time>2015-06-17T12:53:43Z</time>
      </trkpt>
      <trkpt lat="44.26986" lon="3.73363">
        <ele>727</ele>
        <time>2015-06-17T12:53:46Z</time>
      </trkpt>
      <trkpt lat="44.26987" lon="3.7337">
        <ele>727</ele>
        <time>2015-06-17T12:53:50Z</time>
      </trkpt>
      <trkpt lat="44.26982" lon="3.73375">
        <ele>727</ele>
        <time>2015-06-17T12:53:53Z</time>
      </trkpt>
      <trkpt lat="44.26979" lon="3.73381">
        <ele>727</ele>
        <time>2015-06-17T12:53:55Z</time>
      </trkpt>
      <trkpt lat="44.26976" lon="3.73385">
        <ele>727</ele>
        <time>2015-06-17T12:53:57Z</time>
      </trkpt>
      <trkpt lat="44.26971" lon="3.73388">
        <ele>727</ele>
        <time>2015-06-17T12:53:59Z</time>
      </trkpt>
      <trkpt lat="44.26967" lon="3.73393">
        <ele>728</ele>
        <time>2015-06-17T12:54:02Z</time>
      </trkpt>
      <trkpt lat="44.26963" lon="3.73408">
        <ele>727</ele>
        <time>2015-06-17T12:54:11Z</time>
      </trkpt>
      <trkpt lat="44.26959" lon="3.73409">
        <ele>729</ele>
        <time>2015-06-17T12:54:16Z</time>
      </trkpt>
      <trkpt lat="44.26954" lon="3.73416">
        <ele>730</ele>
        <time>2015-06-17T12:54:19Z</time>
      </trkpt>
      <trkpt lat="44.26951" lon="3.73427">
        <ele>721</ele>
        <time>2015-06-17T12:54:26Z</time>
      </trkpt>
      <trkpt lat="44.26947" lon="3.73431">
        <ele>722</ele>
        <time>2015-06-17T12:54:33Z</time>
      </trkpt>
      <trkpt lat="44.26937" lon="3.73437">
        <ele>723</ele>
        <time>2015-06-17T12:54:41Z</time>
      </trkpt>
      <trkpt lat="44.26932" lon="3.73438">
        <ele>724</ele>
        <time>2015-06-17T12:54:45Z</time>
      </trkpt>
      <trkpt lat="44.2693" lon="3.73443">
        <ele>723</ele>
        <time>2015-06-17T12:54:49Z</time>
      </trkpt>
      <trkpt lat="44.26925" lon="3.73448">
        <ele>722</ele>
        <time>2015-06-17T12:55:01Z</time>
      </trkpt>
      <trkpt lat="44.26918" lon="3.7345">
        <ele>722</ele>
        <time>2015-06-17T12:55:04Z</time>
      </trkpt>
      <trkpt lat="44.26911" lon="3.73452">
        <ele>740</ele>
        <time>2015-06-17T12:55:06Z</time>
      </trkpt>
      <trkpt lat="44.26909" lon="3.73455">
        <ele>739</ele>
        <time>2015-06-17T12:55:29Z</time>
      </trkpt>
      <trkpt lat="44.26902" lon="3.73461">
        <ele>739</ele>
        <time>2015-06-17T12:55:35Z</time>
      </trkpt>
      <trkpt lat="44.26898" lon="3.73466">
        <ele>739</ele>
        <time>2015-06-17T12:55:39Z</time>
      </trkpt>
      <trkpt lat="44.26893" lon="3.73471">
        <ele>739</ele>
        <time>2015-06-17T12:55:44Z</time>
      </trkpt>
      <trkpt lat="44.26889" lon="3.73476">
        <ele>739</ele>
        <time>2015-06-17T12:55:47Z</time>
      </trkpt>
      <trkpt lat="44.26887" lon="3.73482">
        <ele>738</ele>
        <time>2015-06-17T12:55:52Z</time>
      </trkpt>
      <trkpt lat="44.26881" lon="3.7348">
        <ele>741</ele>
        <time>2015-06-17T12:55:56Z</time>
      </trkpt>
      <trkpt lat="44.26876" lon="3.73481">
        <ele>743</ele>
        <time>2015-06-17T12:56:01Z</time>
      </trkpt>
      <trkpt lat="44.26874" lon="3.73487">
        <ele>743</ele>
        <time>2015-06-17T12:56:14Z</time>
      </trkpt>
      <trkpt lat="44.2687" lon="3.73502">
        <ele>730</ele>
        <time>2015-06-17T12:56:34Z</time>
      </trkpt>
      <trkpt lat="44.26866" lon="3.73508">
        <ele>732</ele>
        <time>2015-06-17T12:56:37Z</time>
      </trkpt>
      <trkpt lat="44.26862" lon="3.73512">
        <ele>733</ele>
        <time>2015-06-17T12:56:40Z</time>
      </trkpt>
      <trkpt lat="44.26857" lon="3.73516">
        <ele>734</ele>
        <time>2015-06-17T12:56:43Z</time>
      </trkpt>
      <trkpt lat="44.26854" lon="3.7352">
        <ele>734</ele>
        <time>2015-06-17T12:56:46Z</time>
      </trkpt>
      <trkpt lat="44.2685" lon="3.73525">
        <ele>734</ele>
        <time>2015-06-17T12:56:49Z</time>
      </trkpt>
      <trkpt lat="44.26849" lon="3.73531">
        <ele>733</ele>
        <time>2015-06-17T12:56:53Z</time>
      </trkpt>
      <trkpt lat="44.26841" lon="3.7354">
        <ele>732</ele>
        <time>2015-06-17T12:57:02Z</time>
      </trkpt>
      <trkpt lat="44.26841" lon="3.73547">
        <ele>730</ele>
        <time>2015-06-17T12:57:06Z</time>
      </trkpt>
      <trkpt lat="44.26837" lon="3.73561">
        <ele>729</ele>
        <time>2015-06-17T12:57:15Z</time>
      </trkpt>
      <trkpt lat="44.26831" lon="3.73564">
        <ele>744</ele>
        <time>2015-06-17T12:57:19Z</time>
      </trkpt>
      <trkpt lat="44.26832" lon="3.73584">
        <ele>731</ele>
        <time>2015-06-17T12:57:39Z</time>
      </trkpt>
      <trkpt lat="44.26828" lon="3.73592">
        <ele>730</ele>
        <time>2015-06-17T12:57:42Z</time>
      </trkpt>
      <trkpt lat="44.26821" lon="3.736">
        <ele>730</ele>
        <time>2015-06-17T12:57:46Z</time>
      </trkpt>
      <trkpt lat="44.26818" lon="3.73607">
        <ele>729</ele>
        <time>2015-06-17T12:57:49Z</time>
      </trkpt>
      <trkpt lat="44.26821" lon="3.73612">
        <ele>729</ele>
        <time>2015-06-17T12:57:54Z</time>
      </trkpt>
      <trkpt lat="44.26821" lon="3.73618">
        <ele>728</ele>
        <time>2015-06-17T12:57:59Z</time>
      </trkpt>
      <trkpt lat="44.26816" lon="3.73616">
        <ele>728</ele>
        <time>2015-06-17T12:58:08Z</time>
      </trkpt>
      <trkpt lat="44.26811" lon="3.73615">
        <ele>729</ele>
        <time>2015-06-17T12:58:13Z</time>
      </trkpt>
      <trkpt lat="44.26806" lon="3.73616">
        <ele>729</ele>
        <time>2015-06-17T12:58:17Z</time>
      </trkpt>
      <trkpt lat="44.26802" lon="3.73613">
        <ele>730</ele>
        <time>2015-06-17T12:58:23Z</time>
      </trkpt>
      <trkpt lat="44.26794" lon="3.73601">
        <ele>732</ele>
        <time>2015-06-17T12:58:32Z</time>
      </trkpt>
      <trkpt lat="44.2679" lon="3.73597">
        <ele>733</ele>
        <time>2015-06-17T12:58:35Z</time>
      </trkpt>
      <trkpt lat="44.26785" lon="3.73598">
        <ele>733</ele>
        <time>2015-06-17T12:58:39Z</time>
      </trkpt>
      <trkpt lat="44.2678" lon="3.73599">
        <ele>734</ele>
        <time>2015-06-17T12:58:42Z</time>
      </trkpt>
      <trkpt lat="44.26776" lon="3.73602">
        <ele>734</ele>
        <time>2015-06-17T12:58:45Z</time>
      </trkpt>
      <trkpt lat="44.26772" lon="3.73599">
        <ele>736</ele>
        <time>2015-06-17T12:58:48Z</time>
      </trkpt>
      <trkpt lat="44.26774" lon="3.73583">
        <ele>752</ele>
        <time>2015-06-17T12:58:53Z</time>
      </trkpt>
      <trkpt lat="44.26769" lon="3.73578">
        <ele>753</ele>
        <time>2015-06-17T12:58:58Z</time>
      </trkpt>
      <trkpt lat="44.26765" lon="3.73575">
        <ele>753</ele>
        <time>2015-06-17T12:59:02Z</time>
      </trkpt>
      <trkpt lat="44.2676" lon="3.73576">
        <ele>753</ele>
        <time>2015-06-17T12:59:07Z</time>
      </trkpt>
      <trkpt lat="44.26756" lon="3.73579">
        <ele>752</ele>
        <time>2015-06-17T12:59:19Z</time>
      </trkpt>
      <trkpt lat="44.26751" lon="3.7358">
        <ele>752</ele>
        <time>2015-06-17T12:59:33Z</time>
      </trkpt>
      <trkpt lat="44.26746" lon="3.73577">
        <ele>756</ele>
        <time>2015-06-17T12:59:42Z</time>
      </trkpt>
      <trkpt lat="44.26743" lon="3.73572">
        <ele>759</ele>
        <time>2015-06-17T12:59:45Z</time>
      </trkpt>
      <trkpt lat="44.26738" lon="3.73569">
        <ele>761</ele>
        <time>2015-06-17T12:59:48Z</time>
      </trkpt>
      <trkpt lat="44.26733" lon="3.73566">
        <ele>762</ele>
        <time>2015-06-17T12:59:51Z</time>
      </trkpt>
      <trkpt lat="44.2673" lon="3.73561">
        <ele>764</ele>
        <time>2015-06-17T12:59:55Z</time>
      </trkpt>
      <trkpt lat="44.2672" lon="3.73557">
        <ele>766</ele>
        <time>2015-06-17T13:00:05Z</time>
      </trkpt>
      <trkpt lat="44.26715" lon="3.73559">
        <ele>766</ele>
        <time>2015-06-17T13:00:09Z</time>
      </trkpt>
      <trkpt lat="44.2671" lon="3.73559">
        <ele>766</ele>
        <time>2015-06-17T13:00:15Z</time>
      </trkpt>
      <trkpt lat="44.26699" lon="3.73561">
        <ele>766</ele>
        <time>2015-06-17T13:00:23Z</time>
      </trkpt>
      <trkpt lat="44.26694" lon="3.73563">
        <ele>766</ele>
        <time>2015-06-17T13:00:28Z</time>
      </trkpt>
      <trkpt lat="44.2669" lon="3.73565">
        <ele>765</ele>
        <time>2015-06-17T13:00:31Z</time>
      </trkpt>
      <trkpt lat="44.26684" lon="3.73565">
        <ele>765</ele>
        <time>2015-06-17T13:00:35Z</time>
      </trkpt>
      <trkpt lat="44.26682" lon="3.73558">
        <ele>766</ele>
        <time>2015-06-17T13:00:41Z</time>
      </trkpt>
      <trkpt lat="44.26674" lon="3.73552">
        <ele>767</ele>
        <time>2015-06-17T13:00:49Z</time>
      </trkpt>
      <trkpt lat="44.2667" lon="3.73548">
        <ele>768</ele>
        <time>2015-06-17T13:00:53Z</time>
      </trkpt>
      <trkpt lat="44.26665" lon="3.73547">
        <ele>771</ele>
        <time>2015-06-17T13:00:58Z</time>
      </trkpt>
      <trkpt lat="44.2666" lon="3.73551">
        <ele>770</ele>
        <time>2015-06-17T13:01:01Z</time>
      </trkpt>
      <trkpt lat="44.26655" lon="3.73552">
        <ele>770</ele>
        <time>2015-06-17T13:01:07Z</time>
      </trkpt>
      <trkpt lat="44.26649" lon="3.73554">
        <ele>770</ele>
        <time>2015-06-17T13:01:11Z</time>
      </trkpt>
      <trkpt lat="44.26643" lon="3.73558">
        <ele>770</ele>
        <time>2015-06-17T13:01:13Z</time>
      </trkpt>
      <trkpt lat="44.26639" lon="3.73559">
        <ele>770</ele>
        <time>2015-06-17T13:01:15Z</time>
      </trkpt>
      <trkpt lat="44.26634" lon="3.73557">
        <ele>771</ele>
        <time>2015-06-17T13:01:18Z</time>
      </trkpt>
      <trkpt lat="44.26642" lon="3.73545">
        <ele>773</ele>
        <time>2015-06-17T13:01:27Z</time>
      </trkpt>
      <trkpt lat="44.26641" lon="3.73538">
        <ele>774</ele>
        <time>2015-06-17T13:01:33Z</time>
      </trkpt>
      <trkpt lat="44.26635" lon="3.7354">
        <ele>774</ele>
        <time>2015-06-17T13:01:38Z</time>
      </trkpt>
      <trkpt lat="44.26623" lon="3.73551">
        <ele>772</ele>
        <time>2015-06-17T13:01:49Z</time>
      </trkpt>
      <trkpt lat="44.26618" lon="3.73555">
        <ele>772</ele>
        <time>2015-06-17T13:01:52Z</time>
      </trkpt>
      <trkpt lat="44.26618" lon="3.73549">
        <ele>773</ele>
        <time>2015-06-17T13:02:02Z</time>
      </trkpt>
      <trkpt lat="44.26614" lon="3.73562">
        <ele>771</ele>
        <time>2015-06-17T13:02:28Z</time>
      </trkpt>
      <trkpt lat="44.26608" lon="3.73565">
        <ele>771</ele>
        <time>2015-06-17T13:02:31Z</time>
      </trkpt>
      <trkpt lat="44.26603" lon="3.73567">
        <ele>770</ele>
        <time>2015-06-17T13:02:35Z</time>
      </trkpt>
      <trkpt lat="44.26599" lon="3.73571">
        <ele>769</ele>
        <time>2015-06-17T13:02:38Z</time>
      </trkpt>
      <trkpt lat="44.26593" lon="3.73574">
        <ele>768</ele>
        <time>2015-06-17T13:02:42Z</time>
      </trkpt>
      <trkpt lat="44.26588" lon="3.73574">
        <ele>767</ele>
        <time>2015-06-17T13:02:44Z</time>
      </trkpt>
      <trkpt lat="44.26582" lon="3.73576">
        <ele>768</ele>
        <time>2015-06-17T13:02:48Z</time>
      </trkpt>
      <trkpt lat="44.26568" lon="3.73579">
        <ele>771</ele>
        <time>2015-06-17T13:03:13Z</time>
      </trkpt>
      <trkpt lat="44.26561" lon="3.73581">
        <ele>772</ele>
        <time>2015-06-17T13:03:15Z</time>
      </trkpt>
      <trkpt lat="44.26557" lon="3.73584">
        <ele>759</ele>
        <time>2015-06-17T13:03:17Z</time>
      </trkpt>
      <trkpt lat="44.26551" lon="3.7359">
        <ele>759</ele>
        <time>2015-06-17T13:03:20Z</time>
      </trkpt>
      <trkpt lat="44.26546" lon="3.73591">
        <ele>759</ele>
        <time>2015-06-17T13:03:23Z</time>
      </trkpt>
      <trkpt lat="44.26543" lon="3.73586">
        <ele>759</ele>
        <time>2015-06-17T13:03:25Z</time>
      </trkpt>
      <trkpt lat="44.26539" lon="3.73582">
        <ele>774</ele>
        <time>2015-06-17T13:03:28Z</time>
      </trkpt>
      <trkpt lat="44.26536" lon="3.73577">
        <ele>775</ele>
        <time>2015-06-17T13:03:32Z</time>
      </trkpt>
      <trkpt lat="44.26532" lon="3.73575">
        <ele>775</ele>
        <time>2015-06-17T13:03:36Z</time>
      </trkpt>
      <trkpt lat="44.26525" lon="3.73576">
        <ele>774</ele>
        <time>2015-06-17T13:03:38Z</time>
      </trkpt>
      <trkpt lat="44.26521" lon="3.73574">
        <ele>774</ele>
        <time>2015-06-17T13:03:39Z</time>
      </trkpt>
      <trkpt lat="44.26516" lon="3.73571">
        <ele>774</ele>
        <time>2015-06-17T13:03:40Z</time>
      </trkpt>
      <trkpt lat="44.26516" lon="3.73562">
        <ele>776</ele>
        <time>2015-06-17T13:03:43Z</time>
      </trkpt>
      <trkpt lat="44.2652" lon="3.73555">
        <ele>777</ele>
        <time>2015-06-17T13:03:45Z</time>
      </trkpt>
      <trkpt lat="44.26529" lon="3.73545">
        <ele>779</ele>
        <time>2015-06-17T13:03:52Z</time>
      </trkpt>
      <trkpt lat="44.26534" lon="3.73542">
        <ele>779</ele>
        <time>2015-06-17T13:03:55Z</time>
      </trkpt>
      <trkpt lat="44.26539" lon="3.73542">
        <ele>779</ele>
        <time>2015-06-17T13:03:58Z</time>
      </trkpt>
      <trkpt lat="44.26543" lon="3.73543">
        <ele>779</ele>
        <time>2015-06-17T13:04:06Z</time>
      </trkpt>
      <trkpt lat="44.26543" lon="3.73546">
        <ele>778</ele>
        <time>2015-06-17T13:04:25Z</time>
      </trkpt>
      <trkpt lat="44.26543" lon="3.73545">
        <ele>778</ele>
        <time>2015-06-17T13:04:41Z</time>
      </trkpt>
      <trkpt lat="44.26548" lon="3.73543">
        <ele>779</ele>
        <time>2015-06-17T13:04:53Z</time>
      </trkpt>
      <trkpt lat="44.26557" lon="3.73538">
        <ele>779</ele>
        <time>2015-06-17T13:05:03Z</time>
      </trkpt>
      <trkpt lat="44.26562" lon="3.73532">
        <ele>780</ele>
        <time>2015-06-17T13:05:05Z</time>
      </trkpt>
      <trkpt lat="44.2657" lon="3.73526">
        <ele>782</ele>
        <time>2015-06-17T13:05:07Z</time>
      </trkpt>
      <trkpt lat="44.26591" lon="3.735">
        <ele>786</ele>
        <time>2015-06-17T13:05:15Z</time>
      </trkpt>
      <trkpt lat="44.26601" lon="3.73491">
        <ele>796</ele>
        <time>2015-06-17T13:05:19Z</time>
      </trkpt>
      <trkpt lat="44.26606" lon="3.73486">
        <ele>797</ele>
        <time>2015-06-17T13:05:22Z</time>
      </trkpt>
      <trkpt lat="44.266" lon="3.73486">
        <ele>796</ele>
        <time>2015-06-17T13:05:27Z</time>
      </trkpt>
      <trkpt lat="44.26605" lon="3.73482">
        <ele>797</ele>
        <time>2015-06-17T13:05:31Z</time>
      </trkpt>
      <trkpt lat="44.26601" lon="3.73485">
        <ele>797</ele>
        <time>2015-06-17T13:05:45Z</time>
      </trkpt>
      <trkpt lat="44.26606" lon="3.73484">
        <ele>797</ele>
        <time>2015-06-17T13:05:53Z</time>
      </trkpt>
      <trkpt lat="44.26614" lon="3.73482">
        <ele>798</ele>
        <time>2015-06-17T13:05:55Z</time>
      </trkpt>
      <trkpt lat="44.26619" lon="3.73476">
        <ele>799</ele>
        <time>2015-06-17T13:05:57Z</time>
      </trkpt>
      <trkpt lat="44.26622" lon="3.73469">
        <ele>800</ele>
        <time>2015-06-17T13:05:59Z</time>
      </trkpt>
      <trkpt lat="44.26626" lon="3.73465">
        <ele>800</ele>
        <time>2015-06-17T13:06:01Z</time>
      </trkpt>
      <trkpt lat="44.26631" lon="3.73464">
        <ele>800</ele>
        <time>2015-06-17T13:06:07Z</time>
      </trkpt>
      <trkpt lat="44.26636" lon="3.73467">
        <ele>800</ele>
        <time>2015-06-17T13:06:13Z</time>
      </trkpt>
      <trkpt lat="44.2664" lon="3.73468">
        <ele>799</ele>
        <time>2015-06-17T13:06:15Z</time>
      </trkpt>
      <trkpt lat="44.26645" lon="3.73471">
        <ele>799</ele>
        <time>2015-06-17T13:06:24Z</time>
      </trkpt>
      <trkpt lat="44.2665" lon="3.73469">
        <ele>799</ele>
        <time>2015-06-17T13:06:26Z</time>
      </trkpt>
      <trkpt lat="44.26655" lon="3.73469">
        <ele>798</ele>
        <time>2015-06-17T13:06:33Z</time>
      </trkpt>
      <trkpt lat="44.26661" lon="3.73466">
        <ele>799</ele>
        <time>2015-06-17T13:06:37Z</time>
      </trkpt>
      <trkpt lat="44.26666" lon="3.73468">
        <ele>798</ele>
        <time>2015-06-17T13:06:41Z</time>
      </trkpt>
      <trkpt lat="44.2667" lon="3.73473">
        <ele>796</ele>
        <time>2015-06-17T13:06:44Z</time>
      </trkpt>
      <trkpt lat="44.26677" lon="3.73471">
        <ele>796</ele>
        <time>2015-06-17T13:06:46Z</time>
      </trkpt>
      <trkpt lat="44.26686" lon="3.73465">
        <ele>798</ele>
        <time>2015-06-17T13:06:49Z</time>
      </trkpt>
      <trkpt lat="44.26691" lon="3.7346">
        <ele>799</ele>
        <time>2015-06-17T13:06:53Z</time>
      </trkpt>
      <trkpt lat="44.26687" lon="3.73455">
        <ele>800</ele>
        <time>2015-06-17T13:07:00Z</time>
      </trkpt>
      <trkpt lat="44.2669" lon="3.73462">
        <ele>799</ele>
        <time>2015-06-17T13:07:12Z</time>
      </trkpt>
      <trkpt lat="44.26693" lon="3.73468">
        <ele>798</ele>
        <time>2015-06-17T13:07:25Z</time>
      </trkpt>
      <trkpt lat="44.26699" lon="3.73468">
        <ele>798</ele>
        <time>2015-06-17T13:07:35Z</time>
      </trkpt>
      <trkpt lat="44.2672" lon="3.73464">
        <ele>798</ele>
        <time>2015-06-17T13:07:40Z</time>
      </trkpt>
      <trkpt lat="44.26726" lon="3.7346">
        <ele>799</ele>
        <time>2015-06-17T13:07:43Z</time>
      </trkpt>
      <trkpt lat="44.26731" lon="3.73461">
        <ele>799</ele>
        <time>2015-06-17T13:08:03Z</time>
      </trkpt>
      <trkpt lat="44.26735" lon="3.73465">
        <ele>798</ele>
        <time>2015-06-17T13:08:08Z</time>
      </trkpt>
      <trkpt lat="44.2674" lon="3.73467">
        <ele>797</ele>
        <time>2015-06-17T13:08:11Z</time>
      </trkpt>
      <trkpt lat="44.26745" lon="3.73465">
        <ele>797</ele>
        <time>2015-06-17T13:08:16Z</time>
      </trkpt>
      <trkpt lat="44.26751" lon="3.73462">
        <ele>789</ele>
        <time>2015-06-17T13:08:21Z</time>
      </trkpt>
      <trkpt lat="44.26753" lon="3.73456">
        <ele>790</ele>
        <time>2015-06-17T13:08:27Z</time>
      </trkpt>
      <trkpt lat="44.26757" lon="3.73451">
        <ele>791</ele>
        <time>2015-06-17T13:08:31Z</time>
      </trkpt>
      <trkpt lat="44.26761" lon="3.73448">
        <ele>791</ele>
        <time>2015-06-17T13:08:35Z</time>
      </trkpt>
      <trkpt lat="44.26768" lon="3.73446">
        <ele>791</ele>
        <time>2015-06-17T13:08:39Z</time>
      </trkpt>
      <trkpt lat="44.26774" lon="3.73447">
        <ele>789</ele>
        <time>2015-06-17T13:08:41Z</time>
      </trkpt>
      <trkpt lat="44.26778" lon="3.73443">
        <ele>789</ele>
        <time>2015-06-17T13:08:47Z</time>
      </trkpt>
      <trkpt lat="44.26785" lon="3.73433">
        <ele>789</ele>
        <time>2015-06-17T13:08:58Z</time>
      </trkpt>
      <trkpt lat="44.26784" lon="3.73427">
        <ele>790</ele>
        <time>2015-06-17T13:09:03Z</time>
      </trkpt>
      <trkpt lat="44.26787" lon="3.73422">
        <ele>790</ele>
        <time>2015-06-17T13:09:11Z</time>
      </trkpt>
      <trkpt lat="44.26789" lon="3.73416">
        <ele>801</ele>
        <time>2015-06-17T13:09:28Z</time>
      </trkpt>
      <trkpt lat="44.26788" lon="3.73414">
        <ele>802</ele>
        <time>2015-06-17T13:09:48Z</time>
      </trkpt>
      <trkpt lat="44.2679" lon="3.73408">
        <ele>801</ele>
        <time>2015-06-17T13:09:51Z</time>
      </trkpt>
      <trkpt lat="44.2679" lon="3.73391">
        <ele>802</ele>
        <time>2015-06-17T13:09:57Z</time>
      </trkpt>
      <trkpt lat="44.26788" lon="3.73382">
        <ele>803</ele>
        <time>2015-06-17T13:10:01Z</time>
      </trkpt>
      <trkpt lat="44.26783" lon="3.73349">
        <ele>806</ele>
        <time>2015-06-17T13:10:06Z</time>
      </trkpt>
      <trkpt lat="44.26787" lon="3.73338">
        <ele>806</ele>
        <time>2015-06-17T13:10:08Z</time>
      </trkpt>
      <trkpt lat="44.26793" lon="3.73337">
        <ele>805</ele>
        <time>2015-06-17T13:10:10Z</time>
      </trkpt>
      <trkpt lat="44.26798" lon="3.73339">
        <ele>803</ele>
        <time>2015-06-17T13:10:12Z</time>
      </trkpt>
      <trkpt lat="44.26803" lon="3.7334">
        <ele>802</ele>
        <time>2015-06-17T13:10:15Z</time>
      </trkpt>
      <trkpt lat="44.26809" lon="3.73337">
        <ele>801</ele>
        <time>2015-06-17T13:10:19Z</time>
      </trkpt>
      <trkpt lat="44.26809" lon="3.73331">
        <ele>802</ele>
        <time>2015-06-17T13:10:23Z</time>
      </trkpt>
      <trkpt lat="44.26812" lon="3.73325">
        <ele>801</ele>
        <time>2015-06-17T13:10:27Z</time>
      </trkpt>
      <trkpt lat="44.26813" lon="3.73312">
        <ele>801</ele>
        <time>2015-06-17T13:10:38Z</time>
      </trkpt>
      <trkpt lat="44.26818" lon="3.7331">
        <ele>801</ele>
        <time>2015-06-17T13:10:42Z</time>
      </trkpt>
      <trkpt lat="44.26821" lon="3.73306">
        <ele>801</ele>
        <time>2015-06-17T13:10:48Z</time>
      </trkpt>
      <trkpt lat="44.26826" lon="3.73304">
        <ele>800</ele>
        <time>2015-06-17T13:10:52Z</time>
      </trkpt>
      <trkpt lat="44.2683" lon="3.73299">
        <ele>800</ele>
        <time>2015-06-17T13:10:56Z</time>
      </trkpt>
      <trkpt lat="44.26835" lon="3.73297">
        <ele>781</ele>
        <time>2015-06-17T13:10:59Z</time>
      </trkpt>
      <trkpt lat="44.26838" lon="3.73302">
        <ele>782</ele>
        <time>2015-06-17T13:11:03Z</time>
      </trkpt>
      <trkpt lat="44.26839" lon="3.73296">
        <ele>781</ele>
        <time>2015-06-17T13:11:11Z</time>
      </trkpt>
      <trkpt lat="44.26836" lon="3.7329">
        <ele>781</ele>
        <time>2015-06-17T13:11:14Z</time>
      </trkpt>
      <trkpt lat="44.26834" lon="3.73282">
        <ele>781</ele>
        <time>2015-06-17T13:11:18Z</time>
      </trkpt>
      <trkpt lat="44.26831" lon="3.73275">
        <ele>798</ele>
        <time>2015-06-17T13:11:22Z</time>
      </trkpt>
      <trkpt lat="44.26827" lon="3.73271">
        <ele>797</ele>
        <time>2015-06-17T13:11:28Z</time>
      </trkpt>
      <trkpt lat="44.26822" lon="3.73268">
        <ele>797</ele>
        <time>2015-06-17T13:11:32Z</time>
      </trkpt>
      <trkpt lat="44.2682" lon="3.73263">
        <ele>797</ele>
        <time>2015-06-17T13:11:35Z</time>
      </trkpt>
      <trkpt lat="44.26819" lon="3.73256">
        <ele>796</ele>
        <time>2015-06-17T13:11:38Z</time>
      </trkpt>
      <trkpt lat="44.26816" lon="3.7325">
        <ele>787</ele>
        <time>2015-06-17T13:11:43Z</time>
      </trkpt>
      <trkpt lat="44.26812" lon="3.73244">
        <ele>786</ele>
        <time>2015-06-17T13:11:47Z</time>
      </trkpt>
      <trkpt lat="44.26807" lon="3.73244">
        <ele>786</ele>
        <time>2015-06-17T13:11:52Z</time>
      </trkpt>
      <trkpt lat="44.26803" lon="3.73241">
        <ele>786</ele>
        <time>2015-06-17T13:11:59Z</time>
      </trkpt>
      <trkpt lat="44.26799" lon="3.73244">
        <ele>787</ele>
        <time>2015-06-17T13:12:04Z</time>
      </trkpt>
      <trkpt lat="44.26794" lon="3.73245">
        <ele>788</ele>
        <time>2015-06-17T13:12:10Z</time>
      </trkpt>
      <trkpt lat="44.2679" lon="3.73248">
        <ele>789</ele>
        <time>2015-06-17T13:12:13Z</time>
      </trkpt>
      <trkpt lat="44.26785" lon="3.73251">
        <ele>803</ele>
        <time>2015-06-17T13:12:17Z</time>
      </trkpt>
      <trkpt lat="44.2678" lon="3.73254">
        <ele>804</ele>
        <time>2015-06-17T13:12:22Z</time>
      </trkpt>
      <trkpt lat="44.26774" lon="3.73258">
        <ele>805</ele>
        <time>2015-06-17T13:12:29Z</time>
      </trkpt>
      <trkpt lat="44.2677" lon="3.73259">
        <ele>806</ele>
        <time>2015-06-17T13:12:31Z</time>
      </trkpt>
      <trkpt lat="44.26766" lon="3.73264">
        <ele>806</ele>
        <time>2015-06-17T13:12:35Z</time>
      </trkpt>
      <trkpt lat="44.26761" lon="3.73262">
        <ele>807</ele>
        <time>2015-06-17T13:12:41Z</time>
      </trkpt>
      <trkpt lat="44.26757" lon="3.73264">
        <ele>807</ele>
        <time>2015-06-17T13:12:45Z</time>
      </trkpt>
      <trkpt lat="44.26753" lon="3.73259">
        <ele>808</ele>
        <time>2015-06-17T13:12:49Z</time>
      </trkpt>
      <trkpt lat="44.26749" lon="3.73262">
        <ele>812</ele>
        <time>2015-06-17T13:12:55Z</time>
      </trkpt>
      <trkpt lat="44.26746" lon="3.73266">
        <ele>813</ele>
        <time>2015-06-17T13:13:00Z</time>
      </trkpt>
      <trkpt lat="44.2674" lon="3.7327">
        <ele>814</ele>
        <time>2015-06-17T13:13:13Z</time>
      </trkpt>
      <trkpt lat="44.26734" lon="3.73271">
        <ele>815</ele>
        <time>2015-06-17T13:13:16Z</time>
      </trkpt>
      <trkpt lat="44.26733" lon="3.73264">
        <ele>814</ele>
        <time>2015-06-17T13:13:20Z</time>
      </trkpt>
      <trkpt lat="44.26732" lon="3.73257">
        <ele>814</ele>
        <time>2015-06-17T13:13:25Z</time>
      </trkpt>
      <trkpt lat="44.26727" lon="3.73257">
        <ele>814</ele>
        <time>2015-06-17T13:13:28Z</time>
      </trkpt>
      <trkpt lat="44.26723" lon="3.73256">
        <ele>815</ele>
        <time>2015-06-17T13:13:31Z</time>
      </trkpt>
      <trkpt lat="44.26718" lon="3.73258">
        <ele>815</ele>
        <time>2015-06-17T13:13:41Z</time>
      </trkpt>
      <trkpt lat="44.26714" lon="3.73261">
        <ele>816</ele>
        <time>2015-06-17T13:13:47Z</time>
      </trkpt>
      <trkpt lat="44.26709" lon="3.73264">
        <ele>816</ele>
        <time>2015-06-17T13:13:50Z</time>
      </trkpt>
      <trkpt lat="44.26699" lon="3.73267">
        <ele>817</ele>
        <time>2015-06-17T13:13:57Z</time>
      </trkpt>
      <trkpt lat="44.26692" lon="3.73278">
        <ele>817</ele>
        <time>2015-06-17T13:14:07Z</time>
      </trkpt>
      <trkpt lat="44.26688" lon="3.73284">
        <ele>817</ele>
        <time>2015-06-17T13:14:10Z</time>
      </trkpt>
      <trkpt lat="44.26678" lon="3.73284">
        <ele>818</ele>
        <time>2015-06-17T13:14:20Z</time>
      </trkpt>
      <trkpt lat="44.26674" lon="3.73283">
        <ele>818</ele>
        <time>2015-06-17T13:14:25Z</time>
      </trkpt>
      <trkpt lat="44.26668" lon="3.73284">
        <ele>818</ele>
        <time>2015-06-17T13:14:29Z</time>
      </trkpt>
      <trkpt lat="44.26663" lon="3.73285">
        <ele>821</ele>
        <time>2015-06-17T13:14:32Z</time>
      </trkpt>
      <trkpt lat="44.26659" lon="3.73284">
        <ele>821</ele>
        <time>2015-06-17T13:14:34Z</time>
      </trkpt>
      <trkpt lat="44.26655" lon="3.73278">
        <ele>820</ele>
        <time>2015-06-17T13:14:37Z</time>
      </trkpt>
      <trkpt lat="44.2665" lon="3.73276">
        <ele>820</ele>
        <time>2015-06-17T13:14:42Z</time>
      </trkpt>
      <trkpt lat="44.26646" lon="3.73277">
        <ele>821</ele>
        <time>2015-06-17T13:14:46Z</time>
      </trkpt>
      <trkpt lat="44.26641" lon="3.73265">
        <ele>820</ele>
        <time>2015-06-17T13:14:57Z</time>
      </trkpt>
      <trkpt lat="44.26637" lon="3.73262">
        <ele>821</ele>
        <time>2015-06-17T13:15:02Z</time>
      </trkpt>
      <trkpt lat="44.26632" lon="3.73263">
        <ele>821</ele>
        <time>2015-06-17T13:15:06Z</time>
      </trkpt>
      <trkpt lat="44.26622" lon="3.73266">
        <ele>821</ele>
        <time>2015-06-17T13:15:12Z</time>
      </trkpt>
      <trkpt lat="44.26617" lon="3.73267">
        <ele>821</ele>
        <time>2015-06-17T13:15:16Z</time>
      </trkpt>
      <trkpt lat="44.26613" lon="3.73265">
        <ele>822</ele>
        <time>2015-06-17T13:15:22Z</time>
      </trkpt>
      <trkpt lat="44.26608" lon="3.73268">
        <ele>822</ele>
        <time>2015-06-17T13:15:30Z</time>
      </trkpt>
      <trkpt lat="44.26605" lon="3.73263">
        <ele>822</ele>
        <time>2015-06-17T13:15:36Z</time>
      </trkpt>
      <trkpt lat="44.26589" lon="3.73262">
        <ele>822</ele>
        <time>2015-06-17T13:15:46Z</time>
      </trkpt>
      <trkpt lat="44.26579" lon="3.73263">
        <ele>824</ele>
        <time>2015-06-17T13:15:52Z</time>
      </trkpt>
      <trkpt lat="44.26574" lon="3.73262">
        <ele>824</ele>
        <time>2015-06-17T13:15:57Z</time>
      </trkpt>
      <trkpt lat="44.26569" lon="3.73262">
        <ele>824</ele>
        <time>2015-06-17T13:16:04Z</time>
      </trkpt>
      <trkpt lat="44.26564" lon="3.73266">
        <ele>824</ele>
        <time>2015-06-17T13:16:08Z</time>
      </trkpt>
      <trkpt lat="44.26559" lon="3.73263">
        <ele>825</ele>
        <time>2015-06-17T13:16:15Z</time>
      </trkpt>
      <trkpt lat="44.26555" lon="3.73263">
        <ele>825</ele>
        <time>2015-06-17T13:16:20Z</time>
      </trkpt>
      <trkpt lat="44.26548" lon="3.73261">
        <ele>825</ele>
        <time>2015-06-17T13:16:26Z</time>
      </trkpt>
      <trkpt lat="44.26542" lon="3.7326">
        <ele>825</ele>
        <time>2015-06-17T13:16:29Z</time>
      </trkpt>
      <trkpt lat="44.26536" lon="3.73264">
        <ele>826</ele>
        <time>2015-06-17T13:16:32Z</time>
      </trkpt>
      <trkpt lat="44.26531" lon="3.73263">
        <ele>826</ele>
        <time>2015-06-17T13:16:35Z</time>
      </trkpt>
      <trkpt lat="44.26527" lon="3.73259">
        <ele>826</ele>
        <time>2015-06-17T13:16:40Z</time>
      </trkpt>
      <trkpt lat="44.26522" lon="3.73257">
        <ele>826</ele>
        <time>2015-06-17T13:16:46Z</time>
      </trkpt>
      <trkpt lat="44.26518" lon="3.73259">
        <ele>826</ele>
        <time>2015-06-17T13:16:49Z</time>
      </trkpt>
      <trkpt lat="44.26512" lon="3.73257">
        <ele>827</ele>
        <time>2015-06-17T13:16:54Z</time>
      </trkpt>
      <trkpt lat="44.26507" lon="3.73258">
        <ele>827</ele>
        <time>2015-06-17T13:16:59Z</time>
      </trkpt>
      <trkpt lat="44.26502" lon="3.73256">
        <ele>827</ele>
        <time>2015-06-17T13:17:06Z</time>
      </trkpt>
      <trkpt lat="44.26498" lon="3.73253">
        <ele>829</ele>
        <time>2015-06-17T13:17:11Z</time>
      </trkpt>
      <trkpt lat="44.26494" lon="3.73256">
        <ele>829</ele>
        <time>2015-06-17T13:17:18Z</time>
      </trkpt>
      <trkpt lat="44.26476" lon="3.7326">
        <ele>831</ele>
        <time>2015-06-17T13:17:47Z</time>
      </trkpt>
      <trkpt lat="44.2647" lon="3.7326">
        <ele>832</ele>
        <time>2015-06-17T13:17:50Z</time>
      </trkpt>
      <trkpt lat="44.26465" lon="3.73258">
        <ele>833</ele>
        <time>2015-06-17T13:17:54Z</time>
      </trkpt>
      <trkpt lat="44.2646" lon="3.73254">
        <ele>833</ele>
        <time>2015-06-17T13:17:57Z</time>
      </trkpt>
      <trkpt lat="44.26453" lon="3.73253">
        <ele>834</ele>
        <time>2015-06-17T13:18:01Z</time>
      </trkpt>
      <trkpt lat="44.26448" lon="3.73251">
        <ele>835</ele>
        <time>2015-06-17T13:18:04Z</time>
      </trkpt>
      <trkpt lat="44.26444" lon="3.73247">
        <ele>836</ele>
        <time>2015-06-17T13:18:08Z</time>
      </trkpt>
      <trkpt lat="44.26442" lon="3.73241">
        <ele>836</ele>
        <time>2015-06-17T13:18:13Z</time>
      </trkpt>
      <trkpt lat="44.26438" lon="3.73236">
        <ele>837</ele>
        <time>2015-06-17T13:18:17Z</time>
      </trkpt>
      <trkpt lat="44.26434" lon="3.73232">
        <ele>837</ele>
        <time>2015-06-17T13:18:22Z</time>
      </trkpt>
      <trkpt lat="44.26432" lon="3.73226">
        <ele>837</ele>
        <time>2015-06-17T13:18:27Z</time>
      </trkpt>
      <trkpt lat="44.26432" lon="3.73218">
        <ele>836</ele>
        <time>2015-06-17T13:18:32Z</time>
      </trkpt>
      <trkpt lat="44.26434" lon="3.73205">
        <ele>836</ele>
        <time>2015-06-17T13:18:36Z</time>
      </trkpt>
      <trkpt lat="44.26426" lon="3.73187">
        <ele>839</ele>
        <time>2015-06-17T13:18:42Z</time>
      </trkpt>
      <trkpt lat="44.26429" lon="3.73183">
        <ele>839</ele>
        <time>2015-06-17T13:18:52Z</time>
      </trkpt>
      <trkpt lat="44.26426" lon="3.73162">
        <ele>839</ele>
        <time>2015-06-17T13:19:12Z</time>
      </trkpt>
      <trkpt lat="44.26421" lon="3.7315">
        <ele>836</ele>
        <time>2015-06-17T13:19:20Z</time>
      </trkpt>
      <trkpt lat="44.26416" lon="3.73149">
        <ele>849</ele>
        <time>2015-06-17T13:19:23Z</time>
      </trkpt>
      <trkpt lat="44.26409" lon="3.73138">
        <ele>850</ele>
        <time>2015-06-17T13:19:26Z</time>
      </trkpt>
      <trkpt lat="44.26404" lon="3.73134">
        <ele>850</ele>
        <time>2015-06-17T13:19:30Z</time>
      </trkpt>
      <trkpt lat="44.26399" lon="3.73132">
        <ele>851</ele>
        <time>2015-06-17T13:19:35Z</time>
      </trkpt>
      <trkpt lat="44.26396" lon="3.73126">
        <ele>851</ele>
        <time>2015-06-17T13:19:38Z</time>
      </trkpt>
      <trkpt lat="44.264" lon="3.73114">
        <ele>848</ele>
        <time>2015-06-17T13:19:46Z</time>
      </trkpt>
      <trkpt lat="44.264" lon="3.73107">
        <ele>847</ele>
        <time>2015-06-17T13:19:55Z</time>
      </trkpt>
      <trkpt lat="44.26395" lon="3.73103">
        <ele>848</ele>
        <time>2015-06-17T13:20:00Z</time>
      </trkpt>
      <trkpt lat="44.26389" lon="3.73101">
        <ele>849</ele>
        <time>2015-06-17T13:20:03Z</time>
      </trkpt>
      <trkpt lat="44.26388" lon="3.73093">
        <ele>848</ele>
        <time>2015-06-17T13:20:06Z</time>
      </trkpt>
      <trkpt lat="44.26385" lon="3.73087">
        <ele>849</ele>
        <time>2015-06-17T13:20:10Z</time>
      </trkpt>
      <trkpt lat="44.26381" lon="3.73085">
        <ele>850</ele>
        <time>2015-06-17T13:20:13Z</time>
      </trkpt>
      <trkpt lat="44.26376" lon="3.73085">
        <ele>852</ele>
        <time>2015-06-17T13:20:16Z</time>
      </trkpt>
      <trkpt lat="44.26371" lon="3.73084">
        <ele>853</ele>
        <time>2015-06-17T13:20:21Z</time>
      </trkpt>
      <trkpt lat="44.26368" lon="3.73078">
        <ele>846</ele>
        <time>2015-06-17T13:20:26Z</time>
      </trkpt>
      <trkpt lat="44.26366" lon="3.73072">
        <ele>846</ele>
        <time>2015-06-17T13:20:30Z</time>
      </trkpt>
      <trkpt lat="44.26362" lon="3.73068">
        <ele>847</ele>
        <time>2015-06-17T13:20:35Z</time>
      </trkpt>
      <trkpt lat="44.26357" lon="3.73066">
        <ele>848</ele>
        <time>2015-06-17T13:20:38Z</time>
      </trkpt>
      <trkpt lat="44.26353" lon="3.7306">
        <ele>848</ele>
        <time>2015-06-17T13:20:41Z</time>
      </trkpt>
      <trkpt lat="44.26349" lon="3.73047">
        <ele>846</ele>
        <time>2015-06-17T13:20:49Z</time>
      </trkpt>
      <trkpt lat="44.26345" lon="3.73043">
        <ele>846</ele>
        <time>2015-06-17T13:20:52Z</time>
      </trkpt>
      <trkpt lat="44.26339" lon="3.73033">
        <ele>846</ele>
        <time>2015-06-17T13:21:01Z</time>
      </trkpt>
      <trkpt lat="44.26336" lon="3.73027">
        <ele>846</ele>
        <time>2015-06-17T13:21:06Z</time>
      </trkpt>
      <trkpt lat="44.26332" lon="3.73029">
        <ele>864</ele>
        <time>2015-06-17T13:21:14Z</time>
      </trkpt>
      <trkpt lat="44.26328" lon="3.73024">
        <ele>864</ele>
        <time>2015-06-17T13:21:17Z</time>
      </trkpt>
      <trkpt lat="44.26323" lon="3.7301">
        <ele>860</ele>
        <time>2015-06-17T13:21:22Z</time>
      </trkpt>
      <trkpt lat="44.26323" lon="3.73003">
        <ele>858</ele>
        <time>2015-06-17T13:21:24Z</time>
      </trkpt>
      <trkpt lat="44.2632" lon="3.72996">
        <ele>857</ele>
        <time>2015-06-17T13:21:27Z</time>
      </trkpt>
      <trkpt lat="44.2632" lon="3.72988">
        <ele>858</ele>
        <time>2015-06-17T13:21:30Z</time>
      </trkpt>
      <trkpt lat="44.26317" lon="3.72982">
        <ele>859</ele>
        <time>2015-06-17T13:21:34Z</time>
      </trkpt>
      <trkpt lat="44.26312" lon="3.72981">
        <ele>861</ele>
        <time>2015-06-17T13:21:38Z</time>
      </trkpt>
      <trkpt lat="44.26318" lon="3.72969">
        <ele>860</ele>
        <time>2015-06-17T13:21:45Z</time>
      </trkpt>
      <trkpt lat="44.26321" lon="3.72962">
        <ele>860</ele>
        <time>2015-06-17T13:21:48Z</time>
      </trkpt>
      <trkpt lat="44.26323" lon="3.72956">
        <ele>860</ele>
        <time>2015-06-17T13:21:52Z</time>
      </trkpt>
      <trkpt lat="44.26327" lon="3.72952">
        <ele>859</ele>
        <time>2015-06-17T13:21:56Z</time>
      </trkpt>
      <trkpt lat="44.26328" lon="3.72945">
        <ele>858</ele>
        <time>2015-06-17T13:21:59Z</time>
      </trkpt>
      <trkpt lat="44.26325" lon="3.72937">
        <ele>857</ele>
        <time>2015-06-17T13:22:02Z</time>
      </trkpt>
      <trkpt lat="44.26321" lon="3.72932">
        <ele>856</ele>
        <time>2015-06-17T13:22:05Z</time>
      </trkpt>
      <trkpt lat="44.2632" lon="3.72926">
        <ele>855</ele>
        <time>2015-06-17T13:22:09Z</time>
      </trkpt>
      <trkpt lat="44.26327" lon="3.72902">
        <ele>853</ele>
        <time>2015-06-17T13:22:27Z</time>
      </trkpt>
      <trkpt lat="44.26325" lon="3.72893">
        <ele>855</ele>
        <time>2015-06-17T13:22:33Z</time>
      </trkpt>
      <trkpt lat="44.26323" lon="3.72887">
        <ele>856</ele>
        <time>2015-06-17T13:22:37Z</time>
      </trkpt>
      <trkpt lat="44.26316" lon="3.72858">
        <ele>857</ele>
        <time>2015-06-17T13:22:58Z</time>
      </trkpt>
      <trkpt lat="44.26318" lon="3.72851">
        <ele>855</ele>
        <time>2015-06-17T13:23:04Z</time>
      </trkpt>
      <trkpt lat="44.26316" lon="3.72844">
        <ele>855</ele>
        <time>2015-06-17T13:23:08Z</time>
      </trkpt>
      <trkpt lat="44.26315" lon="3.72836">
        <ele>854</ele>
        <time>2015-06-17T13:23:12Z</time>
      </trkpt>
      <trkpt lat="44.26311" lon="3.72824">
        <ele>853</ele>
        <time>2015-06-17T13:23:18Z</time>
      </trkpt>
      <trkpt lat="44.26307" lon="3.7282">
        <ele>854</ele>
        <time>2015-06-17T13:23:21Z</time>
      </trkpt>
      <trkpt lat="44.26306" lon="3.72813">
        <ele>855</ele>
        <time>2015-06-17T13:23:25Z</time>
      </trkpt>
      <trkpt lat="44.26302" lon="3.72808">
        <ele>855</ele>
        <time>2015-06-17T13:23:36Z</time>
      </trkpt>
      <trkpt lat="44.26301" lon="3.72801">
        <ele>855</ele>
        <time>2015-06-17T13:23:41Z</time>
      </trkpt>
      <trkpt lat="44.26297" lon="3.72788">
        <ele>855</ele>
        <time>2015-06-17T13:23:48Z</time>
      </trkpt>
      <trkpt lat="44.26292" lon="3.72784">
        <ele>856</ele>
        <time>2015-06-17T13:23:52Z</time>
      </trkpt>
      <trkpt lat="44.26292" lon="3.72776">
        <ele>856</ele>
        <time>2015-06-17T13:23:57Z</time>
      </trkpt>
      <trkpt lat="44.26288" lon="3.7277">
        <ele>856</ele>
        <time>2015-06-17T13:24:02Z</time>
      </trkpt>
      <trkpt lat="44.26288" lon="3.72762">
        <ele>856</ele>
        <time>2015-06-17T13:24:06Z</time>
      </trkpt>
      <trkpt lat="44.26281" lon="3.72742">
        <ele>851</ele>
        <time>2015-06-17T13:24:17Z</time>
      </trkpt>
      <trkpt lat="44.26281" lon="3.72735">
        <ele>850</ele>
        <time>2015-06-17T13:24:21Z</time>
      </trkpt>
      <trkpt lat="44.26276" lon="3.72732">
        <ele>851</ele>
        <time>2015-06-17T13:24:26Z</time>
      </trkpt>
      <trkpt lat="44.26273" lon="3.72716">
        <ele>849</ele>
        <time>2015-06-17T13:24:35Z</time>
      </trkpt>
      <trkpt lat="44.26273" lon="3.72709">
        <ele>848</ele>
        <time>2015-06-17T13:24:39Z</time>
      </trkpt>
      <trkpt lat="44.26276" lon="3.72704">
        <ele>847</ele>
        <time>2015-06-17T13:24:42Z</time>
      </trkpt>
      <trkpt lat="44.26271" lon="3.72703">
        <ele>848</ele>
        <time>2015-06-17T13:24:47Z</time>
      </trkpt>
      <trkpt lat="44.26267" lon="3.727">
        <ele>848</ele>
        <time>2015-06-17T13:24:53Z</time>
      </trkpt>
      <trkpt lat="44.26262" lon="3.727">
        <ele>848</ele>
        <time>2015-06-17T13:24:58Z</time>
      </trkpt>
      <trkpt lat="44.26257" lon="3.72699">
        <ele>848</ele>
        <time>2015-06-17T13:25:02Z</time>
      </trkpt>
      <trkpt lat="44.26247" lon="3.727">
        <ele>853</ele>
        <time>2015-06-17T13:25:22Z</time>
      </trkpt>
      <trkpt lat="44.26241" lon="3.72698">
        <ele>853</ele>
        <time>2015-06-17T13:25:39Z</time>
      </trkpt>
      <trkpt lat="44.26225" lon="3.72699">
        <ele>853</ele>
        <time>2015-06-17T13:25:46Z</time>
      </trkpt>
      <trkpt lat="44.26205" lon="3.72706">
        <ele>854</ele>
        <time>2015-06-17T13:25:59Z</time>
      </trkpt>
      <trkpt lat="44.26199" lon="3.72708">
        <ele>854</ele>
        <time>2015-06-17T13:26:02Z</time>
      </trkpt>
      <trkpt lat="44.26182" lon="3.7271">
        <ele>854</ele>
        <time>2015-06-17T13:26:13Z</time>
      </trkpt>
      <trkpt lat="44.26177" lon="3.72712">
        <ele>855</ele>
        <time>2015-06-17T13:26:17Z</time>
      </trkpt>
      <trkpt lat="44.26173" lon="3.72714">
        <ele>855</ele>
        <time>2015-06-17T13:26:20Z</time>
      </trkpt>
      <trkpt lat="44.26169" lon="3.7272">
        <ele>856</ele>
        <time>2015-06-17T13:26:25Z</time>
      </trkpt>
      <trkpt lat="44.26168" lon="3.72727">
        <ele>858</ele>
        <time>2015-06-17T13:26:29Z</time>
      </trkpt>
      <trkpt lat="44.26164" lon="3.72733">
        <ele>856</ele>
        <time>2015-06-17T13:26:33Z</time>
      </trkpt>
      <trkpt lat="44.26148" lon="3.72744">
        <ele>856</ele>
        <time>2015-06-17T13:26:42Z</time>
      </trkpt>
      <trkpt lat="44.26144" lon="3.72748">
        <ele>855</ele>
        <time>2015-06-17T13:26:45Z</time>
      </trkpt>
      <trkpt lat="44.26141" lon="3.72762">
        <ele>871</ele>
        <time>2015-06-17T13:26:58Z</time>
      </trkpt>
      <trkpt lat="44.26122" lon="3.72775">
        <ele>872</ele>
        <time>2015-06-17T13:27:19Z</time>
      </trkpt>
      <trkpt lat="44.2611" lon="3.72779">
        <ele>871</ele>
        <time>2015-06-17T13:27:24Z</time>
      </trkpt>
      <trkpt lat="44.26104" lon="3.72783">
        <ele>872</ele>
        <time>2015-06-17T13:27:26Z</time>
      </trkpt>
      <trkpt lat="44.26101" lon="3.72781">
        <ele>871</ele>
        <time>2015-06-17T13:27:50Z</time>
      </trkpt>
      <trkpt lat="44.261" lon="3.7278">
        <ele>871</ele>
        <time>2015-06-17T13:27:52Z</time>
      </trkpt>
      <trkpt lat="44.26095" lon="3.72779">
        <ele>870</ele>
        <time>2015-06-17T13:27:54Z</time>
      </trkpt>
      <trkpt lat="44.2609" lon="3.72776">
        <ele>869</ele>
        <time>2015-06-17T13:27:58Z</time>
      </trkpt>
      <trkpt lat="44.26088" lon="3.72782">
        <ele>870</ele>
        <time>2015-06-17T13:28:04Z</time>
      </trkpt>
      <trkpt lat="44.26086" lon="3.72788">
        <ele>872</ele>
        <time>2015-06-17T13:28:09Z</time>
      </trkpt>
      <trkpt lat="44.2608" lon="3.72793">
        <ele>873</ele>
        <time>2015-06-17T13:28:12Z</time>
      </trkpt>
      <trkpt lat="44.2607" lon="3.72798">
        <ele>875</ele>
        <time>2015-06-17T13:28:18Z</time>
      </trkpt>
      <trkpt lat="44.26065" lon="3.72798">
        <ele>875</ele>
        <time>2015-06-17T13:28:24Z</time>
      </trkpt>
      <trkpt lat="44.26055" lon="3.72802">
        <ele>875</ele>
        <time>2015-06-17T13:28:32Z</time>
      </trkpt>
      <trkpt lat="44.2605" lon="3.72801">
        <ele>875</ele>
        <time>2015-06-17T13:28:35Z</time>
      </trkpt>
      <trkpt lat="44.26045" lon="3.72798">
        <ele>875</ele>
        <time>2015-06-17T13:28:39Z</time>
      </trkpt>
      <trkpt lat="44.26035" lon="3.72801">
        <ele>876</ele>
        <time>2015-06-17T13:28:47Z</time>
      </trkpt>
      <trkpt lat="44.26028" lon="3.72791">
        <ele>874</ele>
        <time>2015-06-17T13:28:55Z</time>
      </trkpt>
      <trkpt lat="44.26024" lon="3.72785">
        <ele>873</ele>
        <time>2015-06-17T13:28:59Z</time>
      </trkpt>
      <trkpt lat="44.2602" lon="3.72781">
        <ele>872</ele>
        <time>2015-06-17T13:29:03Z</time>
      </trkpt>
      <trkpt lat="44.26016" lon="3.72783">
        <ele>872</ele>
        <time>2015-06-17T13:29:08Z</time>
      </trkpt>
      <trkpt lat="44.26011" lon="3.72783">
        <ele>872</ele>
        <time>2015-06-17T13:29:11Z</time>
      </trkpt>
      <trkpt lat="44.26006" lon="3.72781">
        <ele>872</ele>
        <time>2015-06-17T13:29:15Z</time>
      </trkpt>
      <trkpt lat="44.26004" lon="3.72775">
        <ele>870</ele>
        <time>2015-06-17T13:29:18Z</time>
      </trkpt>
      <trkpt lat="44.25992" lon="3.72779">
        <ele>879</ele>
        <time>2015-06-17T13:29:24Z</time>
      </trkpt>
      <trkpt lat="44.2598" lon="3.72776">
        <ele>879</ele>
        <time>2015-06-17T13:29:29Z</time>
      </trkpt>
      <trkpt lat="44.25975" lon="3.72777">
        <ele>881</ele>
        <time>2015-06-17T13:29:32Z</time>
      </trkpt>
      <trkpt lat="44.25971" lon="3.72775">
        <ele>881</ele>
        <time>2015-06-17T13:29:37Z</time>
      </trkpt>
      <trkpt lat="44.25966" lon="3.72773">
        <ele>881</ele>
        <time>2015-06-17T13:29:42Z</time>
      </trkpt>
      <trkpt lat="44.25958" lon="3.72768">
        <ele>882</ele>
        <time>2015-06-17T13:29:51Z</time>
      </trkpt>
      <trkpt lat="44.25953" lon="3.7277">
        <ele>883</ele>
        <time>2015-06-17T13:29:56Z</time>
      </trkpt>
      <trkpt lat="44.25949" lon="3.72767">
        <ele>883</ele>
        <time>2015-06-17T13:30:02Z</time>
      </trkpt>
      <trkpt lat="44.25945" lon="3.72768">
        <ele>883</ele>
        <time>2015-06-17T13:30:09Z</time>
      </trkpt>
      <trkpt lat="44.2594" lon="3.72767">
        <ele>884</ele>
        <time>2015-06-17T13:30:14Z</time>
      </trkpt>
      <trkpt lat="44.25935" lon="3.72765">
        <ele>884</ele>
        <time>2015-06-17T13:30:20Z</time>
      </trkpt>
      <trkpt lat="44.25931" lon="3.72759">
        <ele>883</ele>
        <time>2015-06-17T13:30:25Z</time>
      </trkpt>
      <trkpt lat="44.25929" lon="3.72753">
        <ele>883</ele>
        <time>2015-06-17T13:30:29Z</time>
      </trkpt>
      <trkpt lat="44.25911" lon="3.72732">
        <ele>885</ele>
        <time>2015-06-17T13:30:36Z</time>
      </trkpt>
      <trkpt lat="44.25907" lon="3.72729">
        <ele>886</ele>
        <time>2015-06-17T13:30:38Z</time>
      </trkpt>
      <trkpt lat="44.25908" lon="3.72708">
        <ele>885</ele>
        <time>2015-06-17T13:30:53Z</time>
      </trkpt>
      <trkpt lat="44.25904" lon="3.72694">
        <ele>883</ele>
        <time>2015-06-17T13:31:04Z</time>
      </trkpt>
      <trkpt lat="44.259" lon="3.72691">
        <ele>883</ele>
        <time>2015-06-17T13:31:07Z</time>
      </trkpt>
      <trkpt lat="44.25894" lon="3.72681">
        <ele>882</ele>
        <time>2015-06-17T13:31:13Z</time>
      </trkpt>
      <trkpt lat="44.25892" lon="3.72674">
        <ele>882</ele>
        <time>2015-06-17T13:31:16Z</time>
      </trkpt>
      <trkpt lat="44.25893" lon="3.72668">
        <ele>881</ele>
        <time>2015-06-17T13:31:19Z</time>
      </trkpt>
      <trkpt lat="44.25888" lon="3.72656">
        <ele>876</ele>
        <time>2015-06-17T13:31:28Z</time>
      </trkpt>
      <trkpt lat="44.25886" lon="3.7265">
        <ele>877</ele>
        <time>2015-06-17T13:31:33Z</time>
      </trkpt>
      <trkpt lat="44.25887" lon="3.72644">
        <ele>877</ele>
        <time>2015-06-17T13:31:45Z</time>
      </trkpt>
      <trkpt lat="44.25883" lon="3.72638">
        <ele>878</ele>
        <time>2015-06-17T13:31:49Z</time>
      </trkpt>
      <trkpt lat="44.25878" lon="3.72634">
        <ele>878</ele>
        <time>2015-06-17T13:31:51Z</time>
      </trkpt>
      <trkpt lat="44.25872" lon="3.72631">
        <ele>880</ele>
        <time>2015-06-17T13:31:53Z</time>
      </trkpt>
      <trkpt lat="44.25868" lon="3.72625">
        <ele>880</ele>
        <time>2015-06-17T13:31:57Z</time>
      </trkpt>
      <trkpt lat="44.25866" lon="3.72618">
        <ele>880</ele>
        <time>2015-06-17T13:32:00Z</time>
      </trkpt>
      <trkpt lat="44.2587" lon="3.72607">
        <ele>879</ele>
        <time>2015-06-17T13:32:08Z</time>
      </trkpt>
      <trkpt lat="44.25877" lon="3.72599">
        <ele>876</ele>
        <time>2015-06-17T13:32:15Z</time>
      </trkpt>
      <trkpt lat="44.25883" lon="3.72587">
        <ele>874</ele>
        <time>2015-06-17T13:32:24Z</time>
      </trkpt>
      <trkpt lat="44.25879" lon="3.72582">
        <ele>866</ele>
        <time>2015-06-17T13:32:33Z</time>
      </trkpt>
      <trkpt lat="44.25875" lon="3.72579">
        <ele>867</ele>
        <time>2015-06-17T13:32:37Z</time>
      </trkpt>
      <trkpt lat="44.25871" lon="3.72574">
        <ele>868</ele>
        <time>2015-06-17T13:32:43Z</time>
      </trkpt>
      <trkpt lat="44.25867" lon="3.72571">
        <ele>869</ele>
        <time>2015-06-17T13:32:46Z</time>
      </trkpt>
      <trkpt lat="44.25863" lon="3.72568">
        <ele>870</ele>
        <time>2015-06-17T13:32:50Z</time>
      </trkpt>
      <trkpt lat="44.25854" lon="3.72559">
        <ele>871</ele>
        <time>2015-06-17T13:33:02Z</time>
      </trkpt>
      <trkpt lat="44.2585" lon="3.72554">
        <ele>871</ele>
        <time>2015-06-17T13:33:06Z</time>
      </trkpt>
      <trkpt lat="44.25845" lon="3.72551">
        <ele>871</ele>
        <time>2015-06-17T13:33:10Z</time>
      </trkpt>
      <trkpt lat="44.25841" lon="3.72548">
        <ele>871</ele>
        <time>2015-06-17T13:33:14Z</time>
      </trkpt>
      <trkpt lat="44.2584" lon="3.72542">
        <ele>870</ele>
        <time>2015-06-17T13:33:19Z</time>
      </trkpt>
      <trkpt lat="44.25835" lon="3.72545">
        <ele>871</ele>
        <time>2015-06-17T13:33:24Z</time>
      </trkpt>
      <trkpt lat="44.2583" lon="3.72548">
        <ele>894</ele>
        <time>2015-06-17T13:33:27Z</time>
      </trkpt>
      <trkpt lat="44.25814" lon="3.72545">
        <ele>895</ele>
        <time>2015-06-17T13:33:42Z</time>
      </trkpt>
      <trkpt lat="44.25811" lon="3.7254">
        <ele>895</ele>
        <time>2015-06-17T13:33:47Z</time>
      </trkpt>
      <trkpt lat="44.25808" lon="3.72535">
        <ele>895</ele>
        <time>2015-06-17T13:33:50Z</time>
      </trkpt>
      <trkpt lat="44.25798" lon="3.72528">
        <ele>896</ele>
        <time>2015-06-17T13:34:00Z</time>
      </trkpt>
      <trkpt lat="44.25795" lon="3.72521">
        <ele>896</ele>
        <time>2015-06-17T13:34:05Z</time>
      </trkpt>
      <trkpt lat="44.2579" lon="3.72517">
        <ele>896</ele>
        <time>2015-06-17T13:34:10Z</time>
      </trkpt>
      <trkpt lat="44.25785" lon="3.72517">
        <ele>898</ele>
        <time>2015-06-17T13:34:15Z</time>
      </trkpt>
      <trkpt lat="44.25781" lon="3.72513">
        <ele>898</ele>
        <time>2015-06-17T13:34:21Z</time>
      </trkpt>
      <trkpt lat="44.25778" lon="3.72509">
        <ele>899</ele>
        <time>2015-06-17T13:34:24Z</time>
      </trkpt>
      <trkpt lat="44.2576" lon="3.72498">
        <ele>894</ele>
        <time>2015-06-17T13:34:46Z</time>
      </trkpt>
      <trkpt lat="44.25756" lon="3.72494">
        <ele>896</ele>
        <time>2015-06-17T13:34:50Z</time>
      </trkpt>
      <trkpt lat="44.25752" lon="3.72489">
        <ele>894</ele>
        <time>2015-06-17T13:34:54Z</time>
      </trkpt>
      <trkpt lat="44.25751" lon="3.72482">
        <ele>889</ele>
        <time>2015-06-17T13:34:58Z</time>
      </trkpt>
      <trkpt lat="44.25748" lon="3.72476">
        <ele>900</ele>
        <time>2015-06-17T13:35:03Z</time>
      </trkpt>
      <trkpt lat="44.25745" lon="3.72473">
        <ele>900</ele>
        <time>2015-06-17T13:35:31Z</time>
      </trkpt>
      <trkpt lat="44.25745" lon="3.72472">
        <ele>900</ele>
        <time>2015-06-17T13:35:34Z</time>
      </trkpt>
      <trkpt lat="44.25744" lon="3.72472">
        <ele>900</ele>
        <time>2015-06-17T13:36:02Z</time>
      </trkpt>
      <trkpt lat="44.25739" lon="3.7247">
        <ele>899</ele>
        <time>2015-06-17T13:36:19Z</time>
      </trkpt>
      <trkpt lat="44.25733" lon="3.72466">
        <ele>899</ele>
        <time>2015-06-17T13:36:22Z</time>
      </trkpt>
      <trkpt lat="44.25722" lon="3.72463">
        <ele>899</ele>
        <time>2015-06-17T13:36:28Z</time>
      </trkpt>
      <trkpt lat="44.25721" lon="3.72456">
        <ele>898</ele>
        <time>2015-06-17T13:36:38Z</time>
      </trkpt>
      <trkpt lat="44.25724" lon="3.72451">
        <ele>897</ele>
        <time>2015-06-17T13:36:43Z</time>
      </trkpt>
      <trkpt lat="44.25724" lon="3.7245">
        <ele>897</ele>
        <time>2015-06-17T13:37:05Z</time>
      </trkpt>
      <trkpt lat="44.25714" lon="3.72452">
        <ele>898</ele>
        <time>2015-06-17T13:43:22Z</time>
      </trkpt>
      <trkpt lat="44.25703" lon="3.7246">
        <ele>901</ele>
        <time>2015-06-17T13:43:27Z</time>
      </trkpt>
      <trkpt lat="44.25697" lon="3.72467">
        <ele>903</ele>
        <time>2015-06-17T13:43:29Z</time>
      </trkpt>
      <trkpt lat="44.25692" lon="3.7247">
        <ele>904</ele>
        <time>2015-06-17T13:43:32Z</time>
      </trkpt>
      <trkpt lat="44.25687" lon="3.7247">
        <ele>905</ele>
        <time>2015-06-17T13:43:36Z</time>
      </trkpt>
      <trkpt lat="44.25684" lon="3.72475">
        <ele>907</ele>
        <time>2015-06-17T13:43:40Z</time>
      </trkpt>
      <trkpt lat="44.25681" lon="3.7248">
        <ele>909</ele>
        <time>2015-06-17T13:43:43Z</time>
      </trkpt>
      <trkpt lat="44.25677" lon="3.72483">
        <ele>911</ele>
        <time>2015-06-17T13:43:49Z</time>
      </trkpt>
      <trkpt lat="44.25672" lon="3.72481">
        <ele>911</ele>
        <time>2015-06-17T13:43:54Z</time>
      </trkpt>
      <trkpt lat="44.25668" lon="3.72479">
        <ele>910</ele>
        <time>2015-06-17T13:43:59Z</time>
      </trkpt>
      <trkpt lat="44.25657" lon="3.72476">
        <ele>918</ele>
        <time>2015-06-17T13:44:06Z</time>
      </trkpt>
      <trkpt lat="44.25652" lon="3.72477">
        <ele>919</ele>
        <time>2015-06-17T13:44:09Z</time>
      </trkpt>
      <trkpt lat="44.25647" lon="3.72478">
        <ele>919</ele>
        <time>2015-06-17T13:44:12Z</time>
      </trkpt>
      <trkpt lat="44.25629" lon="3.72478">
        <ele>920</ele>
        <time>2015-06-17T13:44:23Z</time>
      </trkpt>
      <trkpt lat="44.25626" lon="3.72473">
        <ele>919</ele>
        <time>2015-06-17T13:44:28Z</time>
      </trkpt>
      <trkpt lat="44.25621" lon="3.72477">
        <ele>921</ele>
        <time>2015-06-17T13:44:31Z</time>
      </trkpt>
      <trkpt lat="44.25616" lon="3.72479">
        <ele>922</ele>
        <time>2015-06-17T13:44:41Z</time>
      </trkpt>
      <trkpt lat="44.25611" lon="3.72476">
        <ele>922</ele>
        <time>2015-06-17T13:44:43Z</time>
      </trkpt>
      <trkpt lat="44.25608" lon="3.72471">
        <ele>921</ele>
        <time>2015-06-17T13:44:46Z</time>
      </trkpt>
      <trkpt lat="44.25604" lon="3.7246">
        <ele>919</ele>
        <time>2015-06-17T13:44:53Z</time>
      </trkpt>
      <trkpt lat="44.25596" lon="3.72451">
        <ele>918</ele>
        <time>2015-06-17T13:45:00Z</time>
      </trkpt>
      <trkpt lat="44.25591" lon="3.72451">
        <ele>919</ele>
        <time>2015-06-17T13:45:04Z</time>
      </trkpt>
      <trkpt lat="44.25586" lon="3.72451">
        <ele>919</ele>
        <time>2015-06-17T13:45:08Z</time>
      </trkpt>
      <trkpt lat="44.25582" lon="3.72449">
        <ele>928</ele>
        <time>2015-06-17T13:45:16Z</time>
      </trkpt>
      <trkpt lat="44.25578" lon="3.72447">
        <ele>928</ele>
        <time>2015-06-17T13:45:23Z</time>
      </trkpt>
      <trkpt lat="44.25576" lon="3.7244">
        <ele>926</ele>
        <time>2015-06-17T13:45:27Z</time>
      </trkpt>
      <trkpt lat="44.25573" lon="3.72435">
        <ele>925</ele>
        <time>2015-06-17T13:45:35Z</time>
      </trkpt>
      <trkpt lat="44.25569" lon="3.72431">
        <ele>924</ele>
        <time>2015-06-17T13:45:43Z</time>
      </trkpt>
      <trkpt lat="44.25564" lon="3.7243">
        <ele>925</ele>
        <time>2015-06-17T13:45:47Z</time>
      </trkpt>
      <trkpt lat="44.25559" lon="3.7243">
        <ele>927</ele>
        <time>2015-06-17T13:45:52Z</time>
      </trkpt>
      <trkpt lat="44.25554" lon="3.72428">
        <ele>928</ele>
        <time>2015-06-17T13:45:59Z</time>
      </trkpt>
      <trkpt lat="44.25545" lon="3.72431">
        <ele>930</ele>
        <time>2015-06-17T13:46:10Z</time>
      </trkpt>
      <trkpt lat="44.25541" lon="3.72435">
        <ele>931</ele>
        <time>2015-06-17T13:46:17Z</time>
      </trkpt>
      <trkpt lat="44.25535" lon="3.72432">
        <ele>931</ele>
        <time>2015-06-17T13:46:25Z</time>
      </trkpt>
      <trkpt lat="44.25531" lon="3.72429">
        <ele>931</ele>
        <time>2015-06-17T13:46:28Z</time>
      </trkpt>
      <trkpt lat="44.25526" lon="3.72426">
        <ele>931</ele>
        <time>2015-06-17T13:46:31Z</time>
      </trkpt>
      <trkpt lat="44.25521" lon="3.72427">
        <ele>931</ele>
        <time>2015-06-17T13:46:35Z</time>
      </trkpt>
      <trkpt lat="44.25507" lon="3.72416">
        <ele>925</ele>
        <time>2015-06-17T13:46:48Z</time>
      </trkpt>
      <trkpt lat="44.25502" lon="3.72416">
        <ele>927</ele>
        <time>2015-06-17T13:46:55Z</time>
      </trkpt>
      <trkpt lat="44.25497" lon="3.72416">
        <ele>927</ele>
        <time>2015-06-17T13:47:01Z</time>
      </trkpt>
      <trkpt lat="44.25494" lon="3.72411">
        <ele>925</ele>
        <time>2015-06-17T13:47:10Z</time>
      </trkpt>
      <trkpt lat="44.25489" lon="3.72406">
        <ele>923</ele>
        <time>2015-06-17T13:47:15Z</time>
      </trkpt>
      <trkpt lat="44.25484" lon="3.72407">
        <ele>923</ele>
        <time>2015-06-17T13:47:19Z</time>
      </trkpt>
      <trkpt lat="44.25479" lon="3.72412">
        <ele>923</ele>
        <time>2015-06-17T13:47:23Z</time>
      </trkpt>
      <trkpt lat="44.25474" lon="3.72414">
        <ele>922</ele>
        <time>2015-06-17T13:47:26Z</time>
      </trkpt>
      <trkpt lat="44.25469" lon="3.72418">
        <ele>938</ele>
        <time>2015-06-17T13:47:29Z</time>
      </trkpt>
      <trkpt lat="44.25465" lon="3.72419">
        <ele>938</ele>
        <time>2015-06-17T13:47:31Z</time>
      </trkpt>
      <trkpt lat="44.2546" lon="3.72421">
        <ele>939</ele>
        <time>2015-06-17T13:47:34Z</time>
      </trkpt>
      <trkpt lat="44.25455" lon="3.72419">
        <ele>939</ele>
        <time>2015-06-17T13:47:40Z</time>
      </trkpt>
      <trkpt lat="44.25454" lon="3.72426">
        <ele>939</ele>
        <time>2015-06-17T13:47:46Z</time>
      </trkpt>
      <trkpt lat="44.2545" lon="3.72423">
        <ele>939</ele>
        <time>2015-06-17T13:47:50Z</time>
      </trkpt>
      <trkpt lat="44.25444" lon="3.72425">
        <ele>939</ele>
        <time>2015-06-17T13:47:53Z</time>
      </trkpt>
      <trkpt lat="44.2542" lon="3.72441">
        <ele>940</ele>
        <time>2015-06-17T13:48:31Z</time>
      </trkpt>
      <trkpt lat="44.25411" lon="3.7245">
        <ele>943</ele>
        <time>2015-06-17T13:48:36Z</time>
      </trkpt>
      <trkpt lat="44.25406" lon="3.72452">
        <ele>944</ele>
        <time>2015-06-17T13:48:38Z</time>
      </trkpt>
      <trkpt lat="44.25401" lon="3.72451">
        <ele>944</ele>
        <time>2015-06-17T13:48:41Z</time>
      </trkpt>
      <trkpt lat="44.25398" lon="3.72446">
        <ele>943</ele>
        <time>2015-06-17T13:48:43Z</time>
      </trkpt>
      <trkpt lat="44.25393" lon="3.72446">
        <ele>943</ele>
        <time>2015-06-17T13:48:47Z</time>
      </trkpt>
      <trkpt lat="44.25388" lon="3.72443">
        <ele>943</ele>
        <time>2015-06-17T13:48:54Z</time>
      </trkpt>
      <trkpt lat="44.25384" lon="3.72446">
        <ele>944</ele>
        <time>2015-06-17T13:48:58Z</time>
      </trkpt>
      <trkpt lat="44.25379" lon="3.72448">
        <ele>944</ele>
        <time>2015-06-17T13:49:19Z</time>
      </trkpt>
      <trkpt lat="44.25374" lon="3.72451">
        <ele>944</ele>
        <time>2015-06-17T13:49:23Z</time>
      </trkpt>
      <trkpt lat="44.25369" lon="3.72451">
        <ele>945</ele>
        <time>2015-06-17T13:49:26Z</time>
      </trkpt>
      <trkpt lat="44.25364" lon="3.72451">
        <ele>944</ele>
        <time>2015-06-17T13:49:28Z</time>
      </trkpt>
      <trkpt lat="44.25358" lon="3.72451">
        <ele>945</ele>
        <time>2015-06-17T13:49:30Z</time>
      </trkpt>
      <trkpt lat="44.25353" lon="3.72452">
        <ele>944</ele>
        <time>2015-06-17T13:49:33Z</time>
      </trkpt>
      <trkpt lat="44.25348" lon="3.72451">
        <ele>944</ele>
        <time>2015-06-17T13:49:37Z</time>
      </trkpt>
      <trkpt lat="44.25342" lon="3.72448">
        <ele>944</ele>
        <time>2015-06-17T13:49:39Z</time>
      </trkpt>
      <trkpt lat="44.25337" lon="3.72447">
        <ele>943</ele>
        <time>2015-06-17T13:49:41Z</time>
      </trkpt>
      <trkpt lat="44.25333" lon="3.72447">
        <ele>946</ele>
        <time>2015-06-17T13:49:43Z</time>
      </trkpt>
      <trkpt lat="44.25328" lon="3.72444">
        <ele>945</ele>
        <time>2015-06-17T13:49:46Z</time>
      </trkpt>
      <trkpt lat="44.25324" lon="3.72438">
        <ele>944</ele>
        <time>2015-06-17T13:49:51Z</time>
      </trkpt>
      <trkpt lat="44.2532" lon="3.72435">
        <ele>944</ele>
        <time>2015-06-17T13:49:54Z</time>
      </trkpt>
      <trkpt lat="44.25313" lon="3.72423">
        <ele>943</ele>
        <time>2015-06-17T13:50:03Z</time>
      </trkpt>
      <trkpt lat="44.25314" lon="3.72416">
        <ele>931</ele>
        <time>2015-06-17T13:50:06Z</time>
      </trkpt>
      <trkpt lat="44.2531" lon="3.7241">
        <ele>930</ele>
        <time>2015-06-17T13:50:09Z</time>
      </trkpt>
      <trkpt lat="44.25308" lon="3.72404">
        <ele>930</ele>
        <time>2015-06-17T13:50:12Z</time>
      </trkpt>
      <trkpt lat="44.25305" lon="3.72399">
        <ele>929</ele>
        <time>2015-06-17T13:50:15Z</time>
      </trkpt>
      <trkpt lat="44.25301" lon="3.72394">
        <ele>928</ele>
        <time>2015-06-17T13:50:21Z</time>
      </trkpt>
      <trkpt lat="44.25298" lon="3.72389">
        <ele>928</ele>
        <time>2015-06-17T13:50:29Z</time>
      </trkpt>
      <trkpt lat="44.25293" lon="3.72389">
        <ele>928</ele>
        <time>2015-06-17T13:50:32Z</time>
      </trkpt>
      <trkpt lat="44.2529" lon="3.72385">
        <ele>927</ele>
        <time>2015-06-17T13:50:36Z</time>
      </trkpt>
      <trkpt lat="44.25284" lon="3.72386">
        <ele>928</ele>
        <time>2015-06-17T13:50:41Z</time>
      </trkpt>
      <trkpt lat="44.25279" lon="3.72383">
        <ele>928</ele>
        <time>2015-06-17T13:50:45Z</time>
      </trkpt>
      <trkpt lat="44.25273" lon="3.72382">
        <ele>928</ele>
        <time>2015-06-17T13:50:48Z</time>
      </trkpt>
      <trkpt lat="44.25267" lon="3.72382">
        <ele>928</ele>
        <time>2015-06-17T13:50:52Z</time>
      </trkpt>
      <trkpt lat="44.25263" lon="3.7238">
        <ele>928</ele>
        <time>2015-06-17T13:50:59Z</time>
      </trkpt>
      <trkpt lat="44.25254" lon="3.72389">
        <ele>931</ele>
        <time>2015-06-17T13:51:07Z</time>
      </trkpt>
      <trkpt lat="44.2525" lon="3.72395">
        <ele>936</ele>
        <time>2015-06-17T13:51:10Z</time>
      </trkpt>
      <trkpt lat="44.25246" lon="3.72398">
        <ele>937</ele>
        <time>2015-06-17T13:51:13Z</time>
      </trkpt>
      <trkpt lat="44.25248" lon="3.72405">
        <ele>938</ele>
        <time>2015-06-17T13:51:19Z</time>
      </trkpt>
      <trkpt lat="44.25245" lon="3.72409">
        <ele>939</ele>
        <time>2015-06-17T13:51:26Z</time>
      </trkpt>
      <trkpt lat="44.25244" lon="3.72425">
        <ele>948</ele>
        <time>2015-06-17T13:51:32Z</time>
      </trkpt>
      <trkpt lat="44.25236" lon="3.72431">
        <ele>951</ele>
        <time>2015-06-17T13:51:37Z</time>
      </trkpt>
      <trkpt lat="44.25231" lon="3.72433">
        <ele>953</ele>
        <time>2015-06-17T13:51:49Z</time>
      </trkpt>
      <trkpt lat="44.25226" lon="3.72434">
        <ele>953</ele>
        <time>2015-06-17T13:51:56Z</time>
      </trkpt>
      <trkpt lat="44.25222" lon="3.72429">
        <ele>953</ele>
        <time>2015-06-17T13:51:59Z</time>
      </trkpt>
      <trkpt lat="44.25217" lon="3.72428">
        <ele>954</ele>
        <time>2015-06-17T13:52:03Z</time>
      </trkpt>
      <trkpt lat="44.25211" lon="3.72432">
        <ele>955</ele>
        <time>2015-06-17T13:52:07Z</time>
      </trkpt>
      <trkpt lat="44.25208" lon="3.72437">
        <ele>956</ele>
        <time>2015-06-17T13:52:10Z</time>
      </trkpt>
      <trkpt lat="44.25198" lon="3.72439">
        <ele>956</ele>
        <time>2015-06-17T13:52:22Z</time>
      </trkpt>
      <trkpt lat="44.25192" lon="3.72439">
        <ele>956</ele>
        <time>2015-06-17T13:52:26Z</time>
      </trkpt>
      <trkpt lat="44.25188" lon="3.72437">
        <ele>956</ele>
        <time>2015-06-17T13:52:30Z</time>
      </trkpt>
      <trkpt lat="44.25171" lon="3.72431">
        <ele>954</ele>
        <time>2015-06-17T13:52:46Z</time>
      </trkpt>
      <trkpt lat="44.25166" lon="3.7243">
        <ele>956</ele>
        <time>2015-06-17T13:52:49Z</time>
      </trkpt>
      <trkpt lat="44.25161" lon="3.72432">
        <ele>957</ele>
        <time>2015-06-17T13:52:52Z</time>
      </trkpt>
      <trkpt lat="44.25156" lon="3.72428">
        <ele>956</ele>
        <time>2015-06-17T13:52:57Z</time>
      </trkpt>
      <trkpt lat="44.25151" lon="3.72428">
        <ele>957</ele>
        <time>2015-06-17T13:53:02Z</time>
      </trkpt>
      <trkpt lat="44.25146" lon="3.72426">
        <ele>958</ele>
        <time>2015-06-17T13:53:07Z</time>
      </trkpt>
      <trkpt lat="44.25142" lon="3.72426">
        <ele>958</ele>
        <time>2015-06-17T13:53:11Z</time>
      </trkpt>
      <trkpt lat="44.25137" lon="3.72425">
        <ele>959</ele>
        <time>2015-06-17T13:53:15Z</time>
      </trkpt>
      <trkpt lat="44.25132" lon="3.72422">
        <ele>959</ele>
        <time>2015-06-17T13:53:20Z</time>
      </trkpt>
      <trkpt lat="44.25128" lon="3.7242">
        <ele>959</ele>
        <time>2015-06-17T13:53:26Z</time>
      </trkpt>
      <trkpt lat="44.25123" lon="3.72417">
        <ele>959</ele>
        <time>2015-06-17T13:53:32Z</time>
      </trkpt>
      <trkpt lat="44.25117" lon="3.72417">
        <ele>958</ele>
        <time>2015-06-17T13:53:36Z</time>
      </trkpt>
      <trkpt lat="44.25111" lon="3.72416">
        <ele>942</ele>
        <time>2015-06-17T13:53:40Z</time>
      </trkpt>
      <trkpt lat="44.25106" lon="3.72413">
        <ele>943</ele>
        <time>2015-06-17T13:53:43Z</time>
      </trkpt>
      <trkpt lat="44.25102" lon="3.72409">
        <ele>943</ele>
        <time>2015-06-17T13:53:47Z</time>
      </trkpt>
      <trkpt lat="44.25098" lon="3.72407">
        <ele>943</ele>
        <time>2015-06-17T13:53:50Z</time>
      </trkpt>
      <trkpt lat="44.25092" lon="3.72408">
        <ele>945</ele>
        <time>2015-06-17T13:53:54Z</time>
      </trkpt>
      <trkpt lat="44.25086" lon="3.72408">
        <ele>946</ele>
        <time>2015-06-17T13:53:58Z</time>
      </trkpt>
      <trkpt lat="44.25081" lon="3.72406">
        <ele>944</ele>
        <time>2015-06-17T13:54:03Z</time>
      </trkpt>
      <trkpt lat="44.25076" lon="3.72407">
        <ele>944</ele>
        <time>2015-06-17T13:54:08Z</time>
      </trkpt>
      <trkpt lat="44.25073" lon="3.72413">
        <ele>945</ele>
        <time>2015-06-17T13:54:14Z</time>
      </trkpt>
      <trkpt lat="44.25065" lon="3.72421">
        <ele>957</ele>
        <time>2015-06-17T13:54:21Z</time>
      </trkpt>
      <trkpt lat="44.25054" lon="3.7243">
        <ele>959</ele>
        <time>2015-06-17T13:54:27Z</time>
      </trkpt>
      <trkpt lat="44.2505" lon="3.72435">
        <ele>960</ele>
        <time>2015-06-17T13:54:31Z</time>
      </trkpt>
      <trkpt lat="44.25045" lon="3.72437">
        <ele>960</ele>
        <time>2015-06-17T13:54:34Z</time>
      </trkpt>
      <trkpt lat="44.25042" lon="3.72442">
        <ele>961</ele>
        <time>2015-06-17T13:54:37Z</time>
      </trkpt>
      <trkpt lat="44.25037" lon="3.72442">
        <ele>961</ele>
        <time>2015-06-17T13:54:41Z</time>
      </trkpt>
      <trkpt lat="44.25032" lon="3.72441">
        <ele>961</ele>
        <time>2015-06-17T13:54:45Z</time>
      </trkpt>
      <trkpt lat="44.25028" lon="3.72439">
        <ele>960</ele>
        <time>2015-06-17T13:54:49Z</time>
      </trkpt>
      <trkpt lat="44.25017" lon="3.72442">
        <ele>960</ele>
        <time>2015-06-17T13:54:57Z</time>
      </trkpt>
      <trkpt lat="44.25012" lon="3.72444">
        <ele>960</ele>
        <time>2015-06-17T13:55:01Z</time>
      </trkpt>
      <trkpt lat="44.25007" lon="3.72443">
        <ele>960</ele>
        <time>2015-06-17T13:55:05Z</time>
      </trkpt>
      <trkpt lat="44.25004" lon="3.72438">
        <ele>958</ele>
        <time>2015-06-17T13:55:10Z</time>
      </trkpt>
      <trkpt lat="44.24999" lon="3.72436">
        <ele>958</ele>
        <time>2015-06-17T13:55:18Z</time>
      </trkpt>
      <trkpt lat="44.24994" lon="3.72438">
        <ele>959</ele>
        <time>2015-06-17T13:55:21Z</time>
      </trkpt>
      <trkpt lat="44.24989" lon="3.72438">
        <ele>959</ele>
        <time>2015-06-17T13:55:24Z</time>
      </trkpt>
      <trkpt lat="44.24984" lon="3.72434">
        <ele>959</ele>
        <time>2015-06-17T13:55:30Z</time>
      </trkpt>
      <trkpt lat="44.24974" lon="3.72434">
        <ele>960</ele>
        <time>2015-06-17T13:55:39Z</time>
      </trkpt>
      <trkpt lat="44.24971" lon="3.72439">
        <ele>961</ele>
        <time>2015-06-17T13:55:44Z</time>
      </trkpt>
      <trkpt lat="44.24966" lon="3.72439">
        <ele>962</ele>
        <time>2015-06-17T13:55:48Z</time>
      </trkpt>
      <trkpt lat="44.24962" lon="3.72426">
        <ele>961</ele>
        <time>2015-06-17T13:55:57Z</time>
      </trkpt>
      <trkpt lat="44.24958" lon="3.72421">
        <ele>961</ele>
        <time>2015-06-17T13:56:01Z</time>
      </trkpt>
      <trkpt lat="44.24949" lon="3.72415">
        <ele>944</ele>
        <time>2015-06-17T13:56:09Z</time>
      </trkpt>
      <trkpt lat="44.24944" lon="3.72414">
        <ele>945</ele>
        <time>2015-06-17T13:56:13Z</time>
      </trkpt>
      <trkpt lat="44.24927" lon="3.7242">
        <ele>959</ele>
        <time>2015-06-17T13:56:22Z</time>
      </trkpt>
      <trkpt lat="44.24921" lon="3.72419">
        <ele>958</ele>
        <time>2015-06-17T13:56:24Z</time>
      </trkpt>
      <trkpt lat="44.24904" lon="3.72418">
        <ele>960</ele>
        <time>2015-06-17T13:56:34Z</time>
      </trkpt>
      <trkpt lat="44.24895" lon="3.72414">
        <ele>947</ele>
        <time>2015-06-17T13:56:42Z</time>
      </trkpt>
      <trkpt lat="44.24891" lon="3.7241">
        <ele>946</ele>
        <time>2015-06-17T13:56:48Z</time>
      </trkpt>
      <trkpt lat="44.24885" lon="3.7241">
        <ele>945</ele>
        <time>2015-06-17T13:56:54Z</time>
      </trkpt>
      <trkpt lat="44.24882" lon="3.72405">
        <ele>944</ele>
        <time>2015-06-17T13:57:00Z</time>
      </trkpt>
      <trkpt lat="44.24872" lon="3.72403">
        <ele>944</ele>
        <time>2015-06-17T13:57:11Z</time>
      </trkpt>
      <trkpt lat="44.24857" lon="3.72403">
        <ele>944</ele>
        <time>2015-06-17T13:57:25Z</time>
      </trkpt>
      <trkpt lat="44.24853" lon="3.72406">
        <ele>945</ele>
        <time>2015-06-17T13:57:30Z</time>
      </trkpt>
      <trkpt lat="44.2485" lon="3.72412">
        <ele>946</ele>
        <time>2015-06-17T13:57:35Z</time>
      </trkpt>
      <trkpt lat="44.24845" lon="3.72414">
        <ele>948</ele>
        <time>2015-06-17T13:57:39Z</time>
      </trkpt>
      <trkpt lat="44.24838" lon="3.72421">
        <ele>955</ele>
        <time>2015-06-17T13:57:47Z</time>
      </trkpt>
      <trkpt lat="44.24839" lon="3.72431">
        <ele>958</ele>
        <time>2015-06-17T13:57:50Z</time>
      </trkpt>
      <trkpt lat="44.24837" lon="3.72437">
        <ele>960</ele>
        <time>2015-06-17T13:57:54Z</time>
      </trkpt>
      <trkpt lat="44.24832" lon="3.72436">
        <ele>956</ele>
        <time>2015-06-17T13:57:57Z</time>
      </trkpt>
      <trkpt lat="44.24827" lon="3.72434">
        <ele>956</ele>
        <time>2015-06-17T13:58:00Z</time>
      </trkpt>
      <trkpt lat="44.24816" lon="3.72433">
        <ele>956</ele>
        <time>2015-06-17T13:58:07Z</time>
      </trkpt>
      <trkpt lat="44.24809" lon="3.72433">
        <ele>956</ele>
        <time>2015-06-17T13:58:11Z</time>
      </trkpt>
      <trkpt lat="44.24804" lon="3.72432">
        <ele>956</ele>
        <time>2015-06-17T13:58:14Z</time>
      </trkpt>
      <trkpt lat="44.24799" lon="3.72434">
        <ele>956</ele>
        <time>2015-06-17T13:58:18Z</time>
      </trkpt>
      <trkpt lat="44.24796" lon="3.72438">
        <ele>956</ele>
        <time>2015-06-17T13:58:22Z</time>
      </trkpt>
      <trkpt lat="44.24789" lon="3.72438">
        <ele>956</ele>
        <time>2015-06-17T13:58:25Z</time>
      </trkpt>
      <trkpt lat="44.24785" lon="3.72441">
        <ele>956</ele>
        <time>2015-06-17T13:58:28Z</time>
      </trkpt>
      <trkpt lat="44.24777" lon="3.72449">
        <ele>956</ele>
        <time>2015-06-17T13:58:35Z</time>
      </trkpt>
      <trkpt lat="44.24775" lon="3.72456">
        <ele>957</ele>
        <time>2015-06-17T13:58:40Z</time>
      </trkpt>
      <trkpt lat="44.24766" lon="3.72462">
        <ele>958</ele>
        <time>2015-06-17T13:58:48Z</time>
      </trkpt>
      <trkpt lat="44.24763" lon="3.72474">
        <ele>960</ele>
        <time>2015-06-17T13:58:55Z</time>
      </trkpt>
      <trkpt lat="44.24764" lon="3.72481">
        <ele>961</ele>
        <time>2015-06-17T13:59:00Z</time>
      </trkpt>
      <trkpt lat="44.24759" lon="3.72482">
        <ele>961</ele>
        <time>2015-06-17T13:59:10Z</time>
      </trkpt>
      <trkpt lat="44.24757" lon="3.72488">
        <ele>962</ele>
        <time>2015-06-17T13:59:17Z</time>
      </trkpt>
      <trkpt lat="44.24754" lon="3.72492">
        <ele>963</ele>
        <time>2015-06-17T13:59:22Z</time>
      </trkpt>
      <trkpt lat="44.24751" lon="3.72521">
        <ele>973</ele>
        <time>2015-06-17T13:59:43Z</time>
      </trkpt>
      <trkpt lat="44.24741" lon="3.72527">
        <ele>968</ele>
        <time>2015-06-17T13:59:51Z</time>
      </trkpt>
      <trkpt lat="44.24737" lon="3.72528">
        <ele>968</ele>
        <time>2015-06-17T13:59:56Z</time>
      </trkpt>
      <trkpt lat="44.24727" lon="3.72524">
        <ele>968</ele>
        <time>2015-06-17T14:00:07Z</time>
      </trkpt>
      <trkpt lat="44.24722" lon="3.72527">
        <ele>968</ele>
        <time>2015-06-17T14:00:11Z</time>
      </trkpt>
      <trkpt lat="44.24718" lon="3.72523">
        <ele>968</ele>
        <time>2015-06-17T14:00:15Z</time>
      </trkpt>
      <trkpt lat="44.24713" lon="3.72526">
        <ele>968</ele>
        <time>2015-06-17T14:00:20Z</time>
      </trkpt>
      <trkpt lat="44.24703" lon="3.72529">
        <ele>967</ele>
        <time>2015-06-17T14:00:26Z</time>
      </trkpt>
      <trkpt lat="44.24698" lon="3.72529">
        <ele>967</ele>
        <time>2015-06-17T14:00:29Z</time>
      </trkpt>
      <trkpt lat="44.24681" lon="3.72531">
        <ele>966</ele>
        <time>2015-06-17T14:00:38Z</time>
      </trkpt>
      <trkpt lat="44.24671" lon="3.7253">
        <ele>966</ele>
        <time>2015-06-17T14:00:44Z</time>
      </trkpt>
      <trkpt lat="44.24667" lon="3.72532">
        <ele>961</ele>
        <time>2015-06-17T14:00:49Z</time>
      </trkpt>
      <trkpt lat="44.24662" lon="3.72532">
        <ele>960</ele>
        <time>2015-06-17T14:00:52Z</time>
      </trkpt>
      <trkpt lat="44.24656" lon="3.72532">
        <ele>960</ele>
        <time>2015-06-17T14:00:55Z</time>
      </trkpt>
      <trkpt lat="44.2465" lon="3.72531">
        <ele>960</ele>
        <time>2015-06-17T14:00:59Z</time>
      </trkpt>
      <trkpt lat="44.24644" lon="3.72533">
        <ele>960</ele>
        <time>2015-06-17T14:01:03Z</time>
      </trkpt>
      <trkpt lat="44.24639" lon="3.72533">
        <ele>960</ele>
        <time>2015-06-17T14:01:05Z</time>
      </trkpt>
      <trkpt lat="44.24634" lon="3.7253">
        <ele>959</ele>
        <time>2015-06-17T14:01:09Z</time>
      </trkpt>
      <trkpt lat="44.24624" lon="3.72532">
        <ele>959</ele>
        <time>2015-06-17T14:01:17Z</time>
      </trkpt>
      <trkpt lat="44.24619" lon="3.72535">
        <ele>959</ele>
        <time>2015-06-17T14:01:20Z</time>
      </trkpt>
      <trkpt lat="44.24613" lon="3.72537">
        <ele>959</ele>
        <time>2015-06-17T14:01:23Z</time>
      </trkpt>
      <trkpt lat="44.24593" lon="3.72549">
        <ele>960</ele>
        <time>2015-06-17T14:01:36Z</time>
      </trkpt>
      <trkpt lat="44.24586" lon="3.72557">
        <ele>961</ele>
        <time>2015-06-17T14:01:43Z</time>
      </trkpt>
      <trkpt lat="44.2458" lon="3.72559">
        <ele>957</ele>
        <time>2015-06-17T14:01:48Z</time>
      </trkpt>
      <trkpt lat="44.24576" lon="3.72563">
        <ele>958</ele>
        <time>2015-06-17T14:01:52Z</time>
      </trkpt>
      <trkpt lat="44.24572" lon="3.72567">
        <ele>959</ele>
        <time>2015-06-17T14:01:56Z</time>
      </trkpt>
      <trkpt lat="44.2457" lon="3.72574">
        <ele>959</ele>
        <time>2015-06-17T14:02:01Z</time>
      </trkpt>
      <trkpt lat="44.24565" lon="3.72572">
        <ele>958</ele>
        <time>2015-06-17T14:02:07Z</time>
      </trkpt>
      <trkpt lat="44.24561" lon="3.72576">
        <ele>958</ele>
        <time>2015-06-17T14:02:13Z</time>
      </trkpt>
      <trkpt lat="44.24556" lon="3.72573">
        <ele>957</ele>
        <time>2015-06-17T14:02:20Z</time>
      </trkpt>
      <trkpt lat="44.24551" lon="3.72576">
        <ele>957</ele>
        <time>2015-06-17T14:02:25Z</time>
      </trkpt>
      <trkpt lat="44.24546" lon="3.72576">
        <ele>957</ele>
        <time>2015-06-17T14:02:28Z</time>
      </trkpt>
      <trkpt lat="44.24541" lon="3.72573">
        <ele>956</ele>
        <time>2015-06-17T14:02:33Z</time>
      </trkpt>
      <trkpt lat="44.24536" lon="3.72574">
        <ele>956</ele>
        <time>2015-06-17T14:02:44Z</time>
      </trkpt>
      <trkpt lat="44.24531" lon="3.72573">
        <ele>956</ele>
        <time>2015-06-17T14:03:00Z</time>
      </trkpt>
      <trkpt lat="44.24524" lon="3.7257">
        <ele>956</ele>
        <time>2015-06-17T14:03:05Z</time>
      </trkpt>
      <trkpt lat="44.24514" lon="3.72569">
        <ele>956</ele>
        <time>2015-06-17T14:03:09Z</time>
      </trkpt>
      <trkpt lat="44.24505" lon="3.72567">
        <ele>957</ele>
        <time>2015-06-17T14:03:14Z</time>
      </trkpt>
      <trkpt lat="44.24489" lon="3.72566">
        <ele>955</ele>
        <time>2015-06-17T14:03:23Z</time>
      </trkpt>
      <trkpt lat="44.24482" lon="3.72567">
        <ele>954</ele>
        <time>2015-06-17T14:03:26Z</time>
      </trkpt>
      <trkpt lat="44.24472" lon="3.72567">
        <ele>953</ele>
        <time>2015-06-17T14:03:30Z</time>
      </trkpt>
      <trkpt lat="44.24461" lon="3.72571">
        <ele>953</ele>
        <time>2015-06-17T14:03:36Z</time>
      </trkpt>
      <trkpt lat="44.24456" lon="3.72569">
        <ele>952</ele>
        <time>2015-06-17T14:03:39Z</time>
      </trkpt>
      <trkpt lat="44.24447" lon="3.72568">
        <ele>952</ele>
        <time>2015-06-17T14:03:47Z</time>
      </trkpt>
      <trkpt lat="44.24441" lon="3.72569">
        <ele>952</ele>
        <time>2015-06-17T14:03:53Z</time>
      </trkpt>
      <trkpt lat="44.24437" lon="3.7257">
        <ele>952</ele>
        <time>2015-06-17T14:03:58Z</time>
      </trkpt>
      <trkpt lat="44.24432" lon="3.72575">
        <ele>952</ele>
        <time>2015-06-17T14:04:03Z</time>
      </trkpt>
      <trkpt lat="44.24429" lon="3.72576">
        <ele>952</ele>
        <time>2015-06-17T14:04:29Z</time>
      </trkpt>
      <trkpt lat="44.24431" lon="3.72582">
        <ele>952</ele>
        <time>2015-06-17T14:05:42Z</time>
      </trkpt>
      <trkpt lat="44.2443" lon="3.72589">
        <ele>955</ele>
        <time>2015-06-17T14:05:45Z</time>
      </trkpt>
      <trkpt lat="44.24426" lon="3.72593">
        <ele>955</ele>
        <time>2015-06-17T14:05:48Z</time>
      </trkpt>
      <trkpt lat="44.24421" lon="3.72596">
        <ele>955</ele>
        <time>2015-06-17T14:05:51Z</time>
      </trkpt>
      <trkpt lat="44.24418" lon="3.72602">
        <ele>955</ele>
        <time>2015-06-17T14:05:54Z</time>
      </trkpt>
      <trkpt lat="44.24416" lon="3.72609">
        <ele>949</ele>
        <time>2015-06-17T14:05:56Z</time>
      </trkpt>
      <trkpt lat="44.24413" lon="3.72615">
        <ele>949</ele>
        <time>2015-06-17T14:05:58Z</time>
      </trkpt>
      <trkpt lat="44.2441" lon="3.72619">
        <ele>948</ele>
        <time>2015-06-17T14:06:00Z</time>
      </trkpt>
      <trkpt lat="44.24396" lon="3.72632">
        <ele>948</ele>
        <time>2015-06-17T14:06:09Z</time>
      </trkpt>
      <trkpt lat="44.2439" lon="3.72636">
        <ele>947</ele>
        <time>2015-06-17T14:06:11Z</time>
      </trkpt>
      <trkpt lat="44.24386" lon="3.72636">
        <ele>947</ele>
        <time>2015-06-17T14:06:14Z</time>
      </trkpt>
      <trkpt lat="44.24384" lon="3.72644">
        <ele>947</ele>
        <time>2015-06-17T14:06:20Z</time>
      </trkpt>
      <trkpt lat="44.24382" lon="3.72648">
        <ele>947</ele>
        <time>2015-06-17T14:06:24Z</time>
      </trkpt>
      <trkpt lat="44.24373" lon="3.72656">
        <ele>946</ele>
        <time>2015-06-17T14:06:34Z</time>
      </trkpt>
      <trkpt lat="44.24367" lon="3.72657">
        <ele>945</ele>
        <time>2015-06-17T14:06:38Z</time>
      </trkpt>
      <trkpt lat="44.24362" lon="3.72657">
        <ele>944</ele>
        <time>2015-06-17T14:06:43Z</time>
      </trkpt>
      <trkpt lat="44.24357" lon="3.72655">
        <ele>944</ele>
        <time>2015-06-17T14:06:49Z</time>
      </trkpt>
      <trkpt lat="44.24353" lon="3.72651">
        <ele>943</ele>
        <time>2015-06-17T14:06:52Z</time>
      </trkpt>
      <trkpt lat="44.2435" lon="3.72646">
        <ele>943</ele>
        <time>2015-06-17T14:06:55Z</time>
      </trkpt>
      <trkpt lat="44.24345" lon="3.72643">
        <ele>943</ele>
        <time>2015-06-17T14:06:59Z</time>
      </trkpt>
      <trkpt lat="44.24343" lon="3.72641">
        <ele>943</ele>
        <time>2015-06-17T14:07:15Z</time>
      </trkpt>
      <trkpt lat="44.24344" lon="3.7265">
        <ele>942</ele>
        <time>2015-06-17T14:07:37Z</time>
      </trkpt>
      <trkpt lat="44.24347" lon="3.72655">
        <ele>942</ele>
        <time>2015-06-17T14:07:40Z</time>
      </trkpt>
      <trkpt lat="44.2435" lon="3.72659">
        <ele>943</ele>
        <time>2015-06-17T14:07:42Z</time>
      </trkpt>
      <trkpt lat="44.24354" lon="3.72674">
        <ele>939</ele>
        <time>2015-06-17T14:07:48Z</time>
      </trkpt>
      <trkpt lat="44.24358" lon="3.72687">
        <ele>940</ele>
        <time>2015-06-17T14:07:53Z</time>
      </trkpt>
      <trkpt lat="44.24357" lon="3.72694">
        <ele>939</ele>
        <time>2015-06-17T14:08:03Z</time>
      </trkpt>
      <trkpt lat="44.2436" lon="3.72701">
        <ele>939</ele>
        <time>2015-06-17T14:08:07Z</time>
      </trkpt>
      <trkpt lat="44.24363" lon="3.72707">
        <ele>939</ele>
        <time>2015-06-17T14:08:10Z</time>
      </trkpt>
      <trkpt lat="44.24364" lon="3.72715">
        <ele>938</ele>
        <time>2015-06-17T14:08:13Z</time>
      </trkpt>
      <trkpt lat="44.24366" lon="3.72722">
        <ele>938</ele>
        <time>2015-06-17T14:08:16Z</time>
      </trkpt>
      <trkpt lat="44.24368" lon="3.72729">
        <ele>938</ele>
        <time>2015-06-17T14:08:20Z</time>
      </trkpt>
      <trkpt lat="44.24371" lon="3.72735">
        <ele>938</ele>
        <time>2015-06-17T14:08:24Z</time>
      </trkpt>
      <trkpt lat="44.24374" lon="3.72739">
        <ele>938</ele>
        <time>2015-06-17T14:08:27Z</time>
      </trkpt>
      <trkpt lat="44.24377" lon="3.72745">
        <ele>939</ele>
        <time>2015-06-17T14:08:30Z</time>
      </trkpt>
      <trkpt lat="44.24381" lon="3.7276">
        <ele>934</ele>
        <time>2015-06-17T14:08:36Z</time>
      </trkpt>
      <trkpt lat="44.2438" lon="3.72768">
        <ele>934</ele>
        <time>2015-06-17T14:08:39Z</time>
      </trkpt>
      <trkpt lat="44.24382" lon="3.72776">
        <ele>934</ele>
        <time>2015-06-17T14:08:42Z</time>
      </trkpt>
      <trkpt lat="44.24379" lon="3.72812">
        <ele>933</ele>
        <time>2015-06-17T14:09:05Z</time>
      </trkpt>
      <trkpt lat="44.24376" lon="3.72815">
        <ele>932</ele>
        <time>2015-06-17T14:09:08Z</time>
      </trkpt>
      <trkpt lat="44.2437" lon="3.72822">
        <ele>930</ele>
        <time>2015-06-17T14:09:10Z</time>
      </trkpt>
      <trkpt lat="44.24369" lon="3.7283">
        <ele>930</ele>
        <time>2015-06-17T14:09:12Z</time>
      </trkpt>
      <trkpt lat="44.24376" lon="3.72842">
        <ele>930</ele>
        <time>2015-06-17T14:09:16Z</time>
      </trkpt>
      <trkpt lat="44.24377" lon="3.72849">
        <ele>930</ele>
        <time>2015-06-17T14:09:19Z</time>
      </trkpt>
      <trkpt lat="44.24372" lon="3.72851">
        <ele>929</ele>
        <time>2015-06-17T14:09:26Z</time>
      </trkpt>
      <trkpt lat="44.24373" lon="3.72859">
        <ele>929</ele>
        <time>2015-06-17T14:09:31Z</time>
      </trkpt>
      <trkpt lat="44.24379" lon="3.72866">
        <ele>930</ele>
        <time>2015-06-17T14:09:33Z</time>
      </trkpt>
      <trkpt lat="44.24381" lon="3.72872">
        <ele>931</ele>
        <time>2015-06-17T14:09:36Z</time>
      </trkpt>
      <trkpt lat="44.24377" lon="3.72875">
        <ele>930</ele>
        <time>2015-06-17T14:09:40Z</time>
      </trkpt>
      <trkpt lat="44.24374" lon="3.72881">
        <ele>929</ele>
        <time>2015-06-17T14:09:44Z</time>
      </trkpt>
      <trkpt lat="44.2437" lon="3.72889">
        <ele>928</ele>
        <time>2015-06-17T14:09:48Z</time>
      </trkpt>
      <trkpt lat="44.24368" lon="3.72895">
        <ele>927</ele>
        <time>2015-06-17T14:09:50Z</time>
      </trkpt>
      <trkpt lat="44.24366" lon="3.72903">
        <ele>926</ele>
        <time>2015-06-17T14:09:53Z</time>
      </trkpt>
      <trkpt lat="44.24369" lon="3.72908">
        <ele>927</ele>
        <time>2015-06-17T14:09:59Z</time>
      </trkpt>
      <trkpt lat="44.24369" lon="3.72915">
        <ele>927</ele>
        <time>2015-06-17T14:10:20Z</time>
      </trkpt>
      <trkpt lat="44.24367" lon="3.72924">
        <ele>927</ele>
        <time>2015-06-17T14:10:23Z</time>
      </trkpt>
      <trkpt lat="44.24365" lon="3.72941">
        <ele>927</ele>
        <time>2015-06-17T14:10:27Z</time>
      </trkpt>
      <trkpt lat="44.24366" lon="3.72949">
        <ele>927</ele>
        <time>2015-06-17T14:10:29Z</time>
      </trkpt>
      <trkpt lat="44.24361" lon="3.72977">
        <ele>926</ele>
        <time>2015-06-17T14:10:41Z</time>
      </trkpt>
      <trkpt lat="44.24353" lon="3.72998">
        <ele>922</ele>
        <time>2015-06-17T14:10:51Z</time>
      </trkpt>
      <trkpt lat="44.24355" lon="3.73007">
        <ele>929</ele>
        <time>2015-06-17T14:10:55Z</time>
      </trkpt>
      <trkpt lat="44.24358" lon="3.73013">
        <ele>931</ele>
        <time>2015-06-17T14:10:57Z</time>
      </trkpt>
      <trkpt lat="44.24358" lon="3.7302">
        <ele>933</ele>
        <time>2015-06-17T14:11:00Z</time>
      </trkpt>
      <trkpt lat="44.24352" lon="3.7304">
        <ele>935</ele>
        <time>2015-06-17T14:11:14Z</time>
      </trkpt>
      <trkpt lat="44.2435" lon="3.73046">
        <ele>936</ele>
        <time>2015-06-17T14:11:19Z</time>
      </trkpt>
      <trkpt lat="44.24345" lon="3.73048">
        <ele>935</ele>
        <time>2015-06-17T14:11:23Z</time>
      </trkpt>
      <trkpt lat="44.24339" lon="3.73052">
        <ele>935</ele>
        <time>2015-06-17T14:11:28Z</time>
      </trkpt>
      <trkpt lat="44.24334" lon="3.73049">
        <ele>934</ele>
        <time>2015-06-17T14:11:31Z</time>
      </trkpt>
      <trkpt lat="44.24328" lon="3.73047">
        <ele>909</ele>
        <time>2015-06-17T14:11:34Z</time>
      </trkpt>
      <trkpt lat="44.24335" lon="3.73048">
        <ele>934</ele>
        <time>2015-06-17T14:12:06Z</time>
      </trkpt>
      <trkpt lat="44.24329" lon="3.73055">
        <ele>911</ele>
        <time>2015-06-17T14:12:12Z</time>
      </trkpt>
      <trkpt lat="44.2432" lon="3.73061">
        <ele>912</ele>
        <time>2015-06-17T14:12:20Z</time>
      </trkpt>
      <trkpt lat="44.24315" lon="3.73069">
        <ele>912</ele>
        <time>2015-06-17T14:12:51Z</time>
      </trkpt>
      <trkpt lat="44.24313" lon="3.73072">
        <ele>912</ele>
        <time>2015-06-17T14:12:55Z</time>
      </trkpt>
      <trkpt lat="44.24308" lon="3.73075">
        <ele>911</ele>
        <time>2015-06-17T14:12:58Z</time>
      </trkpt>
      <trkpt lat="44.24302" lon="3.73075">
        <ele>908</ele>
        <time>2015-06-17T14:13:01Z</time>
      </trkpt>
      <trkpt lat="44.24291" lon="3.73082">
        <ele>904</ele>
        <time>2015-06-17T14:13:07Z</time>
      </trkpt>
      <trkpt lat="44.24287" lon="3.73086">
        <ele>917</ele>
        <time>2015-06-17T14:13:09Z</time>
      </trkpt>
      <trkpt lat="44.2428" lon="3.73097">
        <ele>915</ele>
        <time>2015-06-17T14:13:16Z</time>
      </trkpt>
      <trkpt lat="44.24278" lon="3.73103">
        <ele>916</ele>
        <time>2015-06-17T14:13:21Z</time>
      </trkpt>
      <trkpt lat="44.24272" lon="3.73107">
        <ele>914</ele>
        <time>2015-06-17T14:13:26Z</time>
      </trkpt>
      <trkpt lat="44.24266" lon="3.73111">
        <ele>914</ele>
        <time>2015-06-17T14:13:29Z</time>
      </trkpt>
      <trkpt lat="44.2426" lon="3.73121">
        <ele>916</ele>
        <time>2015-06-17T14:13:36Z</time>
      </trkpt>
      <trkpt lat="44.24257" lon="3.73125">
        <ele>916</ele>
        <time>2015-06-17T14:13:42Z</time>
      </trkpt>
      <trkpt lat="44.24254" lon="3.73131">
        <ele>917</ele>
        <time>2015-06-17T14:13:46Z</time>
      </trkpt>
      <trkpt lat="44.2425" lon="3.73135">
        <ele>894</ele>
        <time>2015-06-17T14:13:51Z</time>
      </trkpt>
      <trkpt lat="44.2424" lon="3.73141">
        <ele>895</ele>
        <time>2015-06-17T14:14:00Z</time>
      </trkpt>
      <trkpt lat="44.24236" lon="3.73146">
        <ele>896</ele>
        <time>2015-06-17T14:14:04Z</time>
      </trkpt>
      <trkpt lat="44.2423" lon="3.73149">
        <ele>895</ele>
        <time>2015-06-17T14:14:08Z</time>
      </trkpt>
      <trkpt lat="44.24226" lon="3.73152">
        <ele>894</ele>
        <time>2015-06-17T14:14:14Z</time>
      </trkpt>
      <trkpt lat="44.24218" lon="3.7316">
        <ele>892</ele>
        <time>2015-06-17T14:14:23Z</time>
      </trkpt>
      <trkpt lat="44.24214" lon="3.73164">
        <ele>891</ele>
        <time>2015-06-17T14:14:28Z</time>
      </trkpt>
      <trkpt lat="44.24213" lon="3.73172">
        <ele>905</ele>
        <time>2015-06-17T14:14:32Z</time>
      </trkpt>
      <trkpt lat="44.24211" lon="3.73178">
        <ele>905</ele>
        <time>2015-06-17T14:14:35Z</time>
      </trkpt>
      <trkpt lat="44.2421" lon="3.73185">
        <ele>905</ele>
        <time>2015-06-17T14:14:38Z</time>
      </trkpt>
      <trkpt lat="44.24211" lon="3.73193">
        <ele>906</ele>
        <time>2015-06-17T14:14:41Z</time>
      </trkpt>
      <trkpt lat="44.2421" lon="3.73199">
        <ele>907</ele>
        <time>2015-06-17T14:14:44Z</time>
      </trkpt>
      <trkpt lat="44.24207" lon="3.73204">
        <ele>907</ele>
        <time>2015-06-17T14:14:49Z</time>
      </trkpt>
      <trkpt lat="44.24197" lon="3.73202">
        <ele>904</ele>
        <time>2015-06-17T14:14:55Z</time>
      </trkpt>
      <trkpt lat="44.24193" lon="3.73206">
        <ele>904</ele>
        <time>2015-06-17T14:15:00Z</time>
      </trkpt>
      <trkpt lat="44.24189" lon="3.73209">
        <ele>904</ele>
        <time>2015-06-17T14:15:04Z</time>
      </trkpt>
      <trkpt lat="44.24184" lon="3.73214">
        <ele>904</ele>
        <time>2015-06-17T14:15:09Z</time>
      </trkpt>
      <trkpt lat="44.2418" lon="3.73217">
        <ele>903</ele>
        <time>2015-06-17T14:15:13Z</time>
      </trkpt>
      <trkpt lat="44.24176" lon="3.73221">
        <ele>903</ele>
        <time>2015-06-17T14:15:18Z</time>
      </trkpt>
      <trkpt lat="44.24166" lon="3.7324">
        <ele>891</ele>
        <time>2015-06-17T14:15:31Z</time>
      </trkpt>
      <trkpt lat="44.24162" lon="3.73244">
        <ele>893</ele>
        <time>2015-06-17T14:15:34Z</time>
      </trkpt>
      <trkpt lat="44.24158" lon="3.73246">
        <ele>892</ele>
        <time>2015-06-17T14:15:38Z</time>
      </trkpt>
      <trkpt lat="44.24155" lon="3.73251">
        <ele>896</ele>
        <time>2015-06-17T14:15:42Z</time>
      </trkpt>
      <trkpt lat="44.24151" lon="3.73253">
        <ele>895</ele>
        <time>2015-06-17T14:15:46Z</time>
      </trkpt>
      <trkpt lat="44.24142" lon="3.7326">
        <ele>893</ele>
        <time>2015-06-17T14:15:55Z</time>
      </trkpt>
      <trkpt lat="44.24136" lon="3.73262">
        <ele>892</ele>
        <time>2015-06-17T14:16:00Z</time>
      </trkpt>
      <trkpt lat="44.24128" lon="3.7327">
        <ele>890</ele>
        <time>2015-06-17T14:16:08Z</time>
      </trkpt>
      <trkpt lat="44.24125" lon="3.73276">
        <ele>890</ele>
        <time>2015-06-17T14:16:12Z</time>
      </trkpt>
      <trkpt lat="44.24121" lon="3.73281">
        <ele>889</ele>
        <time>2015-06-17T14:16:16Z</time>
      </trkpt>
      <trkpt lat="44.2412" lon="3.73287">
        <ele>889</ele>
        <time>2015-06-17T14:16:20Z</time>
      </trkpt>
      <trkpt lat="44.24118" lon="3.73293">
        <ele>889</ele>
        <time>2015-06-17T14:16:24Z</time>
      </trkpt>
      <trkpt lat="44.24115" lon="3.73312">
        <ele>889</ele>
        <time>2015-06-17T14:16:38Z</time>
      </trkpt>
      <trkpt lat="44.24112" lon="3.73319">
        <ele>889</ele>
        <time>2015-06-17T14:16:42Z</time>
      </trkpt>
      <trkpt lat="44.24107" lon="3.73325">
        <ele>888</ele>
        <time>2015-06-17T14:16:46Z</time>
      </trkpt>
      <trkpt lat="44.24101" lon="3.73336">
        <ele>889</ele>
        <time>2015-06-17T14:16:55Z</time>
      </trkpt>
      <trkpt lat="44.24099" lon="3.73342">
        <ele>889</ele>
        <time>2015-06-17T14:16:59Z</time>
      </trkpt>
      <trkpt lat="44.24095" lon="3.73347">
        <ele>889</ele>
        <time>2015-06-17T14:17:01Z</time>
      </trkpt>
      <trkpt lat="44.24092" lon="3.73352">
        <ele>889</ele>
        <time>2015-06-17T14:17:03Z</time>
      </trkpt>
      <trkpt lat="44.2409" lon="3.73359">
        <ele>891</ele>
        <time>2015-06-17T14:17:05Z</time>
      </trkpt>
      <trkpt lat="44.24088" lon="3.73365">
        <ele>892</ele>
        <time>2015-06-17T14:17:08Z</time>
      </trkpt>
      <trkpt lat="44.24082" lon="3.73364">
        <ele>874</ele>
        <time>2015-06-17T14:17:12Z</time>
      </trkpt>
      <trkpt lat="44.24079" lon="3.7337">
        <ele>873</ele>
        <time>2015-06-17T14:17:20Z</time>
      </trkpt>
      <trkpt lat="44.24074" lon="3.73371">
        <ele>873</ele>
        <time>2015-06-17T14:17:26Z</time>
      </trkpt>
      <trkpt lat="44.2407" lon="3.73376">
        <ele>873</ele>
        <time>2015-06-17T14:17:31Z</time>
      </trkpt>
      <trkpt lat="44.24067" lon="3.73382">
        <ele>873</ele>
        <time>2015-06-17T14:17:36Z</time>
      </trkpt>
      <trkpt lat="44.24062" lon="3.73388">
        <ele>873</ele>
        <time>2015-06-17T14:17:40Z</time>
      </trkpt>
      <trkpt lat="44.24057" lon="3.73391">
        <ele>872</ele>
        <time>2015-06-17T14:17:44Z</time>
      </trkpt>
      <trkpt lat="44.24053" lon="3.73396">
        <ele>872</ele>
        <time>2015-06-17T14:17:50Z</time>
      </trkpt>
      <trkpt lat="44.24052" lon="3.73402">
        <ele>872</ele>
        <time>2015-06-17T14:17:54Z</time>
      </trkpt>
      <trkpt lat="44.24051" lon="3.73409">
        <ele>873</ele>
        <time>2015-06-17T14:17:58Z</time>
      </trkpt>
      <trkpt lat="44.2405" lon="3.73415">
        <ele>872</ele>
        <time>2015-06-17T14:18:02Z</time>
      </trkpt>
      <trkpt lat="44.24049" lon="3.73438">
        <ele>873</ele>
        <time>2015-06-17T14:18:12Z</time>
      </trkpt>
      <trkpt lat="44.24046" lon="3.73443">
        <ele>872</ele>
        <time>2015-06-17T14:18:15Z</time>
      </trkpt>
      <trkpt lat="44.24043" lon="3.73456">
        <ele>871</ele>
        <time>2015-06-17T14:18:24Z</time>
      </trkpt>
      <trkpt lat="44.24041" lon="3.73462">
        <ele>871</ele>
        <time>2015-06-17T14:18:28Z</time>
      </trkpt>
      <trkpt lat="44.24043" lon="3.73476">
        <ele>871</ele>
        <time>2015-06-17T14:18:37Z</time>
      </trkpt>
      <trkpt lat="44.24041" lon="3.73482">
        <ele>870</ele>
        <time>2015-06-17T14:18:41Z</time>
      </trkpt>
      <trkpt lat="44.24036" lon="3.73481">
        <ele>869</ele>
        <time>2015-06-17T14:18:47Z</time>
      </trkpt>
      <trkpt lat="44.24033" lon="3.73476">
        <ele>869</ele>
        <time>2015-06-17T14:18:57Z</time>
      </trkpt>
      <trkpt lat="44.2403" lon="3.73467">
        <ele>869</ele>
        <time>2015-06-17T14:19:21Z</time>
      </trkpt>
      <trkpt lat="44.2403" lon="3.73469">
        <ele>869</ele>
        <time>2015-06-17T14:19:36Z</time>
      </trkpt>
      <trkpt lat="44.24036" lon="3.73413">
        <ele>868</ele>
        <time>2015-06-17T14:21:18Z</time>
      </trkpt>
      <trkpt lat="44.24033" lon="3.73406">
        <ele>868</ele>
        <time>2015-06-17T14:21:21Z</time>
      </trkpt>
      <trkpt lat="44.24033" lon="3.73393">
        <ele>867</ele>
        <time>2015-06-17T14:21:30Z</time>
      </trkpt>
      <trkpt lat="44.24031" lon="3.73385">
        <ele>867</ele>
        <time>2015-06-17T14:21:34Z</time>
      </trkpt>
      <trkpt lat="44.24035" lon="3.73371">
        <ele>867</ele>
        <time>2015-06-17T14:21:41Z</time>
      </trkpt>
      <trkpt lat="44.24038" lon="3.73365">
        <ele>867</ele>
        <time>2015-06-17T14:21:44Z</time>
      </trkpt>
      <trkpt lat="44.24043" lon="3.73362">
        <ele>868</ele>
        <time>2015-06-17T14:21:48Z</time>
      </trkpt>
      <trkpt lat="44.24045" lon="3.73355">
        <ele>868</ele>
        <time>2015-06-17T14:21:52Z</time>
      </trkpt>
      <trkpt lat="44.24041" lon="3.73346">
        <ele>867</ele>
        <time>2015-06-17T14:21:55Z</time>
      </trkpt>
      <trkpt lat="44.2404" lon="3.7334">
        <ele>866</ele>
        <time>2015-06-17T14:21:57Z</time>
      </trkpt>
      <trkpt lat="44.24036" lon="3.73334">
        <ele>865</ele>
        <time>2015-06-17T14:22:00Z</time>
      </trkpt>
      <trkpt lat="44.24036" lon="3.73327">
        <ele>859</ele>
        <time>2015-06-17T14:22:04Z</time>
      </trkpt>
      <trkpt lat="44.24038" lon="3.73322">
        <ele>860</ele>
        <time>2015-06-17T14:22:08Z</time>
      </trkpt>
      <trkpt lat="44.24042" lon="3.73309">
        <ele>860</ele>
        <time>2015-06-17T14:22:16Z</time>
      </trkpt>
      <trkpt lat="44.24048" lon="3.73297">
        <ele>861</ele>
        <time>2015-06-17T14:22:24Z</time>
      </trkpt>
      <trkpt lat="44.24049" lon="3.73291">
        <ele>860</ele>
        <time>2015-06-17T14:22:29Z</time>
      </trkpt>
      <trkpt lat="44.2405" lon="3.73283">
        <ele>860</ele>
        <time>2015-06-17T14:22:35Z</time>
      </trkpt>
      <trkpt lat="44.24042" lon="3.73261">
        <ele>858</ele>
        <time>2015-06-17T14:22:42Z</time>
      </trkpt>
      <trkpt lat="44.24044" lon="3.73254">
        <ele>858</ele>
        <time>2015-06-17T14:22:47Z</time>
      </trkpt>
      <trkpt lat="44.24046" lon="3.73232">
        <ele>849</ele>
        <time>2015-06-17T14:22:58Z</time>
      </trkpt>
      <trkpt lat="44.24049" lon="3.73226">
        <ele>849</ele>
        <time>2015-06-17T14:23:01Z</time>
      </trkpt>
      <trkpt lat="44.24052" lon="3.73219">
        <ele>848</ele>
        <time>2015-06-17T14:23:05Z</time>
      </trkpt>
      <trkpt lat="44.24053" lon="3.73211">
        <ele>847</ele>
        <time>2015-06-17T14:23:09Z</time>
      </trkpt>
      <trkpt lat="44.24057" lon="3.73206">
        <ele>847</ele>
        <time>2015-06-17T14:23:13Z</time>
      </trkpt>
      <trkpt lat="44.2406" lon="3.73202">
        <ele>847</ele>
        <time>2015-06-17T14:23:16Z</time>
      </trkpt>
      <trkpt lat="44.24064" lon="3.73196">
        <ele>847</ele>
        <time>2015-06-17T14:23:20Z</time>
      </trkpt>
      <trkpt lat="44.24069" lon="3.73193">
        <ele>848</ele>
        <time>2015-06-17T14:23:24Z</time>
      </trkpt>
      <trkpt lat="44.24072" lon="3.73187">
        <ele>847</ele>
        <time>2015-06-17T14:23:29Z</time>
      </trkpt>
      <trkpt lat="44.24075" lon="3.73181">
        <ele>848</ele>
        <time>2015-06-17T14:23:34Z</time>
      </trkpt>
      <trkpt lat="44.24076" lon="3.73174">
        <ele>848</ele>
        <time>2015-06-17T14:23:38Z</time>
      </trkpt>
      <trkpt lat="44.24085" lon="3.73166">
        <ele>849</ele>
        <time>2015-06-17T14:23:47Z</time>
      </trkpt>
      <trkpt lat="44.24088" lon="3.7316">
        <ele>850</ele>
        <time>2015-06-17T14:23:52Z</time>
      </trkpt>
      <trkpt lat="44.24094" lon="3.73159">
        <ele>850</ele>
        <time>2015-06-17T14:23:57Z</time>
      </trkpt>
      <trkpt lat="44.24105" lon="3.73161">
        <ele>852</ele>
        <time>2015-06-17T14:24:03Z</time>
      </trkpt>
      <trkpt lat="44.24109" lon="3.73159">
        <ele>852</ele>
        <time>2015-06-17T14:24:06Z</time>
      </trkpt>
      <trkpt lat="44.24111" lon="3.73154">
        <ele>852</ele>
        <time>2015-06-17T14:24:13Z</time>
      </trkpt>
      <trkpt lat="44.24114" lon="3.73148">
        <ele>852</ele>
        <time>2015-06-17T14:24:20Z</time>
      </trkpt>
      <trkpt lat="44.24109" lon="3.73145">
        <ele>851</ele>
        <time>2015-06-17T14:24:29Z</time>
      </trkpt>
      <trkpt lat="44.24105" lon="3.73144">
        <ele>851</ele>
        <time>2015-06-17T14:24:35Z</time>
      </trkpt>
      <trkpt lat="44.24101" lon="3.73146">
        <ele>850</ele>
        <time>2015-06-17T14:24:39Z</time>
      </trkpt>
      <trkpt lat="44.24095" lon="3.73147">
        <ele>850</ele>
        <time>2015-06-17T14:24:43Z</time>
      </trkpt>
      <trkpt lat="44.2409" lon="3.73146">
        <ele>849</ele>
        <time>2015-06-17T14:24:47Z</time>
      </trkpt>
      <trkpt lat="44.24085" lon="3.73146">
        <ele>849</ele>
        <time>2015-06-17T14:24:51Z</time>
      </trkpt>
      <trkpt lat="44.24081" lon="3.7315">
        <ele>837</ele>
        <time>2015-06-17T14:24:54Z</time>
      </trkpt>
      <trkpt lat="44.24076" lon="3.73152">
        <ele>837</ele>
        <time>2015-06-17T14:24:58Z</time>
      </trkpt>
      <trkpt lat="44.24072" lon="3.73153">
        <ele>836</ele>
        <time>2015-06-17T14:25:01Z</time>
      </trkpt>
      <trkpt lat="44.24062" lon="3.73158">
        <ele>834</ele>
        <time>2015-06-17T14:25:07Z</time>
      </trkpt>
      <trkpt lat="44.24056" lon="3.73158">
        <ele>832</ele>
        <time>2015-06-17T14:25:10Z</time>
      </trkpt>
      <trkpt lat="44.24051" lon="3.7316">
        <ele>830</ele>
        <time>2015-06-17T14:25:15Z</time>
      </trkpt>
      <trkpt lat="44.24046" lon="3.73162">
        <ele>829</ele>
        <time>2015-06-17T14:25:18Z</time>
      </trkpt>
      <trkpt lat="44.24042" lon="3.73164">
        <ele>828</ele>
        <time>2015-06-17T14:25:24Z</time>
      </trkpt>
      <trkpt lat="44.24046" lon="3.73165">
        <ele>829</ele>
        <time>2015-06-17T14:25:32Z</time>
      </trkpt>
      <trkpt lat="44.24051" lon="3.73167">
        <ele>831</ele>
        <time>2015-06-17T14:25:52Z</time>
      </trkpt>
      <trkpt lat="44.24042" lon="3.73173">
        <ele>842</ele>
        <time>2015-06-17T14:26:32Z</time>
      </trkpt>
      <trkpt lat="44.24028" lon="3.73187">
        <ele>840</ele>
        <time>2015-06-17T14:26:41Z</time>
      </trkpt>
      <trkpt lat="44.24025" lon="3.73193">
        <ele>840</ele>
        <time>2015-06-17T14:26:44Z</time>
      </trkpt>
      <trkpt lat="44.24018" lon="3.73203">
        <ele>841</ele>
        <time>2015-06-17T14:26:53Z</time>
      </trkpt>
      <trkpt lat="44.24014" lon="3.73207">
        <ele>841</ele>
        <time>2015-06-17T14:26:58Z</time>
      </trkpt>
      <trkpt lat="44.24007" lon="3.73217">
        <ele>841</ele>
        <time>2015-06-17T14:27:08Z</time>
      </trkpt>
      <trkpt lat="44.24006" lon="3.73225">
        <ele>842</ele>
        <time>2015-06-17T14:27:13Z</time>
      </trkpt>
      <trkpt lat="44.24006" lon="3.73232">
        <ele>842</ele>
        <time>2015-06-17T14:27:17Z</time>
      </trkpt>
      <trkpt lat="44.24006" lon="3.73239">
        <ele>841</ele>
        <time>2015-06-17T14:27:21Z</time>
      </trkpt>
      <trkpt lat="44.24007" lon="3.73245">
        <ele>841</ele>
        <time>2015-06-17T14:27:24Z</time>
      </trkpt>
      <trkpt lat="44.24007" lon="3.73252">
        <ele>844</ele>
        <time>2015-06-17T14:27:29Z</time>
      </trkpt>
      <trkpt lat="44.24008" lon="3.73261">
        <ele>847</ele>
        <time>2015-06-17T14:27:33Z</time>
      </trkpt>
      <trkpt lat="44.24007" lon="3.73269">
        <ele>850</ele>
        <time>2015-06-17T14:27:37Z</time>
      </trkpt>
      <trkpt lat="44.24005" lon="3.73275">
        <ele>851</ele>
        <time>2015-06-17T14:27:41Z</time>
      </trkpt>
      <trkpt lat="44.24004" lon="3.73283">
        <ele>852</ele>
        <time>2015-06-17T14:27:44Z</time>
      </trkpt>
      <trkpt lat="44.24" lon="3.73289">
        <ele>853</ele>
        <time>2015-06-17T14:27:48Z</time>
      </trkpt>
      <trkpt lat="44.23994" lon="3.73289">
        <ele>834</ele>
        <time>2015-06-17T14:27:51Z</time>
      </trkpt>
      <trkpt lat="44.23986" lon="3.73294">
        <ele>834</ele>
        <time>2015-06-17T14:27:57Z</time>
      </trkpt>
      <trkpt lat="44.23982" lon="3.73299">
        <ele>834</ele>
        <time>2015-06-17T14:28:01Z</time>
      </trkpt>
      <trkpt lat="44.23973" lon="3.73306">
        <ele>833</ele>
        <time>2015-06-17T14:28:09Z</time>
      </trkpt>
      <trkpt lat="44.23969" lon="3.73309">
        <ele>832</ele>
        <time>2015-06-17T14:28:13Z</time>
      </trkpt>
      <trkpt lat="44.23962" lon="3.73321">
        <ele>831</ele>
        <time>2015-06-17T14:28:21Z</time>
      </trkpt>
      <trkpt lat="44.2396" lon="3.73329">
        <ele>831</ele>
        <time>2015-06-17T14:28:25Z</time>
      </trkpt>
      <trkpt lat="44.23956" lon="3.73333">
        <ele>830</ele>
        <time>2015-06-17T14:28:29Z</time>
      </trkpt>
      <trkpt lat="44.23952" lon="3.73336">
        <ele>834</ele>
        <time>2015-06-17T14:28:33Z</time>
      </trkpt>
      <trkpt lat="44.23944" lon="3.73364">
        <ele>833</ele>
        <time>2015-06-17T14:28:49Z</time>
      </trkpt>
      <trkpt lat="44.23941" lon="3.7337">
        <ele>833</ele>
        <time>2015-06-17T14:28:53Z</time>
      </trkpt>
      <trkpt lat="44.2394" lon="3.73376">
        <ele>833</ele>
        <time>2015-06-17T14:28:57Z</time>
      </trkpt>
      <trkpt lat="44.23939" lon="3.73383">
        <ele>833</ele>
        <time>2015-06-17T14:29:01Z</time>
      </trkpt>
      <trkpt lat="44.23937" lon="3.73389">
        <ele>833</ele>
        <time>2015-06-17T14:29:05Z</time>
      </trkpt>
      <trkpt lat="44.23935" lon="3.73404">
        <ele>831</ele>
        <time>2015-06-17T14:29:13Z</time>
      </trkpt>
      <trkpt lat="44.23932" lon="3.73409">
        <ele>830</ele>
        <time>2015-06-17T14:29:17Z</time>
      </trkpt>
      <trkpt lat="44.23928" lon="3.73412">
        <ele>828</ele>
        <time>2015-06-17T14:29:22Z</time>
      </trkpt>
      <trkpt lat="44.23927" lon="3.7342">
        <ele>827</ele>
        <time>2015-06-17T14:29:27Z</time>
      </trkpt>
      <trkpt lat="44.23928" lon="3.73427">
        <ele>829</ele>
        <time>2015-06-17T14:29:29Z</time>
      </trkpt>
      <trkpt lat="44.23929" lon="3.73434">
        <ele>830</ele>
        <time>2015-06-17T14:29:32Z</time>
      </trkpt>
      <trkpt lat="44.23927" lon="3.73455">
        <ele>832</ele>
        <time>2015-06-17T14:29:44Z</time>
      </trkpt>
      <trkpt lat="44.23929" lon="3.73463">
        <ele>831</ele>
        <time>2015-06-17T14:29:49Z</time>
      </trkpt>
      <trkpt lat="44.23931" lon="3.73468">
        <ele>831</ele>
        <time>2015-06-17T14:29:53Z</time>
      </trkpt>
      <trkpt lat="44.23933" lon="3.73474">
        <ele>831</ele>
        <time>2015-06-17T14:29:56Z</time>
      </trkpt>
      <trkpt lat="44.23935" lon="3.73481">
        <ele>830</ele>
        <time>2015-06-17T14:29:58Z</time>
      </trkpt>
      <trkpt lat="44.23935" lon="3.73489">
        <ele>829</ele>
        <time>2015-06-17T14:30:00Z</time>
      </trkpt>
      <trkpt lat="44.2394" lon="3.73502">
        <ele>827</ele>
        <time>2015-06-17T14:30:10Z</time>
      </trkpt>
      <trkpt lat="44.23943" lon="3.73506">
        <ele>829</ele>
        <time>2015-06-17T14:30:12Z</time>
      </trkpt>
      <trkpt lat="44.23948" lon="3.7351">
        <ele>831</ele>
        <time>2015-06-17T14:30:15Z</time>
      </trkpt>
      <trkpt lat="44.23953" lon="3.73514">
        <ele>832</ele>
        <time>2015-06-17T14:30:18Z</time>
      </trkpt>
      <trkpt lat="44.23967" lon="3.73535">
        <ele>835</ele>
        <time>2015-06-17T14:30:34Z</time>
      </trkpt>
      <trkpt lat="44.2397" lon="3.73543">
        <ele>835</ele>
        <time>2015-06-17T14:30:36Z</time>
      </trkpt>
      <trkpt lat="44.23974" lon="3.73546">
        <ele>836</ele>
        <time>2015-06-17T14:30:42Z</time>
      </trkpt>
      <trkpt lat="44.23979" lon="3.73546">
        <ele>837</ele>
        <time>2015-06-17T14:30:45Z</time>
      </trkpt>
      <trkpt lat="44.23979" lon="3.73552">
        <ele>837</ele>
        <time>2015-06-17T14:30:56Z</time>
      </trkpt>
      <trkpt lat="44.23978" lon="3.73559">
        <ele>836</ele>
        <time>2015-06-17T14:31:03Z</time>
      </trkpt>
      <trkpt lat="44.23974" lon="3.73563">
        <ele>836</ele>
        <time>2015-06-17T14:31:09Z</time>
      </trkpt>
      <trkpt lat="44.23968" lon="3.73564">
        <ele>835</ele>
        <time>2015-06-17T14:31:20Z</time>
      </trkpt>
      <trkpt lat="44.23962" lon="3.73568">
        <ele>833</ele>
        <time>2015-06-17T14:31:23Z</time>
      </trkpt>
      <trkpt lat="44.23957" lon="3.73573">
        <ele>832</ele>
        <time>2015-06-17T14:31:26Z</time>
      </trkpt>
      <trkpt lat="44.23943" lon="3.73596">
        <ele>832</ele>
        <time>2015-06-17T14:31:53Z</time>
      </trkpt>
      <trkpt lat="44.23939" lon="3.73599">
        <ele>831</ele>
        <time>2015-06-17T14:31:56Z</time>
      </trkpt>
      <trkpt lat="44.23934" lon="3.73603">
        <ele>831</ele>
        <time>2015-06-17T14:31:59Z</time>
      </trkpt>
      <trkpt lat="44.2393" lon="3.7361">
        <ele>831</ele>
        <time>2015-06-17T14:32:03Z</time>
      </trkpt>
      <trkpt lat="44.23926" lon="3.73614">
        <ele>832</ele>
        <time>2015-06-17T14:32:05Z</time>
      </trkpt>
      <trkpt lat="44.23923" lon="3.73619">
        <ele>832</ele>
        <time>2015-06-17T14:32:07Z</time>
      </trkpt>
      <trkpt lat="44.23921" lon="3.73627">
        <ele>833</ele>
        <time>2015-06-17T14:32:10Z</time>
      </trkpt>
      <trkpt lat="44.23916" lon="3.73641">
        <ele>815</ele>
        <time>2015-06-17T14:32:16Z</time>
      </trkpt>
      <trkpt lat="44.23914" lon="3.7365">
        <ele>819</ele>
        <time>2015-06-17T14:32:19Z</time>
      </trkpt>
      <trkpt lat="44.23911" lon="3.73658">
        <ele>822</ele>
        <time>2015-06-17T14:32:22Z</time>
      </trkpt>
      <trkpt lat="44.23908" lon="3.73664">
        <ele>823</ele>
        <time>2015-06-17T14:32:24Z</time>
      </trkpt>
      <trkpt lat="44.23899" lon="3.73673">
        <ele>823</ele>
        <time>2015-06-17T14:32:29Z</time>
      </trkpt>
      <trkpt lat="44.23891" lon="3.73683">
        <ele>820</ele>
        <time>2015-06-17T14:32:35Z</time>
      </trkpt>
      <trkpt lat="44.23887" lon="3.73695">
        <ele>819</ele>
        <time>2015-06-17T14:32:42Z</time>
      </trkpt>
      <trkpt lat="44.23888" lon="3.73704">
        <ele>819</ele>
        <time>2015-06-17T14:32:46Z</time>
      </trkpt>
      <trkpt lat="44.23887" lon="3.73719">
        <ele>820</ele>
        <time>2015-06-17T14:32:56Z</time>
      </trkpt>
      <trkpt lat="44.23889" lon="3.73748">
        <ele>823</ele>
        <time>2015-06-17T14:33:12Z</time>
      </trkpt>
      <trkpt lat="44.23888" lon="3.73755">
        <ele>829</ele>
        <time>2015-06-17T14:33:14Z</time>
      </trkpt>
      <trkpt lat="44.23882" lon="3.73768">
        <ele>828</ele>
        <time>2015-06-17T14:33:20Z</time>
      </trkpt>
      <trkpt lat="44.2388" lon="3.73774">
        <ele>828</ele>
        <time>2015-06-17T14:33:24Z</time>
      </trkpt>
      <trkpt lat="44.23877" lon="3.7378">
        <ele>828</ele>
        <time>2015-06-17T14:33:27Z</time>
      </trkpt>
      <trkpt lat="44.23868" lon="3.73787">
        <ele>827</ele>
        <time>2015-06-17T14:33:33Z</time>
      </trkpt>
      <trkpt lat="44.23864" lon="3.73791">
        <ele>827</ele>
        <time>2015-06-17T14:33:35Z</time>
      </trkpt>
      <trkpt lat="44.23859" lon="3.73793">
        <ele>827</ele>
        <time>2015-06-17T14:33:37Z</time>
      </trkpt>
      <trkpt lat="44.23855" lon="3.73791">
        <ele>826</ele>
        <time>2015-06-17T14:33:40Z</time>
      </trkpt>
      <trkpt lat="44.2385" lon="3.73791">
        <ele>826</ele>
        <time>2015-06-17T14:33:44Z</time>
      </trkpt>
      <trkpt lat="44.23845" lon="3.73794">
        <ele>826</ele>
        <time>2015-06-17T14:33:48Z</time>
      </trkpt>
      <trkpt lat="44.2384" lon="3.73789">
        <ele>825</ele>
        <time>2015-06-17T14:33:52Z</time>
      </trkpt>
      <trkpt lat="44.23836" lon="3.73785">
        <ele>824</ele>
        <time>2015-06-17T14:33:55Z</time>
      </trkpt>
      <trkpt lat="44.2383" lon="3.73785">
        <ele>810</ele>
        <time>2015-06-17T14:33:59Z</time>
      </trkpt>
      <trkpt lat="44.23826" lon="3.73785">
        <ele>810</ele>
        <time>2015-06-17T14:34:10Z</time>
      </trkpt>
      <trkpt lat="44.23822" lon="3.73789">
        <ele>811</ele>
        <time>2015-06-17T14:34:19Z</time>
      </trkpt>
      <trkpt lat="44.23819" lon="3.73795">
        <ele>811</ele>
        <time>2015-06-17T14:34:23Z</time>
      </trkpt>
      <trkpt lat="44.23815" lon="3.73799">
        <ele>811</ele>
        <time>2015-06-17T14:34:27Z</time>
      </trkpt>
      <trkpt lat="44.2378" lon="3.7381">
        <ele>808</ele>
        <time>2015-06-17T14:34:42Z</time>
      </trkpt>
      <trkpt lat="44.23776" lon="3.73813">
        <ele>808</ele>
        <time>2015-06-17T14:34:45Z</time>
      </trkpt>
      <trkpt lat="44.23771" lon="3.73815">
        <ele>808</ele>
        <time>2015-06-17T14:34:49Z</time>
      </trkpt>
      <trkpt lat="44.23767" lon="3.73812">
        <ele>808</ele>
        <time>2015-06-17T14:34:54Z</time>
      </trkpt>
      <trkpt lat="44.23761" lon="3.73812">
        <ele>807</ele>
        <time>2015-06-17T14:34:58Z</time>
      </trkpt>
      <trkpt lat="44.23756" lon="3.73811">
        <ele>807</ele>
        <time>2015-06-17T14:35:01Z</time>
      </trkpt>
      <trkpt lat="44.23751" lon="3.73811">
        <ele>807</ele>
        <time>2015-06-17T14:35:04Z</time>
      </trkpt>
      <trkpt lat="44.23747" lon="3.73814">
        <ele>796</ele>
        <time>2015-06-17T14:35:07Z</time>
      </trkpt>
      <trkpt lat="44.23743" lon="3.73817">
        <ele>797</ele>
        <time>2015-06-17T14:35:10Z</time>
      </trkpt>
      <trkpt lat="44.23739" lon="3.73822">
        <ele>798</ele>
        <time>2015-06-17T14:35:14Z</time>
      </trkpt>
      <trkpt lat="44.23736" lon="3.73827">
        <ele>798</ele>
        <time>2015-06-17T14:35:17Z</time>
      </trkpt>
      <trkpt lat="44.23731" lon="3.73832">
        <ele>796</ele>
        <time>2015-06-17T14:35:22Z</time>
      </trkpt>
      <trkpt lat="44.23725" lon="3.73843">
        <ele>802</ele>
        <time>2015-06-17T14:35:27Z</time>
      </trkpt>
      <trkpt lat="44.23721" lon="3.73846">
        <ele>801</ele>
        <time>2015-06-17T14:35:31Z</time>
      </trkpt>
      <trkpt lat="44.23716" lon="3.7385">
        <ele>800</ele>
        <time>2015-06-17T14:35:36Z</time>
      </trkpt>
      <trkpt lat="44.23711" lon="3.73865">
        <ele>799</ele>
        <time>2015-06-17T14:35:46Z</time>
      </trkpt>
      <trkpt lat="44.2371" lon="3.73873">
        <ele>799</ele>
        <time>2015-06-17T14:35:49Z</time>
      </trkpt>
      <trkpt lat="44.23707" lon="3.73879">
        <ele>799</ele>
        <time>2015-06-17T14:35:52Z</time>
      </trkpt>
      <trkpt lat="44.23703" lon="3.73884">
        <ele>799</ele>
        <time>2015-06-17T14:35:56Z</time>
      </trkpt>
      <trkpt lat="44.23701" lon="3.73891">
        <ele>799</ele>
        <time>2015-06-17T14:36:00Z</time>
      </trkpt>
      <trkpt lat="44.23698" lon="3.73897">
        <ele>798</ele>
        <time>2015-06-17T14:36:04Z</time>
      </trkpt>
      <trkpt lat="44.23696" lon="3.73903">
        <ele>798</ele>
        <time>2015-06-17T14:36:08Z</time>
      </trkpt>
      <trkpt lat="44.23695" lon="3.7391">
        <ele>797</ele>
        <time>2015-06-17T14:36:12Z</time>
      </trkpt>
      <trkpt lat="44.23698" lon="3.73936">
        <ele>798</ele>
        <time>2015-06-17T14:36:25Z</time>
      </trkpt>
      <trkpt lat="44.237" lon="3.73943">
        <ele>798</ele>
        <time>2015-06-17T14:36:30Z</time>
      </trkpt>
      <trkpt lat="44.23704" lon="3.73948">
        <ele>799</ele>
        <time>2015-06-17T14:36:36Z</time>
      </trkpt>
      <trkpt lat="44.23714" lon="3.73963">
        <ele>800</ele>
        <time>2015-06-17T14:36:47Z</time>
      </trkpt>
      <trkpt lat="44.23722" lon="3.73981">
        <ele>801</ele>
        <time>2015-06-17T14:37:03Z</time>
      </trkpt>
      <trkpt lat="44.23726" lon="3.73986">
        <ele>801</ele>
        <time>2015-06-17T14:37:08Z</time>
      </trkpt>
      <trkpt lat="44.23729" lon="3.73991">
        <ele>802</ele>
        <time>2015-06-17T14:37:15Z</time>
      </trkpt>
      <trkpt lat="44.23736" lon="3.74002">
        <ele>800</ele>
        <time>2015-06-17T14:37:24Z</time>
      </trkpt>
      <trkpt lat="44.23752" lon="3.74039">
        <ele>810</ele>
        <time>2015-06-17T14:37:47Z</time>
      </trkpt>
      <trkpt lat="44.23755" lon="3.74044">
        <ele>810</ele>
        <time>2015-06-17T14:37:50Z</time>
      </trkpt>
      <trkpt lat="44.23757" lon="3.74051">
        <ele>809</ele>
        <time>2015-06-17T14:37:55Z</time>
      </trkpt>
      <trkpt lat="44.23758" lon="3.74058">
        <ele>808</ele>
        <time>2015-06-17T14:37:59Z</time>
      </trkpt>
      <trkpt lat="44.23757" lon="3.74096">
        <ele>799</ele>
        <time>2015-06-17T14:38:16Z</time>
      </trkpt>
      <trkpt lat="44.23754" lon="3.7411">
        <ele>800</ele>
        <time>2015-06-17T14:38:23Z</time>
      </trkpt>
      <trkpt lat="44.23751" lon="3.74118">
        <ele>800</ele>
        <time>2015-06-17T14:38:27Z</time>
      </trkpt>
      <trkpt lat="44.23751" lon="3.74133">
        <ele>800</ele>
        <time>2015-06-17T14:38:32Z</time>
      </trkpt>
      <trkpt lat="44.23748" lon="3.74139">
        <ele>786</ele>
        <time>2015-06-17T14:38:36Z</time>
      </trkpt>
      <trkpt lat="44.23743" lon="3.74138">
        <ele>785</ele>
        <time>2015-06-17T14:38:41Z</time>
      </trkpt>
      <trkpt lat="44.23747" lon="3.74134">
        <ele>785</ele>
        <time>2015-06-17T14:38:46Z</time>
      </trkpt>
      <trkpt lat="44.23745" lon="3.74126">
        <ele>785</ele>
        <time>2015-06-17T14:38:50Z</time>
      </trkpt>
      <trkpt lat="44.2375" lon="3.74127">
        <ele>800</ele>
        <time>2015-06-17T14:39:03Z</time>
      </trkpt>
      <trkpt lat="44.23755" lon="3.7414">
        <ele>799</ele>
        <time>2015-06-17T14:39:11Z</time>
      </trkpt>
      <trkpt lat="44.23752" lon="3.74145">
        <ele>798</ele>
        <time>2015-06-17T14:39:15Z</time>
      </trkpt>
      <trkpt lat="44.2375" lon="3.7414">
        <ele>786</ele>
        <time>2015-06-17T14:39:23Z</time>
      </trkpt>
      <trkpt lat="44.23751" lon="3.74139">
        <ele>799</ele>
        <time>2015-06-17T14:39:53Z</time>
      </trkpt>
      <trkpt lat="44.23744" lon="3.7414">
        <ele>786</ele>
        <time>2015-06-17T14:40:33Z</time>
      </trkpt>
      <trkpt lat="44.23748" lon="3.74143">
        <ele>786</ele>
        <time>2015-06-17T14:40:39Z</time>
      </trkpt>
      <trkpt lat="44.23745" lon="3.74142">
        <ele>786</ele>
        <time>2015-06-17T14:40:55Z</time>
      </trkpt>
      <trkpt lat="44.23744" lon="3.74141">
        <ele>786</ele>
        <time>2015-06-17T14:41:10Z</time>
      </trkpt>
      <trkpt lat="44.2373" lon="3.74095">
        <ele>786</ele>
        <time>2015-06-17T14:44:44Z</time>
      </trkpt>
      <trkpt lat="44.23717" lon="3.74072">
        <ele>788</ele>
        <time>2015-06-17T14:45:00Z</time>
      </trkpt>
      <trkpt lat="44.23715" lon="3.74066">
        <ele>788</ele>
        <time>2015-06-17T14:45:04Z</time>
      </trkpt>
      <trkpt lat="44.23718" lon="3.74072">
        <ele>788</ele>
        <time>2015-06-17T14:45:15Z</time>
      </trkpt>
      <trkpt lat="44.23716" lon="3.74079">
        <ele>788</ele>
        <time>2015-06-17T14:45:17Z</time>
      </trkpt>
      <trkpt lat="44.23712" lon="3.74086">
        <ele>782</ele>
        <time>2015-06-17T14:45:20Z</time>
      </trkpt>
      <trkpt lat="44.23713" lon="3.74093">
        <ele>783</ele>
        <time>2015-06-17T14:45:23Z</time>
      </trkpt>
      <trkpt lat="44.23707" lon="3.74097">
        <ele>781</ele>
        <time>2015-06-17T14:45:29Z</time>
      </trkpt>
      <trkpt lat="44.23703" lon="3.74102">
        <ele>781</ele>
        <time>2015-06-17T14:45:33Z</time>
      </trkpt>
      <trkpt lat="44.23708" lon="3.74106">
        <ele>781</ele>
        <time>2015-06-17T14:45:39Z</time>
      </trkpt>
      <trkpt lat="44.2371" lon="3.74112">
        <ele>782</ele>
        <time>2015-06-17T14:45:46Z</time>
      </trkpt>
      <trkpt lat="44.23706" lon="3.74119">
        <ele>781</ele>
        <time>2015-06-17T14:45:53Z</time>
      </trkpt>
      <trkpt lat="44.23702" lon="3.74123">
        <ele>780</ele>
        <time>2015-06-17T14:45:57Z</time>
      </trkpt>
      <trkpt lat="44.23698" lon="3.74127">
        <ele>780</ele>
        <time>2015-06-17T14:46:01Z</time>
      </trkpt>
      <trkpt lat="44.23694" lon="3.74123">
        <ele>779</ele>
        <time>2015-06-17T14:46:09Z</time>
      </trkpt>
      <trkpt lat="44.23689" lon="3.74121">
        <ele>779</ele>
        <time>2015-06-17T14:46:14Z</time>
      </trkpt>
      <trkpt lat="44.23689" lon="3.74128">
        <ele>779</ele>
        <time>2015-06-17T14:46:25Z</time>
      </trkpt>
      <trkpt lat="44.2369" lon="3.74129">
        <ele>779</ele>
        <time>2015-06-17T14:46:45Z</time>
      </trkpt>
      <trkpt lat="44.23693" lon="3.74126">
        <ele>779</ele>
        <time>2015-06-17T14:47:01Z</time>
      </trkpt>
      <trkpt lat="44.23689" lon="3.74123">
        <ele>779</ele>
        <time>2015-06-17T14:47:16Z</time>
      </trkpt>
      <trkpt lat="44.23689" lon="3.74122">
        <ele>779</ele>
        <time>2015-06-17T14:47:49Z</time>
      </trkpt>
      <trkpt lat="44.23694" lon="3.74068">
        <ele>783</ele>
        <time>2015-06-17T14:53:35Z</time>
      </trkpt>
      <trkpt lat="44.23691" lon="3.74063">
        <ele>783</ele>
        <time>2015-06-17T14:53:39Z</time>
      </trkpt>
      <trkpt lat="44.23688" lon="3.74057">
        <ele>784</ele>
        <time>2015-06-17T14:53:44Z</time>
      </trkpt>
      <trkpt lat="44.23684" lon="3.74054">
        <ele>783</ele>
        <time>2015-06-17T14:53:49Z</time>
      </trkpt>
      <trkpt lat="44.23682" lon="3.74052">
        <ele>784</ele>
        <time>2015-06-17T14:53:57Z</time>
      </trkpt>
      <trkpt lat="44.23728" lon="3.74099">
        <ele>785</ele>
        <time>2015-06-17T14:54:59Z</time>
      </trkpt>
      <trkpt lat="44.23723" lon="3.741">
        <ele>784</ele>
        <time>2015-06-17T14:55:05Z</time>
      </trkpt>
      <trkpt lat="44.23702" lon="3.74066">
        <ele>785</ele>
        <time>2015-06-17T14:55:13Z</time>
      </trkpt>
      <trkpt lat="44.23696" lon="3.74052">
        <ele>786</ele>
        <time>2015-06-17T14:55:17Z</time>
      </trkpt>
      <trkpt lat="44.23689" lon="3.74032">
        <ele>786</ele>
        <time>2015-06-17T14:55:23Z</time>
      </trkpt>
      <trkpt lat="44.23692" lon="3.74038">
        <ele>786</ele>
        <time>2015-06-17T14:55:30Z</time>
      </trkpt>
      <trkpt lat="44.23693" lon="3.74041">
        <ele>786</ele>
        <time>2015-06-17T14:55:54Z</time>
      </trkpt>
      <trkpt lat="44.23693" lon="3.74056">
        <ele>785</ele>
        <time>2015-06-17T14:56:09Z</time>
      </trkpt>
      <trkpt lat="44.23694" lon="3.74063">
        <ele>784</ele>
        <time>2015-06-17T14:56:16Z</time>
      </trkpt>
      <trkpt lat="44.23697" lon="3.7407">
        <ele>784</ele>
        <time>2015-06-17T14:56:20Z</time>
      </trkpt>
      <trkpt lat="44.23699" lon="3.74076">
        <ele>784</ele>
        <time>2015-06-17T14:56:22Z</time>
      </trkpt>
      <trkpt lat="44.237" lon="3.74084">
        <ele>780</ele>
        <time>2015-06-17T14:56:25Z</time>
      </trkpt>
      <trkpt lat="44.23697" lon="3.74089">
        <ele>779</ele>
        <time>2015-06-17T14:56:33Z</time>
      </trkpt>
      <trkpt lat="44.23694" lon="3.74093">
        <ele>778</ele>
        <time>2015-06-17T14:56:43Z</time>
      </trkpt>
      <trkpt lat="44.23689" lon="3.74096">
        <ele>777</ele>
        <time>2015-06-17T14:56:47Z</time>
      </trkpt>
      <trkpt lat="44.23684" lon="3.74101">
        <ele>777</ele>
        <time>2015-06-17T14:56:50Z</time>
      </trkpt>
      <trkpt lat="44.23682" lon="3.74108">
        <ele>777</ele>
        <time>2015-06-17T14:56:53Z</time>
      </trkpt>
      <trkpt lat="44.23682" lon="3.74116">
        <ele>778</ele>
        <time>2015-06-17T14:56:56Z</time>
      </trkpt>
      <trkpt lat="44.23687" lon="3.74114">
        <ele>778</ele>
        <time>2015-06-17T14:56:58Z</time>
      </trkpt>
      <trkpt lat="44.23686" lon="3.74114">
        <ele>778</ele>
        <time>2015-06-17T14:57:25Z</time>
      </trkpt>
      <trkpt lat="44.23689" lon="3.74116">
        <ele>779</ele>
        <time>2015-06-17T14:58:10Z</time>
      </trkpt>
      <trkpt lat="44.23692" lon="3.74115">
        <ele>779</ele>
        <time>2015-06-17T14:58:12Z</time>
      </trkpt>
      <trkpt lat="44.23697" lon="3.74112">
        <ele>779</ele>
        <time>2015-06-17T14:58:16Z</time>
      </trkpt>
      <trkpt lat="44.23701" lon="3.74107">
        <ele>780</ele>
        <time>2015-06-17T14:58:21Z</time>
      </trkpt>
      <trkpt lat="44.23704" lon="3.74108">
        <ele>781</ele>
        <time>2015-06-17T14:58:41Z</time>
      </trkpt>
      <trkpt lat="44.23705" lon="3.74107">
        <ele>781</ele>
        <time>2015-06-17T14:58:55Z</time>
      </trkpt>
      <trkpt lat="44.23705" lon="3.74106">
        <ele>781</ele>
        <time>2015-06-17T14:59:11Z</time>
      </trkpt>
      <trkpt lat="44.23706" lon="3.74096">
        <ele>781</ele>
        <time>2015-06-17T14:59:35Z</time>
      </trkpt>
      <trkpt lat="44.23702" lon="3.74069">
        <ele>785</ele>
        <time>2015-06-17T14:59:48Z</time>
      </trkpt>
      <trkpt lat="44.237" lon="3.74063">
        <ele>785</ele>
        <time>2015-06-17T14:59:54Z</time>
      </trkpt>
      <trkpt lat="44.23697" lon="3.74059">
        <ele>785</ele>
        <time>2015-06-17T15:00:06Z</time>
      </trkpt>
    </trkseg>
  </trk>
</gpx>